<?xml version="1.0" encoding="UTF-8" ?>
<gpx xmlns="http://www.topografix.com/GPX/1/1" version="1.1" creator="RouteGadget GPS Tracking" xmlns:xsi="http://www.w3.org/2001/XMLSchema-instance" xmlns:tp1="http://www.garmin.com/xmlschemas/TrackPointExtension/v1" xsi:schemaLocation="http://www.topografix.com/GPX/1/1 http://www.topografix.com/GPX/1/1/gpx.xsd http://www.garmin.com/xmlschemas/TrackPointExtension/v1 http://www.garmin.com/xmlschemas/TrackPointExtensionv1.xsd">
<trk>
<trkseg><trkpt lat="46.042332" lon="11.172276">
<time>2020-10-28T17:56:28Z</time>
</trkpt>
<trkpt lat="46.042332" lon="11.172276">
<time>2020-10-28T17:56:29Z</time>
</trkpt>
<trkpt lat="46.042326" lon="11.172274">
<time>2020-10-28T17:56:30Z</time>
</trkpt>
<trkpt lat="46.042304" lon="11.172281">
<time>2020-10-28T17:56:31Z</time>
</trkpt>
<trkpt lat="46.042284" lon="11.172287">
<time>2020-10-28T17:56:32Z</time>
</trkpt>
<trkpt lat="46.042266" lon="11.172297">
<time>2020-10-28T17:56:33Z</time>
</trkpt>
<trkpt lat="46.042252" lon="11.172305">
<time>2020-10-28T17:56:34Z</time>
</trkpt>
<trkpt lat="46.042232" lon="11.17232">
<time>2020-10-28T17:56:35Z</time>
</trkpt>
<trkpt lat="46.042214" lon="11.172342">
<time>2020-10-28T17:56:36Z</time>
</trkpt>
<trkpt lat="46.042195" lon="11.172359">
<time>2020-10-28T17:56:37Z</time>
</trkpt>
<trkpt lat="46.042186" lon="11.172369">
<time>2020-10-28T17:56:38Z</time>
</trkpt>
<trkpt lat="46.042181" lon="11.172376">
<time>2020-10-28T17:56:39Z</time>
</trkpt>
<trkpt lat="46.042178" lon="11.172392">
<time>2020-10-28T17:56:40Z</time>
</trkpt>
<trkpt lat="46.042173" lon="11.172413">
<time>2020-10-28T17:56:41Z</time>
</trkpt>
<trkpt lat="46.042165" lon="11.172434">
<time>2020-10-28T17:56:42Z</time>
</trkpt>
<trkpt lat="46.042151" lon="11.172454">
<time>2020-10-28T17:56:43Z</time>
</trkpt>
<trkpt lat="46.04214" lon="11.172481">
<time>2020-10-28T17:56:44Z</time>
</trkpt>
<trkpt lat="46.042139" lon="11.17251">
<time>2020-10-28T17:56:45Z</time>
</trkpt>
<trkpt lat="46.042128" lon="11.172538">
<time>2020-10-28T17:56:46Z</time>
</trkpt>
<trkpt lat="46.042108" lon="11.17257">
<time>2020-10-28T17:56:47Z</time>
</trkpt>
<trkpt lat="46.042094" lon="11.172605">
<time>2020-10-28T17:56:48Z</time>
</trkpt>
<trkpt lat="46.042079" lon="11.172631">
<time>2020-10-28T17:56:49Z</time>
</trkpt>
<trkpt lat="46.042072" lon="11.172651">
<time>2020-10-28T17:56:50Z</time>
</trkpt>
<trkpt lat="46.042062" lon="11.172672">
<time>2020-10-28T17:56:51Z</time>
</trkpt>
<trkpt lat="46.042054" lon="11.172693">
<time>2020-10-28T17:56:52Z</time>
</trkpt>
<trkpt lat="46.042038" lon="11.172714">
<time>2020-10-28T17:56:53Z</time>
</trkpt>
<trkpt lat="46.042018" lon="11.172721">
<time>2020-10-28T17:56:54Z</time>
</trkpt>
<trkpt lat="46.041993" lon="11.17273">
<time>2020-10-28T17:56:55Z</time>
</trkpt>
<trkpt lat="46.041978" lon="11.172749">
<time>2020-10-28T17:56:56Z</time>
</trkpt>
<trkpt lat="46.04197" lon="11.172778">
<time>2020-10-28T17:56:57Z</time>
</trkpt>
<trkpt lat="46.041951" lon="11.172804">
<time>2020-10-28T17:56:58Z</time>
</trkpt>
<trkpt lat="46.041944" lon="11.172836">
<time>2020-10-28T17:56:59Z</time>
</trkpt>
<trkpt lat="46.041948" lon="11.172866">
<time>2020-10-28T17:57:00Z</time>
</trkpt>
<trkpt lat="46.041954" lon="11.172894">
<time>2020-10-28T17:57:01Z</time>
</trkpt>
<trkpt lat="46.041951" lon="11.172919">
<time>2020-10-28T17:57:02Z</time>
</trkpt>
<trkpt lat="46.041943" lon="11.172936">
<time>2020-10-28T17:57:03Z</time>
</trkpt>
<trkpt lat="46.041937" lon="11.172953">
<time>2020-10-28T17:57:04Z</time>
</trkpt>
<trkpt lat="46.041935" lon="11.172976">
<time>2020-10-28T17:57:05Z</time>
</trkpt>
<trkpt lat="46.041932" lon="11.172999">
<time>2020-10-28T17:57:06Z</time>
</trkpt>
<trkpt lat="46.041932" lon="11.173026">
<time>2020-10-28T17:57:07Z</time>
</trkpt>
<trkpt lat="46.041926" lon="11.173042">
<time>2020-10-28T17:57:08Z</time>
</trkpt>
<trkpt lat="46.041919" lon="11.17306">
<time>2020-10-28T17:57:09Z</time>
</trkpt>
<trkpt lat="46.041914" lon="11.173083">
<time>2020-10-28T17:57:10Z</time>
</trkpt>
<trkpt lat="46.041909" lon="11.173111">
<time>2020-10-28T17:57:11Z</time>
</trkpt>
<trkpt lat="46.041905" lon="11.173136">
<time>2020-10-28T17:57:12Z</time>
</trkpt>
<trkpt lat="46.041898" lon="11.17316">
<time>2020-10-28T17:57:13Z</time>
</trkpt>
<trkpt lat="46.041891" lon="11.173182">
<time>2020-10-28T17:57:14Z</time>
</trkpt>
<trkpt lat="46.041895" lon="11.173209">
<time>2020-10-28T17:57:15Z</time>
</trkpt>
<trkpt lat="46.041916" lon="11.173242">
<time>2020-10-28T17:57:16Z</time>
</trkpt>
<trkpt lat="46.041949" lon="11.173273">
<time>2020-10-28T17:57:17Z</time>
</trkpt>
<trkpt lat="46.041983" lon="11.173307">
<time>2020-10-28T17:57:18Z</time>
</trkpt>
<trkpt lat="46.042017" lon="11.173333">
<time>2020-10-28T17:57:19Z</time>
</trkpt>
<trkpt lat="46.042051" lon="11.173361">
<time>2020-10-28T17:57:20Z</time>
</trkpt>
<trkpt lat="46.042084" lon="11.173384">
<time>2020-10-28T17:57:21Z</time>
</trkpt>
<trkpt lat="46.042112" lon="11.173401">
<time>2020-10-28T17:57:22Z</time>
</trkpt>
<trkpt lat="46.042142" lon="11.173413">
<time>2020-10-28T17:57:23Z</time>
</trkpt>
<trkpt lat="46.04217" lon="11.173429">
<time>2020-10-28T17:57:24Z</time>
</trkpt>
<trkpt lat="46.042187" lon="11.173454">
<time>2020-10-28T17:57:25Z</time>
</trkpt>
<trkpt lat="46.042205" lon="11.173474">
<time>2020-10-28T17:57:26Z</time>
</trkpt>
<trkpt lat="46.042226" lon="11.173499">
<time>2020-10-28T17:57:27Z</time>
</trkpt>
<trkpt lat="46.042248" lon="11.173515">
<time>2020-10-28T17:57:28Z</time>
</trkpt>
<trkpt lat="46.042278" lon="11.173527">
<time>2020-10-28T17:57:29Z</time>
</trkpt>
<trkpt lat="46.042311" lon="11.173536">
<time>2020-10-28T17:57:30Z</time>
</trkpt>
<trkpt lat="46.042351" lon="11.173552">
<time>2020-10-28T17:57:31Z</time>
</trkpt>
<trkpt lat="46.042392" lon="11.17357">
<time>2020-10-28T17:57:32Z</time>
</trkpt>
<trkpt lat="46.042433" lon="11.173586">
<time>2020-10-28T17:57:33Z</time>
</trkpt>
<trkpt lat="46.042467" lon="11.173602">
<time>2020-10-28T17:57:34Z</time>
</trkpt>
<trkpt lat="46.042496" lon="11.173624">
<time>2020-10-28T17:57:35Z</time>
</trkpt>
<trkpt lat="46.042524" lon="11.173645">
<time>2020-10-28T17:57:36Z</time>
</trkpt>
<trkpt lat="46.042551" lon="11.173667">
<time>2020-10-28T17:57:37Z</time>
</trkpt>
<trkpt lat="46.042578" lon="11.173681">
<time>2020-10-28T17:57:38Z</time>
</trkpt>
<trkpt lat="46.042604" lon="11.173691">
<time>2020-10-28T17:57:39Z</time>
</trkpt>
<trkpt lat="46.042629" lon="11.173696">
<time>2020-10-28T17:57:40Z</time>
</trkpt>
<trkpt lat="46.042654" lon="11.1737">
<time>2020-10-28T17:57:41Z</time>
</trkpt>
<trkpt lat="46.042686" lon="11.173716">
<time>2020-10-28T17:57:42Z</time>
</trkpt>
<trkpt lat="46.042718" lon="11.173732">
<time>2020-10-28T17:57:43Z</time>
</trkpt>
<trkpt lat="46.042752" lon="11.173755">
<time>2020-10-28T17:57:44Z</time>
</trkpt>
<trkpt lat="46.042783" lon="11.173779">
<time>2020-10-28T17:57:45Z</time>
</trkpt>
<trkpt lat="46.042816" lon="11.173799">
<time>2020-10-28T17:57:46Z</time>
</trkpt>
<trkpt lat="46.042853" lon="11.173822">
<time>2020-10-28T17:57:47Z</time>
</trkpt>
<trkpt lat="46.042881" lon="11.173841">
<time>2020-10-28T17:57:48Z</time>
</trkpt>
<trkpt lat="46.042912" lon="11.173865">
<time>2020-10-28T17:57:49Z</time>
</trkpt>
<trkpt lat="46.042936" lon="11.173892">
<time>2020-10-28T17:57:50Z</time>
</trkpt>
<trkpt lat="46.042961" lon="11.173915">
<time>2020-10-28T17:57:51Z</time>
</trkpt>
<trkpt lat="46.042988" lon="11.173938">
<time>2020-10-28T17:57:52Z</time>
</trkpt>
<trkpt lat="46.043019" lon="11.173959">
<time>2020-10-28T17:57:53Z</time>
</trkpt>
<trkpt lat="46.043035" lon="11.173967">
<time>2020-10-28T17:57:54Z</time>
</trkpt>
<trkpt lat="46.043056" lon="11.17398">
<time>2020-10-28T17:57:55Z</time>
</trkpt>
<trkpt lat="46.043079" lon="11.173996">
<time>2020-10-28T17:57:56Z</time>
</trkpt>
<trkpt lat="46.043102" lon="11.174016">
<time>2020-10-28T17:57:57Z</time>
</trkpt>
<trkpt lat="46.043123" lon="11.174043">
<time>2020-10-28T17:57:58Z</time>
</trkpt>
<trkpt lat="46.043144" lon="11.174076">
<time>2020-10-28T17:57:59Z</time>
</trkpt>
<trkpt lat="46.043167" lon="11.174114">
<time>2020-10-28T17:58:00Z</time>
</trkpt>
<trkpt lat="46.04319" lon="11.174153">
<time>2020-10-28T17:58:01Z</time>
</trkpt>
<trkpt lat="46.043215" lon="11.174187">
<time>2020-10-28T17:58:02Z</time>
</trkpt>
<trkpt lat="46.043242" lon="11.174221">
<time>2020-10-28T17:58:03Z</time>
</trkpt>
<trkpt lat="46.043265" lon="11.174253">
<time>2020-10-28T17:58:04Z</time>
</trkpt>
<trkpt lat="46.043287" lon="11.174284">
<time>2020-10-28T17:58:05Z</time>
</trkpt>
<trkpt lat="46.043308" lon="11.174323">
<time>2020-10-28T17:58:06Z</time>
</trkpt>
<trkpt lat="46.043328" lon="11.174363">
<time>2020-10-28T17:58:07Z</time>
</trkpt>
<trkpt lat="46.043344" lon="11.174396">
<time>2020-10-28T17:58:08Z</time>
</trkpt>
<trkpt lat="46.043364" lon="11.174436">
<time>2020-10-28T17:58:09Z</time>
</trkpt>
<trkpt lat="46.04338" lon="11.174483">
<time>2020-10-28T17:58:10Z</time>
</trkpt>
<trkpt lat="46.043384" lon="11.174535">
<time>2020-10-28T17:58:11Z</time>
</trkpt>
<trkpt lat="46.043396" lon="11.174582">
<time>2020-10-28T17:58:12Z</time>
</trkpt>
<trkpt lat="46.043405" lon="11.174614">
<time>2020-10-28T17:58:13Z</time>
</trkpt>
<trkpt lat="46.043417" lon="11.174647">
<time>2020-10-28T17:58:14Z</time>
</trkpt>
<trkpt lat="46.043426" lon="11.174681">
<time>2020-10-28T17:58:15Z</time>
</trkpt>
<trkpt lat="46.04345" lon="11.174714">
<time>2020-10-28T17:58:16Z</time>
</trkpt>
<trkpt lat="46.043464" lon="11.174741">
<time>2020-10-28T17:58:17Z</time>
</trkpt>
<trkpt lat="46.043482" lon="11.174773">
<time>2020-10-28T17:58:18Z</time>
</trkpt>
<trkpt lat="46.043495" lon="11.174807">
<time>2020-10-28T17:58:19Z</time>
</trkpt>
<trkpt lat="46.04351" lon="11.174836">
<time>2020-10-28T17:58:20Z</time>
</trkpt>
<trkpt lat="46.043529" lon="11.174865">
<time>2020-10-28T17:58:21Z</time>
</trkpt>
<trkpt lat="46.043551" lon="11.17489">
<time>2020-10-28T17:58:22Z</time>
</trkpt>
<trkpt lat="46.04357" lon="11.174928">
<time>2020-10-28T17:58:23Z</time>
</trkpt>
<trkpt lat="46.043576" lon="11.174959">
<time>2020-10-28T17:58:24Z</time>
</trkpt>
<trkpt lat="46.043583" lon="11.174981">
<time>2020-10-28T17:58:25Z</time>
</trkpt>
<trkpt lat="46.043592" lon="11.17502">
<time>2020-10-28T17:58:26Z</time>
</trkpt>
<trkpt lat="46.043592" lon="11.175075">
<time>2020-10-28T17:58:27Z</time>
</trkpt>
<trkpt lat="46.043597" lon="11.175107">
<time>2020-10-28T17:58:28Z</time>
</trkpt>
<trkpt lat="46.043603" lon="11.175138">
<time>2020-10-28T17:58:29Z</time>
</trkpt>
<trkpt lat="46.043614" lon="11.175161">
<time>2020-10-28T17:58:30Z</time>
</trkpt>
<trkpt lat="46.043611" lon="11.175197">
<time>2020-10-28T17:58:31Z</time>
</trkpt>
<trkpt lat="46.043617" lon="11.175229">
<time>2020-10-28T17:58:32Z</time>
</trkpt>
<trkpt lat="46.043619" lon="11.175263">
<time>2020-10-28T17:58:33Z</time>
</trkpt>
<trkpt lat="46.043615" lon="11.17529">
<time>2020-10-28T17:58:34Z</time>
</trkpt>
<trkpt lat="46.043613" lon="11.175319">
<time>2020-10-28T17:58:35Z</time>
</trkpt>
<trkpt lat="46.043616" lon="11.175345">
<time>2020-10-28T17:58:36Z</time>
</trkpt>
<trkpt lat="46.043608" lon="11.175358">
<time>2020-10-28T17:58:37Z</time>
</trkpt>
<trkpt lat="46.043599" lon="11.175364">
<time>2020-10-28T17:58:38Z</time>
</trkpt>
<trkpt lat="46.043591" lon="11.175372">
<time>2020-10-28T17:58:39Z</time>
</trkpt>
<trkpt lat="46.043595" lon="11.175381">
<time>2020-10-28T17:58:40Z</time>
</trkpt>
<trkpt lat="46.043597" lon="11.175388">
<time>2020-10-28T17:58:41Z</time>
</trkpt>
<trkpt lat="46.043593" lon="11.175394">
<time>2020-10-28T17:58:42Z</time>
</trkpt>
<trkpt lat="46.043601" lon="11.175405">
<time>2020-10-28T17:58:43Z</time>
</trkpt>
<trkpt lat="46.043601" lon="11.175407">
<time>2020-10-28T17:58:44Z</time>
</trkpt>
<trkpt lat="46.043596" lon="11.175409">
<time>2020-10-28T17:58:45Z</time>
</trkpt>
<trkpt lat="46.043597" lon="11.175406">
<time>2020-10-28T17:58:46Z</time>
</trkpt>
<trkpt lat="46.043594" lon="11.175414">
<time>2020-10-28T17:58:47Z</time>
</trkpt>
<trkpt lat="46.043599" lon="11.17543">
<time>2020-10-28T17:58:48Z</time>
</trkpt>
<trkpt lat="46.043603" lon="11.175449">
<time>2020-10-28T17:58:49Z</time>
</trkpt>
<trkpt lat="46.043601" lon="11.175458">
<time>2020-10-28T17:58:50Z</time>
</trkpt>
<trkpt lat="46.043596" lon="11.175466">
<time>2020-10-28T17:58:51Z</time>
</trkpt>
<trkpt lat="46.043595" lon="11.175471">
<time>2020-10-28T17:58:52Z</time>
</trkpt>
<trkpt lat="46.043593" lon="11.175477">
<time>2020-10-28T17:58:53Z</time>
</trkpt>
<trkpt lat="46.043597" lon="11.175481">
<time>2020-10-28T17:58:54Z</time>
</trkpt>
<trkpt lat="46.0436" lon="11.175479">
<time>2020-10-28T17:58:55Z</time>
</trkpt>
<trkpt lat="46.043594" lon="11.175481">
<time>2020-10-28T17:58:56Z</time>
</trkpt>
<trkpt lat="46.043586" lon="11.175485">
<time>2020-10-28T17:58:57Z</time>
</trkpt>
<trkpt lat="46.043583" lon="11.175492">
<time>2020-10-28T17:58:58Z</time>
</trkpt>
<trkpt lat="46.043587" lon="11.175501">
<time>2020-10-28T17:58:59Z</time>
</trkpt>
<trkpt lat="46.043595" lon="11.175517">
<time>2020-10-28T17:59:00Z</time>
</trkpt>
<trkpt lat="46.043602" lon="11.175532">
<time>2020-10-28T17:59:01Z</time>
</trkpt>
<trkpt lat="46.043607" lon="11.17555">
<time>2020-10-28T17:59:02Z</time>
</trkpt>
<trkpt lat="46.043612" lon="11.175563">
<time>2020-10-28T17:59:03Z</time>
</trkpt>
<trkpt lat="46.043606" lon="11.175567">
<time>2020-10-28T17:59:04Z</time>
</trkpt>
<trkpt lat="46.043599" lon="11.175567">
<time>2020-10-28T17:59:05Z</time>
</trkpt>
<trkpt lat="46.043592" lon="11.175572">
<time>2020-10-28T17:59:06Z</time>
</trkpt>
<trkpt lat="46.043583" lon="11.17558">
<time>2020-10-28T17:59:07Z</time>
</trkpt>
<trkpt lat="46.04358" lon="11.175587">
<time>2020-10-28T17:59:08Z</time>
</trkpt>
<trkpt lat="46.043583" lon="11.175591">
<time>2020-10-28T17:59:09Z</time>
</trkpt>
<trkpt lat="46.043589" lon="11.175606">
<time>2020-10-28T17:59:10Z</time>
</trkpt>
<trkpt lat="46.043592" lon="11.175623">
<time>2020-10-28T17:59:11Z</time>
</trkpt>
<trkpt lat="46.0436" lon="11.175641">
<time>2020-10-28T17:59:12Z</time>
</trkpt>
<trkpt lat="46.043608" lon="11.17566">
<time>2020-10-28T17:59:13Z</time>
</trkpt>
<trkpt lat="46.043612" lon="11.175669">
<time>2020-10-28T17:59:14Z</time>
</trkpt>
<trkpt lat="46.043619" lon="11.175681">
<time>2020-10-28T17:59:15Z</time>
</trkpt>
<trkpt lat="46.043631" lon="11.175689">
<time>2020-10-28T17:59:16Z</time>
</trkpt>
<trkpt lat="46.043646" lon="11.175707">
<time>2020-10-28T17:59:17Z</time>
</trkpt>
<trkpt lat="46.043663" lon="11.17572">
<time>2020-10-28T17:59:18Z</time>
</trkpt>
<trkpt lat="46.043677" lon="11.175729">
<time>2020-10-28T17:59:19Z</time>
</trkpt>
<trkpt lat="46.043682" lon="11.175741">
<time>2020-10-28T17:59:20Z</time>
</trkpt>
<trkpt lat="46.043681" lon="11.17575">
<time>2020-10-28T17:59:21Z</time>
</trkpt>
<trkpt lat="46.043682" lon="11.175757">
<time>2020-10-28T17:59:22Z</time>
</trkpt>
<trkpt lat="46.043688" lon="11.175768">
<time>2020-10-28T17:59:23Z</time>
</trkpt>
<trkpt lat="46.043692" lon="11.175782">
<time>2020-10-28T17:59:24Z</time>
</trkpt>
<trkpt lat="46.043693" lon="11.175785">
<time>2020-10-28T17:59:25Z</time>
</trkpt>
<trkpt lat="46.0437" lon="11.175784">
<time>2020-10-28T17:59:26Z</time>
</trkpt>
<trkpt lat="46.043718" lon="11.175791">
<time>2020-10-28T17:59:27Z</time>
</trkpt>
<trkpt lat="46.043728" lon="11.175811">
<time>2020-10-28T17:59:28Z</time>
</trkpt>
<trkpt lat="46.043753" lon="11.175832">
<time>2020-10-28T17:59:29Z</time>
</trkpt>
<trkpt lat="46.043774" lon="11.175846">
<time>2020-10-28T17:59:30Z</time>
</trkpt>
<trkpt lat="46.043795" lon="11.175871">
<time>2020-10-28T17:59:31Z</time>
</trkpt>
<trkpt lat="46.043814" lon="11.175902">
<time>2020-10-28T17:59:32Z</time>
</trkpt>
<trkpt lat="46.043834" lon="11.17591">
<time>2020-10-28T17:59:33Z</time>
</trkpt>
<trkpt lat="46.043852" lon="11.175912">
<time>2020-10-28T17:59:34Z</time>
</trkpt>
<trkpt lat="46.04387" lon="11.175907">
<time>2020-10-28T17:59:35Z</time>
</trkpt>
<trkpt lat="46.043881" lon="11.175913">
<time>2020-10-28T17:59:36Z</time>
</trkpt>
<trkpt lat="46.043889" lon="11.175926">
<time>2020-10-28T17:59:37Z</time>
</trkpt>
<trkpt lat="46.043897" lon="11.175937">
<time>2020-10-28T17:59:38Z</time>
</trkpt>
<trkpt lat="46.043909" lon="11.175948">
<time>2020-10-28T17:59:39Z</time>
</trkpt>
<trkpt lat="46.043921" lon="11.175959">
<time>2020-10-28T17:59:40Z</time>
</trkpt>
<trkpt lat="46.043936" lon="11.175968">
<time>2020-10-28T17:59:41Z</time>
</trkpt>
<trkpt lat="46.043945" lon="11.175974">
<time>2020-10-28T17:59:42Z</time>
</trkpt>
<trkpt lat="46.043969" lon="11.175985">
<time>2020-10-28T17:59:43Z</time>
</trkpt>
<trkpt lat="46.043979" lon="11.175988">
<time>2020-10-28T17:59:44Z</time>
</trkpt>
<trkpt lat="46.043992" lon="11.175989">
<time>2020-10-28T17:59:45Z</time>
</trkpt>
<trkpt lat="46.044007" lon="11.175989">
<time>2020-10-28T17:59:46Z</time>
</trkpt>
<trkpt lat="46.044008" lon="11.175991">
<time>2020-10-28T17:59:47Z</time>
</trkpt>
<trkpt lat="46.044003" lon="11.175987">
<time>2020-10-28T17:59:48Z</time>
</trkpt>
<trkpt lat="46.044003" lon="11.175983">
<time>2020-10-28T17:59:49Z</time>
</trkpt>
<trkpt lat="46.044009" lon="11.17599">
<time>2020-10-28T17:59:50Z</time>
</trkpt>
<trkpt lat="46.044017" lon="11.175998">
<time>2020-10-28T17:59:51Z</time>
</trkpt>
<trkpt lat="46.044024" lon="11.176007">
<time>2020-10-28T17:59:52Z</time>
</trkpt>
<trkpt lat="46.044034" lon="11.176019">
<time>2020-10-28T17:59:53Z</time>
</trkpt>
<trkpt lat="46.04404" lon="11.17603">
<time>2020-10-28T17:59:54Z</time>
</trkpt>
<trkpt lat="46.044043" lon="11.176043">
<time>2020-10-28T17:59:55Z</time>
</trkpt>
<trkpt lat="46.044043" lon="11.176055">
<time>2020-10-28T17:59:56Z</time>
</trkpt>
<trkpt lat="46.044045" lon="11.176065">
<time>2020-10-28T17:59:57Z</time>
</trkpt>
<trkpt lat="46.044055" lon="11.176078">
<time>2020-10-28T17:59:58Z</time>
</trkpt>
<trkpt lat="46.044058" lon="11.176085">
<time>2020-10-28T17:59:59Z</time>
</trkpt>
<trkpt lat="46.04406" lon="11.176093">
<time>2020-10-28T18:00:00Z</time>
</trkpt>
<trkpt lat="46.044059" lon="11.176093">
<time>2020-10-28T18:00:01Z</time>
</trkpt>
<trkpt lat="46.044059" lon="11.176092">
<time>2020-10-28T18:00:02Z</time>
</trkpt>
<trkpt lat="46.044059" lon="11.17609">
<time>2020-10-28T18:00:03Z</time>
</trkpt>
<trkpt lat="46.04406" lon="11.176095">
<time>2020-10-28T18:00:04Z</time>
</trkpt>
<trkpt lat="46.044059" lon="11.176098">
<time>2020-10-28T18:00:05Z</time>
</trkpt>
<trkpt lat="46.04406" lon="11.176098">
<time>2020-10-28T18:00:06Z</time>
</trkpt>
<trkpt lat="46.044062" lon="11.176095">
<time>2020-10-28T18:00:07Z</time>
</trkpt>
<trkpt lat="46.044066" lon="11.176094">
<time>2020-10-28T18:00:08Z</time>
</trkpt>
<trkpt lat="46.044069" lon="11.176097">
<time>2020-10-28T18:00:09Z</time>
</trkpt>
<trkpt lat="46.04407" lon="11.1761">
<time>2020-10-28T18:00:10Z</time>
</trkpt>
<trkpt lat="46.044068" lon="11.176098">
<time>2020-10-28T18:00:11Z</time>
</trkpt>
<trkpt lat="46.044071" lon="11.176095">
<time>2020-10-28T18:00:12Z</time>
</trkpt>
<trkpt lat="46.04408" lon="11.176105">
<time>2020-10-28T18:00:13Z</time>
</trkpt>
<trkpt lat="46.044088" lon="11.176113">
<time>2020-10-28T18:00:14Z</time>
</trkpt>
<trkpt lat="46.044096" lon="11.176121">
<time>2020-10-28T18:00:15Z</time>
</trkpt>
<trkpt lat="46.044102" lon="11.176136">
<time>2020-10-28T18:00:16Z</time>
</trkpt>
<trkpt lat="46.044108" lon="11.176138">
<time>2020-10-28T18:00:17Z</time>
</trkpt>
<trkpt lat="46.044113" lon="11.17615">
<time>2020-10-28T18:00:18Z</time>
</trkpt>
<trkpt lat="46.044129" lon="11.176164">
<time>2020-10-28T18:00:19Z</time>
</trkpt>
<trkpt lat="46.044155" lon="11.176177">
<time>2020-10-28T18:00:20Z</time>
</trkpt>
<trkpt lat="46.044188" lon="11.1762">
<time>2020-10-28T18:00:21Z</time>
</trkpt>
<trkpt lat="46.044194" lon="11.176226">
<time>2020-10-28T18:00:22Z</time>
</trkpt>
<trkpt lat="46.044192" lon="11.176242">
<time>2020-10-28T18:00:23Z</time>
</trkpt>
<trkpt lat="46.044195" lon="11.176255">
<time>2020-10-28T18:00:24Z</time>
</trkpt>
<trkpt lat="46.044203" lon="11.176271">
<time>2020-10-28T18:00:25Z</time>
</trkpt>
<trkpt lat="46.044212" lon="11.17628">
<time>2020-10-28T18:00:26Z</time>
</trkpt>
<trkpt lat="46.044218" lon="11.176287">
<time>2020-10-28T18:00:27Z</time>
</trkpt>
<trkpt lat="46.044223" lon="11.1763">
<time>2020-10-28T18:00:28Z</time>
</trkpt>
<trkpt lat="46.044226" lon="11.176307">
<time>2020-10-28T18:00:29Z</time>
</trkpt>
<trkpt lat="46.044229" lon="11.176315">
<time>2020-10-28T18:00:30Z</time>
</trkpt>
<trkpt lat="46.044232" lon="11.176324">
<time>2020-10-28T18:00:31Z</time>
</trkpt>
<trkpt lat="46.044228" lon="11.176324">
<time>2020-10-28T18:00:32Z</time>
</trkpt>
<trkpt lat="46.044221" lon="11.176324">
<time>2020-10-28T18:00:33Z</time>
</trkpt>
<trkpt lat="46.044213" lon="11.176327">
<time>2020-10-28T18:00:34Z</time>
</trkpt>
<trkpt lat="46.044202" lon="11.176332">
<time>2020-10-28T18:00:35Z</time>
</trkpt>
<trkpt lat="46.04419" lon="11.176343">
<time>2020-10-28T18:00:36Z</time>
</trkpt>
<trkpt lat="46.044189" lon="11.176362">
<time>2020-10-28T18:00:37Z</time>
</trkpt>
<trkpt lat="46.044204" lon="11.176378">
<time>2020-10-28T18:00:38Z</time>
</trkpt>
<trkpt lat="46.044211" lon="11.176397">
<time>2020-10-28T18:00:39Z</time>
</trkpt>
<trkpt lat="46.044223" lon="11.176426">
<time>2020-10-28T18:00:40Z</time>
</trkpt>
<trkpt lat="46.044235" lon="11.176447">
<time>2020-10-28T18:00:41Z</time>
</trkpt>
<trkpt lat="46.044245" lon="11.176451">
<time>2020-10-28T18:00:42Z</time>
</trkpt>
<trkpt lat="46.044255" lon="11.176447">
<time>2020-10-28T18:00:43Z</time>
</trkpt>
<trkpt lat="46.044258" lon="11.176444">
<time>2020-10-28T18:00:44Z</time>
</trkpt>
<trkpt lat="46.044267" lon="11.176447">
<time>2020-10-28T18:00:45Z</time>
</trkpt>
<trkpt lat="46.044285" lon="11.17645">
<time>2020-10-28T18:00:46Z</time>
</trkpt>
<trkpt lat="46.044302" lon="11.176459">
<time>2020-10-28T18:00:47Z</time>
</trkpt>
<trkpt lat="46.04431" lon="11.176457">
<time>2020-10-28T18:00:48Z</time>
</trkpt>
<trkpt lat="46.044316" lon="11.176457">
<time>2020-10-28T18:00:49Z</time>
</trkpt>
<trkpt lat="46.044325" lon="11.176462">
<time>2020-10-28T18:00:50Z</time>
</trkpt>
<trkpt lat="46.044337" lon="11.176475">
<time>2020-10-28T18:00:51Z</time>
</trkpt>
<trkpt lat="46.044345" lon="11.176487">
<time>2020-10-28T18:00:52Z</time>
</trkpt>
<trkpt lat="46.044346" lon="11.176499">
<time>2020-10-28T18:00:53Z</time>
</trkpt>
<trkpt lat="46.044347" lon="11.176509">
<time>2020-10-28T18:00:54Z</time>
</trkpt>
<trkpt lat="46.044345" lon="11.17651">
<time>2020-10-28T18:00:55Z</time>
</trkpt>
<trkpt lat="46.044343" lon="11.176511">
<time>2020-10-28T18:00:56Z</time>
</trkpt>
<trkpt lat="46.04434" lon="11.176512">
<time>2020-10-28T18:00:57Z</time>
</trkpt>
<trkpt lat="46.044333" lon="11.176517">
<time>2020-10-28T18:00:58Z</time>
</trkpt>
<trkpt lat="46.044328" lon="11.176516">
<time>2020-10-28T18:00:59Z</time>
</trkpt>
<trkpt lat="46.044328" lon="11.176517">
<time>2020-10-28T18:01:00Z</time>
</trkpt>
<trkpt lat="46.044333" lon="11.176522">
<time>2020-10-28T18:01:01Z</time>
</trkpt>
<trkpt lat="46.044336" lon="11.176534">
<time>2020-10-28T18:01:02Z</time>
</trkpt>
<trkpt lat="46.04433" lon="11.176538">
<time>2020-10-28T18:01:03Z</time>
</trkpt>
<trkpt lat="46.044319" lon="11.176539">
<time>2020-10-28T18:01:04Z</time>
</trkpt>
<trkpt lat="46.044306" lon="11.176535">
<time>2020-10-28T18:01:05Z</time>
</trkpt>
<trkpt lat="46.044302" lon="11.176536">
<time>2020-10-28T18:01:06Z</time>
</trkpt>
<trkpt lat="46.0443" lon="11.176541">
<time>2020-10-28T18:01:07Z</time>
</trkpt>
<trkpt lat="46.044303" lon="11.176549">
<time>2020-10-28T18:01:08Z</time>
</trkpt>
<trkpt lat="46.044307" lon="11.176557">
<time>2020-10-28T18:01:09Z</time>
</trkpt>
<trkpt lat="46.044314" lon="11.176564">
<time>2020-10-28T18:01:10Z</time>
</trkpt>
<trkpt lat="46.044321" lon="11.176577">
<time>2020-10-28T18:01:11Z</time>
</trkpt>
<trkpt lat="46.044324" lon="11.17659">
<time>2020-10-28T18:01:12Z</time>
</trkpt>
<trkpt lat="46.044328" lon="11.176602">
<time>2020-10-28T18:01:13Z</time>
</trkpt>
<trkpt lat="46.044337" lon="11.176612">
<time>2020-10-28T18:01:14Z</time>
</trkpt>
<trkpt lat="46.044345" lon="11.176612">
<time>2020-10-28T18:01:15Z</time>
</trkpt>
<trkpt lat="46.044353" lon="11.176614">
<time>2020-10-28T18:01:16Z</time>
</trkpt>
<trkpt lat="46.044363" lon="11.176622">
<time>2020-10-28T18:01:17Z</time>
</trkpt>
<trkpt lat="46.044377" lon="11.176638">
<time>2020-10-28T18:01:18Z</time>
</trkpt>
<trkpt lat="46.044391" lon="11.176646">
<time>2020-10-28T18:01:19Z</time>
</trkpt>
<trkpt lat="46.044401" lon="11.176651">
<time>2020-10-28T18:01:20Z</time>
</trkpt>
<trkpt lat="46.04441" lon="11.176659">
<time>2020-10-28T18:01:21Z</time>
</trkpt>
<trkpt lat="46.044417" lon="11.176667">
<time>2020-10-28T18:01:22Z</time>
</trkpt>
<trkpt lat="46.044415" lon="11.176677">
<time>2020-10-28T18:01:23Z</time>
</trkpt>
<trkpt lat="46.044419" lon="11.176689">
<time>2020-10-28T18:01:24Z</time>
</trkpt>
<trkpt lat="46.044425" lon="11.176704">
<time>2020-10-28T18:01:25Z</time>
</trkpt>
<trkpt lat="46.044436" lon="11.176718">
<time>2020-10-28T18:01:26Z</time>
</trkpt>
<trkpt lat="46.044449" lon="11.176747">
<time>2020-10-28T18:01:27Z</time>
</trkpt>
<trkpt lat="46.044464" lon="11.176782">
<time>2020-10-28T18:01:28Z</time>
</trkpt>
<trkpt lat="46.044478" lon="11.176808">
<time>2020-10-28T18:01:29Z</time>
</trkpt>
<trkpt lat="46.044489" lon="11.176823">
<time>2020-10-28T18:01:30Z</time>
</trkpt>
<trkpt lat="46.044495" lon="11.176825">
<time>2020-10-28T18:01:31Z</time>
</trkpt>
<trkpt lat="46.044499" lon="11.176832">
<time>2020-10-28T18:01:32Z</time>
</trkpt>
<trkpt lat="46.044502" lon="11.176843">
<time>2020-10-28T18:01:33Z</time>
</trkpt>
<trkpt lat="46.044501" lon="11.176855">
<time>2020-10-28T18:01:34Z</time>
</trkpt>
<trkpt lat="46.044491" lon="11.176862">
<time>2020-10-28T18:01:35Z</time>
</trkpt>
<trkpt lat="46.044486" lon="11.17687">
<time>2020-10-28T18:01:36Z</time>
</trkpt>
<trkpt lat="46.044483" lon="11.176878">
<time>2020-10-28T18:01:37Z</time>
</trkpt>
<trkpt lat="46.044483" lon="11.176883">
<time>2020-10-28T18:01:38Z</time>
</trkpt>
<trkpt lat="46.044483" lon="11.176887">
<time>2020-10-28T18:01:39Z</time>
</trkpt>
<trkpt lat="46.044487" lon="11.176892">
<time>2020-10-28T18:01:40Z</time>
</trkpt>
<trkpt lat="46.044481" lon="11.176889">
<time>2020-10-28T18:01:41Z</time>
</trkpt>
<trkpt lat="46.044484" lon="11.176887">
<time>2020-10-28T18:01:42Z</time>
</trkpt>
<trkpt lat="46.044494" lon="11.176891">
<time>2020-10-28T18:01:43Z</time>
</trkpt>
<trkpt lat="46.044503" lon="11.176903">
<time>2020-10-28T18:01:44Z</time>
</trkpt>
<trkpt lat="46.044505" lon="11.176918">
<time>2020-10-28T18:01:45Z</time>
</trkpt>
<trkpt lat="46.044502" lon="11.17693">
<time>2020-10-28T18:01:46Z</time>
</trkpt>
<trkpt lat="46.044498" lon="11.176935">
<time>2020-10-28T18:01:47Z</time>
</trkpt>
<trkpt lat="46.044486" lon="11.176932">
<time>2020-10-28T18:01:48Z</time>
</trkpt>
<trkpt lat="46.044482" lon="11.176936">
<time>2020-10-28T18:01:49Z</time>
</trkpt>
<trkpt lat="46.044476" lon="11.176944">
<time>2020-10-28T18:01:50Z</time>
</trkpt>
<trkpt lat="46.044479" lon="11.176961">
<time>2020-10-28T18:01:51Z</time>
</trkpt>
<trkpt lat="46.044484" lon="11.176981">
<time>2020-10-28T18:01:52Z</time>
</trkpt>
<trkpt lat="46.044483" lon="11.176995">
<time>2020-10-28T18:01:53Z</time>
</trkpt>
<trkpt lat="46.044475" lon="11.177005">
<time>2020-10-28T18:01:54Z</time>
</trkpt>
<trkpt lat="46.044472" lon="11.177026">
<time>2020-10-28T18:01:55Z</time>
</trkpt>
<trkpt lat="46.044469" lon="11.177039">
<time>2020-10-28T18:01:56Z</time>
</trkpt>
<trkpt lat="46.044457" lon="11.177051">
<time>2020-10-28T18:01:57Z</time>
</trkpt>
<trkpt lat="46.044448" lon="11.177063">
<time>2020-10-28T18:01:58Z</time>
</trkpt>
<trkpt lat="46.04444" lon="11.177079">
<time>2020-10-28T18:01:59Z</time>
</trkpt>
<trkpt lat="46.04444" lon="11.177093">
<time>2020-10-28T18:02:00Z</time>
</trkpt>
<trkpt lat="46.04444" lon="11.177105">
<time>2020-10-28T18:02:01Z</time>
</trkpt>
<trkpt lat="46.044444" lon="11.177119">
<time>2020-10-28T18:02:02Z</time>
</trkpt>
<trkpt lat="46.044451" lon="11.177129">
<time>2020-10-28T18:02:03Z</time>
</trkpt>
<trkpt lat="46.044453" lon="11.17714">
<time>2020-10-28T18:02:04Z</time>
</trkpt>
<trkpt lat="46.044452" lon="11.177137">
<time>2020-10-28T18:02:05Z</time>
</trkpt>
<trkpt lat="46.044448" lon="11.177136">
<time>2020-10-28T18:02:06Z</time>
</trkpt>
<trkpt lat="46.044447" lon="11.177141">
<time>2020-10-28T18:02:07Z</time>
</trkpt>
<trkpt lat="46.044442" lon="11.177141">
<time>2020-10-28T18:02:08Z</time>
</trkpt>
<trkpt lat="46.04444" lon="11.177144">
<time>2020-10-28T18:02:09Z</time>
</trkpt>
<trkpt lat="46.044438" lon="11.17716">
<time>2020-10-28T18:02:10Z</time>
</trkpt>
<trkpt lat="46.044435" lon="11.177177">
<time>2020-10-28T18:02:11Z</time>
</trkpt>
<trkpt lat="46.044428" lon="11.177194">
<time>2020-10-28T18:02:12Z</time>
</trkpt>
<trkpt lat="46.044436" lon="11.177212">
<time>2020-10-28T18:02:13Z</time>
</trkpt>
<trkpt lat="46.044448" lon="11.177227">
<time>2020-10-28T18:02:14Z</time>
</trkpt>
<trkpt lat="46.044458" lon="11.177245">
<time>2020-10-28T18:02:15Z</time>
</trkpt>
<trkpt lat="46.044467" lon="11.177259">
<time>2020-10-28T18:02:16Z</time>
</trkpt>
<trkpt lat="46.044471" lon="11.177269">
<time>2020-10-28T18:02:17Z</time>
</trkpt>
<trkpt lat="46.044479" lon="11.177279">
<time>2020-10-28T18:02:18Z</time>
</trkpt>
<trkpt lat="46.044486" lon="11.177292">
<time>2020-10-28T18:02:19Z</time>
</trkpt>
<trkpt lat="46.044492" lon="11.1773">
<time>2020-10-28T18:02:20Z</time>
</trkpt>
<trkpt lat="46.044495" lon="11.177309">
<time>2020-10-28T18:02:21Z</time>
</trkpt>
<trkpt lat="46.044501" lon="11.177316">
<time>2020-10-28T18:02:22Z</time>
</trkpt>
<trkpt lat="46.044498" lon="11.177321">
<time>2020-10-28T18:02:23Z</time>
</trkpt>
<trkpt lat="46.044488" lon="11.17732">
<time>2020-10-28T18:02:24Z</time>
</trkpt>
<trkpt lat="46.044475" lon="11.177319">
<time>2020-10-28T18:02:25Z</time>
</trkpt>
<trkpt lat="46.044456" lon="11.177321">
<time>2020-10-28T18:02:26Z</time>
</trkpt>
<trkpt lat="46.04444" lon="11.177327">
<time>2020-10-28T18:02:27Z</time>
</trkpt>
<trkpt lat="46.044434" lon="11.177342">
<time>2020-10-28T18:02:28Z</time>
</trkpt>
<trkpt lat="46.044428" lon="11.177352">
<time>2020-10-28T18:02:29Z</time>
</trkpt>
<trkpt lat="46.044424" lon="11.177362">
<time>2020-10-28T18:02:30Z</time>
</trkpt>
<trkpt lat="46.044417" lon="11.177369">
<time>2020-10-28T18:02:31Z</time>
</trkpt>
<trkpt lat="46.044402" lon="11.177387">
<time>2020-10-28T18:02:32Z</time>
</trkpt>
<trkpt lat="46.044394" lon="11.177402">
<time>2020-10-28T18:02:33Z</time>
</trkpt>
<trkpt lat="46.044387" lon="11.17741">
<time>2020-10-28T18:02:34Z</time>
</trkpt>
<trkpt lat="46.044384" lon="11.177439">
<time>2020-10-28T18:02:35Z</time>
</trkpt>
<trkpt lat="46.044391" lon="11.17747">
<time>2020-10-28T18:02:36Z</time>
</trkpt>
<trkpt lat="46.04441" lon="11.177498">
<time>2020-10-28T18:02:37Z</time>
</trkpt>
<trkpt lat="46.044418" lon="11.177522">
<time>2020-10-28T18:02:38Z</time>
</trkpt>
<trkpt lat="46.044422" lon="11.177542">
<time>2020-10-28T18:02:39Z</time>
</trkpt>
<trkpt lat="46.044422" lon="11.177558">
<time>2020-10-28T18:02:40Z</time>
</trkpt>
<trkpt lat="46.044413" lon="11.177577">
<time>2020-10-28T18:02:41Z</time>
</trkpt>
<trkpt lat="46.044407" lon="11.177589">
<time>2020-10-28T18:02:42Z</time>
</trkpt>
<trkpt lat="46.044398" lon="11.177593">
<time>2020-10-28T18:02:43Z</time>
</trkpt>
<trkpt lat="46.044395" lon="11.177593">
<time>2020-10-28T18:02:44Z</time>
</trkpt>
<trkpt lat="46.044392" lon="11.177596">
<time>2020-10-28T18:02:45Z</time>
</trkpt>
<trkpt lat="46.044381" lon="11.177608">
<time>2020-10-28T18:02:46Z</time>
</trkpt>
<trkpt lat="46.044376" lon="11.177616">
<time>2020-10-28T18:02:47Z</time>
</trkpt>
<trkpt lat="46.044369" lon="11.177626">
<time>2020-10-28T18:02:48Z</time>
</trkpt>
<trkpt lat="46.044375" lon="11.177639">
<time>2020-10-28T18:02:49Z</time>
</trkpt>
<trkpt lat="46.044382" lon="11.177659">
<time>2020-10-28T18:02:50Z</time>
</trkpt>
<trkpt lat="46.04439" lon="11.177679">
<time>2020-10-28T18:02:51Z</time>
</trkpt>
<trkpt lat="46.044394" lon="11.1777">
<time>2020-10-28T18:02:52Z</time>
</trkpt>
<trkpt lat="46.044404" lon="11.177726">
<time>2020-10-28T18:02:53Z</time>
</trkpt>
<trkpt lat="46.044417" lon="11.17775">
<time>2020-10-28T18:02:54Z</time>
</trkpt>
<trkpt lat="46.044424" lon="11.177772">
<time>2020-10-28T18:02:55Z</time>
</trkpt>
<trkpt lat="46.044429" lon="11.177794">
<time>2020-10-28T18:02:56Z</time>
</trkpt>
<trkpt lat="46.044428" lon="11.177808">
<time>2020-10-28T18:02:57Z</time>
</trkpt>
<trkpt lat="46.04442" lon="11.177819">
<time>2020-10-28T18:02:58Z</time>
</trkpt>
<trkpt lat="46.044416" lon="11.177822">
<time>2020-10-28T18:02:59Z</time>
</trkpt>
<trkpt lat="46.044406" lon="11.177821">
<time>2020-10-28T18:03:00Z</time>
</trkpt>
<trkpt lat="46.044392" lon="11.177831">
<time>2020-10-28T18:03:01Z</time>
</trkpt>
<trkpt lat="46.044387" lon="11.177842">
<time>2020-10-28T18:03:02Z</time>
</trkpt>
<trkpt lat="46.044377" lon="11.177852">
<time>2020-10-28T18:03:03Z</time>
</trkpt>
<trkpt lat="46.044376" lon="11.177869">
<time>2020-10-28T18:03:04Z</time>
</trkpt>
<trkpt lat="46.044376" lon="11.177885">
<time>2020-10-28T18:03:05Z</time>
</trkpt>
<trkpt lat="46.044365" lon="11.177893">
<time>2020-10-28T18:03:06Z</time>
</trkpt>
<trkpt lat="46.044354" lon="11.177895">
<time>2020-10-28T18:03:07Z</time>
</trkpt>
<trkpt lat="46.044346" lon="11.177893">
<time>2020-10-28T18:03:08Z</time>
</trkpt>
<trkpt lat="46.044343" lon="11.177893">
<time>2020-10-28T18:03:09Z</time>
</trkpt>
<trkpt lat="46.044337" lon="11.177893">
<time>2020-10-28T18:03:10Z</time>
</trkpt>
<trkpt lat="46.044329" lon="11.177893">
<time>2020-10-28T18:03:11Z</time>
</trkpt>
<trkpt lat="46.044319" lon="11.177891">
<time>2020-10-28T18:03:12Z</time>
</trkpt>
<trkpt lat="46.044309" lon="11.177888">
<time>2020-10-28T18:03:13Z</time>
</trkpt>
<trkpt lat="46.044301" lon="11.177884">
<time>2020-10-28T18:03:14Z</time>
</trkpt>
<trkpt lat="46.044292" lon="11.177884">
<time>2020-10-28T18:03:15Z</time>
</trkpt>
<trkpt lat="46.044284" lon="11.177882">
<time>2020-10-28T18:03:16Z</time>
</trkpt>
<trkpt lat="46.044276" lon="11.177878">
<time>2020-10-28T18:03:17Z</time>
</trkpt>
<trkpt lat="46.044265" lon="11.17787">
<time>2020-10-28T18:03:18Z</time>
</trkpt>
<trkpt lat="46.044247" lon="11.177862">
<time>2020-10-28T18:03:19Z</time>
</trkpt>
<trkpt lat="46.044232" lon="11.177861">
<time>2020-10-28T18:03:20Z</time>
</trkpt>
<trkpt lat="46.044225" lon="11.177866">
<time>2020-10-28T18:03:21Z</time>
</trkpt>
<trkpt lat="46.044226" lon="11.177871">
<time>2020-10-28T18:03:22Z</time>
</trkpt>
<trkpt lat="46.044238" lon="11.177872">
<time>2020-10-28T18:03:23Z</time>
</trkpt>
<trkpt lat="46.044248" lon="11.177865">
<time>2020-10-28T18:03:24Z</time>
</trkpt>
<trkpt lat="46.044242" lon="11.177866">
<time>2020-10-28T18:03:25Z</time>
</trkpt>
<trkpt lat="46.044241" lon="11.177869">
<time>2020-10-28T18:03:26Z</time>
</trkpt>
<trkpt lat="46.044242" lon="11.177876">
<time>2020-10-28T18:03:27Z</time>
</trkpt>
<trkpt lat="46.044245" lon="11.177877">
<time>2020-10-28T18:03:28Z</time>
</trkpt>
<trkpt lat="46.044246" lon="11.177882">
<time>2020-10-28T18:03:29Z</time>
</trkpt>
<trkpt lat="46.044242" lon="11.177889">
<time>2020-10-28T18:03:30Z</time>
</trkpt>
<trkpt lat="46.044229" lon="11.177895">
<time>2020-10-28T18:03:31Z</time>
</trkpt>
<trkpt lat="46.044219" lon="11.177893">
<time>2020-10-28T18:03:32Z</time>
</trkpt>
<trkpt lat="46.044207" lon="11.177891">
<time>2020-10-28T18:03:33Z</time>
</trkpt>
<trkpt lat="46.044192" lon="11.177893">
<time>2020-10-28T18:03:34Z</time>
</trkpt>
<trkpt lat="46.044181" lon="11.1779">
<time>2020-10-28T18:03:35Z</time>
</trkpt>
<trkpt lat="46.044176" lon="11.177904">
<time>2020-10-28T18:03:36Z</time>
</trkpt>
<trkpt lat="46.044168" lon="11.177902">
<time>2020-10-28T18:03:37Z</time>
</trkpt>
<trkpt lat="46.044157" lon="11.177909">
<time>2020-10-28T18:03:38Z</time>
</trkpt>
<trkpt lat="46.044148" lon="11.177913">
<time>2020-10-28T18:03:39Z</time>
</trkpt>
<trkpt lat="46.044137" lon="11.177909">
<time>2020-10-28T18:03:40Z</time>
</trkpt>
<trkpt lat="46.044121" lon="11.17791">
<time>2020-10-28T18:03:41Z</time>
</trkpt>
<trkpt lat="46.04411" lon="11.177915">
<time>2020-10-28T18:03:42Z</time>
</trkpt>
<trkpt lat="46.044103" lon="11.177923">
<time>2020-10-28T18:03:43Z</time>
</trkpt>
<trkpt lat="46.044097" lon="11.177933">
<time>2020-10-28T18:03:44Z</time>
</trkpt>
<trkpt lat="46.044088" lon="11.17794">
<time>2020-10-28T18:03:45Z</time>
</trkpt>
<trkpt lat="46.044077" lon="11.177943">
<time>2020-10-28T18:03:46Z</time>
</trkpt>
<trkpt lat="46.044062" lon="11.17796">
<time>2020-10-28T18:03:47Z</time>
</trkpt>
<trkpt lat="46.044062" lon="11.177973">
<time>2020-10-28T18:03:48Z</time>
</trkpt>
<trkpt lat="46.044061" lon="11.177974">
<time>2020-10-28T18:03:49Z</time>
</trkpt>
<trkpt lat="46.044061" lon="11.177974">
<time>2020-10-28T18:03:50Z</time>
</trkpt>
<trkpt lat="46.044062" lon="11.177973">
<time>2020-10-28T18:03:51Z</time>
</trkpt>
<trkpt lat="46.044056" lon="11.17797">
<time>2020-10-28T18:03:52Z</time>
</trkpt>
<trkpt lat="46.044048" lon="11.177977">
<time>2020-10-28T18:03:53Z</time>
</trkpt>
<trkpt lat="46.044028" lon="11.177982">
<time>2020-10-28T18:03:54Z</time>
</trkpt>
<trkpt lat="46.044015" lon="11.177979">
<time>2020-10-28T18:03:55Z</time>
</trkpt>
<trkpt lat="46.044005" lon="11.177971">
<time>2020-10-28T18:03:56Z</time>
</trkpt>
<trkpt lat="46.043996" lon="11.17796">
<time>2020-10-28T18:03:57Z</time>
</trkpt>
<trkpt lat="46.043987" lon="11.17795">
<time>2020-10-28T18:03:58Z</time>
</trkpt>
<trkpt lat="46.043975" lon="11.177947">
<time>2020-10-28T18:03:59Z</time>
</trkpt>
<trkpt lat="46.04397" lon="11.177945">
<time>2020-10-28T18:04:00Z</time>
</trkpt>
<trkpt lat="46.043965" lon="11.177943">
<time>2020-10-28T18:04:01Z</time>
</trkpt>
<trkpt lat="46.043961" lon="11.17794">
<time>2020-10-28T18:04:02Z</time>
</trkpt>
<trkpt lat="46.043962" lon="11.177937">
<time>2020-10-28T18:04:03Z</time>
</trkpt>
<trkpt lat="46.043958" lon="11.177934">
<time>2020-10-28T18:04:04Z</time>
</trkpt>
<trkpt lat="46.043953" lon="11.17794">
<time>2020-10-28T18:04:05Z</time>
</trkpt>
<trkpt lat="46.043951" lon="11.177951">
<time>2020-10-28T18:04:06Z</time>
</trkpt>
<trkpt lat="46.043944" lon="11.177953">
<time>2020-10-28T18:04:07Z</time>
</trkpt>
<trkpt lat="46.043939" lon="11.177952">
<time>2020-10-28T18:04:08Z</time>
</trkpt>
<trkpt lat="46.043938" lon="11.17795">
<time>2020-10-28T18:04:09Z</time>
</trkpt>
<trkpt lat="46.043942" lon="11.177953">
<time>2020-10-28T18:04:10Z</time>
</trkpt>
<trkpt lat="46.043941" lon="11.177949">
<time>2020-10-28T18:04:11Z</time>
</trkpt>
<trkpt lat="46.043937" lon="11.177944">
<time>2020-10-28T18:04:12Z</time>
</trkpt>
<trkpt lat="46.043932" lon="11.177944">
<time>2020-10-28T18:04:13Z</time>
</trkpt>
<trkpt lat="46.043933" lon="11.177945">
<time>2020-10-28T18:04:14Z</time>
</trkpt>
<trkpt lat="46.043923" lon="11.177949">
<time>2020-10-28T18:04:15Z</time>
</trkpt>
<trkpt lat="46.043919" lon="11.17795">
<time>2020-10-28T18:04:16Z</time>
</trkpt>
<trkpt lat="46.043919" lon="11.177952">
<time>2020-10-28T18:04:17Z</time>
</trkpt>
<trkpt lat="46.043913" lon="11.177944">
<time>2020-10-28T18:04:18Z</time>
</trkpt>
<trkpt lat="46.043903" lon="11.177934">
<time>2020-10-28T18:04:19Z</time>
</trkpt>
<trkpt lat="46.043897" lon="11.177931">
<time>2020-10-28T18:04:20Z</time>
</trkpt>
<trkpt lat="46.043891" lon="11.177927">
<time>2020-10-28T18:04:21Z</time>
</trkpt>
<trkpt lat="46.04388" lon="11.177916">
<time>2020-10-28T18:04:22Z</time>
</trkpt>
<trkpt lat="46.043869" lon="11.17791">
<time>2020-10-28T18:04:23Z</time>
</trkpt>
<trkpt lat="46.043856" lon="11.177911">
<time>2020-10-28T18:04:24Z</time>
</trkpt>
<trkpt lat="46.043847" lon="11.177914">
<time>2020-10-28T18:04:25Z</time>
</trkpt>
<trkpt lat="46.04384" lon="11.177913">
<time>2020-10-28T18:04:26Z</time>
</trkpt>
<trkpt lat="46.043829" lon="11.177907">
<time>2020-10-28T18:04:27Z</time>
</trkpt>
<trkpt lat="46.043817" lon="11.177896">
<time>2020-10-28T18:04:28Z</time>
</trkpt>
<trkpt lat="46.043811" lon="11.177885">
<time>2020-10-28T18:04:29Z</time>
</trkpt>
<trkpt lat="46.043802" lon="11.177871">
<time>2020-10-28T18:04:30Z</time>
</trkpt>
<trkpt lat="46.043789" lon="11.177861">
<time>2020-10-28T18:04:31Z</time>
</trkpt>
<trkpt lat="46.043774" lon="11.177851">
<time>2020-10-28T18:04:32Z</time>
</trkpt>
<trkpt lat="46.043759" lon="11.177839">
<time>2020-10-28T18:04:33Z</time>
</trkpt>
<trkpt lat="46.043748" lon="11.177829">
<time>2020-10-28T18:04:34Z</time>
</trkpt>
<trkpt lat="46.043737" lon="11.177813">
<time>2020-10-28T18:04:35Z</time>
</trkpt>
<trkpt lat="46.043722" lon="11.177788">
<time>2020-10-28T18:04:36Z</time>
</trkpt>
<trkpt lat="46.043713" lon="11.177774">
<time>2020-10-28T18:04:37Z</time>
</trkpt>
<trkpt lat="46.043708" lon="11.177761">
<time>2020-10-28T18:04:38Z</time>
</trkpt>
<trkpt lat="46.043705" lon="11.177751">
<time>2020-10-28T18:04:39Z</time>
</trkpt>
<trkpt lat="46.043703" lon="11.177743">
<time>2020-10-28T18:04:40Z</time>
</trkpt>
<trkpt lat="46.043703" lon="11.177739">
<time>2020-10-28T18:04:41Z</time>
</trkpt>
<trkpt lat="46.043698" lon="11.177733">
<time>2020-10-28T18:04:42Z</time>
</trkpt>
<trkpt lat="46.043688" lon="11.177731">
<time>2020-10-28T18:04:43Z</time>
</trkpt>
<trkpt lat="46.04368" lon="11.177724">
<time>2020-10-28T18:04:44Z</time>
</trkpt>
<trkpt lat="46.043671" lon="11.177713">
<time>2020-10-28T18:04:45Z</time>
</trkpt>
<trkpt lat="46.043667" lon="11.177699">
<time>2020-10-28T18:04:46Z</time>
</trkpt>
<trkpt lat="46.043663" lon="11.177682">
<time>2020-10-28T18:04:47Z</time>
</trkpt>
<trkpt lat="46.043655" lon="11.177665">
<time>2020-10-28T18:04:48Z</time>
</trkpt>
<trkpt lat="46.04365" lon="11.177645">
<time>2020-10-28T18:04:49Z</time>
</trkpt>
<trkpt lat="46.04364" lon="11.17763">
<time>2020-10-28T18:04:50Z</time>
</trkpt>
<trkpt lat="46.04363" lon="11.177624">
<time>2020-10-28T18:04:51Z</time>
</trkpt>
<trkpt lat="46.043626" lon="11.17762">
<time>2020-10-28T18:04:52Z</time>
</trkpt>
<trkpt lat="46.043623" lon="11.177617">
<time>2020-10-28T18:04:53Z</time>
</trkpt>
<trkpt lat="46.043613" lon="11.177607">
<time>2020-10-28T18:04:54Z</time>
</trkpt>
<trkpt lat="46.0436" lon="11.177598">
<time>2020-10-28T18:04:55Z</time>
</trkpt>
<trkpt lat="46.043585" lon="11.177592">
<time>2020-10-28T18:04:56Z</time>
</trkpt>
<trkpt lat="46.043575" lon="11.177588">
<time>2020-10-28T18:04:57Z</time>
</trkpt>
<trkpt lat="46.043562" lon="11.177577">
<time>2020-10-28T18:04:58Z</time>
</trkpt>
<trkpt lat="46.043553" lon="11.177566">
<time>2020-10-28T18:04:59Z</time>
</trkpt>
<trkpt lat="46.043552" lon="11.177548">
<time>2020-10-28T18:05:00Z</time>
</trkpt>
<trkpt lat="46.043546" lon="11.177541">
<time>2020-10-28T18:05:01Z</time>
</trkpt>
<trkpt lat="46.043537" lon="11.177526">
<time>2020-10-28T18:05:02Z</time>
</trkpt>
<trkpt lat="46.043527" lon="11.177516">
<time>2020-10-28T18:05:03Z</time>
</trkpt>
<trkpt lat="46.043523" lon="11.177514">
<time>2020-10-28T18:05:04Z</time>
</trkpt>
<trkpt lat="46.043515" lon="11.177515">
<time>2020-10-28T18:05:05Z</time>
</trkpt>
<trkpt lat="46.043503" lon="11.177505">
<time>2020-10-28T18:05:06Z</time>
</trkpt>
<trkpt lat="46.043485" lon="11.177493">
<time>2020-10-28T18:05:07Z</time>
</trkpt>
<trkpt lat="46.043457" lon="11.177471">
<time>2020-10-28T18:05:08Z</time>
</trkpt>
<trkpt lat="46.043437" lon="11.177458">
<time>2020-10-28T18:05:09Z</time>
</trkpt>
<trkpt lat="46.043415" lon="11.177451">
<time>2020-10-28T18:05:10Z</time>
</trkpt>
<trkpt lat="46.043412" lon="11.177443">
<time>2020-10-28T18:05:11Z</time>
</trkpt>
<trkpt lat="46.043411" lon="11.177433">
<time>2020-10-28T18:05:12Z</time>
</trkpt>
<trkpt lat="46.043406" lon="11.177421">
<time>2020-10-28T18:05:13Z</time>
</trkpt>
<trkpt lat="46.043399" lon="11.177411">
<time>2020-10-28T18:05:14Z</time>
</trkpt>
<trkpt lat="46.043395" lon="11.177401">
<time>2020-10-28T18:05:15Z</time>
</trkpt>
<trkpt lat="46.04339" lon="11.177394">
<time>2020-10-28T18:05:16Z</time>
</trkpt>
<trkpt lat="46.043384" lon="11.17739">
<time>2020-10-28T18:05:17Z</time>
</trkpt>
<trkpt lat="46.043373" lon="11.177381">
<time>2020-10-28T18:05:18Z</time>
</trkpt>
<trkpt lat="46.043367" lon="11.17737">
<time>2020-10-28T18:05:19Z</time>
</trkpt>
<trkpt lat="46.043361" lon="11.177353">
<time>2020-10-28T18:05:20Z</time>
</trkpt>
<trkpt lat="46.043357" lon="11.177334">
<time>2020-10-28T18:05:21Z</time>
</trkpt>
<trkpt lat="46.043348" lon="11.177312">
<time>2020-10-28T18:05:22Z</time>
</trkpt>
<trkpt lat="46.043336" lon="11.177281">
<time>2020-10-28T18:05:23Z</time>
</trkpt>
<trkpt lat="46.043321" lon="11.177263">
<time>2020-10-28T18:05:24Z</time>
</trkpt>
<trkpt lat="46.043302" lon="11.177248">
<time>2020-10-28T18:05:25Z</time>
</trkpt>
<trkpt lat="46.043282" lon="11.177232">
<time>2020-10-28T18:05:26Z</time>
</trkpt>
<trkpt lat="46.043265" lon="11.177219">
<time>2020-10-28T18:05:27Z</time>
</trkpt>
<trkpt lat="46.043245" lon="11.177212">
<time>2020-10-28T18:05:28Z</time>
</trkpt>
<trkpt lat="46.043225" lon="11.177204">
<time>2020-10-28T18:05:29Z</time>
</trkpt>
<trkpt lat="46.043207" lon="11.177195">
<time>2020-10-28T18:05:30Z</time>
</trkpt>
<trkpt lat="46.043198" lon="11.177193">
<time>2020-10-28T18:05:31Z</time>
</trkpt>
<trkpt lat="46.043189" lon="11.177194">
<time>2020-10-28T18:05:32Z</time>
</trkpt>
<trkpt lat="46.043175" lon="11.177201">
<time>2020-10-28T18:05:33Z</time>
</trkpt>
<trkpt lat="46.043152" lon="11.177211">
<time>2020-10-28T18:05:34Z</time>
</trkpt>
<trkpt lat="46.043123" lon="11.177223">
<time>2020-10-28T18:05:35Z</time>
</trkpt>
<trkpt lat="46.043083" lon="11.177237">
<time>2020-10-28T18:05:36Z</time>
</trkpt>
<trkpt lat="46.043061" lon="11.177241">
<time>2020-10-28T18:05:37Z</time>
</trkpt>
<trkpt lat="46.043033" lon="11.177257">
<time>2020-10-28T18:05:38Z</time>
</trkpt>
<trkpt lat="46.042998" lon="11.177277">
<time>2020-10-28T18:05:39Z</time>
</trkpt>
<trkpt lat="46.042973" lon="11.177277">
<time>2020-10-28T18:05:40Z</time>
</trkpt>
<trkpt lat="46.042942" lon="11.177272">
<time>2020-10-28T18:05:41Z</time>
</trkpt>
<trkpt lat="46.042912" lon="11.177263">
<time>2020-10-28T18:05:42Z</time>
</trkpt>
<trkpt lat="46.042892" lon="11.17725">
<time>2020-10-28T18:05:43Z</time>
</trkpt>
<trkpt lat="46.042867" lon="11.177232">
<time>2020-10-28T18:05:44Z</time>
</trkpt>
<trkpt lat="46.042846" lon="11.177219">
<time>2020-10-28T18:05:45Z</time>
</trkpt>
<trkpt lat="46.042829" lon="11.177207">
<time>2020-10-28T18:05:46Z</time>
</trkpt>
<trkpt lat="46.042824" lon="11.17719">
<time>2020-10-28T18:05:47Z</time>
</trkpt>
<trkpt lat="46.042828" lon="11.177167">
<time>2020-10-28T18:05:48Z</time>
</trkpt>
<trkpt lat="46.042828" lon="11.177141">
<time>2020-10-28T18:05:49Z</time>
</trkpt>
<trkpt lat="46.042824" lon="11.177113">
<time>2020-10-28T18:05:50Z</time>
</trkpt>
<trkpt lat="46.042815" lon="11.177083">
<time>2020-10-28T18:05:51Z</time>
</trkpt>
<trkpt lat="46.042809" lon="11.177059">
<time>2020-10-28T18:05:52Z</time>
</trkpt>
<trkpt lat="46.042804" lon="11.177028">
<time>2020-10-28T18:05:53Z</time>
</trkpt>
<trkpt lat="46.0428" lon="11.177006">
<time>2020-10-28T18:05:54Z</time>
</trkpt>
<trkpt lat="46.042798" lon="11.176995">
<time>2020-10-28T18:05:55Z</time>
</trkpt>
<trkpt lat="46.0428" lon="11.176986">
<time>2020-10-28T18:05:56Z</time>
</trkpt>
<trkpt lat="46.042803" lon="11.176977">
<time>2020-10-28T18:05:57Z</time>
</trkpt>
<trkpt lat="46.042812" lon="11.17697">
<time>2020-10-28T18:05:58Z</time>
</trkpt>
<trkpt lat="46.042822" lon="11.176973">
<time>2020-10-28T18:05:59Z</time>
</trkpt>
<trkpt lat="46.042834" lon="11.176974">
<time>2020-10-28T18:06:00Z</time>
</trkpt>
<trkpt lat="46.042846" lon="11.176973">
<time>2020-10-28T18:06:01Z</time>
</trkpt>
<trkpt lat="46.042856" lon="11.176959">
<time>2020-10-28T18:06:02Z</time>
</trkpt>
<trkpt lat="46.042862" lon="11.176929">
<time>2020-10-28T18:06:03Z</time>
</trkpt>
<trkpt lat="46.042859" lon="11.176906">
<time>2020-10-28T18:06:04Z</time>
</trkpt>
<trkpt lat="46.042845" lon="11.176886">
<time>2020-10-28T18:06:05Z</time>
</trkpt>
<trkpt lat="46.042826" lon="11.176867">
<time>2020-10-28T18:06:06Z</time>
</trkpt>
<trkpt lat="46.04281" lon="11.176851">
<time>2020-10-28T18:06:07Z</time>
</trkpt>
<trkpt lat="46.042804" lon="11.176843">
<time>2020-10-28T18:06:08Z</time>
</trkpt>
<trkpt lat="46.042801" lon="11.176831">
<time>2020-10-28T18:06:09Z</time>
</trkpt>
<trkpt lat="46.042796" lon="11.176819">
<time>2020-10-28T18:06:10Z</time>
</trkpt>
<trkpt lat="46.042796" lon="11.17681">
<time>2020-10-28T18:06:11Z</time>
</trkpt>
<trkpt lat="46.042792" lon="11.176803">
<time>2020-10-28T18:06:12Z</time>
</trkpt>
<trkpt lat="46.042786" lon="11.17679">
<time>2020-10-28T18:06:13Z</time>
</trkpt>
<trkpt lat="46.042776" lon="11.176776">
<time>2020-10-28T18:06:14Z</time>
</trkpt>
<trkpt lat="46.04276" lon="11.176761">
<time>2020-10-28T18:06:15Z</time>
</trkpt>
<trkpt lat="46.042745" lon="11.176752">
<time>2020-10-28T18:06:16Z</time>
</trkpt>
<trkpt lat="46.04273" lon="11.176747">
<time>2020-10-28T18:06:17Z</time>
</trkpt>
<trkpt lat="46.042719" lon="11.176738">
<time>2020-10-28T18:06:18Z</time>
</trkpt>
<trkpt lat="46.042712" lon="11.176731">
<time>2020-10-28T18:06:19Z</time>
</trkpt>
<trkpt lat="46.042703" lon="11.176724">
<time>2020-10-28T18:06:20Z</time>
</trkpt>
<trkpt lat="46.042691" lon="11.176709">
<time>2020-10-28T18:06:21Z</time>
</trkpt>
<trkpt lat="46.042681" lon="11.176702">
<time>2020-10-28T18:06:22Z</time>
</trkpt>
<trkpt lat="46.042671" lon="11.176694">
<time>2020-10-28T18:06:23Z</time>
</trkpt>
<trkpt lat="46.042663" lon="11.176679">
<time>2020-10-28T18:06:24Z</time>
</trkpt>
<trkpt lat="46.042654" lon="11.176659">
<time>2020-10-28T18:06:25Z</time>
</trkpt>
<trkpt lat="46.042642" lon="11.176632">
<time>2020-10-28T18:06:26Z</time>
</trkpt>
<trkpt lat="46.042632" lon="11.176606">
<time>2020-10-28T18:06:27Z</time>
</trkpt>
<trkpt lat="46.042617" lon="11.176573">
<time>2020-10-28T18:06:28Z</time>
</trkpt>
<trkpt lat="46.042601" lon="11.176544">
<time>2020-10-28T18:06:29Z</time>
</trkpt>
<trkpt lat="46.042587" lon="11.176517">
<time>2020-10-28T18:06:30Z</time>
</trkpt>
<trkpt lat="46.04258" lon="11.176493">
<time>2020-10-28T18:06:31Z</time>
</trkpt>
<trkpt lat="46.042572" lon="11.176469">
<time>2020-10-28T18:06:32Z</time>
</trkpt>
<trkpt lat="46.042569" lon="11.176444">
<time>2020-10-28T18:06:33Z</time>
</trkpt>
<trkpt lat="46.042567" lon="11.176419">
<time>2020-10-28T18:06:34Z</time>
</trkpt>
<trkpt lat="46.042567" lon="11.176404">
<time>2020-10-28T18:06:35Z</time>
</trkpt>
<trkpt lat="46.042571" lon="11.176395">
<time>2020-10-28T18:06:36Z</time>
</trkpt>
<trkpt lat="46.042575" lon="11.176383">
<time>2020-10-28T18:06:37Z</time>
</trkpt>
<trkpt lat="46.042575" lon="11.176365">
<time>2020-10-28T18:06:38Z</time>
</trkpt>
<trkpt lat="46.042567" lon="11.17634">
<time>2020-10-28T18:06:39Z</time>
</trkpt>
<trkpt lat="46.042578" lon="11.176326">
<time>2020-10-28T18:06:40Z</time>
</trkpt>
<trkpt lat="46.042593" lon="11.176322">
<time>2020-10-28T18:06:41Z</time>
</trkpt>
<trkpt lat="46.042606" lon="11.176313">
<time>2020-10-28T18:06:42Z</time>
</trkpt>
<trkpt lat="46.042612" lon="11.1763">
<time>2020-10-28T18:06:43Z</time>
</trkpt>
<trkpt lat="46.042614" lon="11.176289">
<time>2020-10-28T18:06:44Z</time>
</trkpt>
<trkpt lat="46.042604" lon="11.176277">
<time>2020-10-28T18:06:45Z</time>
</trkpt>
<trkpt lat="46.04259" lon="11.176264">
<time>2020-10-28T18:06:46Z</time>
</trkpt>
<trkpt lat="46.04258" lon="11.176255">
<time>2020-10-28T18:06:47Z</time>
</trkpt>
<trkpt lat="46.042574" lon="11.176237">
<time>2020-10-28T18:06:48Z</time>
</trkpt>
<trkpt lat="46.042571" lon="11.176222">
<time>2020-10-28T18:06:49Z</time>
</trkpt>
<trkpt lat="46.042568" lon="11.176214">
<time>2020-10-28T18:06:50Z</time>
</trkpt>
<trkpt lat="46.042563" lon="11.176204">
<time>2020-10-28T18:06:51Z</time>
</trkpt>
<trkpt lat="46.042561" lon="11.176193">
<time>2020-10-28T18:06:52Z</time>
</trkpt>
<trkpt lat="46.042561" lon="11.17618">
<time>2020-10-28T18:06:53Z</time>
</trkpt>
<trkpt lat="46.042556" lon="11.176165">
<time>2020-10-28T18:06:54Z</time>
</trkpt>
<trkpt lat="46.042553" lon="11.176149">
<time>2020-10-28T18:06:55Z</time>
</trkpt>
<trkpt lat="46.04255" lon="11.176131">
<time>2020-10-28T18:06:56Z</time>
</trkpt>
<trkpt lat="46.042545" lon="11.176105">
<time>2020-10-28T18:06:57Z</time>
</trkpt>
<trkpt lat="46.042541" lon="11.176084">
<time>2020-10-28T18:06:58Z</time>
</trkpt>
<trkpt lat="46.042537" lon="11.176064">
<time>2020-10-28T18:06:59Z</time>
</trkpt>
<trkpt lat="46.042535" lon="11.176041">
<time>2020-10-28T18:07:00Z</time>
</trkpt>
<trkpt lat="46.042535" lon="11.176029">
<time>2020-10-28T18:07:01Z</time>
</trkpt>
<trkpt lat="46.042522" lon="11.176015">
<time>2020-10-28T18:07:02Z</time>
</trkpt>
<trkpt lat="46.0425" lon="11.176">
<time>2020-10-28T18:07:03Z</time>
</trkpt>
<trkpt lat="46.04247" lon="11.175968">
<time>2020-10-28T18:07:04Z</time>
</trkpt>
<trkpt lat="46.042453" lon="11.175956">
<time>2020-10-28T18:07:05Z</time>
</trkpt>
<trkpt lat="46.042441" lon="11.175948">
<time>2020-10-28T18:07:06Z</time>
</trkpt>
<trkpt lat="46.042433" lon="11.175935">
<time>2020-10-28T18:07:07Z</time>
</trkpt>
<trkpt lat="46.042416" lon="11.175919">
<time>2020-10-28T18:07:08Z</time>
</trkpt>
<trkpt lat="46.0424" lon="11.175902">
<time>2020-10-28T18:07:09Z</time>
</trkpt>
<trkpt lat="46.042383" lon="11.175884">
<time>2020-10-28T18:07:10Z</time>
</trkpt>
<trkpt lat="46.04237" lon="11.175873">
<time>2020-10-28T18:07:11Z</time>
</trkpt>
<trkpt lat="46.042357" lon="11.175859">
<time>2020-10-28T18:07:12Z</time>
</trkpt>
<trkpt lat="46.042341" lon="11.17585">
<time>2020-10-28T18:07:13Z</time>
</trkpt>
<trkpt lat="46.042325" lon="11.175842">
<time>2020-10-28T18:07:14Z</time>
</trkpt>
<trkpt lat="46.042312" lon="11.175831">
<time>2020-10-28T18:07:15Z</time>
</trkpt>
<trkpt lat="46.0423" lon="11.175817">
<time>2020-10-28T18:07:16Z</time>
</trkpt>
<trkpt lat="46.042293" lon="11.175804">
<time>2020-10-28T18:07:17Z</time>
</trkpt>
<trkpt lat="46.042283" lon="11.175785">
<time>2020-10-28T18:07:18Z</time>
</trkpt>
<trkpt lat="46.042276" lon="11.175764">
<time>2020-10-28T18:07:19Z</time>
</trkpt>
<trkpt lat="46.042275" lon="11.175739">
<time>2020-10-28T18:07:20Z</time>
</trkpt>
<trkpt lat="46.042269" lon="11.175714">
<time>2020-10-28T18:07:21Z</time>
</trkpt>
<trkpt lat="46.042263" lon="11.175696">
<time>2020-10-28T18:07:22Z</time>
</trkpt>
<trkpt lat="46.042257" lon="11.175682">
<time>2020-10-28T18:07:23Z</time>
</trkpt>
<trkpt lat="46.042249" lon="11.17565">
<time>2020-10-28T18:07:24Z</time>
</trkpt>
<trkpt lat="46.042239" lon="11.175629">
<time>2020-10-28T18:07:25Z</time>
</trkpt>
<trkpt lat="46.042232" lon="11.175604">
<time>2020-10-28T18:07:26Z</time>
</trkpt>
<trkpt lat="46.042225" lon="11.175579">
<time>2020-10-28T18:07:27Z</time>
</trkpt>
<trkpt lat="46.04222" lon="11.175557">
<time>2020-10-28T18:07:28Z</time>
</trkpt>
<trkpt lat="46.042214" lon="11.175541">
<time>2020-10-28T18:07:29Z</time>
</trkpt>
<trkpt lat="46.042201" lon="11.175538">
<time>2020-10-28T18:07:30Z</time>
</trkpt>
<trkpt lat="46.042187" lon="11.175529">
<time>2020-10-28T18:07:31Z</time>
</trkpt>
<trkpt lat="46.042183" lon="11.175511">
<time>2020-10-28T18:07:32Z</time>
</trkpt>
<trkpt lat="46.042178" lon="11.175487">
<time>2020-10-28T18:07:33Z</time>
</trkpt>
<trkpt lat="46.042171" lon="11.175475">
<time>2020-10-28T18:07:34Z</time>
</trkpt>
<trkpt lat="46.042161" lon="11.175466">
<time>2020-10-28T18:07:35Z</time>
</trkpt>
<trkpt lat="46.042149" lon="11.175451">
<time>2020-10-28T18:07:36Z</time>
</trkpt>
<trkpt lat="46.042145" lon="11.175431">
<time>2020-10-28T18:07:37Z</time>
</trkpt>
<trkpt lat="46.042145" lon="11.175414">
<time>2020-10-28T18:07:38Z</time>
</trkpt>
<trkpt lat="46.04214" lon="11.175394">
<time>2020-10-28T18:07:39Z</time>
</trkpt>
<trkpt lat="46.042126" lon="11.175365">
<time>2020-10-28T18:07:40Z</time>
</trkpt>
<trkpt lat="46.042109" lon="11.175337">
<time>2020-10-28T18:07:41Z</time>
</trkpt>
<trkpt lat="46.042093" lon="11.175311">
<time>2020-10-28T18:07:42Z</time>
</trkpt>
<trkpt lat="46.042091" lon="11.175289">
<time>2020-10-28T18:07:43Z</time>
</trkpt>
<trkpt lat="46.042078" lon="11.175266">
<time>2020-10-28T18:07:44Z</time>
</trkpt>
<trkpt lat="46.042067" lon="11.175245">
<time>2020-10-28T18:07:45Z</time>
</trkpt>
<trkpt lat="46.042047" lon="11.175215">
<time>2020-10-28T18:07:46Z</time>
</trkpt>
<trkpt lat="46.04203" lon="11.175201">
<time>2020-10-28T18:07:47Z</time>
</trkpt>
<trkpt lat="46.042015" lon="11.175194">
<time>2020-10-28T18:07:48Z</time>
</trkpt>
<trkpt lat="46.041992" lon="11.175193">
<time>2020-10-28T18:07:49Z</time>
</trkpt>
<trkpt lat="46.041975" lon="11.175199">
<time>2020-10-28T18:07:50Z</time>
</trkpt>
<trkpt lat="46.041962" lon="11.175205">
<time>2020-10-28T18:07:51Z</time>
</trkpt>
<trkpt lat="46.041952" lon="11.175214">
<time>2020-10-28T18:07:52Z</time>
</trkpt>
<trkpt lat="46.041933" lon="11.175216">
<time>2020-10-28T18:07:53Z</time>
</trkpt>
<trkpt lat="46.041901" lon="11.175214">
<time>2020-10-28T18:07:54Z</time>
</trkpt>
<trkpt lat="46.041877" lon="11.175211">
<time>2020-10-28T18:07:55Z</time>
</trkpt>
<trkpt lat="46.041859" lon="11.175206">
<time>2020-10-28T18:07:56Z</time>
</trkpt>
<trkpt lat="46.041842" lon="11.175203">
<time>2020-10-28T18:07:57Z</time>
</trkpt>
<trkpt lat="46.041824" lon="11.175209">
<time>2020-10-28T18:07:58Z</time>
</trkpt>
<trkpt lat="46.041806" lon="11.175218">
<time>2020-10-28T18:07:59Z</time>
</trkpt>
<trkpt lat="46.041789" lon="11.175228">
<time>2020-10-28T18:08:00Z</time>
</trkpt>
<trkpt lat="46.041774" lon="11.175232">
<time>2020-10-28T18:08:01Z</time>
</trkpt>
<trkpt lat="46.041761" lon="11.17523">
<time>2020-10-28T18:08:02Z</time>
</trkpt>
<trkpt lat="46.041747" lon="11.17523">
<time>2020-10-28T18:08:03Z</time>
</trkpt>
<trkpt lat="46.041738" lon="11.17523">
<time>2020-10-28T18:08:04Z</time>
</trkpt>
<trkpt lat="46.041724" lon="11.175223">
<time>2020-10-28T18:08:05Z</time>
</trkpt>
<trkpt lat="46.04171" lon="11.175226">
<time>2020-10-28T18:08:06Z</time>
</trkpt>
<trkpt lat="46.041698" lon="11.175228">
<time>2020-10-28T18:08:07Z</time>
</trkpt>
<trkpt lat="46.041688" lon="11.17523">
<time>2020-10-28T18:08:08Z</time>
</trkpt>
<trkpt lat="46.041681" lon="11.175232">
<time>2020-10-28T18:08:09Z</time>
</trkpt>
<trkpt lat="46.041674" lon="11.175232">
<time>2020-10-28T18:08:10Z</time>
</trkpt>
<trkpt lat="46.041661" lon="11.175238">
<time>2020-10-28T18:08:11Z</time>
</trkpt>
<trkpt lat="46.041653" lon="11.175251">
<time>2020-10-28T18:08:12Z</time>
</trkpt>
<trkpt lat="46.041644" lon="11.175269">
<time>2020-10-28T18:08:13Z</time>
</trkpt>
<trkpt lat="46.041629" lon="11.17529">
<time>2020-10-28T18:08:14Z</time>
</trkpt>
<trkpt lat="46.041614" lon="11.17531">
<time>2020-10-28T18:08:15Z</time>
</trkpt>
<trkpt lat="46.041592" lon="11.175338">
<time>2020-10-28T18:08:16Z</time>
</trkpt>
<trkpt lat="46.04157" lon="11.175353">
<time>2020-10-28T18:08:17Z</time>
</trkpt>
<trkpt lat="46.04154" lon="11.17537">
<time>2020-10-28T18:08:18Z</time>
</trkpt>
<trkpt lat="46.041516" lon="11.175388">
<time>2020-10-28T18:08:19Z</time>
</trkpt>
<trkpt lat="46.041505" lon="11.175404">
<time>2020-10-28T18:08:20Z</time>
</trkpt>
<trkpt lat="46.041505" lon="11.17542">
<time>2020-10-28T18:08:21Z</time>
</trkpt>
<trkpt lat="46.0415" lon="11.175435">
<time>2020-10-28T18:08:22Z</time>
</trkpt>
<trkpt lat="46.04149" lon="11.175457">
<time>2020-10-28T18:08:23Z</time>
</trkpt>
<trkpt lat="46.041476" lon="11.175469">
<time>2020-10-28T18:08:24Z</time>
</trkpt>
<trkpt lat="46.041468" lon="11.175482">
<time>2020-10-28T18:08:25Z</time>
</trkpt>
<trkpt lat="46.041464" lon="11.175512">
<time>2020-10-28T18:08:26Z</time>
</trkpt>
<trkpt lat="46.041459" lon="11.175541">
<time>2020-10-28T18:08:27Z</time>
</trkpt>
<trkpt lat="46.041446" lon="11.175585">
<time>2020-10-28T18:08:28Z</time>
</trkpt>
<trkpt lat="46.041446" lon="11.175623">
<time>2020-10-28T18:08:29Z</time>
</trkpt>
<trkpt lat="46.041443" lon="11.175657">
<time>2020-10-28T18:08:30Z</time>
</trkpt>
<trkpt lat="46.041427" lon="11.175683">
<time>2020-10-28T18:08:31Z</time>
</trkpt>
<trkpt lat="46.041417" lon="11.175715">
<time>2020-10-28T18:08:32Z</time>
</trkpt>
<trkpt lat="46.041415" lon="11.175737">
<time>2020-10-28T18:08:33Z</time>
</trkpt>
<trkpt lat="46.041406" lon="11.175755">
<time>2020-10-28T18:08:34Z</time>
</trkpt>
<trkpt lat="46.041404" lon="11.175768">
<time>2020-10-28T18:08:35Z</time>
</trkpt>
<trkpt lat="46.0414" lon="11.175784">
<time>2020-10-28T18:08:36Z</time>
</trkpt>
<trkpt lat="46.0414" lon="11.175801">
<time>2020-10-28T18:08:37Z</time>
</trkpt>
<trkpt lat="46.041401" lon="11.175811">
<time>2020-10-28T18:08:38Z</time>
</trkpt>
<trkpt lat="46.041404" lon="11.175833">
<time>2020-10-28T18:08:39Z</time>
</trkpt>
<trkpt lat="46.041415" lon="11.175861">
<time>2020-10-28T18:08:40Z</time>
</trkpt>
<trkpt lat="46.041425" lon="11.175883">
<time>2020-10-28T18:08:41Z</time>
</trkpt>
<trkpt lat="46.041423" lon="11.175913">
<time>2020-10-28T18:08:42Z</time>
</trkpt>
<trkpt lat="46.04142" lon="11.175942">
<time>2020-10-28T18:08:43Z</time>
</trkpt>
<trkpt lat="46.04141" lon="11.175963">
<time>2020-10-28T18:08:44Z</time>
</trkpt>
<trkpt lat="46.041394" lon="11.175979">
<time>2020-10-28T18:08:45Z</time>
</trkpt>
<trkpt lat="46.041381" lon="11.175996">
<time>2020-10-28T18:08:46Z</time>
</trkpt>
<trkpt lat="46.041374" lon="11.17601">
<time>2020-10-28T18:08:47Z</time>
</trkpt>
<trkpt lat="46.041368" lon="11.176022">
<time>2020-10-28T18:08:48Z</time>
</trkpt>
<trkpt lat="46.041359" lon="11.176032">
<time>2020-10-28T18:08:49Z</time>
</trkpt>
<trkpt lat="46.041353" lon="11.176042">
<time>2020-10-28T18:08:50Z</time>
</trkpt>
<trkpt lat="46.041362" lon="11.176047">
<time>2020-10-28T18:08:51Z</time>
</trkpt>
<trkpt lat="46.041374" lon="11.176062">
<time>2020-10-28T18:08:52Z</time>
</trkpt>
<trkpt lat="46.04138" lon="11.176082">
<time>2020-10-28T18:08:53Z</time>
</trkpt>
<trkpt lat="46.041391" lon="11.17611">
<time>2020-10-28T18:08:54Z</time>
</trkpt>
<trkpt lat="46.041404" lon="11.176131">
<time>2020-10-28T18:08:55Z</time>
</trkpt>
<trkpt lat="46.041414" lon="11.17615">
<time>2020-10-28T18:08:56Z</time>
</trkpt>
<trkpt lat="46.041426" lon="11.176164">
<time>2020-10-28T18:08:57Z</time>
</trkpt>
<trkpt lat="46.041437" lon="11.176172">
<time>2020-10-28T18:08:58Z</time>
</trkpt>
<trkpt lat="46.041436" lon="11.176186">
<time>2020-10-28T18:08:59Z</time>
</trkpt>
<trkpt lat="46.041434" lon="11.176198">
<time>2020-10-28T18:09:00Z</time>
</trkpt>
<trkpt lat="46.041433" lon="11.176213">
<time>2020-10-28T18:09:01Z</time>
</trkpt>
<trkpt lat="46.041434" lon="11.176237">
<time>2020-10-28T18:09:02Z</time>
</trkpt>
<trkpt lat="46.041444" lon="11.176254">
<time>2020-10-28T18:09:03Z</time>
</trkpt>
<trkpt lat="46.041453" lon="11.176271">
<time>2020-10-28T18:09:04Z</time>
</trkpt>
<trkpt lat="46.041459" lon="11.176286">
<time>2020-10-28T18:09:05Z</time>
</trkpt>
<trkpt lat="46.041469" lon="11.176312">
<time>2020-10-28T18:09:06Z</time>
</trkpt>
<trkpt lat="46.041477" lon="11.176347">
<time>2020-10-28T18:09:07Z</time>
</trkpt>
<trkpt lat="46.041479" lon="11.176381">
<time>2020-10-28T18:09:08Z</time>
</trkpt>
<trkpt lat="46.04149" lon="11.176407">
<time>2020-10-28T18:09:09Z</time>
</trkpt>
<trkpt lat="46.041496" lon="11.17643">
<time>2020-10-28T18:09:10Z</time>
</trkpt>
<trkpt lat="46.041498" lon="11.176451">
<time>2020-10-28T18:09:11Z</time>
</trkpt>
<trkpt lat="46.0415" lon="11.176471">
<time>2020-10-28T18:09:12Z</time>
</trkpt>
<trkpt lat="46.041503" lon="11.176493">
<time>2020-10-28T18:09:13Z</time>
</trkpt>
<trkpt lat="46.041504" lon="11.176508">
<time>2020-10-28T18:09:14Z</time>
</trkpt>
<trkpt lat="46.041508" lon="11.176524">
<time>2020-10-28T18:09:15Z</time>
</trkpt>
<trkpt lat="46.041517" lon="11.176543">
<time>2020-10-28T18:09:16Z</time>
</trkpt>
<trkpt lat="46.041514" lon="11.176559">
<time>2020-10-28T18:09:17Z</time>
</trkpt>
<trkpt lat="46.041511" lon="11.17656">
<time>2020-10-28T18:09:18Z</time>
</trkpt>
<trkpt lat="46.041517" lon="11.176559">
<time>2020-10-28T18:09:19Z</time>
</trkpt>
<trkpt lat="46.041528" lon="11.17656">
<time>2020-10-28T18:09:20Z</time>
</trkpt>
<trkpt lat="46.041535" lon="11.176565">
<time>2020-10-28T18:09:21Z</time>
</trkpt>
<trkpt lat="46.041539" lon="11.176577">
<time>2020-10-28T18:09:22Z</time>
</trkpt>
<trkpt lat="46.041541" lon="11.176581">
<time>2020-10-28T18:09:23Z</time>
</trkpt>
<trkpt lat="46.041542" lon="11.176584">
<time>2020-10-28T18:09:24Z</time>
</trkpt>
<trkpt lat="46.041544" lon="11.176584">
<time>2020-10-28T18:09:25Z</time>
</trkpt>
<trkpt lat="46.04155" lon="11.17658">
<time>2020-10-28T18:09:26Z</time>
</trkpt>
<trkpt lat="46.041562" lon="11.176584">
<time>2020-10-28T18:09:27Z</time>
</trkpt>
<trkpt lat="46.041574" lon="11.176591">
<time>2020-10-28T18:09:28Z</time>
</trkpt>
<trkpt lat="46.041588" lon="11.176604">
<time>2020-10-28T18:09:29Z</time>
</trkpt>
<trkpt lat="46.041597" lon="11.176616">
<time>2020-10-28T18:09:30Z</time>
</trkpt>
<trkpt lat="46.041605" lon="11.176615">
<time>2020-10-28T18:09:31Z</time>
</trkpt>
<trkpt lat="46.041607" lon="11.176608">
<time>2020-10-28T18:09:32Z</time>
</trkpt>
<trkpt lat="46.04161" lon="11.176607">
<time>2020-10-28T18:09:33Z</time>
</trkpt>
<trkpt lat="46.041617" lon="11.176615">
<time>2020-10-28T18:09:34Z</time>
</trkpt>
<trkpt lat="46.041628" lon="11.176626">
<time>2020-10-28T18:09:35Z</time>
</trkpt>
<trkpt lat="46.041633" lon="11.176633">
<time>2020-10-28T18:09:36Z</time>
</trkpt>
<trkpt lat="46.041638" lon="11.176644">
<time>2020-10-28T18:09:37Z</time>
</trkpt>
<trkpt lat="46.041657" lon="11.176658">
<time>2020-10-28T18:09:38Z</time>
</trkpt>
<trkpt lat="46.041674" lon="11.176664">
<time>2020-10-28T18:09:39Z</time>
</trkpt>
<trkpt lat="46.041697" lon="11.176665">
<time>2020-10-28T18:09:40Z</time>
</trkpt>
<trkpt lat="46.04171" lon="11.176667">
<time>2020-10-28T18:09:41Z</time>
</trkpt>
<trkpt lat="46.041721" lon="11.17667">
<time>2020-10-28T18:09:42Z</time>
</trkpt>
<trkpt lat="46.041732" lon="11.176671">
<time>2020-10-28T18:09:43Z</time>
</trkpt>
<trkpt lat="46.041745" lon="11.176672">
<time>2020-10-28T18:09:44Z</time>
</trkpt>
<trkpt lat="46.041764" lon="11.176663">
<time>2020-10-28T18:09:45Z</time>
</trkpt>
<trkpt lat="46.041775" lon="11.176657">
<time>2020-10-28T18:09:46Z</time>
</trkpt>
<trkpt lat="46.041786" lon="11.176655">
<time>2020-10-28T18:09:47Z</time>
</trkpt>
<trkpt lat="46.041795" lon="11.17666">
<time>2020-10-28T18:09:48Z</time>
</trkpt>
<trkpt lat="46.041795" lon="11.176661">
<time>2020-10-28T18:09:49Z</time>
</trkpt>
<trkpt lat="46.041801" lon="11.176664">
<time>2020-10-28T18:09:50Z</time>
</trkpt>
<trkpt lat="46.041814" lon="11.176673">
<time>2020-10-28T18:09:51Z</time>
</trkpt>
<trkpt lat="46.041828" lon="11.176688">
<time>2020-10-28T18:09:52Z</time>
</trkpt>
<trkpt lat="46.041842" lon="11.176692">
<time>2020-10-28T18:09:53Z</time>
</trkpt>
<trkpt lat="46.041852" lon="11.176695">
<time>2020-10-28T18:09:54Z</time>
</trkpt>
<trkpt lat="46.041861" lon="11.176702">
<time>2020-10-28T18:09:55Z</time>
</trkpt>
<trkpt lat="46.04187" lon="11.176712">
<time>2020-10-28T18:09:56Z</time>
</trkpt>
<trkpt lat="46.041878" lon="11.17672">
<time>2020-10-28T18:09:57Z</time>
</trkpt>
<trkpt lat="46.04188" lon="11.176732">
<time>2020-10-28T18:09:58Z</time>
</trkpt>
<trkpt lat="46.041889" lon="11.176747">
<time>2020-10-28T18:09:59Z</time>
</trkpt>
<trkpt lat="46.041896" lon="11.176766">
<time>2020-10-28T18:10:00Z</time>
</trkpt>
<trkpt lat="46.0419" lon="11.176786">
<time>2020-10-28T18:10:01Z</time>
</trkpt>
<trkpt lat="46.041905" lon="11.176801">
<time>2020-10-28T18:10:02Z</time>
</trkpt>
<trkpt lat="46.041914" lon="11.176821">
<time>2020-10-28T18:10:03Z</time>
</trkpt>
<trkpt lat="46.041925" lon="11.176845">
<time>2020-10-28T18:10:04Z</time>
</trkpt>
<trkpt lat="46.041939" lon="11.176869">
<time>2020-10-28T18:10:05Z</time>
</trkpt>
<trkpt lat="46.041952" lon="11.176888">
<time>2020-10-28T18:10:06Z</time>
</trkpt>
<trkpt lat="46.041968" lon="11.176913">
<time>2020-10-28T18:10:07Z</time>
</trkpt>
<trkpt lat="46.041982" lon="11.176934">
<time>2020-10-28T18:10:08Z</time>
</trkpt>
<trkpt lat="46.042005" lon="11.176966">
<time>2020-10-28T18:10:09Z</time>
</trkpt>
<trkpt lat="46.04202" lon="11.176993">
<time>2020-10-28T18:10:10Z</time>
</trkpt>
<trkpt lat="46.042036" lon="11.177022">
<time>2020-10-28T18:10:11Z</time>
</trkpt>
<trkpt lat="46.042042" lon="11.177041">
<time>2020-10-28T18:10:12Z</time>
</trkpt>
<trkpt lat="46.042048" lon="11.177054">
<time>2020-10-28T18:10:13Z</time>
</trkpt>
<trkpt lat="46.042054" lon="11.177062">
<time>2020-10-28T18:10:14Z</time>
</trkpt>
<trkpt lat="46.042066" lon="11.177077">
<time>2020-10-28T18:10:15Z</time>
</trkpt>
<trkpt lat="46.042074" lon="11.177099">
<time>2020-10-28T18:10:16Z</time>
</trkpt>
<trkpt lat="46.04208" lon="11.177119">
<time>2020-10-28T18:10:17Z</time>
</trkpt>
<trkpt lat="46.042079" lon="11.177141">
<time>2020-10-28T18:10:18Z</time>
</trkpt>
<trkpt lat="46.042083" lon="11.177163">
<time>2020-10-28T18:10:19Z</time>
</trkpt>
<trkpt lat="46.042091" lon="11.17718">
<time>2020-10-28T18:10:20Z</time>
</trkpt>
<trkpt lat="46.042095" lon="11.177196">
<time>2020-10-28T18:10:21Z</time>
</trkpt>
<trkpt lat="46.042104" lon="11.177213">
<time>2020-10-28T18:10:22Z</time>
</trkpt>
<trkpt lat="46.042122" lon="11.177238">
<time>2020-10-28T18:10:23Z</time>
</trkpt>
<trkpt lat="46.042139" lon="11.177262">
<time>2020-10-28T18:10:24Z</time>
</trkpt>
<trkpt lat="46.042145" lon="11.177266">
<time>2020-10-28T18:10:25Z</time>
</trkpt>
<trkpt lat="46.042151" lon="11.177268">
<time>2020-10-28T18:10:26Z</time>
</trkpt>
<trkpt lat="46.042161" lon="11.177278">
<time>2020-10-28T18:10:27Z</time>
</trkpt>
<trkpt lat="46.042174" lon="11.177298">
<time>2020-10-28T18:10:28Z</time>
</trkpt>
<trkpt lat="46.042182" lon="11.177321">
<time>2020-10-28T18:10:29Z</time>
</trkpt>
<trkpt lat="46.042186" lon="11.177338">
<time>2020-10-28T18:10:30Z</time>
</trkpt>
<trkpt lat="46.042189" lon="11.177351">
<time>2020-10-28T18:10:31Z</time>
</trkpt>
<trkpt lat="46.042195" lon="11.177378">
<time>2020-10-28T18:10:32Z</time>
</trkpt>
<trkpt lat="46.042208" lon="11.177405">
<time>2020-10-28T18:10:33Z</time>
</trkpt>
<trkpt lat="46.042222" lon="11.177429">
<time>2020-10-28T18:10:34Z</time>
</trkpt>
<trkpt lat="46.042231" lon="11.177451">
<time>2020-10-28T18:10:35Z</time>
</trkpt>
<trkpt lat="46.042227" lon="11.177465">
<time>2020-10-28T18:10:36Z</time>
</trkpt>
<trkpt lat="46.042219" lon="11.17748">
<time>2020-10-28T18:10:37Z</time>
</trkpt>
<trkpt lat="46.042213" lon="11.177489">
<time>2020-10-28T18:10:38Z</time>
</trkpt>
<trkpt lat="46.042209" lon="11.177495">
<time>2020-10-28T18:10:39Z</time>
</trkpt>
<trkpt lat="46.042207" lon="11.177493">
<time>2020-10-28T18:10:40Z</time>
</trkpt>
<trkpt lat="46.0422" lon="11.177486">
<time>2020-10-28T18:10:41Z</time>
</trkpt>
<trkpt lat="46.042193" lon="11.17748">
<time>2020-10-28T18:10:42Z</time>
</trkpt>
<trkpt lat="46.042193" lon="11.177481">
<time>2020-10-28T18:10:43Z</time>
</trkpt>
<trkpt lat="46.042204" lon="11.177499">
<time>2020-10-28T18:10:44Z</time>
</trkpt>
<trkpt lat="46.042223" lon="11.17752">
<time>2020-10-28T18:10:45Z</time>
</trkpt>
<trkpt lat="46.042239" lon="11.177547">
<time>2020-10-28T18:10:46Z</time>
</trkpt>
<trkpt lat="46.042242" lon="11.177569">
<time>2020-10-28T18:10:47Z</time>
</trkpt>
<trkpt lat="46.042238" lon="11.177586">
<time>2020-10-28T18:10:48Z</time>
</trkpt>
<trkpt lat="46.042233" lon="11.177603">
<time>2020-10-28T18:10:49Z</time>
</trkpt>
<trkpt lat="46.042232" lon="11.177618">
<time>2020-10-28T18:10:50Z</time>
</trkpt>
<trkpt lat="46.042231" lon="11.177629">
<time>2020-10-28T18:10:51Z</time>
</trkpt>
<trkpt lat="46.042232" lon="11.177641">
<time>2020-10-28T18:10:52Z</time>
</trkpt>
<trkpt lat="46.042232" lon="11.17765">
<time>2020-10-28T18:10:53Z</time>
</trkpt>
<trkpt lat="46.042232" lon="11.17766">
<time>2020-10-28T18:10:54Z</time>
</trkpt>
<trkpt lat="46.042228" lon="11.17767">
<time>2020-10-28T18:10:55Z</time>
</trkpt>
<trkpt lat="46.042225" lon="11.177676">
<time>2020-10-28T18:10:56Z</time>
</trkpt>
<trkpt lat="46.042221" lon="11.177678">
<time>2020-10-28T18:10:57Z</time>
</trkpt>
<trkpt lat="46.042216" lon="11.17768">
<time>2020-10-28T18:10:58Z</time>
</trkpt>
<trkpt lat="46.042217" lon="11.17768">
<time>2020-10-28T18:10:59Z</time>
</trkpt>
<trkpt lat="46.042214" lon="11.177689">
<time>2020-10-28T18:11:00Z</time>
</trkpt>
<trkpt lat="46.042203" lon="11.177706">
<time>2020-10-28T18:11:01Z</time>
</trkpt>
<trkpt lat="46.042194" lon="11.177723">
<time>2020-10-28T18:11:02Z</time>
</trkpt>
<trkpt lat="46.042182" lon="11.177743">
<time>2020-10-28T18:11:03Z</time>
</trkpt>
<trkpt lat="46.042186" lon="11.177761">
<time>2020-10-28T18:11:04Z</time>
</trkpt>
<trkpt lat="46.042199" lon="11.177781">
<time>2020-10-28T18:11:05Z</time>
</trkpt>
<trkpt lat="46.042211" lon="11.1778">
<time>2020-10-28T18:11:06Z</time>
</trkpt>
<trkpt lat="46.04222" lon="11.177812">
<time>2020-10-28T18:11:07Z</time>
</trkpt>
<trkpt lat="46.042221" lon="11.177825">
<time>2020-10-28T18:11:08Z</time>
</trkpt>
<trkpt lat="46.042216" lon="11.177837">
<time>2020-10-28T18:11:09Z</time>
</trkpt>
<trkpt lat="46.042207" lon="11.177848">
<time>2020-10-28T18:11:10Z</time>
</trkpt>
<trkpt lat="46.042202" lon="11.177857">
<time>2020-10-28T18:11:11Z</time>
</trkpt>
<trkpt lat="46.042194" lon="11.177867">
<time>2020-10-28T18:11:12Z</time>
</trkpt>
<trkpt lat="46.042173" lon="11.177875">
<time>2020-10-28T18:11:13Z</time>
</trkpt>
<trkpt lat="46.04217" lon="11.177888">
<time>2020-10-28T18:11:14Z</time>
</trkpt>
<trkpt lat="46.042179" lon="11.177904">
<time>2020-10-28T18:11:15Z</time>
</trkpt>
<trkpt lat="46.042188" lon="11.177917">
<time>2020-10-28T18:11:16Z</time>
</trkpt>
<trkpt lat="46.042202" lon="11.177931">
<time>2020-10-28T18:11:17Z</time>
</trkpt>
<trkpt lat="46.04221" lon="11.177943">
<time>2020-10-28T18:11:18Z</time>
</trkpt>
<trkpt lat="46.042208" lon="11.177961">
<time>2020-10-28T18:11:19Z</time>
</trkpt>
<trkpt lat="46.04219" lon="11.177981">
<time>2020-10-28T18:11:20Z</time>
</trkpt>
<trkpt lat="46.042169" lon="11.177998">
<time>2020-10-28T18:11:21Z</time>
</trkpt>
<trkpt lat="46.042156" lon="11.178015">
<time>2020-10-28T18:11:22Z</time>
</trkpt>
<trkpt lat="46.042152" lon="11.178028">
<time>2020-10-28T18:11:23Z</time>
</trkpt>
<trkpt lat="46.042154" lon="11.178037">
<time>2020-10-28T18:11:24Z</time>
</trkpt>
<trkpt lat="46.042157" lon="11.178045">
<time>2020-10-28T18:11:25Z</time>
</trkpt>
<trkpt lat="46.042164" lon="11.178056">
<time>2020-10-28T18:11:26Z</time>
</trkpt>
<trkpt lat="46.042164" lon="11.17807">
<time>2020-10-28T18:11:27Z</time>
</trkpt>
<trkpt lat="46.042164" lon="11.178078">
<time>2020-10-28T18:11:28Z</time>
</trkpt>
<trkpt lat="46.042165" lon="11.178089">
<time>2020-10-28T18:11:29Z</time>
</trkpt>
<trkpt lat="46.042171" lon="11.178098">
<time>2020-10-28T18:11:30Z</time>
</trkpt>
<trkpt lat="46.042179" lon="11.178109">
<time>2020-10-28T18:11:31Z</time>
</trkpt>
<trkpt lat="46.042186" lon="11.178117">
<time>2020-10-28T18:11:32Z</time>
</trkpt>
<trkpt lat="46.042191" lon="11.178126">
<time>2020-10-28T18:11:33Z</time>
</trkpt>
<trkpt lat="46.042199" lon="11.178139">
<time>2020-10-28T18:11:34Z</time>
</trkpt>
<trkpt lat="46.042201" lon="11.17815">
<time>2020-10-28T18:11:35Z</time>
</trkpt>
<trkpt lat="46.042206" lon="11.17816">
<time>2020-10-28T18:11:36Z</time>
</trkpt>
<trkpt lat="46.04221" lon="11.178176">
<time>2020-10-28T18:11:37Z</time>
</trkpt>
<trkpt lat="46.04222" lon="11.17819">
<time>2020-10-28T18:11:38Z</time>
</trkpt>
<trkpt lat="46.042236" lon="11.178204">
<time>2020-10-28T18:11:39Z</time>
</trkpt>
<trkpt lat="46.042245" lon="11.17821">
<time>2020-10-28T18:11:40Z</time>
</trkpt>
<trkpt lat="46.042245" lon="11.178218">
<time>2020-10-28T18:11:41Z</time>
</trkpt>
<trkpt lat="46.042248" lon="11.17823">
<time>2020-10-28T18:11:42Z</time>
</trkpt>
<trkpt lat="46.042248" lon="11.178245">
<time>2020-10-28T18:11:43Z</time>
</trkpt>
<trkpt lat="46.042252" lon="11.178256">
<time>2020-10-28T18:11:44Z</time>
</trkpt>
<trkpt lat="46.042258" lon="11.178266">
<time>2020-10-28T18:11:45Z</time>
</trkpt>
<trkpt lat="46.042263" lon="11.178271">
<time>2020-10-28T18:11:46Z</time>
</trkpt>
<trkpt lat="46.042264" lon="11.178283">
<time>2020-10-28T18:11:47Z</time>
</trkpt>
<trkpt lat="46.042269" lon="11.178299">
<time>2020-10-28T18:11:48Z</time>
</trkpt>
<trkpt lat="46.042277" lon="11.178319">
<time>2020-10-28T18:11:49Z</time>
</trkpt>
<trkpt lat="46.042283" lon="11.178337">
<time>2020-10-28T18:11:50Z</time>
</trkpt>
<trkpt lat="46.042292" lon="11.178348">
<time>2020-10-28T18:11:51Z</time>
</trkpt>
<trkpt lat="46.04231" lon="11.178368">
<time>2020-10-28T18:11:52Z</time>
</trkpt>
<trkpt lat="46.042332" lon="11.178396">
<time>2020-10-28T18:11:53Z</time>
</trkpt>
<trkpt lat="46.042353" lon="11.178425">
<time>2020-10-28T18:11:54Z</time>
</trkpt>
<trkpt lat="46.042363" lon="11.178462">
<time>2020-10-28T18:11:55Z</time>
</trkpt>
<trkpt lat="46.042367" lon="11.178502">
<time>2020-10-28T18:11:56Z</time>
</trkpt>
<trkpt lat="46.042378" lon="11.178538">
<time>2020-10-28T18:11:57Z</time>
</trkpt>
<trkpt lat="46.042389" lon="11.17857">
<time>2020-10-28T18:11:58Z</time>
</trkpt>
<trkpt lat="46.042399" lon="11.178601">
<time>2020-10-28T18:11:59Z</time>
</trkpt>
<trkpt lat="46.042412" lon="11.178629">
<time>2020-10-28T18:12:00Z</time>
</trkpt>
<trkpt lat="46.042419" lon="11.178641">
<time>2020-10-28T18:12:01Z</time>
</trkpt>
<trkpt lat="46.042424" lon="11.178637">
<time>2020-10-28T18:12:02Z</time>
</trkpt>
<trkpt lat="46.042421" lon="11.178643">
<time>2020-10-28T18:12:03Z</time>
</trkpt>
<trkpt lat="46.04242" lon="11.178639">
<time>2020-10-28T18:12:04Z</time>
</trkpt>
<trkpt lat="46.042422" lon="11.17864">
<time>2020-10-28T18:12:05Z</time>
</trkpt>
<trkpt lat="46.042426" lon="11.17865">
<time>2020-10-28T18:12:06Z</time>
</trkpt>
<trkpt lat="46.042431" lon="11.178666">
<time>2020-10-28T18:12:07Z</time>
</trkpt>
<trkpt lat="46.042437" lon="11.178682">
<time>2020-10-28T18:12:08Z</time>
</trkpt>
<trkpt lat="46.042438" lon="11.178702">
<time>2020-10-28T18:12:09Z</time>
</trkpt>
<trkpt lat="46.042439" lon="11.178721">
<time>2020-10-28T18:12:10Z</time>
</trkpt>
<trkpt lat="46.042439" lon="11.178736">
<time>2020-10-28T18:12:11Z</time>
</trkpt>
<trkpt lat="46.042443" lon="11.178745">
<time>2020-10-28T18:12:12Z</time>
</trkpt>
<trkpt lat="46.042442" lon="11.17875">
<time>2020-10-28T18:12:13Z</time>
</trkpt>
<trkpt lat="46.042443" lon="11.178764">
<time>2020-10-28T18:12:14Z</time>
</trkpt>
<trkpt lat="46.042446" lon="11.17878">
<time>2020-10-28T18:12:15Z</time>
</trkpt>
<trkpt lat="46.042449" lon="11.178799">
<time>2020-10-28T18:12:16Z</time>
</trkpt>
<trkpt lat="46.042456" lon="11.17881">
<time>2020-10-28T18:12:17Z</time>
</trkpt>
<trkpt lat="46.042461" lon="11.178817">
<time>2020-10-28T18:12:18Z</time>
</trkpt>
<trkpt lat="46.042467" lon="11.178823">
<time>2020-10-28T18:12:19Z</time>
</trkpt>
<trkpt lat="46.042469" lon="11.178829">
<time>2020-10-28T18:12:20Z</time>
</trkpt>
<trkpt lat="46.042473" lon="11.178839">
<time>2020-10-28T18:12:21Z</time>
</trkpt>
<trkpt lat="46.04248" lon="11.178851">
<time>2020-10-28T18:12:22Z</time>
</trkpt>
<trkpt lat="46.042489" lon="11.178867">
<time>2020-10-28T18:12:23Z</time>
</trkpt>
<trkpt lat="46.042498" lon="11.178884">
<time>2020-10-28T18:12:24Z</time>
</trkpt>
<trkpt lat="46.042504" lon="11.178897">
<time>2020-10-28T18:12:25Z</time>
</trkpt>
<trkpt lat="46.042509" lon="11.178909">
<time>2020-10-28T18:12:26Z</time>
</trkpt>
<trkpt lat="46.042515" lon="11.178916">
<time>2020-10-28T18:12:27Z</time>
</trkpt>
<trkpt lat="46.042522" lon="11.178927">
<time>2020-10-28T18:12:28Z</time>
</trkpt>
<trkpt lat="46.042538" lon="11.178941">
<time>2020-10-28T18:12:29Z</time>
</trkpt>
<trkpt lat="46.042554" lon="11.178959">
<time>2020-10-28T18:12:30Z</time>
</trkpt>
<trkpt lat="46.042561" lon="11.17898">
<time>2020-10-28T18:12:31Z</time>
</trkpt>
<trkpt lat="46.042566" lon="11.178999">
<time>2020-10-28T18:12:32Z</time>
</trkpt>
<trkpt lat="46.042569" lon="11.179025">
<time>2020-10-28T18:12:33Z</time>
</trkpt>
<trkpt lat="46.042573" lon="11.179041">
<time>2020-10-28T18:12:34Z</time>
</trkpt>
<trkpt lat="46.042572" lon="11.179051">
<time>2020-10-28T18:12:35Z</time>
</trkpt>
<trkpt lat="46.042576" lon="11.179061">
<time>2020-10-28T18:12:36Z</time>
</trkpt>
<trkpt lat="46.042589" lon="11.179073">
<time>2020-10-28T18:12:37Z</time>
</trkpt>
<trkpt lat="46.042605" lon="11.179085">
<time>2020-10-28T18:12:38Z</time>
</trkpt>
<trkpt lat="46.04262" lon="11.179089">
<time>2020-10-28T18:12:39Z</time>
</trkpt>
<trkpt lat="46.042627" lon="11.179095">
<time>2020-10-28T18:12:40Z</time>
</trkpt>
<trkpt lat="46.042632" lon="11.179101">
<time>2020-10-28T18:12:41Z</time>
</trkpt>
<trkpt lat="46.042634" lon="11.179108">
<time>2020-10-28T18:12:42Z</time>
</trkpt>
<trkpt lat="46.04263" lon="11.179124">
<time>2020-10-28T18:12:43Z</time>
</trkpt>
<trkpt lat="46.042627" lon="11.179132">
<time>2020-10-28T18:12:44Z</time>
</trkpt>
<trkpt lat="46.04263" lon="11.17914">
<time>2020-10-28T18:12:45Z</time>
</trkpt>
<trkpt lat="46.042639" lon="11.179151">
<time>2020-10-28T18:12:46Z</time>
</trkpt>
<trkpt lat="46.042647" lon="11.179165">
<time>2020-10-28T18:12:47Z</time>
</trkpt>
<trkpt lat="46.042659" lon="11.179177">
<time>2020-10-28T18:12:48Z</time>
</trkpt>
<trkpt lat="46.042671" lon="11.179191">
<time>2020-10-28T18:12:49Z</time>
</trkpt>
<trkpt lat="46.042676" lon="11.179212">
<time>2020-10-28T18:12:50Z</time>
</trkpt>
<trkpt lat="46.042683" lon="11.179237">
<time>2020-10-28T18:12:51Z</time>
</trkpt>
<trkpt lat="46.042692" lon="11.179259">
<time>2020-10-28T18:12:52Z</time>
</trkpt>
<trkpt lat="46.042698" lon="11.179268">
<time>2020-10-28T18:12:53Z</time>
</trkpt>
<trkpt lat="46.042708" lon="11.179271">
<time>2020-10-28T18:12:54Z</time>
</trkpt>
<trkpt lat="46.042727" lon="11.179283">
<time>2020-10-28T18:12:55Z</time>
</trkpt>
<trkpt lat="46.042738" lon="11.1793">
<time>2020-10-28T18:12:56Z</time>
</trkpt>
<trkpt lat="46.04275" lon="11.179322">
<time>2020-10-28T18:12:57Z</time>
</trkpt>
<trkpt lat="46.04275" lon="11.179332">
<time>2020-10-28T18:12:58Z</time>
</trkpt>
<trkpt lat="46.042762" lon="11.17933">
<time>2020-10-28T18:12:59Z</time>
</trkpt>
<trkpt lat="46.042779" lon="11.179326">
<time>2020-10-28T18:13:00Z</time>
</trkpt>
<trkpt lat="46.042789" lon="11.179328">
<time>2020-10-28T18:13:01Z</time>
</trkpt>
<trkpt lat="46.0428" lon="11.17933">
<time>2020-10-28T18:13:02Z</time>
</trkpt>
<trkpt lat="46.042804" lon="11.17934">
<time>2020-10-28T18:13:03Z</time>
</trkpt>
<trkpt lat="46.04281" lon="11.179343">
<time>2020-10-28T18:13:04Z</time>
</trkpt>
<trkpt lat="46.042808" lon="11.179345">
<time>2020-10-28T18:13:05Z</time>
</trkpt>
<trkpt lat="46.0428" lon="11.17935">
<time>2020-10-28T18:13:06Z</time>
</trkpt>
<trkpt lat="46.042795" lon="11.179358">
<time>2020-10-28T18:13:07Z</time>
</trkpt>
<trkpt lat="46.042792" lon="11.179359">
<time>2020-10-28T18:13:08Z</time>
</trkpt>
<trkpt lat="46.042794" lon="11.179359">
<time>2020-10-28T18:13:09Z</time>
</trkpt>
<trkpt lat="46.042793" lon="11.179366">
<time>2020-10-28T18:13:10Z</time>
</trkpt>
<trkpt lat="46.042792" lon="11.179371">
<time>2020-10-28T18:13:11Z</time>
</trkpt>
<trkpt lat="46.042793" lon="11.179377">
<time>2020-10-28T18:13:12Z</time>
</trkpt>
<trkpt lat="46.042798" lon="11.179387">
<time>2020-10-28T18:13:13Z</time>
</trkpt>
<trkpt lat="46.042806" lon="11.179397">
<time>2020-10-28T18:13:14Z</time>
</trkpt>
<trkpt lat="46.042812" lon="11.179403">
<time>2020-10-28T18:13:15Z</time>
</trkpt>
<trkpt lat="46.042814" lon="11.179407">
<time>2020-10-28T18:13:16Z</time>
</trkpt>
<trkpt lat="46.042819" lon="11.179409">
<time>2020-10-28T18:13:17Z</time>
</trkpt>
<trkpt lat="46.042837" lon="11.179422">
<time>2020-10-28T18:13:18Z</time>
</trkpt>
<trkpt lat="46.042859" lon="11.179444">
<time>2020-10-28T18:13:19Z</time>
</trkpt>
<trkpt lat="46.042882" lon="11.179468">
<time>2020-10-28T18:13:20Z</time>
</trkpt>
<trkpt lat="46.0429" lon="11.179488">
<time>2020-10-28T18:13:21Z</time>
</trkpt>
<trkpt lat="46.042918" lon="11.179511">
<time>2020-10-28T18:13:22Z</time>
</trkpt>
<trkpt lat="46.042936" lon="11.179521">
<time>2020-10-28T18:13:23Z</time>
</trkpt>
<trkpt lat="46.04296" lon="11.179525">
<time>2020-10-28T18:13:24Z</time>
</trkpt>
<trkpt lat="46.042977" lon="11.179525">
<time>2020-10-28T18:13:25Z</time>
</trkpt>
<trkpt lat="46.042992" lon="11.179529">
<time>2020-10-28T18:13:26Z</time>
</trkpt>
<trkpt lat="46.043004" lon="11.179535">
<time>2020-10-28T18:13:27Z</time>
</trkpt>
<trkpt lat="46.043011" lon="11.179538">
<time>2020-10-28T18:13:28Z</time>
</trkpt>
<trkpt lat="46.043016" lon="11.179538">
<time>2020-10-28T18:13:29Z</time>
</trkpt>
<trkpt lat="46.043014" lon="11.179537">
<time>2020-10-28T18:13:30Z</time>
</trkpt>
<trkpt lat="46.043026" lon="11.179541">
<time>2020-10-28T18:13:31Z</time>
</trkpt>
<trkpt lat="46.04304" lon="11.179552">
<time>2020-10-28T18:13:32Z</time>
</trkpt>
<trkpt lat="46.043058" lon="11.179562">
<time>2020-10-28T18:13:33Z</time>
</trkpt>
<trkpt lat="46.043074" lon="11.179566">
<time>2020-10-28T18:13:34Z</time>
</trkpt>
<trkpt lat="46.043093" lon="11.179564">
<time>2020-10-28T18:13:35Z</time>
</trkpt>
<trkpt lat="46.043111" lon="11.179569">
<time>2020-10-28T18:13:36Z</time>
</trkpt>
<trkpt lat="46.04313" lon="11.17958">
<time>2020-10-28T18:13:37Z</time>
</trkpt>
<trkpt lat="46.04314" lon="11.179598">
<time>2020-10-28T18:13:38Z</time>
</trkpt>
<trkpt lat="46.043155" lon="11.179616">
<time>2020-10-28T18:13:39Z</time>
</trkpt>
<trkpt lat="46.043168" lon="11.179627">
<time>2020-10-28T18:13:40Z</time>
</trkpt>
<trkpt lat="46.043172" lon="11.179638">
<time>2020-10-28T18:13:41Z</time>
</trkpt>
<trkpt lat="46.043171" lon="11.179648">
<time>2020-10-28T18:13:42Z</time>
</trkpt>
<trkpt lat="46.043172" lon="11.179651">
<time>2020-10-28T18:13:43Z</time>
</trkpt>
<trkpt lat="46.043183" lon="11.17966">
<time>2020-10-28T18:13:44Z</time>
</trkpt>
<trkpt lat="46.043196" lon="11.179673">
<time>2020-10-28T18:13:45Z</time>
</trkpt>
<trkpt lat="46.043213" lon="11.179689">
<time>2020-10-28T18:13:46Z</time>
</trkpt>
<trkpt lat="46.043237" lon="11.179702">
<time>2020-10-28T18:13:47Z</time>
</trkpt>
<trkpt lat="46.043255" lon="11.179705">
<time>2020-10-28T18:13:48Z</time>
</trkpt>
<trkpt lat="46.043273" lon="11.179709">
<time>2020-10-28T18:13:49Z</time>
</trkpt>
<trkpt lat="46.043289" lon="11.179715">
<time>2020-10-28T18:13:50Z</time>
</trkpt>
<trkpt lat="46.043302" lon="11.179726">
<time>2020-10-28T18:13:51Z</time>
</trkpt>
<trkpt lat="46.043319" lon="11.179736">
<time>2020-10-28T18:13:52Z</time>
</trkpt>
<trkpt lat="46.043336" lon="11.179744">
<time>2020-10-28T18:13:53Z</time>
</trkpt>
<trkpt lat="46.043346" lon="11.179751">
<time>2020-10-28T18:13:54Z</time>
</trkpt>
<trkpt lat="46.043356" lon="11.179767">
<time>2020-10-28T18:13:55Z</time>
</trkpt>
<trkpt lat="46.043365" lon="11.17978">
<time>2020-10-28T18:13:56Z</time>
</trkpt>
<trkpt lat="46.043378" lon="11.179792">
<time>2020-10-28T18:13:57Z</time>
</trkpt>
<trkpt lat="46.043389" lon="11.179802">
<time>2020-10-28T18:13:58Z</time>
</trkpt>
<trkpt lat="46.043396" lon="11.179816">
<time>2020-10-28T18:13:59Z</time>
</trkpt>
<trkpt lat="46.043407" lon="11.179831">
<time>2020-10-28T18:14:00Z</time>
</trkpt>
<trkpt lat="46.043415" lon="11.179842">
<time>2020-10-28T18:14:01Z</time>
</trkpt>
<trkpt lat="46.043425" lon="11.179853">
<time>2020-10-28T18:14:02Z</time>
</trkpt>
<trkpt lat="46.043429" lon="11.179857">
<time>2020-10-28T18:14:03Z</time>
</trkpt>
<trkpt lat="46.043435" lon="11.179861">
<time>2020-10-28T18:14:04Z</time>
</trkpt>
<trkpt lat="46.043444" lon="11.179865">
<time>2020-10-28T18:14:05Z</time>
</trkpt>
<trkpt lat="46.043458" lon="11.179872">
<time>2020-10-28T18:14:06Z</time>
</trkpt>
<trkpt lat="46.043476" lon="11.179882">
<time>2020-10-28T18:14:07Z</time>
</trkpt>
<trkpt lat="46.043492" lon="11.179894">
<time>2020-10-28T18:14:08Z</time>
</trkpt>
<trkpt lat="46.043504" lon="11.179909">
<time>2020-10-28T18:14:09Z</time>
</trkpt>
<trkpt lat="46.043513" lon="11.179928">
<time>2020-10-28T18:14:10Z</time>
</trkpt>
<trkpt lat="46.043524" lon="11.179943">
<time>2020-10-28T18:14:11Z</time>
</trkpt>
<trkpt lat="46.043535" lon="11.179962">
<time>2020-10-28T18:14:12Z</time>
</trkpt>
<trkpt lat="46.043548" lon="11.179982">
<time>2020-10-28T18:14:13Z</time>
</trkpt>
<trkpt lat="46.04356" lon="11.180002">
<time>2020-10-28T18:14:14Z</time>
</trkpt>
<trkpt lat="46.043572" lon="11.180019">
<time>2020-10-28T18:14:15Z</time>
</trkpt>
<trkpt lat="46.043587" lon="11.180032">
<time>2020-10-28T18:14:16Z</time>
</trkpt>
<trkpt lat="46.043603" lon="11.180049">
<time>2020-10-28T18:14:17Z</time>
</trkpt>
<trkpt lat="46.04362" lon="11.18006">
<time>2020-10-28T18:14:18Z</time>
</trkpt>
<trkpt lat="46.043639" lon="11.180065">
<time>2020-10-28T18:14:19Z</time>
</trkpt>
<trkpt lat="46.043655" lon="11.180074">
<time>2020-10-28T18:14:20Z</time>
</trkpt>
<trkpt lat="46.043668" lon="11.180089">
<time>2020-10-28T18:14:21Z</time>
</trkpt>
<trkpt lat="46.043687" lon="11.180102">
<time>2020-10-28T18:14:22Z</time>
</trkpt>
<trkpt lat="46.043712" lon="11.180115">
<time>2020-10-28T18:14:23Z</time>
</trkpt>
<trkpt lat="46.043736" lon="11.18013">
<time>2020-10-28T18:14:24Z</time>
</trkpt>
<trkpt lat="46.043763" lon="11.180139">
<time>2020-10-28T18:14:25Z</time>
</trkpt>
<trkpt lat="46.043784" lon="11.180153">
<time>2020-10-28T18:14:26Z</time>
</trkpt>
<trkpt lat="46.043797" lon="11.180166">
<time>2020-10-28T18:14:27Z</time>
</trkpt>
<trkpt lat="46.043806" lon="11.180172">
<time>2020-10-28T18:14:28Z</time>
</trkpt>
<trkpt lat="46.043808" lon="11.180181">
<time>2020-10-28T18:14:29Z</time>
</trkpt>
<trkpt lat="46.043816" lon="11.180198">
<time>2020-10-28T18:14:30Z</time>
</trkpt>
<trkpt lat="46.043829" lon="11.180207">
<time>2020-10-28T18:14:31Z</time>
</trkpt>
<trkpt lat="46.043845" lon="11.180213">
<time>2020-10-28T18:14:32Z</time>
</trkpt>
<trkpt lat="46.043864" lon="11.180223">
<time>2020-10-28T18:14:33Z</time>
</trkpt>
<trkpt lat="46.043889" lon="11.180251">
<time>2020-10-28T18:14:34Z</time>
</trkpt>
<trkpt lat="46.043918" lon="11.180257">
<time>2020-10-28T18:14:35Z</time>
</trkpt>
<trkpt lat="46.043944" lon="11.180274">
<time>2020-10-28T18:14:36Z</time>
</trkpt>
<trkpt lat="46.043972" lon="11.180296">
<time>2020-10-28T18:14:37Z</time>
</trkpt>
<trkpt lat="46.043988" lon="11.18031">
<time>2020-10-28T18:14:38Z</time>
</trkpt>
<trkpt lat="46.044008" lon="11.18033">
<time>2020-10-28T18:14:39Z</time>
</trkpt>
<trkpt lat="46.04402" lon="11.180345">
<time>2020-10-28T18:14:40Z</time>
</trkpt>
<trkpt lat="46.044028" lon="11.180356">
<time>2020-10-28T18:14:41Z</time>
</trkpt>
<trkpt lat="46.044038" lon="11.180365">
<time>2020-10-28T18:14:42Z</time>
</trkpt>
<trkpt lat="46.044056" lon="11.180366">
<time>2020-10-28T18:14:43Z</time>
</trkpt>
<trkpt lat="46.044077" lon="11.180367">
<time>2020-10-28T18:14:44Z</time>
</trkpt>
<trkpt lat="46.044095" lon="11.180368">
<time>2020-10-28T18:14:45Z</time>
</trkpt>
<trkpt lat="46.044106" lon="11.180373">
<time>2020-10-28T18:14:46Z</time>
</trkpt>
<trkpt lat="46.044122" lon="11.180376">
<time>2020-10-28T18:14:47Z</time>
</trkpt>
<trkpt lat="46.044153" lon="11.180381">
<time>2020-10-28T18:14:48Z</time>
</trkpt>
<trkpt lat="46.044184" lon="11.180392">
<time>2020-10-28T18:14:49Z</time>
</trkpt>
<trkpt lat="46.044216" lon="11.180397">
<time>2020-10-28T18:14:50Z</time>
</trkpt>
<trkpt lat="46.044247" lon="11.180396">
<time>2020-10-28T18:14:51Z</time>
</trkpt>
<trkpt lat="46.044276" lon="11.180401">
<time>2020-10-28T18:14:52Z</time>
</trkpt>
<trkpt lat="46.0443" lon="11.180406">
<time>2020-10-28T18:14:53Z</time>
</trkpt>
<trkpt lat="46.044321" lon="11.180407">
<time>2020-10-28T18:14:54Z</time>
</trkpt>
<trkpt lat="46.044339" lon="11.180402">
<time>2020-10-28T18:14:55Z</time>
</trkpt>
<trkpt lat="46.044358" lon="11.1804">
<time>2020-10-28T18:14:56Z</time>
</trkpt>
<trkpt lat="46.044377" lon="11.180398">
<time>2020-10-28T18:14:57Z</time>
</trkpt>
<trkpt lat="46.044397" lon="11.180392">
<time>2020-10-28T18:14:58Z</time>
</trkpt>
<trkpt lat="46.044413" lon="11.180385">
<time>2020-10-28T18:14:59Z</time>
</trkpt>
<trkpt lat="46.044434" lon="11.180375">
<time>2020-10-28T18:15:00Z</time>
</trkpt>
<trkpt lat="46.044455" lon="11.180377">
<time>2020-10-28T18:15:01Z</time>
</trkpt>
<trkpt lat="46.044478" lon="11.180391">
<time>2020-10-28T18:15:02Z</time>
</trkpt>
<trkpt lat="46.044509" lon="11.180404">
<time>2020-10-28T18:15:03Z</time>
</trkpt>
<trkpt lat="46.044543" lon="11.18042">
<time>2020-10-28T18:15:04Z</time>
</trkpt>
<trkpt lat="46.044569" lon="11.180433">
<time>2020-10-28T18:15:05Z</time>
</trkpt>
<trkpt lat="46.044598" lon="11.180446">
<time>2020-10-28T18:15:06Z</time>
</trkpt>
<trkpt lat="46.044629" lon="11.180457">
<time>2020-10-28T18:15:07Z</time>
</trkpt>
<trkpt lat="46.044657" lon="11.180451">
<time>2020-10-28T18:15:08Z</time>
</trkpt>
<trkpt lat="46.044689" lon="11.180431">
<time>2020-10-28T18:15:09Z</time>
</trkpt>
<trkpt lat="46.044726" lon="11.1804">
<time>2020-10-28T18:15:10Z</time>
</trkpt>
<trkpt lat="46.04476" lon="11.180372">
<time>2020-10-28T18:15:11Z</time>
</trkpt>
<trkpt lat="46.044786" lon="11.180342">
<time>2020-10-28T18:15:12Z</time>
</trkpt>
<trkpt lat="46.044821" lon="11.180311">
<time>2020-10-28T18:15:13Z</time>
</trkpt>
<trkpt lat="46.044858" lon="11.180296">
<time>2020-10-28T18:15:14Z</time>
</trkpt>
<trkpt lat="46.044892" lon="11.180291">
<time>2020-10-28T18:15:15Z</time>
</trkpt>
<trkpt lat="46.044921" lon="11.180282">
<time>2020-10-28T18:15:16Z</time>
</trkpt>
<trkpt lat="46.04495" lon="11.180263">
<time>2020-10-28T18:15:17Z</time>
</trkpt>
<trkpt lat="46.044978" lon="11.18025">
<time>2020-10-28T18:15:18Z</time>
</trkpt>
<trkpt lat="46.045" lon="11.180244">
<time>2020-10-28T18:15:19Z</time>
</trkpt>
<trkpt lat="46.045013" lon="11.180229">
<time>2020-10-28T18:15:20Z</time>
</trkpt>
<trkpt lat="46.045024" lon="11.180207">
<time>2020-10-28T18:15:21Z</time>
</trkpt>
<trkpt lat="46.045033" lon="11.180189">
<time>2020-10-28T18:15:22Z</time>
</trkpt>
<trkpt lat="46.045046" lon="11.180177">
<time>2020-10-28T18:15:23Z</time>
</trkpt>
<trkpt lat="46.045066" lon="11.180174">
<time>2020-10-28T18:15:24Z</time>
</trkpt>
<trkpt lat="46.045084" lon="11.180165">
<time>2020-10-28T18:15:25Z</time>
</trkpt>
<trkpt lat="46.045098" lon="11.180159">
<time>2020-10-28T18:15:26Z</time>
</trkpt>
<trkpt lat="46.045112" lon="11.180154">
<time>2020-10-28T18:15:27Z</time>
</trkpt>
<trkpt lat="46.045122" lon="11.180141">
<time>2020-10-28T18:15:28Z</time>
</trkpt>
<trkpt lat="46.045133" lon="11.180128">
<time>2020-10-28T18:15:29Z</time>
</trkpt>
<trkpt lat="46.045147" lon="11.180117">
<time>2020-10-28T18:15:30Z</time>
</trkpt>
<trkpt lat="46.045158" lon="11.180103">
<time>2020-10-28T18:15:31Z</time>
</trkpt>
<trkpt lat="46.045168" lon="11.180094">
<time>2020-10-28T18:15:32Z</time>
</trkpt>
<trkpt lat="46.045178" lon="11.180088">
<time>2020-10-28T18:15:33Z</time>
</trkpt>
<trkpt lat="46.045187" lon="11.180086">
<time>2020-10-28T18:15:34Z</time>
</trkpt>
<trkpt lat="46.045196" lon="11.180084">
<time>2020-10-28T18:15:35Z</time>
</trkpt>
<trkpt lat="46.045206" lon="11.180072">
<time>2020-10-28T18:15:36Z</time>
</trkpt>
<trkpt lat="46.045219" lon="11.180056">
<time>2020-10-28T18:15:37Z</time>
</trkpt>
<trkpt lat="46.045231" lon="11.180039">
<time>2020-10-28T18:15:38Z</time>
</trkpt>
<trkpt lat="46.045247" lon="11.180022">
<time>2020-10-28T18:15:39Z</time>
</trkpt>
<trkpt lat="46.045266" lon="11.179999">
<time>2020-10-28T18:15:40Z</time>
</trkpt>
<trkpt lat="46.045286" lon="11.179985">
<time>2020-10-28T18:15:41Z</time>
</trkpt>
<trkpt lat="46.045312" lon="11.179977">
<time>2020-10-28T18:15:42Z</time>
</trkpt>
<trkpt lat="46.045336" lon="11.179978">
<time>2020-10-28T18:15:43Z</time>
</trkpt>
<trkpt lat="46.045363" lon="11.179975">
<time>2020-10-28T18:15:44Z</time>
</trkpt>
<trkpt lat="46.045389" lon="11.179964">
<time>2020-10-28T18:15:45Z</time>
</trkpt>
<trkpt lat="46.045417" lon="11.179953">
<time>2020-10-28T18:15:46Z</time>
</trkpt>
<trkpt lat="46.045439" lon="11.179944">
<time>2020-10-28T18:15:47Z</time>
</trkpt>
<trkpt lat="46.045467" lon="11.179938">
<time>2020-10-28T18:15:48Z</time>
</trkpt>
<trkpt lat="46.045496" lon="11.179936">
<time>2020-10-28T18:15:49Z</time>
</trkpt>
<trkpt lat="46.045518" lon="11.179933">
<time>2020-10-28T18:15:50Z</time>
</trkpt>
<trkpt lat="46.045546" lon="11.179943">
<time>2020-10-28T18:15:51Z</time>
</trkpt>
<trkpt lat="46.045573" lon="11.179953">
<time>2020-10-28T18:15:52Z</time>
</trkpt>
<trkpt lat="46.045602" lon="11.179965">
<time>2020-10-28T18:15:53Z</time>
</trkpt>
<trkpt lat="46.04563" lon="11.179968">
<time>2020-10-28T18:15:54Z</time>
</trkpt>
<trkpt lat="46.045651" lon="11.179961">
<time>2020-10-28T18:15:55Z</time>
</trkpt>
<trkpt lat="46.045667" lon="11.179947">
<time>2020-10-28T18:15:56Z</time>
</trkpt>
<trkpt lat="46.045686" lon="11.179937">
<time>2020-10-28T18:15:57Z</time>
</trkpt>
<trkpt lat="46.045705" lon="11.179931">
<time>2020-10-28T18:15:58Z</time>
</trkpt>
<trkpt lat="46.04572" lon="11.179928">
<time>2020-10-28T18:15:59Z</time>
</trkpt>
<trkpt lat="46.045736" lon="11.179923">
<time>2020-10-28T18:16:00Z</time>
</trkpt>
<trkpt lat="46.045747" lon="11.17992">
<time>2020-10-28T18:16:01Z</time>
</trkpt>
<trkpt lat="46.04576" lon="11.179919">
<time>2020-10-28T18:16:02Z</time>
</trkpt>
<trkpt lat="46.04577" lon="11.179922">
<time>2020-10-28T18:16:03Z</time>
</trkpt>
<trkpt lat="46.04578" lon="11.17993">
<time>2020-10-28T18:16:04Z</time>
</trkpt>
<trkpt lat="46.04579" lon="11.179932">
<time>2020-10-28T18:16:05Z</time>
</trkpt>
<trkpt lat="46.045798" lon="11.17993">
<time>2020-10-28T18:16:06Z</time>
</trkpt>
<trkpt lat="46.045808" lon="11.179933">
<time>2020-10-28T18:16:07Z</time>
</trkpt>
<trkpt lat="46.045826" lon="11.179936">
<time>2020-10-28T18:16:08Z</time>
</trkpt>
<trkpt lat="46.045847" lon="11.179931">
<time>2020-10-28T18:16:09Z</time>
</trkpt>
<trkpt lat="46.04587" lon="11.179931">
<time>2020-10-28T18:16:10Z</time>
</trkpt>
<trkpt lat="46.045891" lon="11.179928">
<time>2020-10-28T18:16:11Z</time>
</trkpt>
<trkpt lat="46.045906" lon="11.179924">
<time>2020-10-28T18:16:12Z</time>
</trkpt>
<trkpt lat="46.045921" lon="11.179928">
<time>2020-10-28T18:16:13Z</time>
</trkpt>
<trkpt lat="46.04594" lon="11.179936">
<time>2020-10-28T18:16:14Z</time>
</trkpt>
<trkpt lat="46.045966" lon="11.179948">
<time>2020-10-28T18:16:15Z</time>
</trkpt>
<trkpt lat="46.045994" lon="11.179962">
<time>2020-10-28T18:16:16Z</time>
</trkpt>
<trkpt lat="46.046014" lon="11.179972">
<time>2020-10-28T18:16:17Z</time>
</trkpt>
<trkpt lat="46.046031" lon="11.179974">
<time>2020-10-28T18:16:18Z</time>
</trkpt>
<trkpt lat="46.04604" lon="11.179967">
<time>2020-10-28T18:16:19Z</time>
</trkpt>
<trkpt lat="46.046053" lon="11.179958">
<time>2020-10-28T18:16:20Z</time>
</trkpt>
<trkpt lat="46.04607" lon="11.179951">
<time>2020-10-28T18:16:21Z</time>
</trkpt>
<trkpt lat="46.046086" lon="11.17995">
<time>2020-10-28T18:16:22Z</time>
</trkpt>
<trkpt lat="46.046102" lon="11.179954">
<time>2020-10-28T18:16:23Z</time>
</trkpt>
<trkpt lat="46.04612" lon="11.179965">
<time>2020-10-28T18:16:24Z</time>
</trkpt>
<trkpt lat="46.046134" lon="11.179981">
<time>2020-10-28T18:16:25Z</time>
</trkpt>
<trkpt lat="46.046152" lon="11.179992">
<time>2020-10-28T18:16:26Z</time>
</trkpt>
<trkpt lat="46.046175" lon="11.179999">
<time>2020-10-28T18:16:27Z</time>
</trkpt>
<trkpt lat="46.0462" lon="11.179997">
<time>2020-10-28T18:16:28Z</time>
</trkpt>
<trkpt lat="46.046222" lon="11.179989">
<time>2020-10-28T18:16:29Z</time>
</trkpt>
<trkpt lat="46.046243" lon="11.17998">
<time>2020-10-28T18:16:30Z</time>
</trkpt>
<trkpt lat="46.046261" lon="11.179973">
<time>2020-10-28T18:16:31Z</time>
</trkpt>
<trkpt lat="46.046279" lon="11.179968">
<time>2020-10-28T18:16:32Z</time>
</trkpt>
<trkpt lat="46.046293" lon="11.179964">
<time>2020-10-28T18:16:33Z</time>
</trkpt>
<trkpt lat="46.046312" lon="11.179962">
<time>2020-10-28T18:16:34Z</time>
</trkpt>
<trkpt lat="46.046325" lon="11.179953">
<time>2020-10-28T18:16:35Z</time>
</trkpt>
<trkpt lat="46.046338" lon="11.179944">
<time>2020-10-28T18:16:36Z</time>
</trkpt>
<trkpt lat="46.046355" lon="11.179946">
<time>2020-10-28T18:16:37Z</time>
</trkpt>
<trkpt lat="46.046372" lon="11.179949">
<time>2020-10-28T18:16:38Z</time>
</trkpt>
<trkpt lat="46.046382" lon="11.179956">
<time>2020-10-28T18:16:39Z</time>
</trkpt>
<trkpt lat="46.046391" lon="11.179959">
<time>2020-10-28T18:16:40Z</time>
</trkpt>
<trkpt lat="46.046395" lon="11.179964">
<time>2020-10-28T18:16:41Z</time>
</trkpt>
<trkpt lat="46.046399" lon="11.179973">
<time>2020-10-28T18:16:42Z</time>
</trkpt>
<trkpt lat="46.046401" lon="11.179975">
<time>2020-10-28T18:16:43Z</time>
</trkpt>
<trkpt lat="46.046401" lon="11.179964">
<time>2020-10-28T18:16:44Z</time>
</trkpt>
<trkpt lat="46.046413" lon="11.179952">
<time>2020-10-28T18:16:45Z</time>
</trkpt>
<trkpt lat="46.046418" lon="11.179935">
<time>2020-10-28T18:16:46Z</time>
</trkpt>
<trkpt lat="46.046422" lon="11.179922">
<time>2020-10-28T18:16:47Z</time>
</trkpt>
<trkpt lat="46.046429" lon="11.179915">
<time>2020-10-28T18:16:48Z</time>
</trkpt>
<trkpt lat="46.04644" lon="11.179911">
<time>2020-10-28T18:16:49Z</time>
</trkpt>
<trkpt lat="46.046449" lon="11.179906">
<time>2020-10-28T18:16:50Z</time>
</trkpt>
<trkpt lat="46.046455" lon="11.179896">
<time>2020-10-28T18:16:51Z</time>
</trkpt>
<trkpt lat="46.046463" lon="11.179884">
<time>2020-10-28T18:16:52Z</time>
</trkpt>
<trkpt lat="46.046474" lon="11.179874">
<time>2020-10-28T18:16:53Z</time>
</trkpt>
<trkpt lat="46.046489" lon="11.179864">
<time>2020-10-28T18:16:54Z</time>
</trkpt>
<trkpt lat="46.046502" lon="11.179856">
<time>2020-10-28T18:16:55Z</time>
</trkpt>
<trkpt lat="46.046515" lon="11.179854">
<time>2020-10-28T18:16:56Z</time>
</trkpt>
<trkpt lat="46.04653" lon="11.179858">
<time>2020-10-28T18:16:57Z</time>
</trkpt>
<trkpt lat="46.046535" lon="11.179852">
<time>2020-10-28T18:16:58Z</time>
</trkpt>
<trkpt lat="46.046539" lon="11.179842">
<time>2020-10-28T18:16:59Z</time>
</trkpt>
<trkpt lat="46.046549" lon="11.179828">
<time>2020-10-28T18:17:00Z</time>
</trkpt>
<trkpt lat="46.046555" lon="11.179819">
<time>2020-10-28T18:17:01Z</time>
</trkpt>
<trkpt lat="46.046559" lon="11.179809">
<time>2020-10-28T18:17:02Z</time>
</trkpt>
<trkpt lat="46.046568" lon="11.179803">
<time>2020-10-28T18:17:03Z</time>
</trkpt>
<trkpt lat="46.046586" lon="11.179801">
<time>2020-10-28T18:17:04Z</time>
</trkpt>
<trkpt lat="46.046605" lon="11.179793">
<time>2020-10-28T18:17:05Z</time>
</trkpt>
<trkpt lat="46.046619" lon="11.179781">
<time>2020-10-28T18:17:06Z</time>
</trkpt>
<trkpt lat="46.04663" lon="11.179774">
<time>2020-10-28T18:17:07Z</time>
</trkpt>
<trkpt lat="46.046635" lon="11.179758">
<time>2020-10-28T18:17:08Z</time>
</trkpt>
<trkpt lat="46.046637" lon="11.179742">
<time>2020-10-28T18:17:09Z</time>
</trkpt>
<trkpt lat="46.046648" lon="11.179734">
<time>2020-10-28T18:17:10Z</time>
</trkpt>
<trkpt lat="46.046663" lon="11.179734">
<time>2020-10-28T18:17:11Z</time>
</trkpt>
<trkpt lat="46.046672" lon="11.179731">
<time>2020-10-28T18:17:12Z</time>
</trkpt>
<trkpt lat="46.04668" lon="11.179726">
<time>2020-10-28T18:17:13Z</time>
</trkpt>
<trkpt lat="46.046691" lon="11.179719">
<time>2020-10-28T18:17:14Z</time>
</trkpt>
<trkpt lat="46.046704" lon="11.179713">
<time>2020-10-28T18:17:15Z</time>
</trkpt>
<trkpt lat="46.046719" lon="11.179718">
<time>2020-10-28T18:17:16Z</time>
</trkpt>
<trkpt lat="46.046727" lon="11.179723">
<time>2020-10-28T18:17:17Z</time>
</trkpt>
<trkpt lat="46.04673" lon="11.179719">
<time>2020-10-28T18:17:18Z</time>
</trkpt>
<trkpt lat="46.046735" lon="11.179699">
<time>2020-10-28T18:17:19Z</time>
</trkpt>
<trkpt lat="46.046736" lon="11.179669">
<time>2020-10-28T18:17:20Z</time>
</trkpt>
<trkpt lat="46.046745" lon="11.179649">
<time>2020-10-28T18:17:21Z</time>
</trkpt>
<trkpt lat="46.046756" lon="11.179637">
<time>2020-10-28T18:17:22Z</time>
</trkpt>
<trkpt lat="46.046768" lon="11.179634">
<time>2020-10-28T18:17:23Z</time>
</trkpt>
<trkpt lat="46.046788" lon="11.179636">
<time>2020-10-28T18:17:24Z</time>
</trkpt>
<trkpt lat="46.046805" lon="11.179633">
<time>2020-10-28T18:17:25Z</time>
</trkpt>
<trkpt lat="46.046817" lon="11.179628">
<time>2020-10-28T18:17:26Z</time>
</trkpt>
<trkpt lat="46.04683" lon="11.17962">
<time>2020-10-28T18:17:27Z</time>
</trkpt>
<trkpt lat="46.046842" lon="11.179612">
<time>2020-10-28T18:17:28Z</time>
</trkpt>
<trkpt lat="46.046851" lon="11.179614">
<time>2020-10-28T18:17:29Z</time>
</trkpt>
<trkpt lat="46.046855" lon="11.179611">
<time>2020-10-28T18:17:30Z</time>
</trkpt>
<trkpt lat="46.046867" lon="11.179608">
<time>2020-10-28T18:17:31Z</time>
</trkpt>
<trkpt lat="46.046884" lon="11.1796">
<time>2020-10-28T18:17:32Z</time>
</trkpt>
<trkpt lat="46.046902" lon="11.179587">
<time>2020-10-28T18:17:33Z</time>
</trkpt>
<trkpt lat="46.046909" lon="11.179573">
<time>2020-10-28T18:17:34Z</time>
</trkpt>
<trkpt lat="46.046917" lon="11.179561">
<time>2020-10-28T18:17:35Z</time>
</trkpt>
<trkpt lat="46.046924" lon="11.179548">
<time>2020-10-28T18:17:36Z</time>
</trkpt>
<trkpt lat="46.046927" lon="11.179541">
<time>2020-10-28T18:17:37Z</time>
</trkpt>
<trkpt lat="46.046932" lon="11.179538">
<time>2020-10-28T18:17:38Z</time>
</trkpt>
<trkpt lat="46.046939" lon="11.179534">
<time>2020-10-28T18:17:39Z</time>
</trkpt>
<trkpt lat="46.04695" lon="11.179528">
<time>2020-10-28T18:17:40Z</time>
</trkpt>
<trkpt lat="46.046961" lon="11.17952">
<time>2020-10-28T18:17:41Z</time>
</trkpt>
<trkpt lat="46.046959" lon="11.179503">
<time>2020-10-28T18:17:42Z</time>
</trkpt>
<trkpt lat="46.046961" lon="11.179491">
<time>2020-10-28T18:17:43Z</time>
</trkpt>
<trkpt lat="46.046972" lon="11.179483">
<time>2020-10-28T18:17:44Z</time>
</trkpt>
<trkpt lat="46.046985" lon="11.179477">
<time>2020-10-28T18:17:45Z</time>
</trkpt>
<trkpt lat="46.046994" lon="11.179468">
<time>2020-10-28T18:17:46Z</time>
</trkpt>
<trkpt lat="46.047" lon="11.179456">
<time>2020-10-28T18:17:47Z</time>
</trkpt>
<trkpt lat="46.047006" lon="11.17944">
<time>2020-10-28T18:17:48Z</time>
</trkpt>
<trkpt lat="46.047008" lon="11.179426">
<time>2020-10-28T18:17:49Z</time>
</trkpt>
<trkpt lat="46.047008" lon="11.179418">
<time>2020-10-28T18:17:50Z</time>
</trkpt>
<trkpt lat="46.047011" lon="11.179406">
<time>2020-10-28T18:17:51Z</time>
</trkpt>
<trkpt lat="46.047021" lon="11.179391">
<time>2020-10-28T18:17:52Z</time>
</trkpt>
<trkpt lat="46.047031" lon="11.179378">
<time>2020-10-28T18:17:53Z</time>
</trkpt>
<trkpt lat="46.047039" lon="11.17936">
<time>2020-10-28T18:17:54Z</time>
</trkpt>
<trkpt lat="46.047035" lon="11.179345">
<time>2020-10-28T18:17:55Z</time>
</trkpt>
<trkpt lat="46.047035" lon="11.179326">
<time>2020-10-28T18:17:56Z</time>
</trkpt>
<trkpt lat="46.047037" lon="11.179302">
<time>2020-10-28T18:17:57Z</time>
</trkpt>
<trkpt lat="46.047033" lon="11.179281">
<time>2020-10-28T18:17:58Z</time>
</trkpt>
<trkpt lat="46.047033" lon="11.179266">
<time>2020-10-28T18:17:59Z</time>
</trkpt>
<trkpt lat="46.047034" lon="11.179254">
<time>2020-10-28T18:18:00Z</time>
</trkpt>
<trkpt lat="46.047037" lon="11.179243">
<time>2020-10-28T18:18:01Z</time>
</trkpt>
<trkpt lat="46.047035" lon="11.179228">
<time>2020-10-28T18:18:02Z</time>
</trkpt>
<trkpt lat="46.047034" lon="11.179208">
<time>2020-10-28T18:18:03Z</time>
</trkpt>
<trkpt lat="46.047036" lon="11.179197">
<time>2020-10-28T18:18:04Z</time>
</trkpt>
<trkpt lat="46.047035" lon="11.179186">
<time>2020-10-28T18:18:05Z</time>
</trkpt>
<trkpt lat="46.04704" lon="11.179175">
<time>2020-10-28T18:18:06Z</time>
</trkpt>
<trkpt lat="46.047044" lon="11.179163">
<time>2020-10-28T18:18:07Z</time>
</trkpt>
<trkpt lat="46.047048" lon="11.179154">
<time>2020-10-28T18:18:08Z</time>
</trkpt>
<trkpt lat="46.047043" lon="11.179134">
<time>2020-10-28T18:18:09Z</time>
</trkpt>
<trkpt lat="46.047038" lon="11.179119">
<time>2020-10-28T18:18:10Z</time>
</trkpt>
<trkpt lat="46.047041" lon="11.179106">
<time>2020-10-28T18:18:11Z</time>
</trkpt>
<trkpt lat="46.047043" lon="11.179094">
<time>2020-10-28T18:18:12Z</time>
</trkpt>
<trkpt lat="46.047044" lon="11.179085">
<time>2020-10-28T18:18:13Z</time>
</trkpt>
<trkpt lat="46.047048" lon="11.179077">
<time>2020-10-28T18:18:14Z</time>
</trkpt>
<trkpt lat="46.047047" lon="11.179062">
<time>2020-10-28T18:18:15Z</time>
</trkpt>
<trkpt lat="46.047044" lon="11.179046">
<time>2020-10-28T18:18:16Z</time>
</trkpt>
<trkpt lat="46.047039" lon="11.179036">
<time>2020-10-28T18:18:17Z</time>
</trkpt>
<trkpt lat="46.047038" lon="11.179033">
<time>2020-10-28T18:18:18Z</time>
</trkpt>
<trkpt lat="46.047036" lon="11.179022">
<time>2020-10-28T18:18:19Z</time>
</trkpt>
<trkpt lat="46.04704" lon="11.179006">
<time>2020-10-28T18:18:20Z</time>
</trkpt>
<trkpt lat="46.047046" lon="11.178995">
<time>2020-10-28T18:18:21Z</time>
</trkpt>
<trkpt lat="46.047049" lon="11.178984">
<time>2020-10-28T18:18:22Z</time>
</trkpt>
<trkpt lat="46.047048" lon="11.178977">
<time>2020-10-28T18:18:23Z</time>
</trkpt>
<trkpt lat="46.047044" lon="11.178969">
<time>2020-10-28T18:18:24Z</time>
</trkpt>
<trkpt lat="46.047038" lon="11.178957">
<time>2020-10-28T18:18:25Z</time>
</trkpt>
<trkpt lat="46.047031" lon="11.178947">
<time>2020-10-28T18:18:26Z</time>
</trkpt>
<trkpt lat="46.047025" lon="11.178933">
<time>2020-10-28T18:18:27Z</time>
</trkpt>
<trkpt lat="46.047021" lon="11.17892">
<time>2020-10-28T18:18:28Z</time>
</trkpt>
<trkpt lat="46.047016" lon="11.178906">
<time>2020-10-28T18:18:29Z</time>
</trkpt>
<trkpt lat="46.047011" lon="11.178897">
<time>2020-10-28T18:18:30Z</time>
</trkpt>
<trkpt lat="46.047002" lon="11.178893">
<time>2020-10-28T18:18:31Z</time>
</trkpt>
<trkpt lat="46.046991" lon="11.178888">
<time>2020-10-28T18:18:32Z</time>
</trkpt>
<trkpt lat="46.046982" lon="11.178879">
<time>2020-10-28T18:18:33Z</time>
</trkpt>
<trkpt lat="46.046965" lon="11.178864">
<time>2020-10-28T18:18:34Z</time>
</trkpt>
<trkpt lat="46.046948" lon="11.178846">
<time>2020-10-28T18:18:35Z</time>
</trkpt>
<trkpt lat="46.046939" lon="11.178823">
<time>2020-10-28T18:18:36Z</time>
</trkpt>
<trkpt lat="46.046931" lon="11.178801">
<time>2020-10-28T18:18:37Z</time>
</trkpt>
<trkpt lat="46.046924" lon="11.178783">
<time>2020-10-28T18:18:38Z</time>
</trkpt>
<trkpt lat="46.046912" lon="11.178768">
<time>2020-10-28T18:18:39Z</time>
</trkpt>
<trkpt lat="46.0469" lon="11.178757">
<time>2020-10-28T18:18:40Z</time>
</trkpt>
<trkpt lat="46.046888" lon="11.178742">
<time>2020-10-28T18:18:41Z</time>
</trkpt>
<trkpt lat="46.046866" lon="11.178719">
<time>2020-10-28T18:18:42Z</time>
</trkpt>
<trkpt lat="46.046845" lon="11.178701">
<time>2020-10-28T18:18:43Z</time>
</trkpt>
<trkpt lat="46.046827" lon="11.178681">
<time>2020-10-28T18:18:44Z</time>
</trkpt>
<trkpt lat="46.046813" lon="11.17866">
<time>2020-10-28T18:18:45Z</time>
</trkpt>
<trkpt lat="46.046802" lon="11.178639">
<time>2020-10-28T18:18:46Z</time>
</trkpt>
<trkpt lat="46.046797" lon="11.17862">
<time>2020-10-28T18:18:47Z</time>
</trkpt>
<trkpt lat="46.04679" lon="11.178598">
<time>2020-10-28T18:18:48Z</time>
</trkpt>
<trkpt lat="46.046781" lon="11.178572">
<time>2020-10-28T18:18:49Z</time>
</trkpt>
<trkpt lat="46.04677" lon="11.178546">
<time>2020-10-28T18:18:50Z</time>
</trkpt>
<trkpt lat="46.04676" lon="11.178528">
<time>2020-10-28T18:18:51Z</time>
</trkpt>
<trkpt lat="46.04675" lon="11.178511">
<time>2020-10-28T18:18:52Z</time>
</trkpt>
<trkpt lat="46.046741" lon="11.178494">
<time>2020-10-28T18:18:53Z</time>
</trkpt>
<trkpt lat="46.046728" lon="11.178471">
<time>2020-10-28T18:18:54Z</time>
</trkpt>
<trkpt lat="46.046722" lon="11.178453">
<time>2020-10-28T18:18:55Z</time>
</trkpt>
<trkpt lat="46.046712" lon="11.178435">
<time>2020-10-28T18:18:56Z</time>
</trkpt>
<trkpt lat="46.046696" lon="11.17842">
<time>2020-10-28T18:18:57Z</time>
</trkpt>
<trkpt lat="46.046687" lon="11.178409">
<time>2020-10-28T18:18:58Z</time>
</trkpt>
<trkpt lat="46.046676" lon="11.17839">
<time>2020-10-28T18:18:59Z</time>
</trkpt>
<trkpt lat="46.046671" lon="11.178381">
<time>2020-10-28T18:19:00Z</time>
</trkpt>
<trkpt lat="46.046666" lon="11.178381">
<time>2020-10-28T18:19:01Z</time>
</trkpt>
<trkpt lat="46.04665" lon="11.178374">
<time>2020-10-28T18:19:02Z</time>
</trkpt>
<trkpt lat="46.046637" lon="11.178367">
<time>2020-10-28T18:19:03Z</time>
</trkpt>
<trkpt lat="46.046621" lon="11.178357">
<time>2020-10-28T18:19:04Z</time>
</trkpt>
<trkpt lat="46.046602" lon="11.178341">
<time>2020-10-28T18:19:05Z</time>
</trkpt>
<trkpt lat="46.046577" lon="11.178329">
<time>2020-10-28T18:19:06Z</time>
</trkpt>
<trkpt lat="46.046565" lon="11.178308">
<time>2020-10-28T18:19:07Z</time>
</trkpt>
<trkpt lat="46.046553" lon="11.178279">
<time>2020-10-28T18:19:08Z</time>
</trkpt>
<trkpt lat="46.046539" lon="11.178253">
<time>2020-10-28T18:19:09Z</time>
</trkpt>
<trkpt lat="46.046531" lon="11.178236">
<time>2020-10-28T18:19:10Z</time>
</trkpt>
<trkpt lat="46.046527" lon="11.178223">
<time>2020-10-28T18:19:11Z</time>
</trkpt>
<trkpt lat="46.046519" lon="11.178208">
<time>2020-10-28T18:19:12Z</time>
</trkpt>
<trkpt lat="46.046515" lon="11.178193">
<time>2020-10-28T18:19:13Z</time>
</trkpt>
<trkpt lat="46.046506" lon="11.178183">
<time>2020-10-28T18:19:14Z</time>
</trkpt>
<trkpt lat="46.046501" lon="11.178177">
<time>2020-10-28T18:19:15Z</time>
</trkpt>
<trkpt lat="46.046494" lon="11.178171">
<time>2020-10-28T18:19:16Z</time>
</trkpt>
<trkpt lat="46.046486" lon="11.178167">
<time>2020-10-28T18:19:17Z</time>
</trkpt>
<trkpt lat="46.046477" lon="11.17816">
<time>2020-10-28T18:19:18Z</time>
</trkpt>
<trkpt lat="46.046467" lon="11.178152">
<time>2020-10-28T18:19:19Z</time>
</trkpt>
<trkpt lat="46.046462" lon="11.178149">
<time>2020-10-28T18:19:20Z</time>
</trkpt>
<trkpt lat="46.046457" lon="11.178146">
<time>2020-10-28T18:19:21Z</time>
</trkpt>
<trkpt lat="46.046449" lon="11.178141">
<time>2020-10-28T18:19:22Z</time>
</trkpt>
<trkpt lat="46.046438" lon="11.178131">
<time>2020-10-28T18:19:23Z</time>
</trkpt>
<trkpt lat="46.046431" lon="11.178118">
<time>2020-10-28T18:19:24Z</time>
</trkpt>
<trkpt lat="46.046426" lon="11.178102">
<time>2020-10-28T18:19:25Z</time>
</trkpt>
<trkpt lat="46.046418" lon="11.17809">
<time>2020-10-28T18:19:26Z</time>
</trkpt>
<trkpt lat="46.046409" lon="11.178078">
<time>2020-10-28T18:19:27Z</time>
</trkpt>
<trkpt lat="46.046397" lon="11.178063">
<time>2020-10-28T18:19:28Z</time>
</trkpt>
<trkpt lat="46.046382" lon="11.178045">
<time>2020-10-28T18:19:29Z</time>
</trkpt>
<trkpt lat="46.046362" lon="11.178035">
<time>2020-10-28T18:19:30Z</time>
</trkpt>
<trkpt lat="46.046345" lon="11.178034">
<time>2020-10-28T18:19:31Z</time>
</trkpt>
<trkpt lat="46.046335" lon="11.178027">
<time>2020-10-28T18:19:32Z</time>
</trkpt>
<trkpt lat="46.046328" lon="11.178019">
<time>2020-10-28T18:19:33Z</time>
</trkpt>
<trkpt lat="46.046322" lon="11.178006">
<time>2020-10-28T18:19:34Z</time>
</trkpt>
<trkpt lat="46.046315" lon="11.177989">
<time>2020-10-28T18:19:35Z</time>
</trkpt>
<trkpt lat="46.046309" lon="11.177976">
<time>2020-10-28T18:19:36Z</time>
</trkpt>
<trkpt lat="46.0463" lon="11.177967">
<time>2020-10-28T18:19:37Z</time>
</trkpt>
<trkpt lat="46.046292" lon="11.177955">
<time>2020-10-28T18:19:38Z</time>
</trkpt>
<trkpt lat="46.046286" lon="11.177938">
<time>2020-10-28T18:19:39Z</time>
</trkpt>
<trkpt lat="46.04628" lon="11.177923">
<time>2020-10-28T18:19:40Z</time>
</trkpt>
<trkpt lat="46.046272" lon="11.177901">
<time>2020-10-28T18:19:41Z</time>
</trkpt>
<trkpt lat="46.046266" lon="11.177881">
<time>2020-10-28T18:19:42Z</time>
</trkpt>
<trkpt lat="46.046261" lon="11.17786">
<time>2020-10-28T18:19:43Z</time>
</trkpt>
<trkpt lat="46.046253" lon="11.177842">
<time>2020-10-28T18:19:44Z</time>
</trkpt>
<trkpt lat="46.046245" lon="11.177829">
<time>2020-10-28T18:19:45Z</time>
</trkpt>
<trkpt lat="46.046238" lon="11.177821">
<time>2020-10-28T18:19:46Z</time>
</trkpt>
<trkpt lat="46.046231" lon="11.177819">
<time>2020-10-28T18:19:47Z</time>
</trkpt>
<trkpt lat="46.046224" lon="11.177815">
<time>2020-10-28T18:19:48Z</time>
</trkpt>
<trkpt lat="46.046217" lon="11.177812">
<time>2020-10-28T18:19:49Z</time>
</trkpt>
<trkpt lat="46.046203" lon="11.177811">
<time>2020-10-28T18:19:50Z</time>
</trkpt>
<trkpt lat="46.046194" lon="11.177804">
<time>2020-10-28T18:19:51Z</time>
</trkpt>
<trkpt lat="46.046184" lon="11.1778">
<time>2020-10-28T18:19:52Z</time>
</trkpt>
<trkpt lat="46.046178" lon="11.177787">
<time>2020-10-28T18:19:53Z</time>
</trkpt>
<trkpt lat="46.04617" lon="11.17777">
<time>2020-10-28T18:19:54Z</time>
</trkpt>
<trkpt lat="46.046167" lon="11.177754">
<time>2020-10-28T18:19:55Z</time>
</trkpt>
<trkpt lat="46.046171" lon="11.177746">
<time>2020-10-28T18:19:56Z</time>
</trkpt>
<trkpt lat="46.04617" lon="11.177746">
<time>2020-10-28T18:19:57Z</time>
</trkpt>
<trkpt lat="46.046165" lon="11.177745">
<time>2020-10-28T18:19:58Z</time>
</trkpt>
<trkpt lat="46.046155" lon="11.177751">
<time>2020-10-28T18:19:59Z</time>
</trkpt>
<trkpt lat="46.046147" lon="11.177756">
<time>2020-10-28T18:20:00Z</time>
</trkpt>
<trkpt lat="46.046144" lon="11.177759">
<time>2020-10-28T18:20:01Z</time>
</trkpt>
<trkpt lat="46.04614" lon="11.177763">
<time>2020-10-28T18:20:02Z</time>
</trkpt>
<trkpt lat="46.046135" lon="11.177764">
<time>2020-10-28T18:20:03Z</time>
</trkpt>
<trkpt lat="46.046125" lon="11.177766">
<time>2020-10-28T18:20:04Z</time>
</trkpt>
<trkpt lat="46.046115" lon="11.177764">
<time>2020-10-28T18:20:05Z</time>
</trkpt>
<trkpt lat="46.046106" lon="11.177761">
<time>2020-10-28T18:20:06Z</time>
</trkpt>
<trkpt lat="46.046099" lon="11.177755">
<time>2020-10-28T18:20:07Z</time>
</trkpt>
<trkpt lat="46.046094" lon="11.177747">
<time>2020-10-28T18:20:08Z</time>
</trkpt>
<trkpt lat="46.046088" lon="11.177742">
<time>2020-10-28T18:20:09Z</time>
</trkpt>
<trkpt lat="46.046079" lon="11.177741">
<time>2020-10-28T18:20:10Z</time>
</trkpt>
<trkpt lat="46.046064" lon="11.177741">
<time>2020-10-28T18:20:11Z</time>
</trkpt>
<trkpt lat="46.046048" lon="11.177737">
<time>2020-10-28T18:20:12Z</time>
</trkpt>
<trkpt lat="46.046042" lon="11.17773">
<time>2020-10-28T18:20:13Z</time>
</trkpt>
<trkpt lat="46.046042" lon="11.177712">
<time>2020-10-28T18:20:14Z</time>
</trkpt>
<trkpt lat="46.046035" lon="11.17769">
<time>2020-10-28T18:20:15Z</time>
</trkpt>
<trkpt lat="46.046026" lon="11.17767">
<time>2020-10-28T18:20:16Z</time>
</trkpt>
<trkpt lat="46.046015" lon="11.177657">
<time>2020-10-28T18:20:17Z</time>
</trkpt>
<trkpt lat="46.046003" lon="11.177651">
<time>2020-10-28T18:20:18Z</time>
</trkpt>
<trkpt lat="46.045991" lon="11.177644">
<time>2020-10-28T18:20:19Z</time>
</trkpt>
<trkpt lat="46.045978" lon="11.177631">
<time>2020-10-28T18:20:20Z</time>
</trkpt>
<trkpt lat="46.045966" lon="11.177616">
<time>2020-10-28T18:20:21Z</time>
</trkpt>
<trkpt lat="46.045952" lon="11.177603">
<time>2020-10-28T18:20:22Z</time>
</trkpt>
<trkpt lat="46.045938" lon="11.177589">
<time>2020-10-28T18:20:23Z</time>
</trkpt>
<trkpt lat="46.045928" lon="11.177579">
<time>2020-10-28T18:20:24Z</time>
</trkpt>
<trkpt lat="46.045918" lon="11.17757">
<time>2020-10-28T18:20:25Z</time>
</trkpt>
<trkpt lat="46.045907" lon="11.177566">
<time>2020-10-28T18:20:26Z</time>
</trkpt>
<trkpt lat="46.045895" lon="11.177564">
<time>2020-10-28T18:20:27Z</time>
</trkpt>
<trkpt lat="46.045887" lon="11.177559">
<time>2020-10-28T18:20:28Z</time>
</trkpt>
<trkpt lat="46.045881" lon="11.177548">
<time>2020-10-28T18:20:29Z</time>
</trkpt>
<trkpt lat="46.045874" lon="11.177539">
<time>2020-10-28T18:20:30Z</time>
</trkpt>
<trkpt lat="46.045863" lon="11.177534">
<time>2020-10-28T18:20:31Z</time>
</trkpt>
<trkpt lat="46.045851" lon="11.17753">
<time>2020-10-28T18:20:32Z</time>
</trkpt>
<trkpt lat="46.045839" lon="11.177525">
<time>2020-10-28T18:20:33Z</time>
</trkpt>
<trkpt lat="46.045829" lon="11.177522">
<time>2020-10-28T18:20:34Z</time>
</trkpt>
<trkpt lat="46.045817" lon="11.177526">
<time>2020-10-28T18:20:35Z</time>
</trkpt>
<trkpt lat="46.045809" lon="11.177532">
<time>2020-10-28T18:20:36Z</time>
</trkpt>
<trkpt lat="46.045803" lon="11.177532">
<time>2020-10-28T18:20:37Z</time>
</trkpt>
<trkpt lat="46.045789" lon="11.177532">
<time>2020-10-28T18:20:38Z</time>
</trkpt>
<trkpt lat="46.045777" lon="11.17753">
<time>2020-10-28T18:20:39Z</time>
</trkpt>
<trkpt lat="46.045767" lon="11.17752">
<time>2020-10-28T18:20:40Z</time>
</trkpt>
<trkpt lat="46.045755" lon="11.177513">
<time>2020-10-28T18:20:41Z</time>
</trkpt>
<trkpt lat="46.045743" lon="11.177503">
<time>2020-10-28T18:20:42Z</time>
</trkpt>
<trkpt lat="46.045734" lon="11.177492">
<time>2020-10-28T18:20:43Z</time>
</trkpt>
<trkpt lat="46.045723" lon="11.177491">
<time>2020-10-28T18:20:44Z</time>
</trkpt>
<trkpt lat="46.045711" lon="11.177489">
<time>2020-10-28T18:20:45Z</time>
</trkpt>
<trkpt lat="46.0457" lon="11.177484">
<time>2020-10-28T18:20:46Z</time>
</trkpt>
<trkpt lat="46.045693" lon="11.177475">
<time>2020-10-28T18:20:47Z</time>
</trkpt>
<trkpt lat="46.045687" lon="11.177469">
<time>2020-10-28T18:20:48Z</time>
</trkpt>
<trkpt lat="46.045683" lon="11.177466">
<time>2020-10-28T18:20:49Z</time>
</trkpt>
<trkpt lat="46.04568" lon="11.177461">
<time>2020-10-28T18:20:50Z</time>
</trkpt>
<trkpt lat="46.045678" lon="11.177457">
<time>2020-10-28T18:20:51Z</time>
</trkpt>
<trkpt lat="46.045672" lon="11.177453">
<time>2020-10-28T18:20:52Z</time>
</trkpt>
<trkpt lat="46.045669" lon="11.177455">
<time>2020-10-28T18:20:53Z</time>
</trkpt>
<trkpt lat="46.045667" lon="11.17746">
<time>2020-10-28T18:20:54Z</time>
</trkpt>
<trkpt lat="46.045662" lon="11.177471">
<time>2020-10-28T18:20:55Z</time>
</trkpt>
<trkpt lat="46.045657" lon="11.177477">
<time>2020-10-28T18:20:56Z</time>
</trkpt>
<trkpt lat="46.045651" lon="11.177478">
<time>2020-10-28T18:20:57Z</time>
</trkpt>
<trkpt lat="46.04564" lon="11.177478">
<time>2020-10-28T18:20:58Z</time>
</trkpt>
<trkpt lat="46.045632" lon="11.177474">
<time>2020-10-28T18:20:59Z</time>
</trkpt>
<trkpt lat="46.045622" lon="11.177472">
<time>2020-10-28T18:21:00Z</time>
</trkpt>
<trkpt lat="46.045617" lon="11.177467">
<time>2020-10-28T18:21:01Z</time>
</trkpt>
<trkpt lat="46.045616" lon="11.177463">
<time>2020-10-28T18:21:02Z</time>
</trkpt>
<trkpt lat="46.045617" lon="11.177461">
<time>2020-10-28T18:21:03Z</time>
</trkpt>
<trkpt lat="46.045621" lon="11.177464">
<time>2020-10-28T18:21:04Z</time>
</trkpt>
<trkpt lat="46.045629" lon="11.177471">
<time>2020-10-28T18:21:05Z</time>
</trkpt>
<trkpt lat="46.045638" lon="11.177476">
<time>2020-10-28T18:21:06Z</time>
</trkpt>
<trkpt lat="46.045641" lon="11.17748">
<time>2020-10-28T18:21:07Z</time>
</trkpt>
<trkpt lat="46.045643" lon="11.177486">
<time>2020-10-28T18:21:08Z</time>
</trkpt>
<trkpt lat="46.045648" lon="11.177491">
<time>2020-10-28T18:21:09Z</time>
</trkpt>
<trkpt lat="46.04565" lon="11.177493">
<time>2020-10-28T18:21:10Z</time>
</trkpt>
<trkpt lat="46.045651" lon="11.177493">
<time>2020-10-28T18:21:11Z</time>
</trkpt>
<trkpt lat="46.045653" lon="11.177494">
<time>2020-10-28T18:21:12Z</time>
</trkpt>
<trkpt lat="46.045649" lon="11.177487">
<time>2020-10-28T18:21:13Z</time>
</trkpt>
<trkpt lat="46.045644" lon="11.177483">
<time>2020-10-28T18:21:14Z</time>
</trkpt>
<trkpt lat="46.04564" lon="11.177477">
<time>2020-10-28T18:21:15Z</time>
</trkpt>
<trkpt lat="46.045633" lon="11.177468">
<time>2020-10-28T18:21:16Z</time>
</trkpt>
<trkpt lat="46.045622" lon="11.177457">
<time>2020-10-28T18:21:17Z</time>
</trkpt>
<trkpt lat="46.045609" lon="11.17745">
<time>2020-10-28T18:21:18Z</time>
</trkpt>
<trkpt lat="46.045597" lon="11.177444">
<time>2020-10-28T18:21:19Z</time>
</trkpt>
<trkpt lat="46.045586" lon="11.177434">
<time>2020-10-28T18:21:20Z</time>
</trkpt>
<trkpt lat="46.045579" lon="11.177426">
<time>2020-10-28T18:21:21Z</time>
</trkpt>
<trkpt lat="46.045575" lon="11.177416">
<time>2020-10-28T18:21:22Z</time>
</trkpt>
<trkpt lat="46.045575" lon="11.177409">
<time>2020-10-28T18:21:23Z</time>
</trkpt>
<trkpt lat="46.045576" lon="11.1774">
<time>2020-10-28T18:21:24Z</time>
</trkpt>
<trkpt lat="46.045583" lon="11.177388">
<time>2020-10-28T18:21:25Z</time>
</trkpt>
<trkpt lat="46.04559" lon="11.177375">
<time>2020-10-28T18:21:26Z</time>
</trkpt>
<trkpt lat="46.0456" lon="11.177365">
<time>2020-10-28T18:21:27Z</time>
</trkpt>
<trkpt lat="46.045604" lon="11.177356">
<time>2020-10-28T18:21:28Z</time>
</trkpt>
<trkpt lat="46.045607" lon="11.177351">
<time>2020-10-28T18:21:29Z</time>
</trkpt>
<trkpt lat="46.045609" lon="11.177341">
<time>2020-10-28T18:21:30Z</time>
</trkpt>
<trkpt lat="46.045615" lon="11.177332">
<time>2020-10-28T18:21:31Z</time>
</trkpt>
<trkpt lat="46.045622" lon="11.177317">
<time>2020-10-28T18:21:32Z</time>
</trkpt>
<trkpt lat="46.045636" lon="11.177298">
<time>2020-10-28T18:21:33Z</time>
</trkpt>
<trkpt lat="46.045656" lon="11.177284">
<time>2020-10-28T18:21:34Z</time>
</trkpt>
<trkpt lat="46.045674" lon="11.177272">
<time>2020-10-28T18:21:35Z</time>
</trkpt>
<trkpt lat="46.045693" lon="11.177255">
<time>2020-10-28T18:21:36Z</time>
</trkpt>
<trkpt lat="46.045714" lon="11.17725">
<time>2020-10-28T18:21:37Z</time>
</trkpt>
<trkpt lat="46.045739" lon="11.177243">
<time>2020-10-28T18:21:38Z</time>
</trkpt>
<trkpt lat="46.045759" lon="11.177229">
<time>2020-10-28T18:21:39Z</time>
</trkpt>
<trkpt lat="46.045781" lon="11.177204">
<time>2020-10-28T18:21:40Z</time>
</trkpt>
<trkpt lat="46.045807" lon="11.177177">
<time>2020-10-28T18:21:41Z</time>
</trkpt>
<trkpt lat="46.045838" lon="11.177159">
<time>2020-10-28T18:21:42Z</time>
</trkpt>
<trkpt lat="46.045858" lon="11.177145">
<time>2020-10-28T18:21:43Z</time>
</trkpt>
<trkpt lat="46.045864" lon="11.177128">
<time>2020-10-28T18:21:44Z</time>
</trkpt>
<trkpt lat="46.045873" lon="11.177119">
<time>2020-10-28T18:21:45Z</time>
</trkpt>
<trkpt lat="46.045882" lon="11.177118">
<time>2020-10-28T18:21:46Z</time>
</trkpt>
<trkpt lat="46.045887" lon="11.177122">
<time>2020-10-28T18:21:47Z</time>
</trkpt>
<trkpt lat="46.045898" lon="11.177125">
<time>2020-10-28T18:21:48Z</time>
</trkpt>
<trkpt lat="46.045915" lon="11.17713">
<time>2020-10-28T18:21:49Z</time>
</trkpt>
<trkpt lat="46.045932" lon="11.177129">
<time>2020-10-28T18:21:50Z</time>
</trkpt>
<trkpt lat="46.045937" lon="11.177123">
<time>2020-10-28T18:21:51Z</time>
</trkpt>
<trkpt lat="46.045943" lon="11.177117">
<time>2020-10-28T18:21:52Z</time>
</trkpt>
<trkpt lat="46.04595" lon="11.177124">
<time>2020-10-28T18:21:53Z</time>
</trkpt>
<trkpt lat="46.045956" lon="11.177142">
<time>2020-10-28T18:21:54Z</time>
</trkpt>
<trkpt lat="46.045965" lon="11.177152">
<time>2020-10-28T18:21:55Z</time>
</trkpt>
<trkpt lat="46.04598" lon="11.177151">
<time>2020-10-28T18:21:56Z</time>
</trkpt>
<trkpt lat="46.046003" lon="11.177144">
<time>2020-10-28T18:21:57Z</time>
</trkpt>
<trkpt lat="46.046029" lon="11.177136">
<time>2020-10-28T18:21:58Z</time>
</trkpt>
<trkpt lat="46.046044" lon="11.177132">
<time>2020-10-28T18:21:59Z</time>
</trkpt>
<trkpt lat="46.046056" lon="11.177135">
<time>2020-10-28T18:22:00Z</time>
</trkpt>
<trkpt lat="46.046069" lon="11.177145">
<time>2020-10-28T18:22:01Z</time>
</trkpt>
<trkpt lat="46.046081" lon="11.177153">
<time>2020-10-28T18:22:02Z</time>
</trkpt>
<trkpt lat="46.046093" lon="11.177162">
<time>2020-10-28T18:22:03Z</time>
</trkpt>
<trkpt lat="46.046107" lon="11.177164">
<time>2020-10-28T18:22:04Z</time>
</trkpt>
<trkpt lat="46.046121" lon="11.177164">
<time>2020-10-28T18:22:05Z</time>
</trkpt>
<trkpt lat="46.046131" lon="11.177161">
<time>2020-10-28T18:22:06Z</time>
</trkpt>
<trkpt lat="46.046144" lon="11.17716">
<time>2020-10-28T18:22:07Z</time>
</trkpt>
<trkpt lat="46.046158" lon="11.177162">
<time>2020-10-28T18:22:08Z</time>
</trkpt>
<trkpt lat="46.04617" lon="11.177163">
<time>2020-10-28T18:22:09Z</time>
</trkpt>
<trkpt lat="46.046182" lon="11.17716">
<time>2020-10-28T18:22:10Z</time>
</trkpt>
<trkpt lat="46.046198" lon="11.177148">
<time>2020-10-28T18:22:11Z</time>
</trkpt>
<trkpt lat="46.046212" lon="11.177138">
<time>2020-10-28T18:22:12Z</time>
</trkpt>
<trkpt lat="46.046221" lon="11.177133">
<time>2020-10-28T18:22:13Z</time>
</trkpt>
<trkpt lat="46.046224" lon="11.177125">
<time>2020-10-28T18:22:14Z</time>
</trkpt>
<trkpt lat="46.046229" lon="11.177119">
<time>2020-10-28T18:22:15Z</time>
</trkpt>
<trkpt lat="46.046237" lon="11.177114">
<time>2020-10-28T18:22:16Z</time>
</trkpt>
<trkpt lat="46.046253" lon="11.177112">
<time>2020-10-28T18:22:17Z</time>
</trkpt>
<trkpt lat="46.046272" lon="11.177106">
<time>2020-10-28T18:22:18Z</time>
</trkpt>
<trkpt lat="46.046294" lon="11.177097">
<time>2020-10-28T18:22:19Z</time>
</trkpt>
<trkpt lat="46.046315" lon="11.17709">
<time>2020-10-28T18:22:20Z</time>
</trkpt>
<trkpt lat="46.046329" lon="11.177077">
<time>2020-10-28T18:22:21Z</time>
</trkpt>
<trkpt lat="46.046335" lon="11.177055">
<time>2020-10-28T18:22:22Z</time>
</trkpt>
<trkpt lat="46.04634" lon="11.177027">
<time>2020-10-28T18:22:23Z</time>
</trkpt>
<trkpt lat="46.046352" lon="11.177006">
<time>2020-10-28T18:22:24Z</time>
</trkpt>
<trkpt lat="46.046368" lon="11.177">
<time>2020-10-28T18:22:25Z</time>
</trkpt>
<trkpt lat="46.046384" lon="11.177002">
<time>2020-10-28T18:22:26Z</time>
</trkpt>
<trkpt lat="46.046398" lon="11.17701">
<time>2020-10-28T18:22:27Z</time>
</trkpt>
<trkpt lat="46.046411" lon="11.177021">
<time>2020-10-28T18:22:28Z</time>
</trkpt>
<trkpt lat="46.046426" lon="11.17703">
<time>2020-10-28T18:22:29Z</time>
</trkpt>
<trkpt lat="46.04644" lon="11.177039">
<time>2020-10-28T18:22:30Z</time>
</trkpt>
<trkpt lat="46.046454" lon="11.177045">
<time>2020-10-28T18:22:31Z</time>
</trkpt>
<trkpt lat="46.046472" lon="11.177049">
<time>2020-10-28T18:22:32Z</time>
</trkpt>
<trkpt lat="46.046497" lon="11.17705">
<time>2020-10-28T18:22:33Z</time>
</trkpt>
<trkpt lat="46.046523" lon="11.177047">
<time>2020-10-28T18:22:34Z</time>
</trkpt>
<trkpt lat="46.046547" lon="11.177037">
<time>2020-10-28T18:22:35Z</time>
</trkpt>
<trkpt lat="46.046571" lon="11.17703">
<time>2020-10-28T18:22:36Z</time>
</trkpt>
<trkpt lat="46.046598" lon="11.177031">
<time>2020-10-28T18:22:37Z</time>
</trkpt>
<trkpt lat="46.046624" lon="11.177036">
<time>2020-10-28T18:22:38Z</time>
</trkpt>
<trkpt lat="46.04665" lon="11.177045">
<time>2020-10-28T18:22:39Z</time>
</trkpt>
<trkpt lat="46.046675" lon="11.17705">
<time>2020-10-28T18:22:40Z</time>
</trkpt>
<trkpt lat="46.046696" lon="11.177048">
<time>2020-10-28T18:22:41Z</time>
</trkpt>
<trkpt lat="46.046711" lon="11.17704">
<time>2020-10-28T18:22:42Z</time>
</trkpt>
<trkpt lat="46.046719" lon="11.17703">
<time>2020-10-28T18:22:43Z</time>
</trkpt>
<trkpt lat="46.046731" lon="11.177021">
<time>2020-10-28T18:22:44Z</time>
</trkpt>
<trkpt lat="46.04674" lon="11.177019">
<time>2020-10-28T18:22:45Z</time>
</trkpt>
<trkpt lat="46.046746" lon="11.177016">
<time>2020-10-28T18:22:46Z</time>
</trkpt>
<trkpt lat="46.046754" lon="11.177006">
<time>2020-10-28T18:22:47Z</time>
</trkpt>
<trkpt lat="46.046761" lon="11.176989">
<time>2020-10-28T18:22:48Z</time>
</trkpt>
<trkpt lat="46.046774" lon="11.17697">
<time>2020-10-28T18:22:49Z</time>
</trkpt>
<trkpt lat="46.046794" lon="11.176952">
<time>2020-10-28T18:22:50Z</time>
</trkpt>
<trkpt lat="46.046824" lon="11.176938">
<time>2020-10-28T18:22:51Z</time>
</trkpt>
<trkpt lat="46.046857" lon="11.176919">
<time>2020-10-28T18:22:52Z</time>
</trkpt>
<trkpt lat="46.046878" lon="11.17692">
<time>2020-10-28T18:22:53Z</time>
</trkpt>
<trkpt lat="46.046901" lon="11.176921">
<time>2020-10-28T18:22:54Z</time>
</trkpt>
<trkpt lat="46.046932" lon="11.176914">
<time>2020-10-28T18:22:55Z</time>
</trkpt>
<trkpt lat="46.046956" lon="11.176895">
<time>2020-10-28T18:22:56Z</time>
</trkpt>
<trkpt lat="46.046983" lon="11.176876">
<time>2020-10-28T18:22:57Z</time>
</trkpt>
<trkpt lat="46.047006" lon="11.17686">
<time>2020-10-28T18:22:58Z</time>
</trkpt>
<trkpt lat="46.047031" lon="11.176848">
<time>2020-10-28T18:22:59Z</time>
</trkpt>
<trkpt lat="46.04705" lon="11.176836">
<time>2020-10-28T18:23:00Z</time>
</trkpt>
<trkpt lat="46.047066" lon="11.17682">
<time>2020-10-28T18:23:01Z</time>
</trkpt>
<trkpt lat="46.047083" lon="11.176806">
<time>2020-10-28T18:23:02Z</time>
</trkpt>
<trkpt lat="46.047099" lon="11.176791">
<time>2020-10-28T18:23:03Z</time>
</trkpt>
<trkpt lat="46.047106" lon="11.176775">
<time>2020-10-28T18:23:04Z</time>
</trkpt>
<trkpt lat="46.04711" lon="11.17676">
<time>2020-10-28T18:23:05Z</time>
</trkpt>
<trkpt lat="46.047119" lon="11.17675">
<time>2020-10-28T18:23:06Z</time>
</trkpt>
<trkpt lat="46.047133" lon="11.176743">
<time>2020-10-28T18:23:07Z</time>
</trkpt>
<trkpt lat="46.047147" lon="11.17674">
<time>2020-10-28T18:23:08Z</time>
</trkpt>
<trkpt lat="46.047164" lon="11.176732">
<time>2020-10-28T18:23:09Z</time>
</trkpt>
<trkpt lat="46.047177" lon="11.17672">
<time>2020-10-28T18:23:10Z</time>
</trkpt>
<trkpt lat="46.047191" lon="11.176702">
<time>2020-10-28T18:23:11Z</time>
</trkpt>
<trkpt lat="46.047215" lon="11.176683">
<time>2020-10-28T18:23:12Z</time>
</trkpt>
<trkpt lat="46.047232" lon="11.176668">
<time>2020-10-28T18:23:13Z</time>
</trkpt>
<trkpt lat="46.047255" lon="11.176654">
<time>2020-10-28T18:23:14Z</time>
</trkpt>
<trkpt lat="46.047277" lon="11.176642">
<time>2020-10-28T18:23:15Z</time>
</trkpt>
<trkpt lat="46.047304" lon="11.176625">
<time>2020-10-28T18:23:16Z</time>
</trkpt>
<trkpt lat="46.047334" lon="11.176603">
<time>2020-10-28T18:23:17Z</time>
</trkpt>
<trkpt lat="46.047361" lon="11.176583">
<time>2020-10-28T18:23:18Z</time>
</trkpt>
<trkpt lat="46.047388" lon="11.176561">
<time>2020-10-28T18:23:19Z</time>
</trkpt>
<trkpt lat="46.047418" lon="11.176538">
<time>2020-10-28T18:23:20Z</time>
</trkpt>
<trkpt lat="46.047457" lon="11.176518">
<time>2020-10-28T18:23:21Z</time>
</trkpt>
<trkpt lat="46.047497" lon="11.176502">
<time>2020-10-28T18:23:22Z</time>
</trkpt>
<trkpt lat="46.047534" lon="11.176492">
<time>2020-10-28T18:23:23Z</time>
</trkpt>
<trkpt lat="46.047571" lon="11.176483">
<time>2020-10-28T18:23:24Z</time>
</trkpt>
<trkpt lat="46.047601" lon="11.176463">
<time>2020-10-28T18:23:25Z</time>
</trkpt>
<trkpt lat="46.047629" lon="11.176438">
<time>2020-10-28T18:23:26Z</time>
</trkpt>
<trkpt lat="46.04766" lon="11.176408">
<time>2020-10-28T18:23:27Z</time>
</trkpt>
<trkpt lat="46.047684" lon="11.176372">
<time>2020-10-28T18:23:28Z</time>
</trkpt>
<trkpt lat="46.047712" lon="11.176327">
<time>2020-10-28T18:23:29Z</time>
</trkpt>
<trkpt lat="46.047732" lon="11.176293">
<time>2020-10-28T18:23:30Z</time>
</trkpt>
<trkpt lat="46.047753" lon="11.176257">
<time>2020-10-28T18:23:31Z</time>
</trkpt>
<trkpt lat="46.047776" lon="11.176234">
<time>2020-10-28T18:23:32Z</time>
</trkpt>
<trkpt lat="46.047798" lon="11.17622">
<time>2020-10-28T18:23:33Z</time>
</trkpt>
<trkpt lat="46.047818" lon="11.17621">
<time>2020-10-28T18:23:34Z</time>
</trkpt>
<trkpt lat="46.047838" lon="11.1762">
<time>2020-10-28T18:23:35Z</time>
</trkpt>
<trkpt lat="46.047852" lon="11.176195">
<time>2020-10-28T18:23:36Z</time>
</trkpt>
<trkpt lat="46.047861" lon="11.17619">
<time>2020-10-28T18:23:37Z</time>
</trkpt>
<trkpt lat="46.047867" lon="11.17618">
<time>2020-10-28T18:23:38Z</time>
</trkpt>
<trkpt lat="46.047874" lon="11.176162">
<time>2020-10-28T18:23:39Z</time>
</trkpt>
<trkpt lat="46.047881" lon="11.176148">
<time>2020-10-28T18:23:40Z</time>
</trkpt>
<trkpt lat="46.047887" lon="11.176141">
<time>2020-10-28T18:23:41Z</time>
</trkpt>
<trkpt lat="46.047896" lon="11.176132">
<time>2020-10-28T18:23:42Z</time>
</trkpt>
<trkpt lat="46.047904" lon="11.176124">
<time>2020-10-28T18:23:43Z</time>
</trkpt>
<trkpt lat="46.047907" lon="11.176111">
<time>2020-10-28T18:23:44Z</time>
</trkpt>
<trkpt lat="46.047909" lon="11.176095">
<time>2020-10-28T18:23:45Z</time>
</trkpt>
<trkpt lat="46.047917" lon="11.176088">
<time>2020-10-28T18:23:46Z</time>
</trkpt>
<trkpt lat="46.04792" lon="11.176087">
<time>2020-10-28T18:23:47Z</time>
</trkpt>
<trkpt lat="46.047922" lon="11.176081">
<time>2020-10-28T18:23:48Z</time>
</trkpt>
<trkpt lat="46.047929" lon="11.176074">
<time>2020-10-28T18:23:49Z</time>
</trkpt>
<trkpt lat="46.047942" lon="11.176065">
<time>2020-10-28T18:23:50Z</time>
</trkpt>
<trkpt lat="46.047952" lon="11.17604">
<time>2020-10-28T18:23:51Z</time>
</trkpt>
<trkpt lat="46.047972" lon="11.176019">
<time>2020-10-28T18:23:52Z</time>
</trkpt>
<trkpt lat="46.047987" lon="11.176007">
<time>2020-10-28T18:23:53Z</time>
</trkpt>
<trkpt lat="46.048002" lon="11.175995">
<time>2020-10-28T18:23:54Z</time>
</trkpt>
<trkpt lat="46.048009" lon="11.175975">
<time>2020-10-28T18:23:55Z</time>
</trkpt>
<trkpt lat="46.048026" lon="11.175963">
<time>2020-10-28T18:23:56Z</time>
</trkpt>
<trkpt lat="46.048036" lon="11.175954">
<time>2020-10-28T18:23:57Z</time>
</trkpt>
<trkpt lat="46.048048" lon="11.175945">
<time>2020-10-28T18:23:58Z</time>
</trkpt>
<trkpt lat="46.04805" lon="11.175934">
<time>2020-10-28T18:23:59Z</time>
</trkpt>
<trkpt lat="46.048053" lon="11.175918">
<time>2020-10-28T18:24:00Z</time>
</trkpt>
<trkpt lat="46.048063" lon="11.175908">
<time>2020-10-28T18:24:01Z</time>
</trkpt>
<trkpt lat="46.04807" lon="11.175896">
<time>2020-10-28T18:24:02Z</time>
</trkpt>
<trkpt lat="46.048077" lon="11.175882">
<time>2020-10-28T18:24:03Z</time>
</trkpt>
<trkpt lat="46.048087" lon="11.175871">
<time>2020-10-28T18:24:04Z</time>
</trkpt>
<trkpt lat="46.048097" lon="11.175863">
<time>2020-10-28T18:24:05Z</time>
</trkpt>
<trkpt lat="46.048105" lon="11.175847">
<time>2020-10-28T18:24:06Z</time>
</trkpt>
<trkpt lat="46.048107" lon="11.175836">
<time>2020-10-28T18:24:07Z</time>
</trkpt>
<trkpt lat="46.048111" lon="11.175824">
<time>2020-10-28T18:24:08Z</time>
</trkpt>
<trkpt lat="46.048115" lon="11.175813">
<time>2020-10-28T18:24:09Z</time>
</trkpt>
<trkpt lat="46.048117" lon="11.175804">
<time>2020-10-28T18:24:10Z</time>
</trkpt>
<trkpt lat="46.048124" lon="11.175796">
<time>2020-10-28T18:24:11Z</time>
</trkpt>
<trkpt lat="46.048134" lon="11.175786">
<time>2020-10-28T18:24:12Z</time>
</trkpt>
<trkpt lat="46.048142" lon="11.175763">
<time>2020-10-28T18:24:13Z</time>
</trkpt>
<trkpt lat="46.048147" lon="11.175735">
<time>2020-10-28T18:24:14Z</time>
</trkpt>
<trkpt lat="46.048155" lon="11.175713">
<time>2020-10-28T18:24:15Z</time>
</trkpt>
<trkpt lat="46.048166" lon="11.175704">
<time>2020-10-28T18:24:16Z</time>
</trkpt>
<trkpt lat="46.048171" lon="11.175695">
<time>2020-10-28T18:24:17Z</time>
</trkpt>
<trkpt lat="46.048178" lon="11.175681">
<time>2020-10-28T18:24:18Z</time>
</trkpt>
<trkpt lat="46.048189" lon="11.175658">
<time>2020-10-28T18:24:19Z</time>
</trkpt>
<trkpt lat="46.048195" lon="11.175626">
<time>2020-10-28T18:24:20Z</time>
</trkpt>
<trkpt lat="46.048201" lon="11.175594">
<time>2020-10-28T18:24:21Z</time>
</trkpt>
<trkpt lat="46.048199" lon="11.175555">
<time>2020-10-28T18:24:22Z</time>
</trkpt>
<trkpt lat="46.048197" lon="11.175514">
<time>2020-10-28T18:24:23Z</time>
</trkpt>
<trkpt lat="46.048191" lon="11.175483">
<time>2020-10-28T18:24:24Z</time>
</trkpt>
<trkpt lat="46.048196" lon="11.17545">
<time>2020-10-28T18:24:25Z</time>
</trkpt>
<trkpt lat="46.048204" lon="11.175417">
<time>2020-10-28T18:24:26Z</time>
</trkpt>
<trkpt lat="46.048219" lon="11.175388">
<time>2020-10-28T18:24:27Z</time>
</trkpt>
<trkpt lat="46.048229" lon="11.175359">
<time>2020-10-28T18:24:28Z</time>
</trkpt>
<trkpt lat="46.04824" lon="11.175324">
<time>2020-10-28T18:24:29Z</time>
</trkpt>
<trkpt lat="46.048252" lon="11.175291">
<time>2020-10-28T18:24:30Z</time>
</trkpt>
<trkpt lat="46.048267" lon="11.175258">
<time>2020-10-28T18:24:31Z</time>
</trkpt>
<trkpt lat="46.04828" lon="11.175232">
<time>2020-10-28T18:24:32Z</time>
</trkpt>
<trkpt lat="46.04829" lon="11.175212">
<time>2020-10-28T18:24:33Z</time>
</trkpt>
<trkpt lat="46.0483" lon="11.175185">
<time>2020-10-28T18:24:34Z</time>
</trkpt>
<trkpt lat="46.048312" lon="11.175142">
<time>2020-10-28T18:24:35Z</time>
</trkpt>
<trkpt lat="46.048332" lon="11.175092">
<time>2020-10-28T18:24:36Z</time>
</trkpt>
<trkpt lat="46.048358" lon="11.175056">
<time>2020-10-28T18:24:37Z</time>
</trkpt>
<trkpt lat="46.048387" lon="11.175038">
<time>2020-10-28T18:24:38Z</time>
</trkpt>
<trkpt lat="46.04841" lon="11.175021">
<time>2020-10-28T18:24:39Z</time>
</trkpt>
<trkpt lat="46.048428" lon="11.175012">
<time>2020-10-28T18:24:40Z</time>
</trkpt>
<trkpt lat="46.04844" lon="11.174994">
<time>2020-10-28T18:24:41Z</time>
</trkpt>
<trkpt lat="46.048458" lon="11.174972">
<time>2020-10-28T18:24:42Z</time>
</trkpt>
<trkpt lat="46.048474" lon="11.174943">
<time>2020-10-28T18:24:43Z</time>
</trkpt>
<trkpt lat="46.048489" lon="11.174915">
<time>2020-10-28T18:24:44Z</time>
</trkpt>
<trkpt lat="46.048503" lon="11.17489">
<time>2020-10-28T18:24:45Z</time>
</trkpt>
<trkpt lat="46.048516" lon="11.174867">
<time>2020-10-28T18:24:46Z</time>
</trkpt>
<trkpt lat="46.048532" lon="11.17485">
<time>2020-10-28T18:24:47Z</time>
</trkpt>
<trkpt lat="46.048548" lon="11.174832">
<time>2020-10-28T18:24:48Z</time>
</trkpt>
<trkpt lat="46.048565" lon="11.174817">
<time>2020-10-28T18:24:49Z</time>
</trkpt>
<trkpt lat="46.048585" lon="11.174803">
<time>2020-10-28T18:24:50Z</time>
</trkpt>
<trkpt lat="46.048613" lon="11.174794">
<time>2020-10-28T18:24:51Z</time>
</trkpt>
<trkpt lat="46.04864" lon="11.174795">
<time>2020-10-28T18:24:52Z</time>
</trkpt>
<trkpt lat="46.048666" lon="11.174793">
<time>2020-10-28T18:24:53Z</time>
</trkpt>
<trkpt lat="46.048689" lon="11.174787">
<time>2020-10-28T18:24:54Z</time>
</trkpt>
<trkpt lat="46.048713" lon="11.174783">
<time>2020-10-28T18:24:55Z</time>
</trkpt>
<trkpt lat="46.048735" lon="11.174781">
<time>2020-10-28T18:24:56Z</time>
</trkpt>
<trkpt lat="46.048755" lon="11.174779">
<time>2020-10-28T18:24:57Z</time>
</trkpt>
<trkpt lat="46.048776" lon="11.174775">
<time>2020-10-28T18:24:58Z</time>
</trkpt>
<trkpt lat="46.0488" lon="11.174772">
<time>2020-10-28T18:24:59Z</time>
</trkpt>
<trkpt lat="46.048828" lon="11.174772">
<time>2020-10-28T18:25:00Z</time>
</trkpt>
<trkpt lat="46.048854" lon="11.174767">
<time>2020-10-28T18:25:01Z</time>
</trkpt>
<trkpt lat="46.048875" lon="11.174763">
<time>2020-10-28T18:25:02Z</time>
</trkpt>
<trkpt lat="46.048891" lon="11.17476">
<time>2020-10-28T18:25:03Z</time>
</trkpt>
<trkpt lat="46.048903" lon="11.174765">
<time>2020-10-28T18:25:04Z</time>
</trkpt>
<trkpt lat="46.048922" lon="11.17477">
<time>2020-10-28T18:25:05Z</time>
</trkpt>
<trkpt lat="46.048939" lon="11.174775">
<time>2020-10-28T18:25:06Z</time>
</trkpt>
<trkpt lat="46.048966" lon="11.17478">
<time>2020-10-28T18:25:07Z</time>
</trkpt>
<trkpt lat="46.048976" lon="11.174782">
<time>2020-10-28T18:25:08Z</time>
</trkpt>
<trkpt lat="46.048981" lon="11.174777">
<time>2020-10-28T18:25:09Z</time>
</trkpt>
<trkpt lat="46.048985" lon="11.174773">
<time>2020-10-28T18:25:10Z</time>
</trkpt>
<trkpt lat="46.048993" lon="11.174775">
<time>2020-10-28T18:25:11Z</time>
</trkpt>
<trkpt lat="46.049" lon="11.174786">
<time>2020-10-28T18:25:12Z</time>
</trkpt>
<trkpt lat="46.049004" lon="11.174801">
<time>2020-10-28T18:25:13Z</time>
</trkpt>
<trkpt lat="46.049011" lon="11.174825">
<time>2020-10-28T18:25:14Z</time>
</trkpt>
<trkpt lat="46.049033" lon="11.174828">
<time>2020-10-28T18:25:15Z</time>
</trkpt>
<trkpt lat="46.049055" lon="11.174823">
<time>2020-10-28T18:25:16Z</time>
</trkpt>
<trkpt lat="46.049072" lon="11.174815">
<time>2020-10-28T18:25:17Z</time>
</trkpt>
<trkpt lat="46.049084" lon="11.174812">
<time>2020-10-28T18:25:18Z</time>
</trkpt>
<trkpt lat="46.049098" lon="11.174811">
<time>2020-10-28T18:25:19Z</time>
</trkpt>
<trkpt lat="46.04911" lon="11.174816">
<time>2020-10-28T18:25:20Z</time>
</trkpt>
<trkpt lat="46.049119" lon="11.174823">
<time>2020-10-28T18:25:21Z</time>
</trkpt>
<trkpt lat="46.049129" lon="11.174825">
<time>2020-10-28T18:25:22Z</time>
</trkpt>
<trkpt lat="46.04914" lon="11.174821">
<time>2020-10-28T18:25:23Z</time>
</trkpt>
<trkpt lat="46.049153" lon="11.174818">
<time>2020-10-28T18:25:24Z</time>
</trkpt>
<trkpt lat="46.049169" lon="11.174821">
<time>2020-10-28T18:25:25Z</time>
</trkpt>
<trkpt lat="46.049184" lon="11.174824">
<time>2020-10-28T18:25:26Z</time>
</trkpt>
<trkpt lat="46.049199" lon="11.174826">
<time>2020-10-28T18:25:27Z</time>
</trkpt>
<trkpt lat="46.049211" lon="11.174823">
<time>2020-10-28T18:25:28Z</time>
</trkpt>
<trkpt lat="46.049219" lon="11.174822">
<time>2020-10-28T18:25:29Z</time>
</trkpt>
<trkpt lat="46.049227" lon="11.17482">
<time>2020-10-28T18:25:30Z</time>
</trkpt>
<trkpt lat="46.049241" lon="11.174803">
<time>2020-10-28T18:25:31Z</time>
</trkpt>
<trkpt lat="46.049251" lon="11.17478">
<time>2020-10-28T18:25:32Z</time>
</trkpt>
<trkpt lat="46.049256" lon="11.174765">
<time>2020-10-28T18:25:33Z</time>
</trkpt>
<trkpt lat="46.049267" lon="11.174759">
<time>2020-10-28T18:25:34Z</time>
</trkpt>
<trkpt lat="46.049277" lon="11.174752">
<time>2020-10-28T18:25:35Z</time>
</trkpt>
<trkpt lat="46.049288" lon="11.174752">
<time>2020-10-28T18:25:36Z</time>
</trkpt>
<trkpt lat="46.049302" lon="11.174756">
<time>2020-10-28T18:25:37Z</time>
</trkpt>
<trkpt lat="46.049314" lon="11.174762">
<time>2020-10-28T18:25:38Z</time>
</trkpt>
<trkpt lat="46.049327" lon="11.174759">
<time>2020-10-28T18:25:39Z</time>
</trkpt>
<trkpt lat="46.049338" lon="11.174752">
<time>2020-10-28T18:25:40Z</time>
</trkpt>
<trkpt lat="46.049355" lon="11.174748">
<time>2020-10-28T18:25:41Z</time>
</trkpt>
<trkpt lat="46.049373" lon="11.174741">
<time>2020-10-28T18:25:42Z</time>
</trkpt>
<trkpt lat="46.049387" lon="11.174733">
<time>2020-10-28T18:25:43Z</time>
</trkpt>
<trkpt lat="46.049395" lon="11.174722">
<time>2020-10-28T18:25:44Z</time>
</trkpt>
<trkpt lat="46.049405" lon="11.174711">
<time>2020-10-28T18:25:45Z</time>
</trkpt>
<trkpt lat="46.049418" lon="11.174704">
<time>2020-10-28T18:25:46Z</time>
</trkpt>
<trkpt lat="46.049433" lon="11.174704">
<time>2020-10-28T18:25:47Z</time>
</trkpt>
<trkpt lat="46.049451" lon="11.174702">
<time>2020-10-28T18:25:48Z</time>
</trkpt>
<trkpt lat="46.049469" lon="11.174699">
<time>2020-10-28T18:25:49Z</time>
</trkpt>
<trkpt lat="46.04949" lon="11.174701">
<time>2020-10-28T18:25:50Z</time>
</trkpt>
<trkpt lat="46.04951" lon="11.174704">
<time>2020-10-28T18:25:51Z</time>
</trkpt>
<trkpt lat="46.049528" lon="11.174704">
<time>2020-10-28T18:25:52Z</time>
</trkpt>
<trkpt lat="46.049542" lon="11.174697">
<time>2020-10-28T18:25:53Z</time>
</trkpt>
<trkpt lat="46.049559" lon="11.174695">
<time>2020-10-28T18:25:54Z</time>
</trkpt>
<trkpt lat="46.049584" lon="11.174703">
<time>2020-10-28T18:25:55Z</time>
</trkpt>
<trkpt lat="46.049611" lon="11.174707">
<time>2020-10-28T18:25:56Z</time>
</trkpt>
<trkpt lat="46.049628" lon="11.174707">
<time>2020-10-28T18:25:57Z</time>
</trkpt>
<trkpt lat="46.049639" lon="11.174704">
<time>2020-10-28T18:25:58Z</time>
</trkpt>
<trkpt lat="46.049637" lon="11.174699">
<time>2020-10-28T18:25:59Z</time>
</trkpt>
<trkpt lat="46.049634" lon="11.174694">
<time>2020-10-28T18:26:00Z</time>
</trkpt>
<trkpt lat="46.049633" lon="11.174692">
<time>2020-10-28T18:26:01Z</time>
</trkpt>
<trkpt lat="46.049639" lon="11.174683">
<time>2020-10-28T18:26:02Z</time>
</trkpt>
<trkpt lat="46.049639" lon="11.174676">
<time>2020-10-28T18:26:03Z</time>
</trkpt>
<trkpt lat="46.049639" lon="11.174669">
<time>2020-10-28T18:26:04Z</time>
</trkpt>
<trkpt lat="46.049649" lon="11.174666">
<time>2020-10-28T18:26:05Z</time>
</trkpt>
<trkpt lat="46.049662" lon="11.17467">
<time>2020-10-28T18:26:06Z</time>
</trkpt>
<trkpt lat="46.049678" lon="11.174677">
<time>2020-10-28T18:26:07Z</time>
</trkpt>
<trkpt lat="46.049694" lon="11.174678">
<time>2020-10-28T18:26:08Z</time>
</trkpt>
<trkpt lat="46.049708" lon="11.174666">
<time>2020-10-28T18:26:09Z</time>
</trkpt>
<trkpt lat="46.049719" lon="11.174648">
<time>2020-10-28T18:26:10Z</time>
</trkpt>
<trkpt lat="46.049727" lon="11.174633">
<time>2020-10-28T18:26:11Z</time>
</trkpt>
<trkpt lat="46.049729" lon="11.174624">
<time>2020-10-28T18:26:12Z</time>
</trkpt>
<trkpt lat="46.04973" lon="11.174609">
<time>2020-10-28T18:26:13Z</time>
</trkpt>
<trkpt lat="46.049734" lon="11.1746">
<time>2020-10-28T18:26:14Z</time>
</trkpt>
<trkpt lat="46.04974" lon="11.174593">
<time>2020-10-28T18:26:15Z</time>
</trkpt>
<trkpt lat="46.049746" lon="11.17459">
<time>2020-10-28T18:26:16Z</time>
</trkpt>
<trkpt lat="46.049755" lon="11.174586">
<time>2020-10-28T18:26:17Z</time>
</trkpt>
<trkpt lat="46.049764" lon="11.174573">
<time>2020-10-28T18:26:18Z</time>
</trkpt>
<trkpt lat="46.049773" lon="11.174557">
<time>2020-10-28T18:26:19Z</time>
</trkpt>
<trkpt lat="46.049786" lon="11.174536">
<time>2020-10-28T18:26:20Z</time>
</trkpt>
<trkpt lat="46.049804" lon="11.17451">
<time>2020-10-28T18:26:21Z</time>
</trkpt>
<trkpt lat="46.049826" lon="11.174485">
<time>2020-10-28T18:26:22Z</time>
</trkpt>
<trkpt lat="46.049846" lon="11.17446">
<time>2020-10-28T18:26:23Z</time>
</trkpt>
<trkpt lat="46.049855" lon="11.174441">
<time>2020-10-28T18:26:24Z</time>
</trkpt>
<trkpt lat="46.049862" lon="11.174419">
<time>2020-10-28T18:26:25Z</time>
</trkpt>
<trkpt lat="46.049869" lon="11.174397">
<time>2020-10-28T18:26:26Z</time>
</trkpt>
<trkpt lat="46.049876" lon="11.17437">
<time>2020-10-28T18:26:27Z</time>
</trkpt>
<trkpt lat="46.049888" lon="11.174348">
<time>2020-10-28T18:26:28Z</time>
</trkpt>
<trkpt lat="46.0499" lon="11.174332">
<time>2020-10-28T18:26:29Z</time>
</trkpt>
<trkpt lat="46.04991" lon="11.174323">
<time>2020-10-28T18:26:30Z</time>
</trkpt>
<trkpt lat="46.049916" lon="11.174312">
<time>2020-10-28T18:26:31Z</time>
</trkpt>
<trkpt lat="46.049925" lon="11.174298">
<time>2020-10-28T18:26:32Z</time>
</trkpt>
<trkpt lat="46.04994" lon="11.174288">
<time>2020-10-28T18:26:33Z</time>
</trkpt>
<trkpt lat="46.049956" lon="11.174283">
<time>2020-10-28T18:26:34Z</time>
</trkpt>
<trkpt lat="46.049965" lon="11.174272">
<time>2020-10-28T18:26:35Z</time>
</trkpt>
<trkpt lat="46.049988" lon="11.174266">
<time>2020-10-28T18:26:36Z</time>
</trkpt>
<trkpt lat="46.050002" lon="11.174256">
<time>2020-10-28T18:26:37Z</time>
</trkpt>
<trkpt lat="46.050008" lon="11.174249">
<time>2020-10-28T18:26:38Z</time>
</trkpt>
<trkpt lat="46.050017" lon="11.17424">
<time>2020-10-28T18:26:39Z</time>
</trkpt>
<trkpt lat="46.050021" lon="11.174228">
<time>2020-10-28T18:26:40Z</time>
</trkpt>
<trkpt lat="46.050022" lon="11.17422">
<time>2020-10-28T18:26:41Z</time>
</trkpt>
<trkpt lat="46.050028" lon="11.174217">
<time>2020-10-28T18:26:42Z</time>
</trkpt>
<trkpt lat="46.050037" lon="11.174212">
<time>2020-10-28T18:26:43Z</time>
</trkpt>
<trkpt lat="46.050049" lon="11.1742">
<time>2020-10-28T18:26:44Z</time>
</trkpt>
<trkpt lat="46.050058" lon="11.174189">
<time>2020-10-28T18:26:45Z</time>
</trkpt>
<trkpt lat="46.050065" lon="11.174178">
<time>2020-10-28T18:26:46Z</time>
</trkpt>
<trkpt lat="46.050072" lon="11.174169">
<time>2020-10-28T18:26:47Z</time>
</trkpt>
<trkpt lat="46.050084" lon="11.174162">
<time>2020-10-28T18:26:48Z</time>
</trkpt>
<trkpt lat="46.050096" lon="11.174154">
<time>2020-10-28T18:26:49Z</time>
</trkpt>
<trkpt lat="46.050108" lon="11.174146">
<time>2020-10-28T18:26:50Z</time>
</trkpt>
<trkpt lat="46.050124" lon="11.174144">
<time>2020-10-28T18:26:51Z</time>
</trkpt>
<trkpt lat="46.050136" lon="11.174144">
<time>2020-10-28T18:26:52Z</time>
</trkpt>
<trkpt lat="46.050147" lon="11.174142">
<time>2020-10-28T18:26:53Z</time>
</trkpt>
<trkpt lat="46.050158" lon="11.174129">
<time>2020-10-28T18:26:54Z</time>
</trkpt>
<trkpt lat="46.050168" lon="11.174113">
<time>2020-10-28T18:26:55Z</time>
</trkpt>
<trkpt lat="46.050176" lon="11.174104">
<time>2020-10-28T18:26:56Z</time>
</trkpt>
<trkpt lat="46.05018" lon="11.174095">
<time>2020-10-28T18:26:57Z</time>
</trkpt>
<trkpt lat="46.050183" lon="11.17409">
<time>2020-10-28T18:26:58Z</time>
</trkpt>
<trkpt lat="46.050185" lon="11.174076">
<time>2020-10-28T18:26:59Z</time>
</trkpt>
<trkpt lat="46.050192" lon="11.174064">
<time>2020-10-28T18:27:00Z</time>
</trkpt>
<trkpt lat="46.050205" lon="11.174062">
<time>2020-10-28T18:27:01Z</time>
</trkpt>
<trkpt lat="46.050216" lon="11.17406">
<time>2020-10-28T18:27:02Z</time>
</trkpt>
<trkpt lat="46.050217" lon="11.17405">
<time>2020-10-28T18:27:03Z</time>
</trkpt>
<trkpt lat="46.050225" lon="11.174043">
<time>2020-10-28T18:27:04Z</time>
</trkpt>
<trkpt lat="46.050231" lon="11.174035">
<time>2020-10-28T18:27:05Z</time>
</trkpt>
<trkpt lat="46.050236" lon="11.174028">
<time>2020-10-28T18:27:06Z</time>
</trkpt>
<trkpt lat="46.050246" lon="11.174029">
<time>2020-10-28T18:27:07Z</time>
</trkpt>
<trkpt lat="46.050258" lon="11.174033">
<time>2020-10-28T18:27:08Z</time>
</trkpt>
<trkpt lat="46.050267" lon="11.174037">
<time>2020-10-28T18:27:09Z</time>
</trkpt>
<trkpt lat="46.050276" lon="11.174048">
<time>2020-10-28T18:27:10Z</time>
</trkpt>
<trkpt lat="46.050287" lon="11.174062">
<time>2020-10-28T18:27:11Z</time>
</trkpt>
<trkpt lat="46.050297" lon="11.174071">
<time>2020-10-28T18:27:12Z</time>
</trkpt>
<trkpt lat="46.050308" lon="11.174075">
<time>2020-10-28T18:27:13Z</time>
</trkpt>
<trkpt lat="46.050321" lon="11.17408">
<time>2020-10-28T18:27:14Z</time>
</trkpt>
<trkpt lat="46.050329" lon="11.174078">
<time>2020-10-28T18:27:15Z</time>
</trkpt>
<trkpt lat="46.050333" lon="11.174069">
<time>2020-10-28T18:27:16Z</time>
</trkpt>
<trkpt lat="46.05034" lon="11.174058">
<time>2020-10-28T18:27:17Z</time>
</trkpt>
<trkpt lat="46.050346" lon="11.174045">
<time>2020-10-28T18:27:18Z</time>
</trkpt>
<trkpt lat="46.050355" lon="11.174037">
<time>2020-10-28T18:27:19Z</time>
</trkpt>
<trkpt lat="46.050366" lon="11.174033">
<time>2020-10-28T18:27:20Z</time>
</trkpt>
<trkpt lat="46.050378" lon="11.174032">
<time>2020-10-28T18:27:21Z</time>
</trkpt>
<trkpt lat="46.05039" lon="11.174031">
<time>2020-10-28T18:27:22Z</time>
</trkpt>
<trkpt lat="46.050406" lon="11.174029">
<time>2020-10-28T18:27:23Z</time>
</trkpt>
<trkpt lat="46.050422" lon="11.174022">
<time>2020-10-28T18:27:24Z</time>
</trkpt>
<trkpt lat="46.050432" lon="11.174006">
<time>2020-10-28T18:27:25Z</time>
</trkpt>
<trkpt lat="46.050438" lon="11.173984">
<time>2020-10-28T18:27:26Z</time>
</trkpt>
<trkpt lat="46.050439" lon="11.173962">
<time>2020-10-28T18:27:27Z</time>
</trkpt>
<trkpt lat="46.050431" lon="11.173934">
<time>2020-10-28T18:27:28Z</time>
</trkpt>
<trkpt lat="46.050423" lon="11.17391">
<time>2020-10-28T18:27:29Z</time>
</trkpt>
<trkpt lat="46.05042" lon="11.173899">
<time>2020-10-28T18:27:30Z</time>
</trkpt>
<trkpt lat="46.050419" lon="11.173896">
<time>2020-10-28T18:27:31Z</time>
</trkpt>
<trkpt lat="46.050423" lon="11.173896">
<time>2020-10-28T18:27:32Z</time>
</trkpt>
<trkpt lat="46.050426" lon="11.173892">
<time>2020-10-28T18:27:33Z</time>
</trkpt>
<trkpt lat="46.050431" lon="11.173884">
<time>2020-10-28T18:27:34Z</time>
</trkpt>
<trkpt lat="46.050436" lon="11.173881">
<time>2020-10-28T18:27:35Z</time>
</trkpt>
<trkpt lat="46.050435" lon="11.173874">
<time>2020-10-28T18:27:36Z</time>
</trkpt>
<trkpt lat="46.050431" lon="11.173865">
<time>2020-10-28T18:27:37Z</time>
</trkpt>
<trkpt lat="46.050424" lon="11.173842">
<time>2020-10-28T18:27:38Z</time>
</trkpt>
<trkpt lat="46.050416" lon="11.173814">
<time>2020-10-28T18:27:39Z</time>
</trkpt>
<trkpt lat="46.050414" lon="11.173795">
<time>2020-10-28T18:27:40Z</time>
</trkpt>
<trkpt lat="46.050415" lon="11.173779">
<time>2020-10-28T18:27:41Z</time>
</trkpt>
<trkpt lat="46.050418" lon="11.173767">
<time>2020-10-28T18:27:42Z</time>
</trkpt>
<trkpt lat="46.050421" lon="11.173755">
<time>2020-10-28T18:27:43Z</time>
</trkpt>
<trkpt lat="46.050418" lon="11.173741">
<time>2020-10-28T18:27:44Z</time>
</trkpt>
<trkpt lat="46.050418" lon="11.173733">
<time>2020-10-28T18:27:45Z</time>
</trkpt>
<trkpt lat="46.050421" lon="11.17373">
<time>2020-10-28T18:27:46Z</time>
</trkpt>
<trkpt lat="46.050424" lon="11.173728">
<time>2020-10-28T18:27:47Z</time>
</trkpt>
<trkpt lat="46.050426" lon="11.173727">
<time>2020-10-28T18:27:48Z</time>
</trkpt>
<trkpt lat="46.05043" lon="11.173725">
<time>2020-10-28T18:27:49Z</time>
</trkpt>
<trkpt lat="46.050439" lon="11.173722">
<time>2020-10-28T18:27:50Z</time>
</trkpt>
<trkpt lat="46.050446" lon="11.173708">
<time>2020-10-28T18:27:51Z</time>
</trkpt>
<trkpt lat="46.050448" lon="11.173694">
<time>2020-10-28T18:27:52Z</time>
</trkpt>
<trkpt lat="46.050452" lon="11.173683">
<time>2020-10-28T18:27:53Z</time>
</trkpt>
<trkpt lat="46.050454" lon="11.173665">
<time>2020-10-28T18:27:54Z</time>
</trkpt>
<trkpt lat="46.050456" lon="11.173648">
<time>2020-10-28T18:27:55Z</time>
</trkpt>
<trkpt lat="46.05046" lon="11.173635">
<time>2020-10-28T18:27:56Z</time>
</trkpt>
<trkpt lat="46.050462" lon="11.173622">
<time>2020-10-28T18:27:57Z</time>
</trkpt>
<trkpt lat="46.050463" lon="11.17361">
<time>2020-10-28T18:27:58Z</time>
</trkpt>
<trkpt lat="46.050464" lon="11.173595">
<time>2020-10-28T18:27:59Z</time>
</trkpt>
<trkpt lat="46.050471" lon="11.173582">
<time>2020-10-28T18:28:00Z</time>
</trkpt>
<trkpt lat="46.050475" lon="11.173567">
<time>2020-10-28T18:28:01Z</time>
</trkpt>
<trkpt lat="46.050486" lon="11.173561">
<time>2020-10-28T18:28:02Z</time>
</trkpt>
<trkpt lat="46.05049" lon="11.173549">
<time>2020-10-28T18:28:03Z</time>
</trkpt>
<trkpt lat="46.050494" lon="11.173531">
<time>2020-10-28T18:28:04Z</time>
</trkpt>
<trkpt lat="46.050502" lon="11.173512">
<time>2020-10-28T18:28:05Z</time>
</trkpt>
<trkpt lat="46.05051" lon="11.173481">
<time>2020-10-28T18:28:06Z</time>
</trkpt>
<trkpt lat="46.050513" lon="11.173455">
<time>2020-10-28T18:28:07Z</time>
</trkpt>
<trkpt lat="46.050509" lon="11.173433">
<time>2020-10-28T18:28:08Z</time>
</trkpt>
<trkpt lat="46.050502" lon="11.17344">
<time>2020-10-28T18:28:09Z</time>
</trkpt>
<trkpt lat="46.050494" lon="11.173442">
<time>2020-10-28T18:28:10Z</time>
</trkpt>
<trkpt lat="46.050482" lon="11.173435">
<time>2020-10-28T18:28:11Z</time>
</trkpt>
<trkpt lat="46.050467" lon="11.173429">
<time>2020-10-28T18:28:12Z</time>
</trkpt>
<trkpt lat="46.050468" lon="11.173427">
<time>2020-10-28T18:28:13Z</time>
</trkpt>
<trkpt lat="46.050448" lon="11.173406">
<time>2020-10-28T18:28:14Z</time>
</trkpt>
<trkpt lat="46.05044" lon="11.173401">
<time>2020-10-28T18:28:15Z</time>
</trkpt>
<trkpt lat="46.050446" lon="11.173407">
<time>2020-10-28T18:28:16Z</time>
</trkpt>
<trkpt lat="46.050449" lon="11.173412">
<time>2020-10-28T18:28:17Z</time>
</trkpt>
<trkpt lat="46.050445" lon="11.173408">
<time>2020-10-28T18:28:18Z</time>
</trkpt>
<trkpt lat="46.05044" lon="11.173404">
<time>2020-10-28T18:28:19Z</time>
</trkpt>
<trkpt lat="46.050432" lon="11.173399">
<time>2020-10-28T18:28:20Z</time>
</trkpt>
<trkpt lat="46.050429" lon="11.173397">
<time>2020-10-28T18:28:21Z</time>
</trkpt>
<trkpt lat="46.050425" lon="11.173393">
<time>2020-10-28T18:28:22Z</time>
</trkpt>
<trkpt lat="46.05042" lon="11.173385">
<time>2020-10-28T18:28:23Z</time>
</trkpt>
<trkpt lat="46.050413" lon="11.173378">
<time>2020-10-28T18:28:24Z</time>
</trkpt>
<trkpt lat="46.05041" lon="11.173377">
<time>2020-10-28T18:28:25Z</time>
</trkpt>
<trkpt lat="46.05041" lon="11.173379">
<time>2020-10-28T18:28:26Z</time>
</trkpt>
<trkpt lat="46.05041" lon="11.173379">
<time>2020-10-28T18:28:27Z</time>
</trkpt>
<trkpt lat="46.050409" lon="11.173376">
<time>2020-10-28T18:28:28Z</time>
</trkpt>
<trkpt lat="46.050412" lon="11.173373">
<time>2020-10-28T18:28:29Z</time>
</trkpt>
<trkpt lat="46.050413" lon="11.173366">
<time>2020-10-28T18:28:30Z</time>
</trkpt>
<trkpt lat="46.050408" lon="11.173359">
<time>2020-10-28T18:28:31Z</time>
</trkpt>
<trkpt lat="46.050401" lon="11.173354">
<time>2020-10-28T18:28:32Z</time>
</trkpt>
<trkpt lat="46.050395" lon="11.173349">
<time>2020-10-28T18:28:33Z</time>
</trkpt>
<trkpt lat="46.050387" lon="11.173349">
<time>2020-10-28T18:28:34Z</time>
</trkpt>
<trkpt lat="46.050377" lon="11.173356">
<time>2020-10-28T18:28:35Z</time>
</trkpt>
<trkpt lat="46.050364" lon="11.173364">
<time>2020-10-28T18:28:36Z</time>
</trkpt>
<trkpt lat="46.050355" lon="11.173368">
<time>2020-10-28T18:28:37Z</time>
</trkpt>
<trkpt lat="46.050345" lon="11.173368">
<time>2020-10-28T18:28:38Z</time>
</trkpt>
<trkpt lat="46.050334" lon="11.173363">
<time>2020-10-28T18:28:39Z</time>
</trkpt>
<trkpt lat="46.050328" lon="11.173363">
<time>2020-10-28T18:28:40Z</time>
</trkpt>
<trkpt lat="46.050317" lon="11.173354">
<time>2020-10-28T18:28:41Z</time>
</trkpt>
<trkpt lat="46.050304" lon="11.173339">
<time>2020-10-28T18:28:42Z</time>
</trkpt>
<trkpt lat="46.050296" lon="11.173326">
<time>2020-10-28T18:28:43Z</time>
</trkpt>
<trkpt lat="46.050288" lon="11.173312">
<time>2020-10-28T18:28:44Z</time>
</trkpt>
<trkpt lat="46.050271" lon="11.173297">
<time>2020-10-28T18:28:45Z</time>
</trkpt>
<trkpt lat="46.050253" lon="11.173282">
<time>2020-10-28T18:28:46Z</time>
</trkpt>
<trkpt lat="46.050237" lon="11.173272">
<time>2020-10-28T18:28:47Z</time>
</trkpt>
<trkpt lat="46.050226" lon="11.173264">
<time>2020-10-28T18:28:48Z</time>
</trkpt>
<trkpt lat="46.050214" lon="11.173264">
<time>2020-10-28T18:28:49Z</time>
</trkpt>
<trkpt lat="46.050198" lon="11.173278">
<time>2020-10-28T18:28:50Z</time>
</trkpt>
<trkpt lat="46.050184" lon="11.17329">
<time>2020-10-28T18:28:51Z</time>
</trkpt>
<trkpt lat="46.05017" lon="11.173304">
<time>2020-10-28T18:28:52Z</time>
</trkpt>
<trkpt lat="46.05016" lon="11.173316">
<time>2020-10-28T18:28:53Z</time>
</trkpt>
<trkpt lat="46.050154" lon="11.173319">
<time>2020-10-28T18:28:54Z</time>
</trkpt>
<trkpt lat="46.050143" lon="11.173319">
<time>2020-10-28T18:28:55Z</time>
</trkpt>
<trkpt lat="46.050126" lon="11.173318">
<time>2020-10-28T18:28:56Z</time>
</trkpt>
<trkpt lat="46.050114" lon="11.173315">
<time>2020-10-28T18:28:57Z</time>
</trkpt>
<trkpt lat="46.050093" lon="11.173311">
<time>2020-10-28T18:28:58Z</time>
</trkpt>
<trkpt lat="46.05007" lon="11.173311">
<time>2020-10-28T18:28:59Z</time>
</trkpt>
<trkpt lat="46.050051" lon="11.17332">
<time>2020-10-28T18:29:00Z</time>
</trkpt>
<trkpt lat="46.050034" lon="11.173337">
<time>2020-10-28T18:29:01Z</time>
</trkpt>
<trkpt lat="46.050023" lon="11.173354">
<time>2020-10-28T18:29:02Z</time>
</trkpt>
<trkpt lat="46.050013" lon="11.173367">
<time>2020-10-28T18:29:03Z</time>
</trkpt>
<trkpt lat="46.05001" lon="11.173373">
<time>2020-10-28T18:29:04Z</time>
</trkpt>
<trkpt lat="46.050008" lon="11.173369">
<time>2020-10-28T18:29:05Z</time>
</trkpt>
<trkpt lat="46.049996" lon="11.173354">
<time>2020-10-28T18:29:06Z</time>
</trkpt>
<trkpt lat="46.049983" lon="11.173337">
<time>2020-10-28T18:29:07Z</time>
</trkpt>
<trkpt lat="46.049964" lon="11.173327">
<time>2020-10-28T18:29:08Z</time>
</trkpt>
<trkpt lat="46.049948" lon="11.173325">
<time>2020-10-28T18:29:09Z</time>
</trkpt>
<trkpt lat="46.049935" lon="11.173323">
<time>2020-10-28T18:29:10Z</time>
</trkpt>
<trkpt lat="46.049921" lon="11.173319">
<time>2020-10-28T18:29:11Z</time>
</trkpt>
<trkpt lat="46.049908" lon="11.173319">
<time>2020-10-28T18:29:12Z</time>
</trkpt>
<trkpt lat="46.049899" lon="11.173318">
<time>2020-10-28T18:29:13Z</time>
</trkpt>
<trkpt lat="46.049891" lon="11.173318">
<time>2020-10-28T18:29:14Z</time>
</trkpt>
<trkpt lat="46.04988" lon="11.173317">
<time>2020-10-28T18:29:15Z</time>
</trkpt>
<trkpt lat="46.049863" lon="11.173313">
<time>2020-10-28T18:29:16Z</time>
</trkpt>
<trkpt lat="46.049842" lon="11.1733">
<time>2020-10-28T18:29:17Z</time>
</trkpt>
<trkpt lat="46.049823" lon="11.173293">
<time>2020-10-28T18:29:18Z</time>
</trkpt>
<trkpt lat="46.049807" lon="11.173302">
<time>2020-10-28T18:29:19Z</time>
</trkpt>
<trkpt lat="46.049793" lon="11.173322">
<time>2020-10-28T18:29:20Z</time>
</trkpt>
<trkpt lat="46.049775" lon="11.173342">
<time>2020-10-28T18:29:21Z</time>
</trkpt>
<trkpt lat="46.049755" lon="11.173366">
<time>2020-10-28T18:29:22Z</time>
</trkpt>
<trkpt lat="46.049738" lon="11.173386">
<time>2020-10-28T18:29:23Z</time>
</trkpt>
<trkpt lat="46.049724" lon="11.173399">
<time>2020-10-28T18:29:24Z</time>
</trkpt>
<trkpt lat="46.049713" lon="11.173405">
<time>2020-10-28T18:29:25Z</time>
</trkpt>
<trkpt lat="46.049704" lon="11.17341">
<time>2020-10-28T18:29:26Z</time>
</trkpt>
<trkpt lat="46.049692" lon="11.173414">
<time>2020-10-28T18:29:27Z</time>
</trkpt>
<trkpt lat="46.049674" lon="11.173424">
<time>2020-10-28T18:29:28Z</time>
</trkpt>
<trkpt lat="46.049654" lon="11.173434">
<time>2020-10-28T18:29:29Z</time>
</trkpt>
<trkpt lat="46.049633" lon="11.173453">
<time>2020-10-28T18:29:30Z</time>
</trkpt>
<trkpt lat="46.049615" lon="11.173472">
<time>2020-10-28T18:29:31Z</time>
</trkpt>
<trkpt lat="46.049599" lon="11.173483">
<time>2020-10-28T18:29:32Z</time>
</trkpt>
<trkpt lat="46.049581" lon="11.173495">
<time>2020-10-28T18:29:33Z</time>
</trkpt>
<trkpt lat="46.049567" lon="11.173502">
<time>2020-10-28T18:29:34Z</time>
</trkpt>
<trkpt lat="46.049547" lon="11.17352">
<time>2020-10-28T18:29:35Z</time>
</trkpt>
<trkpt lat="46.049526" lon="11.173536">
<time>2020-10-28T18:29:36Z</time>
</trkpt>
<trkpt lat="46.049504" lon="11.17354">
<time>2020-10-28T18:29:37Z</time>
</trkpt>
<trkpt lat="46.049486" lon="11.173536">
<time>2020-10-28T18:29:38Z</time>
</trkpt>
<trkpt lat="46.049469" lon="11.173523">
<time>2020-10-28T18:29:39Z</time>
</trkpt>
<trkpt lat="46.049452" lon="11.173511">
<time>2020-10-28T18:29:40Z</time>
</trkpt>
<trkpt lat="46.049432" lon="11.173496">
<time>2020-10-28T18:29:41Z</time>
</trkpt>
<trkpt lat="46.049417" lon="11.173484">
<time>2020-10-28T18:29:42Z</time>
</trkpt>
<trkpt lat="46.049404" lon="11.173472">
<time>2020-10-28T18:29:43Z</time>
</trkpt>
<trkpt lat="46.049391" lon="11.173456">
<time>2020-10-28T18:29:44Z</time>
</trkpt>
<trkpt lat="46.049382" lon="11.173444">
<time>2020-10-28T18:29:45Z</time>
</trkpt>
<trkpt lat="46.049375" lon="11.173437">
<time>2020-10-28T18:29:46Z</time>
</trkpt>
<trkpt lat="46.049362" lon="11.173435">
<time>2020-10-28T18:29:47Z</time>
</trkpt>
<trkpt lat="46.049344" lon="11.173434">
<time>2020-10-28T18:29:48Z</time>
</trkpt>
<trkpt lat="46.049324" lon="11.173424">
<time>2020-10-28T18:29:49Z</time>
</trkpt>
<trkpt lat="46.049304" lon="11.173416">
<time>2020-10-28T18:29:50Z</time>
</trkpt>
<trkpt lat="46.049286" lon="11.173411">
<time>2020-10-28T18:29:51Z</time>
</trkpt>
<trkpt lat="46.049273" lon="11.173411">
<time>2020-10-28T18:29:52Z</time>
</trkpt>
<trkpt lat="46.049263" lon="11.17341">
<time>2020-10-28T18:29:53Z</time>
</trkpt>
<trkpt lat="46.049257" lon="11.173416">
<time>2020-10-28T18:29:54Z</time>
</trkpt>
<trkpt lat="46.049249" lon="11.173418">
<time>2020-10-28T18:29:55Z</time>
</trkpt>
<trkpt lat="46.049244" lon="11.173418">
<time>2020-10-28T18:29:56Z</time>
</trkpt>
<trkpt lat="46.04924" lon="11.173419">
<time>2020-10-28T18:29:57Z</time>
</trkpt>
<trkpt lat="46.049231" lon="11.173422">
<time>2020-10-28T18:29:58Z</time>
</trkpt>
<trkpt lat="46.049225" lon="11.173428">
<time>2020-10-28T18:29:59Z</time>
</trkpt>
<trkpt lat="46.049217" lon="11.173441">
<time>2020-10-28T18:30:00Z</time>
</trkpt>
<trkpt lat="46.049204" lon="11.173451">
<time>2020-10-28T18:30:01Z</time>
</trkpt>
<trkpt lat="46.049187" lon="11.173456">
<time>2020-10-28T18:30:02Z</time>
</trkpt>
<trkpt lat="46.049169" lon="11.17346">
<time>2020-10-28T18:30:03Z</time>
</trkpt>
<trkpt lat="46.04915" lon="11.173463">
<time>2020-10-28T18:30:04Z</time>
</trkpt>
<trkpt lat="46.049135" lon="11.173464">
<time>2020-10-28T18:30:05Z</time>
</trkpt>
<trkpt lat="46.049122" lon="11.173465">
<time>2020-10-28T18:30:06Z</time>
</trkpt>
<trkpt lat="46.049112" lon="11.173466">
<time>2020-10-28T18:30:07Z</time>
</trkpt>
<trkpt lat="46.049097" lon="11.173467">
<time>2020-10-28T18:30:08Z</time>
</trkpt>
<trkpt lat="46.049077" lon="11.173462">
<time>2020-10-28T18:30:09Z</time>
</trkpt>
<trkpt lat="46.049061" lon="11.173458">
<time>2020-10-28T18:30:10Z</time>
</trkpt>
<trkpt lat="46.049051" lon="11.173463">
<time>2020-10-28T18:30:11Z</time>
</trkpt>
<trkpt lat="46.049033" lon="11.17347">
<time>2020-10-28T18:30:12Z</time>
</trkpt>
<trkpt lat="46.049012" lon="11.173481">
<time>2020-10-28T18:30:13Z</time>
</trkpt>
<trkpt lat="46.048993" lon="11.173499">
<time>2020-10-28T18:30:14Z</time>
</trkpt>
<trkpt lat="46.048978" lon="11.173522">
<time>2020-10-28T18:30:15Z</time>
</trkpt>
<trkpt lat="46.048962" lon="11.17354">
<time>2020-10-28T18:30:16Z</time>
</trkpt>
<trkpt lat="46.048947" lon="11.173558">
<time>2020-10-28T18:30:17Z</time>
</trkpt>
<trkpt lat="46.048939" lon="11.173584">
<time>2020-10-28T18:30:18Z</time>
</trkpt>
<trkpt lat="46.048934" lon="11.173613">
<time>2020-10-28T18:30:19Z</time>
</trkpt>
<trkpt lat="46.048929" lon="11.173634">
<time>2020-10-28T18:30:20Z</time>
</trkpt>
<trkpt lat="46.048921" lon="11.173646">
<time>2020-10-28T18:30:21Z</time>
</trkpt>
<trkpt lat="46.048914" lon="11.173649">
<time>2020-10-28T18:30:22Z</time>
</trkpt>
<trkpt lat="46.048906" lon="11.173654">
<time>2020-10-28T18:30:23Z</time>
</trkpt>
<trkpt lat="46.048897" lon="11.173652">
<time>2020-10-28T18:30:24Z</time>
</trkpt>
<trkpt lat="46.048888" lon="11.173647">
<time>2020-10-28T18:30:25Z</time>
</trkpt>
<trkpt lat="46.048877" lon="11.173643">
<time>2020-10-28T18:30:26Z</time>
</trkpt>
<trkpt lat="46.048868" lon="11.173641">
<time>2020-10-28T18:30:27Z</time>
</trkpt>
<trkpt lat="46.048862" lon="11.173635">
<time>2020-10-28T18:30:28Z</time>
</trkpt>
<trkpt lat="46.04886" lon="11.173638">
<time>2020-10-28T18:30:29Z</time>
</trkpt>
<trkpt lat="46.048857" lon="11.173644">
<time>2020-10-28T18:30:30Z</time>
</trkpt>
<trkpt lat="46.048851" lon="11.173644">
<time>2020-10-28T18:30:31Z</time>
</trkpt>
<trkpt lat="46.048842" lon="11.17364">
<time>2020-10-28T18:30:32Z</time>
</trkpt>
<trkpt lat="46.048838" lon="11.173635">
<time>2020-10-28T18:30:33Z</time>
</trkpt>
<trkpt lat="46.048833" lon="11.173636">
<time>2020-10-28T18:30:34Z</time>
</trkpt>
<trkpt lat="46.048822" lon="11.173637">
<time>2020-10-28T18:30:35Z</time>
</trkpt>
<trkpt lat="46.048809" lon="11.173638">
<time>2020-10-28T18:30:36Z</time>
</trkpt>
<trkpt lat="46.048797" lon="11.173642">
<time>2020-10-28T18:30:37Z</time>
</trkpt>
<trkpt lat="46.048785" lon="11.173641">
<time>2020-10-28T18:30:38Z</time>
</trkpt>
<trkpt lat="46.04877" lon="11.173635">
<time>2020-10-28T18:30:39Z</time>
</trkpt>
<trkpt lat="46.048756" lon="11.17363">
<time>2020-10-28T18:30:40Z</time>
</trkpt>
<trkpt lat="46.048747" lon="11.173629">
<time>2020-10-28T18:30:41Z</time>
</trkpt>
<trkpt lat="46.048737" lon="11.173631">
<time>2020-10-28T18:30:42Z</time>
</trkpt>
<trkpt lat="46.048728" lon="11.173625">
<time>2020-10-28T18:30:43Z</time>
</trkpt>
<trkpt lat="46.048723" lon="11.173625">
<time>2020-10-28T18:30:44Z</time>
</trkpt>
<trkpt lat="46.048719" lon="11.173631">
<time>2020-10-28T18:30:45Z</time>
</trkpt>
<trkpt lat="46.048716" lon="11.173641">
<time>2020-10-28T18:30:46Z</time>
</trkpt>
<trkpt lat="46.048707" lon="11.173647">
<time>2020-10-28T18:30:47Z</time>
</trkpt>
<trkpt lat="46.048694" lon="11.173645">
<time>2020-10-28T18:30:48Z</time>
</trkpt>
<trkpt lat="46.048675" lon="11.173634">
<time>2020-10-28T18:30:49Z</time>
</trkpt>
<trkpt lat="46.048657" lon="11.17362">
<time>2020-10-28T18:30:50Z</time>
</trkpt>
<trkpt lat="46.048643" lon="11.173612">
<time>2020-10-28T18:30:51Z</time>
</trkpt>
<trkpt lat="46.048634" lon="11.173605">
<time>2020-10-28T18:30:52Z</time>
</trkpt>
<trkpt lat="46.048625" lon="11.1736">
<time>2020-10-28T18:30:53Z</time>
</trkpt>
<trkpt lat="46.048619" lon="11.173602">
<time>2020-10-28T18:30:54Z</time>
</trkpt>
<trkpt lat="46.048617" lon="11.173607">
<time>2020-10-28T18:30:55Z</time>
</trkpt>
<trkpt lat="46.048609" lon="11.173612">
<time>2020-10-28T18:30:56Z</time>
</trkpt>
<trkpt lat="46.048597" lon="11.173623">
<time>2020-10-28T18:30:57Z</time>
</trkpt>
<trkpt lat="46.048585" lon="11.173632">
<time>2020-10-28T18:30:58Z</time>
</trkpt>
<trkpt lat="46.048572" lon="11.173642">
<time>2020-10-28T18:30:59Z</time>
</trkpt>
<trkpt lat="46.04856" lon="11.173658">
<time>2020-10-28T18:31:00Z</time>
</trkpt>
<trkpt lat="46.048546" lon="11.17367">
<time>2020-10-28T18:31:01Z</time>
</trkpt>
<trkpt lat="46.048534" lon="11.173673">
<time>2020-10-28T18:31:02Z</time>
</trkpt>
<trkpt lat="46.04852" lon="11.173675">
<time>2020-10-28T18:31:03Z</time>
</trkpt>
<trkpt lat="46.048507" lon="11.173672">
<time>2020-10-28T18:31:04Z</time>
</trkpt>
<trkpt lat="46.048495" lon="11.173669">
<time>2020-10-28T18:31:05Z</time>
</trkpt>
<trkpt lat="46.048485" lon="11.173674">
<time>2020-10-28T18:31:06Z</time>
</trkpt>
<trkpt lat="46.048476" lon="11.17368">
<time>2020-10-28T18:31:07Z</time>
</trkpt>
<trkpt lat="46.048469" lon="11.173693">
<time>2020-10-28T18:31:08Z</time>
</trkpt>
<trkpt lat="46.048457" lon="11.173706">
<time>2020-10-28T18:31:09Z</time>
</trkpt>
<trkpt lat="46.048444" lon="11.173712">
<time>2020-10-28T18:31:10Z</time>
</trkpt>
<trkpt lat="46.048431" lon="11.173719">
<time>2020-10-28T18:31:11Z</time>
</trkpt>
<trkpt lat="46.048417" lon="11.173726">
<time>2020-10-28T18:31:12Z</time>
</trkpt>
<trkpt lat="46.048401" lon="11.173734">
<time>2020-10-28T18:31:13Z</time>
</trkpt>
<trkpt lat="46.048389" lon="11.173747">
<time>2020-10-28T18:31:14Z</time>
</trkpt>
<trkpt lat="46.048378" lon="11.173764">
<time>2020-10-28T18:31:15Z</time>
</trkpt>
<trkpt lat="46.04837" lon="11.173786">
<time>2020-10-28T18:31:16Z</time>
</trkpt>
<trkpt lat="46.048363" lon="11.173806">
<time>2020-10-28T18:31:17Z</time>
</trkpt>
<trkpt lat="46.048351" lon="11.173819">
<time>2020-10-28T18:31:18Z</time>
</trkpt>
<trkpt lat="46.048337" lon="11.17383">
<time>2020-10-28T18:31:19Z</time>
</trkpt>
<trkpt lat="46.048324" lon="11.173835">
<time>2020-10-28T18:31:20Z</time>
</trkpt>
<trkpt lat="46.048311" lon="11.173836">
<time>2020-10-28T18:31:21Z</time>
</trkpt>
<trkpt lat="46.048299" lon="11.173836">
<time>2020-10-28T18:31:22Z</time>
</trkpt>
<trkpt lat="46.048288" lon="11.173833">
<time>2020-10-28T18:31:23Z</time>
</trkpt>
<trkpt lat="46.048276" lon="11.173837">
<time>2020-10-28T18:31:24Z</time>
</trkpt>
<trkpt lat="46.048263" lon="11.173844">
<time>2020-10-28T18:31:25Z</time>
</trkpt>
<trkpt lat="46.048251" lon="11.173851">
<time>2020-10-28T18:31:26Z</time>
</trkpt>
<trkpt lat="46.048245" lon="11.173862">
<time>2020-10-28T18:31:27Z</time>
</trkpt>
<trkpt lat="46.048242" lon="11.173878">
<time>2020-10-28T18:31:28Z</time>
</trkpt>
<trkpt lat="46.048239" lon="11.1739">
<time>2020-10-28T18:31:29Z</time>
</trkpt>
<trkpt lat="46.048237" lon="11.173914">
<time>2020-10-28T18:31:30Z</time>
</trkpt>
<trkpt lat="46.048233" lon="11.173923">
<time>2020-10-28T18:31:31Z</time>
</trkpt>
<trkpt lat="46.048226" lon="11.173931">
<time>2020-10-28T18:31:32Z</time>
</trkpt>
<trkpt lat="46.048216" lon="11.173934">
<time>2020-10-28T18:31:33Z</time>
</trkpt>
<trkpt lat="46.048205" lon="11.17393">
<time>2020-10-28T18:31:34Z</time>
</trkpt>
<trkpt lat="46.048193" lon="11.17393">
<time>2020-10-28T18:31:35Z</time>
</trkpt>
<trkpt lat="46.048179" lon="11.173931">
<time>2020-10-28T18:31:36Z</time>
</trkpt>
<trkpt lat="46.048162" lon="11.173934">
<time>2020-10-28T18:31:37Z</time>
</trkpt>
<trkpt lat="46.048149" lon="11.17394">
<time>2020-10-28T18:31:38Z</time>
</trkpt>
<trkpt lat="46.048137" lon="11.173945">
<time>2020-10-28T18:31:39Z</time>
</trkpt>
<trkpt lat="46.048125" lon="11.17395">
<time>2020-10-28T18:31:40Z</time>
</trkpt>
<trkpt lat="46.048117" lon="11.173961">
<time>2020-10-28T18:31:41Z</time>
</trkpt>
<trkpt lat="46.048111" lon="11.173983">
<time>2020-10-28T18:31:42Z</time>
</trkpt>
<trkpt lat="46.0481" lon="11.173997">
<time>2020-10-28T18:31:43Z</time>
</trkpt>
<trkpt lat="46.048087" lon="11.174005">
<time>2020-10-28T18:31:44Z</time>
</trkpt>
<trkpt lat="46.048066" lon="11.174009">
<time>2020-10-28T18:31:45Z</time>
</trkpt>
<trkpt lat="46.04805" lon="11.174009">
<time>2020-10-28T18:31:46Z</time>
</trkpt>
<trkpt lat="46.048038" lon="11.174007">
<time>2020-10-28T18:31:47Z</time>
</trkpt>
<trkpt lat="46.04803" lon="11.174002">
<time>2020-10-28T18:31:48Z</time>
</trkpt>
<trkpt lat="46.048025" lon="11.173993">
<time>2020-10-28T18:31:49Z</time>
</trkpt>
<trkpt lat="46.048017" lon="11.173975">
<time>2020-10-28T18:31:50Z</time>
</trkpt>
<trkpt lat="46.048005" lon="11.173961">
<time>2020-10-28T18:31:51Z</time>
</trkpt>
<trkpt lat="46.047994" lon="11.173947">
<time>2020-10-28T18:31:52Z</time>
</trkpt>
<trkpt lat="46.047981" lon="11.173933">
<time>2020-10-28T18:31:53Z</time>
</trkpt>
<trkpt lat="46.047972" lon="11.173923">
<time>2020-10-28T18:31:54Z</time>
</trkpt>
<trkpt lat="46.047959" lon="11.173911">
<time>2020-10-28T18:31:55Z</time>
</trkpt>
<trkpt lat="46.047947" lon="11.173893">
<time>2020-10-28T18:31:56Z</time>
</trkpt>
<trkpt lat="46.047936" lon="11.173878">
<time>2020-10-28T18:31:57Z</time>
</trkpt>
<trkpt lat="46.04793" lon="11.173869">
<time>2020-10-28T18:31:58Z</time>
</trkpt>
<trkpt lat="46.047916" lon="11.173869">
<time>2020-10-28T18:31:59Z</time>
</trkpt>
<trkpt lat="46.047903" lon="11.173871">
<time>2020-10-28T18:32:00Z</time>
</trkpt>
<trkpt lat="46.04789" lon="11.173874">
<time>2020-10-28T18:32:01Z</time>
</trkpt>
<trkpt lat="46.047891" lon="11.17387">
<time>2020-10-28T18:32:02Z</time>
</trkpt>
<trkpt lat="46.04789" lon="11.173868">
<time>2020-10-28T18:32:03Z</time>
</trkpt>
<trkpt lat="46.047889" lon="11.173867">
<time>2020-10-28T18:32:04Z</time>
</trkpt>
<trkpt lat="46.047884" lon="11.173868">
<time>2020-10-28T18:32:05Z</time>
</trkpt>
<trkpt lat="46.047881" lon="11.173862">
<time>2020-10-28T18:32:06Z</time>
</trkpt>
<trkpt lat="46.047879" lon="11.173858">
<time>2020-10-28T18:32:07Z</time>
</trkpt>
<trkpt lat="46.047885" lon="11.173851">
<time>2020-10-28T18:32:08Z</time>
</trkpt>
<trkpt lat="46.047895" lon="11.173836">
<time>2020-10-28T18:32:09Z</time>
</trkpt>
<trkpt lat="46.047907" lon="11.173817">
<time>2020-10-28T18:32:10Z</time>
</trkpt>
<trkpt lat="46.047921" lon="11.173794">
<time>2020-10-28T18:32:11Z</time>
</trkpt>
<trkpt lat="46.047931" lon="11.17377">
<time>2020-10-28T18:32:12Z</time>
</trkpt>
<trkpt lat="46.047947" lon="11.173749">
<time>2020-10-28T18:32:13Z</time>
</trkpt>
<trkpt lat="46.047973" lon="11.173732">
<time>2020-10-28T18:32:14Z</time>
</trkpt>
<trkpt lat="46.048" lon="11.173707">
<time>2020-10-28T18:32:15Z</time>
</trkpt>
<trkpt lat="46.048021" lon="11.173667">
<time>2020-10-28T18:32:16Z</time>
</trkpt>
<trkpt lat="46.048034" lon="11.17363">
<time>2020-10-28T18:32:17Z</time>
</trkpt>
<trkpt lat="46.048046" lon="11.173594">
<time>2020-10-28T18:32:18Z</time>
</trkpt>
<trkpt lat="46.048064" lon="11.173564">
<time>2020-10-28T18:32:19Z</time>
</trkpt>
<trkpt lat="46.048086" lon="11.173539">
<time>2020-10-28T18:32:20Z</time>
</trkpt>
<trkpt lat="46.048113" lon="11.173519">
<time>2020-10-28T18:32:21Z</time>
</trkpt>
<trkpt lat="46.048145" lon="11.173497">
<time>2020-10-28T18:32:22Z</time>
</trkpt>
<trkpt lat="46.048178" lon="11.173456">
<time>2020-10-28T18:32:23Z</time>
</trkpt>
<trkpt lat="46.048198" lon="11.173412">
<time>2020-10-28T18:32:24Z</time>
</trkpt>
<trkpt lat="46.048216" lon="11.173358">
<time>2020-10-28T18:32:25Z</time>
</trkpt>
<trkpt lat="46.048233" lon="11.173299">
<time>2020-10-28T18:32:26Z</time>
</trkpt>
<trkpt lat="46.048243" lon="11.173239">
<time>2020-10-28T18:32:27Z</time>
</trkpt>
<trkpt lat="46.048245" lon="11.17318">
<time>2020-10-28T18:32:28Z</time>
</trkpt>
<trkpt lat="46.048249" lon="11.173134">
<time>2020-10-28T18:32:29Z</time>
</trkpt>
<trkpt lat="46.048255" lon="11.173079">
<time>2020-10-28T18:32:30Z</time>
</trkpt>
<trkpt lat="46.048257" lon="11.17302">
<time>2020-10-28T18:32:31Z</time>
</trkpt>
<trkpt lat="46.048271" lon="11.172971">
<time>2020-10-28T18:32:32Z</time>
</trkpt>
<trkpt lat="46.048288" lon="11.172927">
<time>2020-10-28T18:32:33Z</time>
</trkpt>
<trkpt lat="46.048316" lon="11.172891">
<time>2020-10-28T18:32:34Z</time>
</trkpt>
<trkpt lat="46.048345" lon="11.172868">
<time>2020-10-28T18:32:35Z</time>
</trkpt>
<trkpt lat="46.048371" lon="11.172852">
<time>2020-10-28T18:32:36Z</time>
</trkpt>
<trkpt lat="46.048399" lon="11.172841">
<time>2020-10-28T18:32:37Z</time>
</trkpt>
<trkpt lat="46.048437" lon="11.17284">
<time>2020-10-28T18:32:38Z</time>
</trkpt>
<trkpt lat="46.048475" lon="11.172835">
<time>2020-10-28T18:32:39Z</time>
</trkpt>
<trkpt lat="46.048511" lon="11.172828">
<time>2020-10-28T18:32:40Z</time>
</trkpt>
<trkpt lat="46.048547" lon="11.172825">
<time>2020-10-28T18:32:41Z</time>
</trkpt>
<trkpt lat="46.048583" lon="11.172822">
<time>2020-10-28T18:32:42Z</time>
</trkpt>
<trkpt lat="46.048616" lon="11.172812">
<time>2020-10-28T18:32:43Z</time>
</trkpt>
<trkpt lat="46.048652" lon="11.172803">
<time>2020-10-28T18:32:44Z</time>
</trkpt>
<trkpt lat="46.048692" lon="11.1728">
<time>2020-10-28T18:32:45Z</time>
</trkpt>
<trkpt lat="46.048728" lon="11.172803">
<time>2020-10-28T18:32:46Z</time>
</trkpt>
<trkpt lat="46.04876" lon="11.172801">
<time>2020-10-28T18:32:47Z</time>
</trkpt>
<trkpt lat="46.04879" lon="11.172805">
<time>2020-10-28T18:32:48Z</time>
</trkpt>
<trkpt lat="46.048813" lon="11.172807">
<time>2020-10-28T18:32:49Z</time>
</trkpt>
<trkpt lat="46.048838" lon="11.172808">
<time>2020-10-28T18:32:50Z</time>
</trkpt>
<trkpt lat="46.04886" lon="11.1728">
<time>2020-10-28T18:32:51Z</time>
</trkpt>
<trkpt lat="46.048878" lon="11.172791">
<time>2020-10-28T18:32:52Z</time>
</trkpt>
<trkpt lat="46.048896" lon="11.172788">
<time>2020-10-28T18:32:53Z</time>
</trkpt>
<trkpt lat="46.048906" lon="11.172793">
<time>2020-10-28T18:32:54Z</time>
</trkpt>
<trkpt lat="46.048913" lon="11.172798">
<time>2020-10-28T18:32:55Z</time>
</trkpt>
<trkpt lat="46.048919" lon="11.172805">
<time>2020-10-28T18:32:56Z</time>
</trkpt>
<trkpt lat="46.048934" lon="11.172814">
<time>2020-10-28T18:32:57Z</time>
</trkpt>
<trkpt lat="46.048943" lon="11.172826">
<time>2020-10-28T18:32:58Z</time>
</trkpt>
<trkpt lat="46.048953" lon="11.172835">
<time>2020-10-28T18:32:59Z</time>
</trkpt>
<trkpt lat="46.048968" lon="11.172834">
<time>2020-10-28T18:33:00Z</time>
</trkpt>
<trkpt lat="46.048983" lon="11.172831">
<time>2020-10-28T18:33:01Z</time>
</trkpt>
<trkpt lat="46.049004" lon="11.172829">
<time>2020-10-28T18:33:02Z</time>
</trkpt>
<trkpt lat="46.049027" lon="11.172824">
<time>2020-10-28T18:33:03Z</time>
</trkpt>
<trkpt lat="46.049049" lon="11.172824">
<time>2020-10-28T18:33:04Z</time>
</trkpt>
<trkpt lat="46.049073" lon="11.172834">
<time>2020-10-28T18:33:05Z</time>
</trkpt>
<trkpt lat="46.049095" lon="11.172848">
<time>2020-10-28T18:33:06Z</time>
</trkpt>
<trkpt lat="46.049122" lon="11.172861">
<time>2020-10-28T18:33:07Z</time>
</trkpt>
<trkpt lat="46.04915" lon="11.17288">
<time>2020-10-28T18:33:08Z</time>
</trkpt>
<trkpt lat="46.049178" lon="11.172897">
<time>2020-10-28T18:33:09Z</time>
</trkpt>
<trkpt lat="46.049211" lon="11.172906">
<time>2020-10-28T18:33:10Z</time>
</trkpt>
<trkpt lat="46.049246" lon="11.172911">
<time>2020-10-28T18:33:11Z</time>
</trkpt>
<trkpt lat="46.049274" lon="11.172909">
<time>2020-10-28T18:33:12Z</time>
</trkpt>
<trkpt lat="46.049297" lon="11.172904">
<time>2020-10-28T18:33:13Z</time>
</trkpt>
<trkpt lat="46.049316" lon="11.172905">
<time>2020-10-28T18:33:14Z</time>
</trkpt>
<trkpt lat="46.049338" lon="11.172917">
<time>2020-10-28T18:33:15Z</time>
</trkpt>
<trkpt lat="46.049361" lon="11.172919">
<time>2020-10-28T18:33:16Z</time>
</trkpt>
<trkpt lat="46.049385" lon="11.172905">
<time>2020-10-28T18:33:17Z</time>
</trkpt>
<trkpt lat="46.049417" lon="11.172879">
<time>2020-10-28T18:33:18Z</time>
</trkpt>
<trkpt lat="46.049438" lon="11.17285">
<time>2020-10-28T18:33:19Z</time>
</trkpt>
<trkpt lat="46.04946" lon="11.172824">
<time>2020-10-28T18:33:20Z</time>
</trkpt>
<trkpt lat="46.049481" lon="11.172805">
<time>2020-10-28T18:33:21Z</time>
</trkpt>
<trkpt lat="46.049492" lon="11.172792">
<time>2020-10-28T18:33:22Z</time>
</trkpt>
<trkpt lat="46.0495" lon="11.172787">
<time>2020-10-28T18:33:23Z</time>
</trkpt>
<trkpt lat="46.049508" lon="11.172786">
<time>2020-10-28T18:33:24Z</time>
</trkpt>
<trkpt lat="46.049514" lon="11.172785">
<time>2020-10-28T18:33:25Z</time>
</trkpt>
<trkpt lat="46.049523" lon="11.172779">
<time>2020-10-28T18:33:26Z</time>
</trkpt>
<trkpt lat="46.049535" lon="11.172767">
<time>2020-10-28T18:33:27Z</time>
</trkpt>
<trkpt lat="46.049545" lon="11.172753">
<time>2020-10-28T18:33:28Z</time>
</trkpt>
<trkpt lat="46.049551" lon="11.172742">
<time>2020-10-28T18:33:29Z</time>
</trkpt>
<trkpt lat="46.04955" lon="11.172729">
<time>2020-10-28T18:33:30Z</time>
</trkpt>
<trkpt lat="46.049551" lon="11.172709">
<time>2020-10-28T18:33:31Z</time>
</trkpt>
<trkpt lat="46.049556" lon="11.17268">
<time>2020-10-28T18:33:32Z</time>
</trkpt>
<trkpt lat="46.049565" lon="11.172658">
<time>2020-10-28T18:33:33Z</time>
</trkpt>
<trkpt lat="46.049572" lon="11.172643">
<time>2020-10-28T18:33:34Z</time>
</trkpt>
<trkpt lat="46.049587" lon="11.172632">
<time>2020-10-28T18:33:35Z</time>
</trkpt>
<trkpt lat="46.049602" lon="11.172619">
<time>2020-10-28T18:33:36Z</time>
</trkpt>
<trkpt lat="46.049614" lon="11.172602">
<time>2020-10-28T18:33:37Z</time>
</trkpt>
<trkpt lat="46.04962" lon="11.172584">
<time>2020-10-28T18:33:38Z</time>
</trkpt>
<trkpt lat="46.04963" lon="11.172569">
<time>2020-10-28T18:33:39Z</time>
</trkpt>
<trkpt lat="46.049644" lon="11.172553">
<time>2020-10-28T18:33:40Z</time>
</trkpt>
<trkpt lat="46.049658" lon="11.172541">
<time>2020-10-28T18:33:41Z</time>
</trkpt>
<trkpt lat="46.049672" lon="11.17254">
<time>2020-10-28T18:33:42Z</time>
</trkpt>
<trkpt lat="46.049678" lon="11.172545">
<time>2020-10-28T18:33:43Z</time>
</trkpt>
<trkpt lat="46.049692" lon="11.172542">
<time>2020-10-28T18:33:44Z</time>
</trkpt>
<trkpt lat="46.049707" lon="11.172537">
<time>2020-10-28T18:33:45Z</time>
</trkpt>
<trkpt lat="46.04972" lon="11.172531">
<time>2020-10-28T18:33:46Z</time>
</trkpt>
<trkpt lat="46.04973" lon="11.172529">
<time>2020-10-28T18:33:47Z</time>
</trkpt>
<trkpt lat="46.049737" lon="11.172531">
<time>2020-10-28T18:33:48Z</time>
</trkpt>
<trkpt lat="46.049746" lon="11.172532">
<time>2020-10-28T18:33:49Z</time>
</trkpt>
<trkpt lat="46.049755" lon="11.172528">
<time>2020-10-28T18:33:50Z</time>
</trkpt>
<trkpt lat="46.049765" lon="11.172525">
<time>2020-10-28T18:33:51Z</time>
</trkpt>
<trkpt lat="46.049779" lon="11.172527">
<time>2020-10-28T18:33:52Z</time>
</trkpt>
<trkpt lat="46.049799" lon="11.172538">
<time>2020-10-28T18:33:53Z</time>
</trkpt>
<trkpt lat="46.04982" lon="11.172543">
<time>2020-10-28T18:33:54Z</time>
</trkpt>
<trkpt lat="46.049839" lon="11.172535">
<time>2020-10-28T18:33:55Z</time>
</trkpt>
<trkpt lat="46.049854" lon="11.172523">
<time>2020-10-28T18:33:56Z</time>
</trkpt>
<trkpt lat="46.049868" lon="11.172511">
<time>2020-10-28T18:33:57Z</time>
</trkpt>
<trkpt lat="46.049876" lon="11.172506">
<time>2020-10-28T18:33:58Z</time>
</trkpt>
<trkpt lat="46.049885" lon="11.172497">
<time>2020-10-28T18:33:59Z</time>
</trkpt>
<trkpt lat="46.049896" lon="11.172482">
<time>2020-10-28T18:34:00Z</time>
</trkpt>
<trkpt lat="46.049906" lon="11.172467">
<time>2020-10-28T18:34:01Z</time>
</trkpt>
<trkpt lat="46.04992" lon="11.172453">
<time>2020-10-28T18:34:02Z</time>
</trkpt>
<trkpt lat="46.049939" lon="11.172435">
<time>2020-10-28T18:34:03Z</time>
</trkpt>
<trkpt lat="46.049953" lon="11.172414">
<time>2020-10-28T18:34:04Z</time>
</trkpt>
<trkpt lat="46.049962" lon="11.172401">
<time>2020-10-28T18:34:05Z</time>
</trkpt>
<trkpt lat="46.049969" lon="11.172393">
<time>2020-10-28T18:34:06Z</time>
</trkpt>
<trkpt lat="46.049978" lon="11.17238">
<time>2020-10-28T18:34:07Z</time>
</trkpt>
<trkpt lat="46.049987" lon="11.172365">
<time>2020-10-28T18:34:08Z</time>
</trkpt>
<trkpt lat="46.049998" lon="11.172358">
<time>2020-10-28T18:34:09Z</time>
</trkpt>
<trkpt lat="46.050014" lon="11.172355">
<time>2020-10-28T18:34:10Z</time>
</trkpt>
<trkpt lat="46.050022" lon="11.172353">
<time>2020-10-28T18:34:11Z</time>
</trkpt>
<trkpt lat="46.050037" lon="11.172353">
<time>2020-10-28T18:34:12Z</time>
</trkpt>
<trkpt lat="46.05005" lon="11.172352">
<time>2020-10-28T18:34:13Z</time>
</trkpt>
<trkpt lat="46.050062" lon="11.172357">
<time>2020-10-28T18:34:14Z</time>
</trkpt>
<trkpt lat="46.050078" lon="11.172363">
<time>2020-10-28T18:34:15Z</time>
</trkpt>
<trkpt lat="46.050096" lon="11.172367">
<time>2020-10-28T18:34:16Z</time>
</trkpt>
<trkpt lat="46.050114" lon="11.172363">
<time>2020-10-28T18:34:17Z</time>
</trkpt>
<trkpt lat="46.050138" lon="11.17236">
<time>2020-10-28T18:34:18Z</time>
</trkpt>
<trkpt lat="46.05016" lon="11.172359">
<time>2020-10-28T18:34:19Z</time>
</trkpt>
<trkpt lat="46.050176" lon="11.172359">
<time>2020-10-28T18:34:20Z</time>
</trkpt>
<trkpt lat="46.050191" lon="11.172362">
<time>2020-10-28T18:34:21Z</time>
</trkpt>
<trkpt lat="46.050198" lon="11.172369">
<time>2020-10-28T18:34:22Z</time>
</trkpt>
<trkpt lat="46.050209" lon="11.172378">
<time>2020-10-28T18:34:23Z</time>
</trkpt>
<trkpt lat="46.050219" lon="11.172381">
<time>2020-10-28T18:34:24Z</time>
</trkpt>
<trkpt lat="46.050226" lon="11.17238">
<time>2020-10-28T18:34:25Z</time>
</trkpt>
<trkpt lat="46.050233" lon="11.172379">
<time>2020-10-28T18:34:26Z</time>
</trkpt>
<trkpt lat="46.050241" lon="11.17238">
<time>2020-10-28T18:34:27Z</time>
</trkpt>
<trkpt lat="46.050248" lon="11.172382">
<time>2020-10-28T18:34:28Z</time>
</trkpt>
<trkpt lat="46.050256" lon="11.172383">
<time>2020-10-28T18:34:29Z</time>
</trkpt>
<trkpt lat="46.050262" lon="11.172386">
<time>2020-10-28T18:34:30Z</time>
</trkpt>
<trkpt lat="46.050269" lon="11.172388">
<time>2020-10-28T18:34:31Z</time>
</trkpt>
<trkpt lat="46.050275" lon="11.172392">
<time>2020-10-28T18:34:32Z</time>
</trkpt>
<trkpt lat="46.050283" lon="11.172396">
<time>2020-10-28T18:34:33Z</time>
</trkpt>
<trkpt lat="46.050287" lon="11.172401">
<time>2020-10-28T18:34:34Z</time>
</trkpt>
<trkpt lat="46.050292" lon="11.172408">
<time>2020-10-28T18:34:35Z</time>
</trkpt>
<trkpt lat="46.0503" lon="11.172417">
<time>2020-10-28T18:34:36Z</time>
</trkpt>
<trkpt lat="46.050309" lon="11.172422">
<time>2020-10-28T18:34:37Z</time>
</trkpt>
<trkpt lat="46.050313" lon="11.172428">
<time>2020-10-28T18:34:38Z</time>
</trkpt>
<trkpt lat="46.050318" lon="11.172431">
<time>2020-10-28T18:34:39Z</time>
</trkpt>
<trkpt lat="46.05032" lon="11.172437">
<time>2020-10-28T18:34:40Z</time>
</trkpt>
<trkpt lat="46.050321" lon="11.172444">
<time>2020-10-28T18:34:41Z</time>
</trkpt>
<trkpt lat="46.050323" lon="11.172451">
<time>2020-10-28T18:34:42Z</time>
</trkpt>
<trkpt lat="46.050323" lon="11.172467">
<time>2020-10-28T18:34:43Z</time>
</trkpt>
<trkpt lat="46.050325" lon="11.172479">
<time>2020-10-28T18:34:44Z</time>
</trkpt>
<trkpt lat="46.050336" lon="11.172478">
<time>2020-10-28T18:34:45Z</time>
</trkpt>
<trkpt lat="46.050347" lon="11.17247">
<time>2020-10-28T18:34:46Z</time>
</trkpt>
<trkpt lat="46.050359" lon="11.172465">
<time>2020-10-28T18:34:47Z</time>
</trkpt>
<trkpt lat="46.050367" lon="11.172466">
<time>2020-10-28T18:34:48Z</time>
</trkpt>
<trkpt lat="46.05037" lon="11.172469">
<time>2020-10-28T18:34:49Z</time>
</trkpt>
<trkpt lat="46.050377" lon="11.172475">
<time>2020-10-28T18:34:50Z</time>
</trkpt>
<trkpt lat="46.050385" lon="11.172486">
<time>2020-10-28T18:34:51Z</time>
</trkpt>
<trkpt lat="46.050392" lon="11.172493">
<time>2020-10-28T18:34:52Z</time>
</trkpt>
<trkpt lat="46.050397" lon="11.172498">
<time>2020-10-28T18:34:53Z</time>
</trkpt>
<trkpt lat="46.050399" lon="11.172501">
<time>2020-10-28T18:34:54Z</time>
</trkpt>
<trkpt lat="46.050404" lon="11.172504">
<time>2020-10-28T18:34:55Z</time>
</trkpt>
<trkpt lat="46.050409" lon="11.172514">
<time>2020-10-28T18:34:56Z</time>
</trkpt>
<trkpt lat="46.050415" lon="11.172521">
<time>2020-10-28T18:34:57Z</time>
</trkpt>
<trkpt lat="46.050423" lon="11.172533">
<time>2020-10-28T18:34:58Z</time>
</trkpt>
<trkpt lat="46.050429" lon="11.172549">
<time>2020-10-28T18:34:59Z</time>
</trkpt>
<trkpt lat="46.050425" lon="11.172567">
<time>2020-10-28T18:35:00Z</time>
</trkpt>
<trkpt lat="46.050417" lon="11.172581">
<time>2020-10-28T18:35:01Z</time>
</trkpt>
<trkpt lat="46.050404" lon="11.172601">
<time>2020-10-28T18:35:02Z</time>
</trkpt>
<trkpt lat="46.05039" lon="11.172611">
<time>2020-10-28T18:35:03Z</time>
</trkpt>
<trkpt lat="46.050384" lon="11.172615">
<time>2020-10-28T18:35:04Z</time>
</trkpt>
<trkpt lat="46.050392" lon="11.172622">
<time>2020-10-28T18:35:05Z</time>
</trkpt>
<trkpt lat="46.050413" lon="11.172632">
<time>2020-10-28T18:35:06Z</time>
</trkpt>
<trkpt lat="46.050437" lon="11.172637">
<time>2020-10-28T18:35:07Z</time>
</trkpt>
<trkpt lat="46.050461" lon="11.17263">
<time>2020-10-28T18:35:08Z</time>
</trkpt>
<trkpt lat="46.050485" lon="11.172617">
<time>2020-10-28T18:35:09Z</time>
</trkpt>
<trkpt lat="46.050508" lon="11.172609">
<time>2020-10-28T18:35:10Z</time>
</trkpt>
<trkpt lat="46.050528" lon="11.172605">
<time>2020-10-28T18:35:11Z</time>
</trkpt>
<trkpt lat="46.05054" lon="11.172603">
<time>2020-10-28T18:35:12Z</time>
</trkpt>
<trkpt lat="46.050544" lon="11.172599">
<time>2020-10-28T18:35:13Z</time>
</trkpt>
<trkpt lat="46.050547" lon="11.172593">
<time>2020-10-28T18:35:14Z</time>
</trkpt>
<trkpt lat="46.05055" lon="11.172591">
<time>2020-10-28T18:35:15Z</time>
</trkpt>
<trkpt lat="46.050545" lon="11.172583">
<time>2020-10-28T18:35:16Z</time>
</trkpt>
<trkpt lat="46.050549" lon="11.172576">
<time>2020-10-28T18:35:17Z</time>
</trkpt>
<trkpt lat="46.050556" lon="11.172573">
<time>2020-10-28T18:35:18Z</time>
</trkpt>
<trkpt lat="46.050562" lon="11.172576">
<time>2020-10-28T18:35:19Z</time>
</trkpt>
<trkpt lat="46.050569" lon="11.172584">
<time>2020-10-28T18:35:20Z</time>
</trkpt>
<trkpt lat="46.050575" lon="11.172595">
<time>2020-10-28T18:35:21Z</time>
</trkpt>
<trkpt lat="46.050583" lon="11.172605">
<time>2020-10-28T18:35:22Z</time>
</trkpt>
<trkpt lat="46.050588" lon="11.172617">
<time>2020-10-28T18:35:23Z</time>
</trkpt>
<trkpt lat="46.050596" lon="11.172629">
<time>2020-10-28T18:35:24Z</time>
</trkpt>
<trkpt lat="46.050602" lon="11.172641">
<time>2020-10-28T18:35:25Z</time>
</trkpt>
<trkpt lat="46.050612" lon="11.172652">
<time>2020-10-28T18:35:26Z</time>
</trkpt>
<trkpt lat="46.050621" lon="11.172657">
<time>2020-10-28T18:35:27Z</time>
</trkpt>
<trkpt lat="46.050635" lon="11.172661">
<time>2020-10-28T18:35:28Z</time>
</trkpt>
<trkpt lat="46.050647" lon="11.172663">
<time>2020-10-28T18:35:29Z</time>
</trkpt>
<trkpt lat="46.050658" lon="11.172669">
<time>2020-10-28T18:35:30Z</time>
</trkpt>
<trkpt lat="46.050669" lon="11.172682">
<time>2020-10-28T18:35:31Z</time>
</trkpt>
<trkpt lat="46.050681" lon="11.172695">
<time>2020-10-28T18:35:32Z</time>
</trkpt>
<trkpt lat="46.050687" lon="11.172703">
<time>2020-10-28T18:35:33Z</time>
</trkpt>
<trkpt lat="46.050697" lon="11.17271">
<time>2020-10-28T18:35:34Z</time>
</trkpt>
<trkpt lat="46.0507" lon="11.172721">
<time>2020-10-28T18:35:35Z</time>
</trkpt>
<trkpt lat="46.050703" lon="11.172736">
<time>2020-10-28T18:35:36Z</time>
</trkpt>
<trkpt lat="46.050699" lon="11.172746">
<time>2020-10-28T18:35:37Z</time>
</trkpt>
<trkpt lat="46.050704" lon="11.172756">
<time>2020-10-28T18:35:38Z</time>
</trkpt>
<trkpt lat="46.050706" lon="11.172761">
<time>2020-10-28T18:35:39Z</time>
</trkpt>
<trkpt lat="46.050707" lon="11.17276">
<time>2020-10-28T18:35:40Z</time>
</trkpt>
<trkpt lat="46.050706" lon="11.172753">
<time>2020-10-28T18:35:41Z</time>
</trkpt>
<trkpt lat="46.050715" lon="11.172755">
<time>2020-10-28T18:35:42Z</time>
</trkpt>
<trkpt lat="46.050731" lon="11.172767">
<time>2020-10-28T18:35:43Z</time>
</trkpt>
<trkpt lat="46.05074" lon="11.172779">
<time>2020-10-28T18:35:44Z</time>
</trkpt>
<trkpt lat="46.050748" lon="11.17279">
<time>2020-10-28T18:35:45Z</time>
</trkpt>
<trkpt lat="46.050755" lon="11.172799">
<time>2020-10-28T18:35:46Z</time>
</trkpt>
<trkpt lat="46.050764" lon="11.172807">
<time>2020-10-28T18:35:47Z</time>
</trkpt>
<trkpt lat="46.050778" lon="11.172821">
<time>2020-10-28T18:35:48Z</time>
</trkpt>
<trkpt lat="46.050796" lon="11.172834">
<time>2020-10-28T18:35:49Z</time>
</trkpt>
<trkpt lat="46.05081" lon="11.172837">
<time>2020-10-28T18:35:50Z</time>
</trkpt>
<trkpt lat="46.050817" lon="11.172833">
<time>2020-10-28T18:35:51Z</time>
</trkpt>
<trkpt lat="46.050824" lon="11.172831">
<time>2020-10-28T18:35:52Z</time>
</trkpt>
<trkpt lat="46.050828" lon="11.172819">
<time>2020-10-28T18:35:53Z</time>
</trkpt>
<trkpt lat="46.050833" lon="11.172803">
<time>2020-10-28T18:35:54Z</time>
</trkpt>
<trkpt lat="46.050841" lon="11.172794">
<time>2020-10-28T18:35:55Z</time>
</trkpt>
<trkpt lat="46.050847" lon="11.172785">
<time>2020-10-28T18:35:56Z</time>
</trkpt>
<trkpt lat="46.050849" lon="11.172779">
<time>2020-10-28T18:35:57Z</time>
</trkpt>
<trkpt lat="46.050851" lon="11.17278">
<time>2020-10-28T18:35:58Z</time>
</trkpt>
<trkpt lat="46.050862" lon="11.172788">
<time>2020-10-28T18:35:59Z</time>
</trkpt>
<trkpt lat="46.050872" lon="11.172794">
<time>2020-10-28T18:36:00Z</time>
</trkpt>
<trkpt lat="46.050875" lon="11.172798">
<time>2020-10-28T18:36:01Z</time>
</trkpt>
<trkpt lat="46.050881" lon="11.172812">
<time>2020-10-28T18:36:02Z</time>
</trkpt>
<trkpt lat="46.050878" lon="11.17283">
<time>2020-10-28T18:36:03Z</time>
</trkpt>
<trkpt lat="46.050873" lon="11.172839">
<time>2020-10-28T18:36:04Z</time>
</trkpt>
<trkpt lat="46.050879" lon="11.172839">
<time>2020-10-28T18:36:05Z</time>
</trkpt>
<trkpt lat="46.050879" lon="11.172835">
<time>2020-10-28T18:36:06Z</time>
</trkpt>
<trkpt lat="46.050883" lon="11.172833">
<time>2020-10-28T18:36:07Z</time>
</trkpt>
<trkpt lat="46.050885" lon="11.17283">
<time>2020-10-28T18:36:08Z</time>
</trkpt>
<trkpt lat="46.050889" lon="11.172832">
<time>2020-10-28T18:36:09Z</time>
</trkpt>
<trkpt lat="46.050888" lon="11.172825">
<time>2020-10-28T18:36:10Z</time>
</trkpt>
<trkpt lat="46.050891" lon="11.172831">
<time>2020-10-28T18:36:11Z</time>
</trkpt>
<trkpt lat="46.050902" lon="11.172832">
<time>2020-10-28T18:36:12Z</time>
</trkpt>
<trkpt lat="46.050912" lon="11.172829">
<time>2020-10-28T18:36:13Z</time>
</trkpt>
<trkpt lat="46.050922" lon="11.172827">
<time>2020-10-28T18:36:14Z</time>
</trkpt>
<trkpt lat="46.050927" lon="11.172819">
<time>2020-10-28T18:36:15Z</time>
</trkpt>
<trkpt lat="46.050938" lon="11.172817">
<time>2020-10-28T18:36:16Z</time>
</trkpt>
<trkpt lat="46.050956" lon="11.172815">
<time>2020-10-28T18:36:17Z</time>
</trkpt>
<trkpt lat="46.050978" lon="11.172808">
<time>2020-10-28T18:36:18Z</time>
</trkpt>
<trkpt lat="46.051002" lon="11.172803">
<time>2020-10-28T18:36:19Z</time>
</trkpt>
<trkpt lat="46.051029" lon="11.172796">
<time>2020-10-28T18:36:20Z</time>
</trkpt>
<trkpt lat="46.051044" lon="11.172779">
<time>2020-10-28T18:36:21Z</time>
</trkpt>
<trkpt lat="46.051062" lon="11.172758">
<time>2020-10-28T18:36:22Z</time>
</trkpt>
<trkpt lat="46.051078" lon="11.172739">
<time>2020-10-28T18:36:23Z</time>
</trkpt>
<trkpt lat="46.051094" lon="11.172721">
<time>2020-10-28T18:36:24Z</time>
</trkpt>
<trkpt lat="46.051109" lon="11.172705">
<time>2020-10-28T18:36:25Z</time>
</trkpt>
<trkpt lat="46.051127" lon="11.172696">
<time>2020-10-28T18:36:26Z</time>
</trkpt>
<trkpt lat="46.051159" lon="11.172686">
<time>2020-10-28T18:36:27Z</time>
</trkpt>
<trkpt lat="46.051187" lon="11.172677">
<time>2020-10-28T18:36:28Z</time>
</trkpt>
<trkpt lat="46.05121" lon="11.172669">
<time>2020-10-28T18:36:29Z</time>
</trkpt>
<trkpt lat="46.051229" lon="11.172661">
<time>2020-10-28T18:36:30Z</time>
</trkpt>
<trkpt lat="46.051246" lon="11.172654">
<time>2020-10-28T18:36:31Z</time>
</trkpt>
<trkpt lat="46.051263" lon="11.172645">
<time>2020-10-28T18:36:32Z</time>
</trkpt>
<trkpt lat="46.051278" lon="11.172636">
<time>2020-10-28T18:36:33Z</time>
</trkpt>
<trkpt lat="46.051297" lon="11.17263">
<time>2020-10-28T18:36:34Z</time>
</trkpt>
<trkpt lat="46.051312" lon="11.172616">
<time>2020-10-28T18:36:35Z</time>
</trkpt>
<trkpt lat="46.051327" lon="11.172589">
<time>2020-10-28T18:36:36Z</time>
</trkpt>
<trkpt lat="46.051327" lon="11.172568">
<time>2020-10-28T18:36:37Z</time>
</trkpt>
<trkpt lat="46.051323" lon="11.172552">
<time>2020-10-28T18:36:38Z</time>
</trkpt>
<trkpt lat="46.051321" lon="11.172541">
<time>2020-10-28T18:36:39Z</time>
</trkpt>
<trkpt lat="46.05132" lon="11.172532">
<time>2020-10-28T18:36:40Z</time>
</trkpt>
<trkpt lat="46.051323" lon="11.172521">
<time>2020-10-28T18:36:41Z</time>
</trkpt>
<trkpt lat="46.051331" lon="11.172507">
<time>2020-10-28T18:36:42Z</time>
</trkpt>
<trkpt lat="46.051342" lon="11.172498">
<time>2020-10-28T18:36:43Z</time>
</trkpt>
<trkpt lat="46.051348" lon="11.172485">
<time>2020-10-28T18:36:44Z</time>
</trkpt>
<trkpt lat="46.051353" lon="11.172467">
<time>2020-10-28T18:36:45Z</time>
</trkpt>
<trkpt lat="46.051357" lon="11.172445">
<time>2020-10-28T18:36:46Z</time>
</trkpt>
<trkpt lat="46.051359" lon="11.172423">
<time>2020-10-28T18:36:47Z</time>
</trkpt>
<trkpt lat="46.051359" lon="11.172401">
<time>2020-10-28T18:36:48Z</time>
</trkpt>
<trkpt lat="46.051358" lon="11.172386">
<time>2020-10-28T18:36:49Z</time>
</trkpt>
<trkpt lat="46.051361" lon="11.172376">
<time>2020-10-28T18:36:50Z</time>
</trkpt>
<trkpt lat="46.051365" lon="11.17236">
<time>2020-10-28T18:36:51Z</time>
</trkpt>
<trkpt lat="46.051375" lon="11.172339">
<time>2020-10-28T18:36:52Z</time>
</trkpt>
<trkpt lat="46.051393" lon="11.172325">
<time>2020-10-28T18:36:53Z</time>
</trkpt>
<trkpt lat="46.051408" lon="11.172312">
<time>2020-10-28T18:36:54Z</time>
</trkpt>
<trkpt lat="46.051412" lon="11.172299">
<time>2020-10-28T18:36:55Z</time>
</trkpt>
<trkpt lat="46.051413" lon="11.172285">
<time>2020-10-28T18:36:56Z</time>
</trkpt>
<trkpt lat="46.051411" lon="11.172272">
<time>2020-10-28T18:36:57Z</time>
</trkpt>
<trkpt lat="46.051427" lon="11.172233">
<time>2020-10-28T18:36:58Z</time>
</trkpt>
<trkpt lat="46.051438" lon="11.172206">
<time>2020-10-28T18:36:59Z</time>
</trkpt>
<trkpt lat="46.051446" lon="11.172188">
<time>2020-10-28T18:37:00Z</time>
</trkpt>
<trkpt lat="46.051456" lon="11.172174">
<time>2020-10-28T18:37:01Z</time>
</trkpt>
<trkpt lat="46.051463" lon="11.172158">
<time>2020-10-28T18:37:02Z</time>
</trkpt>
<trkpt lat="46.051473" lon="11.172137">
<time>2020-10-28T18:37:03Z</time>
</trkpt>
<trkpt lat="46.051485" lon="11.172119">
<time>2020-10-28T18:37:04Z</time>
</trkpt>
<trkpt lat="46.051489" lon="11.172108">
<time>2020-10-28T18:37:05Z</time>
</trkpt>
<trkpt lat="46.051492" lon="11.172091">
<time>2020-10-28T18:37:06Z</time>
</trkpt>
<trkpt lat="46.051491" lon="11.172068">
<time>2020-10-28T18:37:07Z</time>
</trkpt>
<trkpt lat="46.051489" lon="11.172047">
<time>2020-10-28T18:37:08Z</time>
</trkpt>
<trkpt lat="46.051484" lon="11.172038">
<time>2020-10-28T18:37:09Z</time>
</trkpt>
<trkpt lat="46.051479" lon="11.172028">
<time>2020-10-28T18:37:10Z</time>
</trkpt>
<trkpt lat="46.05147" lon="11.172013">
<time>2020-10-28T18:37:11Z</time>
</trkpt>
<trkpt lat="46.051467" lon="11.171985">
<time>2020-10-28T18:37:12Z</time>
</trkpt>
<trkpt lat="46.05147" lon="11.171957">
<time>2020-10-28T18:37:13Z</time>
</trkpt>
<trkpt lat="46.051469" lon="11.171933">
<time>2020-10-28T18:37:14Z</time>
</trkpt>
<trkpt lat="46.051465" lon="11.171919">
<time>2020-10-28T18:37:15Z</time>
</trkpt>
<trkpt lat="46.051458" lon="11.171909">
<time>2020-10-28T18:37:16Z</time>
</trkpt>
<trkpt lat="46.051451" lon="11.17189">
<time>2020-10-28T18:37:17Z</time>
</trkpt>
<trkpt lat="46.051447" lon="11.171873">
<time>2020-10-28T18:37:18Z</time>
</trkpt>
<trkpt lat="46.051448" lon="11.17185">
<time>2020-10-28T18:37:19Z</time>
</trkpt>
<trkpt lat="46.051453" lon="11.171829">
<time>2020-10-28T18:37:20Z</time>
</trkpt>
<trkpt lat="46.05145" lon="11.171818">
<time>2020-10-28T18:37:21Z</time>
</trkpt>
<trkpt lat="46.051438" lon="11.171807">
<time>2020-10-28T18:37:22Z</time>
</trkpt>
<trkpt lat="46.051428" lon="11.171789">
<time>2020-10-28T18:37:23Z</time>
</trkpt>
<trkpt lat="46.051422" lon="11.171777">
<time>2020-10-28T18:37:24Z</time>
</trkpt>
<trkpt lat="46.051421" lon="11.171769">
<time>2020-10-28T18:37:25Z</time>
</trkpt>
<trkpt lat="46.051417" lon="11.171765">
<time>2020-10-28T18:37:26Z</time>
</trkpt>
<trkpt lat="46.051411" lon="11.171761">
<time>2020-10-28T18:37:27Z</time>
</trkpt>
<trkpt lat="46.051403" lon="11.17176">
<time>2020-10-28T18:37:28Z</time>
</trkpt>
<trkpt lat="46.05139" lon="11.171752">
<time>2020-10-28T18:37:29Z</time>
</trkpt>
<trkpt lat="46.051373" lon="11.171745">
<time>2020-10-28T18:37:30Z</time>
</trkpt>
<trkpt lat="46.051357" lon="11.171738">
<time>2020-10-28T18:37:31Z</time>
</trkpt>
<trkpt lat="46.051347" lon="11.171734">
<time>2020-10-28T18:37:32Z</time>
</trkpt>
<trkpt lat="46.051346" lon="11.17173">
<time>2020-10-28T18:37:33Z</time>
</trkpt>
<trkpt lat="46.051351" lon="11.171731">
<time>2020-10-28T18:37:34Z</time>
</trkpt>
<trkpt lat="46.051357" lon="11.171738">
<time>2020-10-28T18:37:35Z</time>
</trkpt>
<trkpt lat="46.051356" lon="11.171749">
<time>2020-10-28T18:37:36Z</time>
</trkpt>
<trkpt lat="46.051348" lon="11.171752">
<time>2020-10-28T18:37:37Z</time>
</trkpt>
<trkpt lat="46.051334" lon="11.171752">
<time>2020-10-28T18:37:38Z</time>
</trkpt>
<trkpt lat="46.051315" lon="11.171756">
<time>2020-10-28T18:37:39Z</time>
</trkpt>
<trkpt lat="46.051295" lon="11.171761">
<time>2020-10-28T18:37:40Z</time>
</trkpt>
<trkpt lat="46.051278" lon="11.171772">
<time>2020-10-28T18:37:41Z</time>
</trkpt>
<trkpt lat="46.051265" lon="11.171782">
<time>2020-10-28T18:37:42Z</time>
</trkpt>
<trkpt lat="46.051256" lon="11.171794">
<time>2020-10-28T18:37:43Z</time>
</trkpt>
<trkpt lat="46.051245" lon="11.171805">
<time>2020-10-28T18:37:44Z</time>
</trkpt>
<trkpt lat="46.051236" lon="11.171815">
<time>2020-10-28T18:37:45Z</time>
</trkpt>
<trkpt lat="46.051224" lon="11.171824">
<time>2020-10-28T18:37:46Z</time>
</trkpt>
<trkpt lat="46.051211" lon="11.171828">
<time>2020-10-28T18:37:47Z</time>
</trkpt>
<trkpt lat="46.051195" lon="11.171827">
<time>2020-10-28T18:37:48Z</time>
</trkpt>
<trkpt lat="46.051179" lon="11.17183">
<time>2020-10-28T18:37:49Z</time>
</trkpt>
<trkpt lat="46.051165" lon="11.171834">
<time>2020-10-28T18:37:50Z</time>
</trkpt>
<trkpt lat="46.051148" lon="11.171843">
<time>2020-10-28T18:37:51Z</time>
</trkpt>
<trkpt lat="46.051123" lon="11.171855">
<time>2020-10-28T18:37:52Z</time>
</trkpt>
<trkpt lat="46.0511" lon="11.171866">
<time>2020-10-28T18:37:53Z</time>
</trkpt>
<trkpt lat="46.051084" lon="11.171875">
<time>2020-10-28T18:37:54Z</time>
</trkpt>
<trkpt lat="46.051075" lon="11.171879">
<time>2020-10-28T18:37:55Z</time>
</trkpt>
<trkpt lat="46.051069" lon="11.171881">
<time>2020-10-28T18:37:56Z</time>
</trkpt>
<trkpt lat="46.051067" lon="11.171882">
<time>2020-10-28T18:37:57Z</time>
</trkpt>
<trkpt lat="46.051065" lon="11.171878">
<time>2020-10-28T18:37:58Z</time>
</trkpt>
<trkpt lat="46.051064" lon="11.171873">
<time>2020-10-28T18:37:59Z</time>
</trkpt>
<trkpt lat="46.051059" lon="11.171857">
<time>2020-10-28T18:38:00Z</time>
</trkpt>
<trkpt lat="46.051055" lon="11.171842">
<time>2020-10-28T18:38:01Z</time>
</trkpt>
<trkpt lat="46.051054" lon="11.171835">
<time>2020-10-28T18:38:02Z</time>
</trkpt>
<trkpt lat="46.051049" lon="11.171824">
<time>2020-10-28T18:38:03Z</time>
</trkpt>
<trkpt lat="46.051043" lon="11.171814">
<time>2020-10-28T18:38:04Z</time>
</trkpt>
<trkpt lat="46.051039" lon="11.171808">
<time>2020-10-28T18:38:05Z</time>
</trkpt>
<trkpt lat="46.051033" lon="11.171804">
<time>2020-10-28T18:38:06Z</time>
</trkpt>
<trkpt lat="46.051014" lon="11.171813">
<time>2020-10-28T18:38:07Z</time>
</trkpt>
<trkpt lat="46.050996" lon="11.171817">
<time>2020-10-28T18:38:08Z</time>
</trkpt>
<trkpt lat="46.050986" lon="11.171813">
<time>2020-10-28T18:38:09Z</time>
</trkpt>
<trkpt lat="46.050974" lon="11.171813">
<time>2020-10-28T18:38:10Z</time>
</trkpt>
<trkpt lat="46.050962" lon="11.171816">
<time>2020-10-28T18:38:11Z</time>
</trkpt>
<trkpt lat="46.050953" lon="11.171824">
<time>2020-10-28T18:38:12Z</time>
</trkpt>
<trkpt lat="46.050951" lon="11.171824">
<time>2020-10-28T18:38:13Z</time>
</trkpt>
<trkpt lat="46.050948" lon="11.171829">
<time>2020-10-28T18:38:14Z</time>
</trkpt>
<trkpt lat="46.050942" lon="11.171833">
<time>2020-10-28T18:38:15Z</time>
</trkpt>
<trkpt lat="46.050927" lon="11.171837">
<time>2020-10-28T18:38:16Z</time>
</trkpt>
<trkpt lat="46.050914" lon="11.171845">
<time>2020-10-28T18:38:17Z</time>
</trkpt>
<trkpt lat="46.050899" lon="11.171854">
<time>2020-10-28T18:38:18Z</time>
</trkpt>
<trkpt lat="46.050883" lon="11.171862">
<time>2020-10-28T18:38:19Z</time>
</trkpt>
<trkpt lat="46.050873" lon="11.171873">
<time>2020-10-28T18:38:20Z</time>
</trkpt>
<trkpt lat="46.050864" lon="11.171879">
<time>2020-10-28T18:38:21Z</time>
</trkpt>
<trkpt lat="46.050858" lon="11.171879">
<time>2020-10-28T18:38:22Z</time>
</trkpt>
<trkpt lat="46.05085" lon="11.171881">
<time>2020-10-28T18:38:23Z</time>
</trkpt>
<trkpt lat="46.050841" lon="11.17188">
<time>2020-10-28T18:38:24Z</time>
</trkpt>
<trkpt lat="46.050837" lon="11.171874">
<time>2020-10-28T18:38:25Z</time>
</trkpt>
<trkpt lat="46.050835" lon="11.171868">
<time>2020-10-28T18:38:26Z</time>
</trkpt>
<trkpt lat="46.050835" lon="11.17186">
<time>2020-10-28T18:38:27Z</time>
</trkpt>
<trkpt lat="46.050834" lon="11.171854">
<time>2020-10-28T18:38:28Z</time>
</trkpt>
<trkpt lat="46.050834" lon="11.171848">
<time>2020-10-28T18:38:29Z</time>
</trkpt>
<trkpt lat="46.050831" lon="11.171842">
<time>2020-10-28T18:38:30Z</time>
</trkpt>
<trkpt lat="46.050828" lon="11.171834">
<time>2020-10-28T18:38:31Z</time>
</trkpt>
<trkpt lat="46.050825" lon="11.171821">
<time>2020-10-28T18:38:32Z</time>
</trkpt>
<trkpt lat="46.050819" lon="11.171808">
<time>2020-10-28T18:38:33Z</time>
</trkpt>
<trkpt lat="46.050814" lon="11.171794">
<time>2020-10-28T18:38:34Z</time>
</trkpt>
<trkpt lat="46.050805" lon="11.171777">
<time>2020-10-28T18:38:35Z</time>
</trkpt>
<trkpt lat="46.050799" lon="11.171761">
<time>2020-10-28T18:38:36Z</time>
</trkpt>
<trkpt lat="46.0508" lon="11.171753">
<time>2020-10-28T18:38:37Z</time>
</trkpt>
<trkpt lat="46.050798" lon="11.171742">
<time>2020-10-28T18:38:38Z</time>
</trkpt>
<trkpt lat="46.050789" lon="11.171732">
<time>2020-10-28T18:38:39Z</time>
</trkpt>
<trkpt lat="46.050779" lon="11.171725">
<time>2020-10-28T18:38:40Z</time>
</trkpt>
<trkpt lat="46.050766" lon="11.171724">
<time>2020-10-28T18:38:41Z</time>
</trkpt>
<trkpt lat="46.050754" lon="11.171726">
<time>2020-10-28T18:38:42Z</time>
</trkpt>
<trkpt lat="46.05074" lon="11.171726">
<time>2020-10-28T18:38:43Z</time>
</trkpt>
<trkpt lat="46.050728" lon="11.171729">
<time>2020-10-28T18:38:44Z</time>
</trkpt>
<trkpt lat="46.050715" lon="11.171726">
<time>2020-10-28T18:38:45Z</time>
</trkpt>
<trkpt lat="46.050696" lon="11.17172">
<time>2020-10-28T18:38:46Z</time>
</trkpt>
<trkpt lat="46.050677" lon="11.171715">
<time>2020-10-28T18:38:47Z</time>
</trkpt>
<trkpt lat="46.050655" lon="11.171713">
<time>2020-10-28T18:38:48Z</time>
</trkpt>
<trkpt lat="46.050634" lon="11.171705">
<time>2020-10-28T18:38:49Z</time>
</trkpt>
<trkpt lat="46.050615" lon="11.171694">
<time>2020-10-28T18:38:50Z</time>
</trkpt>
<trkpt lat="46.050603" lon="11.171685">
<time>2020-10-28T18:38:51Z</time>
</trkpt>
<trkpt lat="46.050585" lon="11.171676">
<time>2020-10-28T18:38:52Z</time>
</trkpt>
<trkpt lat="46.050561" lon="11.171663">
<time>2020-10-28T18:38:53Z</time>
</trkpt>
<trkpt lat="46.05053" lon="11.171643">
<time>2020-10-28T18:38:54Z</time>
</trkpt>
<trkpt lat="46.050511" lon="11.171628">
<time>2020-10-28T18:38:55Z</time>
</trkpt>
<trkpt lat="46.05049" lon="11.171606">
<time>2020-10-28T18:38:56Z</time>
</trkpt>
<trkpt lat="46.05047" lon="11.171585">
<time>2020-10-28T18:38:57Z</time>
</trkpt>
<trkpt lat="46.050455" lon="11.171567">
<time>2020-10-28T18:38:58Z</time>
</trkpt>
<trkpt lat="46.050442" lon="11.171554">
<time>2020-10-28T18:38:59Z</time>
</trkpt>
<trkpt lat="46.050434" lon="11.171547">
<time>2020-10-28T18:39:00Z</time>
</trkpt>
<trkpt lat="46.050423" lon="11.171543">
<time>2020-10-28T18:39:01Z</time>
</trkpt>
<trkpt lat="46.050413" lon="11.171537">
<time>2020-10-28T18:39:02Z</time>
</trkpt>
<trkpt lat="46.050402" lon="11.171534">
<time>2020-10-28T18:39:03Z</time>
</trkpt>
<trkpt lat="46.050389" lon="11.171535">
<time>2020-10-28T18:39:04Z</time>
</trkpt>
<trkpt lat="46.050371" lon="11.17154">
<time>2020-10-28T18:39:05Z</time>
</trkpt>
<trkpt lat="46.05035" lon="11.171545">
<time>2020-10-28T18:39:06Z</time>
</trkpt>
<trkpt lat="46.05033" lon="11.171547">
<time>2020-10-28T18:39:07Z</time>
</trkpt>
<trkpt lat="46.050311" lon="11.171554">
<time>2020-10-28T18:39:08Z</time>
</trkpt>
<trkpt lat="46.050291" lon="11.171556">
<time>2020-10-28T18:39:09Z</time>
</trkpt>
<trkpt lat="46.050274" lon="11.171557">
<time>2020-10-28T18:39:10Z</time>
</trkpt>
<trkpt lat="46.050253" lon="11.171543">
<time>2020-10-28T18:39:11Z</time>
</trkpt>
<trkpt lat="46.050231" lon="11.171526">
<time>2020-10-28T18:39:12Z</time>
</trkpt>
<trkpt lat="46.050212" lon="11.171506">
<time>2020-10-28T18:39:13Z</time>
</trkpt>
<trkpt lat="46.050199" lon="11.171493">
<time>2020-10-28T18:39:14Z</time>
</trkpt>
<trkpt lat="46.050186" lon="11.171481">
<time>2020-10-28T18:39:15Z</time>
</trkpt>
<trkpt lat="46.050168" lon="11.17147">
<time>2020-10-28T18:39:16Z</time>
</trkpt>
<trkpt lat="46.050151" lon="11.17146">
<time>2020-10-28T18:39:17Z</time>
</trkpt>
<trkpt lat="46.050134" lon="11.171453">
<time>2020-10-28T18:39:18Z</time>
</trkpt>
<trkpt lat="46.05012" lon="11.171444">
<time>2020-10-28T18:39:19Z</time>
</trkpt>
<trkpt lat="46.050098" lon="11.171433">
<time>2020-10-28T18:39:20Z</time>
</trkpt>
<trkpt lat="46.050077" lon="11.171417">
<time>2020-10-28T18:39:21Z</time>
</trkpt>
<trkpt lat="46.050064" lon="11.171401">
<time>2020-10-28T18:39:22Z</time>
</trkpt>
<trkpt lat="46.050057" lon="11.17139">
<time>2020-10-28T18:39:23Z</time>
</trkpt>
<trkpt lat="46.05005" lon="11.171378">
<time>2020-10-28T18:39:24Z</time>
</trkpt>
<trkpt lat="46.050045" lon="11.171364">
<time>2020-10-28T18:39:25Z</time>
</trkpt>
<trkpt lat="46.050035" lon="11.171342">
<time>2020-10-28T18:39:26Z</time>
</trkpt>
<trkpt lat="46.050013" lon="11.171318">
<time>2020-10-28T18:39:27Z</time>
</trkpt>
<trkpt lat="46.049994" lon="11.171306">
<time>2020-10-28T18:39:28Z</time>
</trkpt>
<trkpt lat="46.049981" lon="11.171296">
<time>2020-10-28T18:39:29Z</time>
</trkpt>
<trkpt lat="46.049967" lon="11.171292">
<time>2020-10-28T18:39:30Z</time>
</trkpt>
<trkpt lat="46.049958" lon="11.171284">
<time>2020-10-28T18:39:31Z</time>
</trkpt>
<trkpt lat="46.049945" lon="11.171277">
<time>2020-10-28T18:39:32Z</time>
</trkpt>
<trkpt lat="46.049936" lon="11.171269">
<time>2020-10-28T18:39:33Z</time>
</trkpt>
<trkpt lat="46.049923" lon="11.171257">
<time>2020-10-28T18:39:34Z</time>
</trkpt>
<trkpt lat="46.049907" lon="11.171244">
<time>2020-10-28T18:39:35Z</time>
</trkpt>
<trkpt lat="46.049887" lon="11.171239">
<time>2020-10-28T18:39:36Z</time>
</trkpt>
<trkpt lat="46.049873" lon="11.171243">
<time>2020-10-28T18:39:37Z</time>
</trkpt>
<trkpt lat="46.049857" lon="11.171248">
<time>2020-10-28T18:39:38Z</time>
</trkpt>
<trkpt lat="46.049838" lon="11.171242">
<time>2020-10-28T18:39:39Z</time>
</trkpt>
<trkpt lat="46.04982" lon="11.171242">
<time>2020-10-28T18:39:40Z</time>
</trkpt>
<trkpt lat="46.049803" lon="11.171243">
<time>2020-10-28T18:39:41Z</time>
</trkpt>
<trkpt lat="46.049788" lon="11.171244">
<time>2020-10-28T18:39:42Z</time>
</trkpt>
<trkpt lat="46.049776" lon="11.171247">
<time>2020-10-28T18:39:43Z</time>
</trkpt>
<trkpt lat="46.04976" lon="11.171248">
<time>2020-10-28T18:39:44Z</time>
</trkpt>
<trkpt lat="46.049753" lon="11.17125">
<time>2020-10-28T18:39:45Z</time>
</trkpt>
<trkpt lat="46.049744" lon="11.171247">
<time>2020-10-28T18:39:46Z</time>
</trkpt>
<trkpt lat="46.049733" lon="11.171242">
<time>2020-10-28T18:39:47Z</time>
</trkpt>
<trkpt lat="46.049721" lon="11.171239">
<time>2020-10-28T18:39:48Z</time>
</trkpt>
<trkpt lat="46.049714" lon="11.171233">
<time>2020-10-28T18:39:49Z</time>
</trkpt>
<trkpt lat="46.049711" lon="11.171225">
<time>2020-10-28T18:39:50Z</time>
</trkpt>
<trkpt lat="46.049704" lon="11.171217">
<time>2020-10-28T18:39:51Z</time>
</trkpt>
<trkpt lat="46.049709" lon="11.171221">
<time>2020-10-28T18:39:52Z</time>
</trkpt>
<trkpt lat="46.049714" lon="11.171225">
<time>2020-10-28T18:39:53Z</time>
</trkpt>
<trkpt lat="46.04972" lon="11.171229">
<time>2020-10-28T18:39:54Z</time>
</trkpt>
<trkpt lat="46.049724" lon="11.171235">
<time>2020-10-28T18:39:55Z</time>
</trkpt>
<trkpt lat="46.049723" lon="11.171239">
<time>2020-10-28T18:39:56Z</time>
</trkpt>
<trkpt lat="46.049719" lon="11.171246">
<time>2020-10-28T18:39:57Z</time>
</trkpt>
<trkpt lat="46.049714" lon="11.17125">
<time>2020-10-28T18:39:58Z</time>
</trkpt>
<trkpt lat="46.049703" lon="11.171254">
<time>2020-10-28T18:39:59Z</time>
</trkpt>
<trkpt lat="46.049695" lon="11.171256">
<time>2020-10-28T18:40:00Z</time>
</trkpt>
<trkpt lat="46.049682" lon="11.171247">
<time>2020-10-28T18:40:01Z</time>
</trkpt>
<trkpt lat="46.049662" lon="11.17123">
<time>2020-10-28T18:40:02Z</time>
</trkpt>
<trkpt lat="46.049651" lon="11.171218">
<time>2020-10-28T18:40:03Z</time>
</trkpt>
<trkpt lat="46.049644" lon="11.171206">
<time>2020-10-28T18:40:04Z</time>
</trkpt>
<trkpt lat="46.049639" lon="11.171187">
<time>2020-10-28T18:40:05Z</time>
</trkpt>
<trkpt lat="46.049641" lon="11.171165">
<time>2020-10-28T18:40:06Z</time>
</trkpt>
<trkpt lat="46.049635" lon="11.171146">
<time>2020-10-28T18:40:07Z</time>
</trkpt>
<trkpt lat="46.04963" lon="11.17113">
<time>2020-10-28T18:40:08Z</time>
</trkpt>
<trkpt lat="46.049628" lon="11.171126">
<time>2020-10-28T18:40:09Z</time>
</trkpt>
<trkpt lat="46.049618" lon="11.171117">
<time>2020-10-28T18:40:10Z</time>
</trkpt>
<trkpt lat="46.049615" lon="11.171107">
<time>2020-10-28T18:40:11Z</time>
</trkpt>
<trkpt lat="46.049617" lon="11.171098">
<time>2020-10-28T18:40:12Z</time>
</trkpt>
<trkpt lat="46.04962" lon="11.171089">
<time>2020-10-28T18:40:13Z</time>
</trkpt>
<trkpt lat="46.049635" lon="11.171087">
<time>2020-10-28T18:40:14Z</time>
</trkpt>
<trkpt lat="46.049651" lon="11.17109">
<time>2020-10-28T18:40:15Z</time>
</trkpt>
<trkpt lat="46.049662" lon="11.171091">
<time>2020-10-28T18:40:16Z</time>
</trkpt>
<trkpt lat="46.049677" lon="11.171089">
<time>2020-10-28T18:40:17Z</time>
</trkpt>
<trkpt lat="46.04969" lon="11.171086">
<time>2020-10-28T18:40:18Z</time>
</trkpt>
<trkpt lat="46.049698" lon="11.171081">
<time>2020-10-28T18:40:19Z</time>
</trkpt>
<trkpt lat="46.049705" lon="11.171081">
<time>2020-10-28T18:40:20Z</time>
</trkpt>
<trkpt lat="46.049713" lon="11.171087">
<time>2020-10-28T18:40:21Z</time>
</trkpt>
<trkpt lat="46.04972" lon="11.171088">
<time>2020-10-28T18:40:22Z</time>
</trkpt>
<trkpt lat="46.04973" lon="11.171081">
<time>2020-10-28T18:40:23Z</time>
</trkpt>
<trkpt lat="46.049749" lon="11.171069">
<time>2020-10-28T18:40:24Z</time>
</trkpt>
<trkpt lat="46.049768" lon="11.171056">
<time>2020-10-28T18:40:25Z</time>
</trkpt>
<trkpt lat="46.049773" lon="11.171039">
<time>2020-10-28T18:40:26Z</time>
</trkpt>
<trkpt lat="46.049779" lon="11.171018">
<time>2020-10-28T18:40:27Z</time>
</trkpt>
<trkpt lat="46.04979" lon="11.170993">
<time>2020-10-28T18:40:28Z</time>
</trkpt>
<trkpt lat="46.049804" lon="11.170965">
<time>2020-10-28T18:40:29Z</time>
</trkpt>
<trkpt lat="46.04982" lon="11.17094">
<time>2020-10-28T18:40:30Z</time>
</trkpt>
<trkpt lat="46.049833" lon="11.170917">
<time>2020-10-28T18:40:31Z</time>
</trkpt>
<trkpt lat="46.049844" lon="11.170898">
<time>2020-10-28T18:40:32Z</time>
</trkpt>
<trkpt lat="46.049852" lon="11.170878">
<time>2020-10-28T18:40:33Z</time>
</trkpt>
<trkpt lat="46.049859" lon="11.170863">
<time>2020-10-28T18:40:34Z</time>
</trkpt>
<trkpt lat="46.049864" lon="11.170848">
<time>2020-10-28T18:40:35Z</time>
</trkpt>
<trkpt lat="46.049868" lon="11.170831">
<time>2020-10-28T18:40:36Z</time>
</trkpt>
<trkpt lat="46.049877" lon="11.170816">
<time>2020-10-28T18:40:37Z</time>
</trkpt>
<trkpt lat="46.049884" lon="11.170797">
<time>2020-10-28T18:40:38Z</time>
</trkpt>
<trkpt lat="46.049892" lon="11.170775">
<time>2020-10-28T18:40:39Z</time>
</trkpt>
<trkpt lat="46.049891" lon="11.17075">
<time>2020-10-28T18:40:40Z</time>
</trkpt>
<trkpt lat="46.049891" lon="11.170725">
<time>2020-10-28T18:40:41Z</time>
</trkpt>
<trkpt lat="46.049894" lon="11.170718">
<time>2020-10-28T18:40:42Z</time>
</trkpt>
<trkpt lat="46.049904" lon="11.17072">
<time>2020-10-28T18:40:43Z</time>
</trkpt>
<trkpt lat="46.049915" lon="11.170724">
<time>2020-10-28T18:40:44Z</time>
</trkpt>
<trkpt lat="46.049933" lon="11.170735">
<time>2020-10-28T18:40:45Z</time>
</trkpt>
<trkpt lat="46.049945" lon="11.170738">
<time>2020-10-28T18:40:46Z</time>
</trkpt>
<trkpt lat="46.049958" lon="11.170733">
<time>2020-10-28T18:40:47Z</time>
</trkpt>
<trkpt lat="46.049968" lon="11.17072">
<time>2020-10-28T18:40:48Z</time>
</trkpt>
<trkpt lat="46.04998" lon="11.170704">
<time>2020-10-28T18:40:49Z</time>
</trkpt>
<trkpt lat="46.049995" lon="11.170688">
<time>2020-10-28T18:40:50Z</time>
</trkpt>
<trkpt lat="46.050014" lon="11.170671">
<time>2020-10-28T18:40:51Z</time>
</trkpt>
<trkpt lat="46.050031" lon="11.170651">
<time>2020-10-28T18:40:52Z</time>
</trkpt>
<trkpt lat="46.050046" lon="11.170631">
<time>2020-10-28T18:40:53Z</time>
</trkpt>
<trkpt lat="46.05006" lon="11.170623">
<time>2020-10-28T18:40:54Z</time>
</trkpt>
<trkpt lat="46.050077" lon="11.170623">
<time>2020-10-28T18:40:55Z</time>
</trkpt>
<trkpt lat="46.050097" lon="11.170634">
<time>2020-10-28T18:40:56Z</time>
</trkpt>
<trkpt lat="46.050117" lon="11.170643">
<time>2020-10-28T18:40:57Z</time>
</trkpt>
<trkpt lat="46.050137" lon="11.170641">
<time>2020-10-28T18:40:58Z</time>
</trkpt>
<trkpt lat="46.050161" lon="11.170638">
<time>2020-10-28T18:40:59Z</time>
</trkpt>
<trkpt lat="46.050182" lon="11.170628">
<time>2020-10-28T18:41:00Z</time>
</trkpt>
<trkpt lat="46.050201" lon="11.170618">
<time>2020-10-28T18:41:01Z</time>
</trkpt>
<trkpt lat="46.050212" lon="11.170613">
<time>2020-10-28T18:41:02Z</time>
</trkpt>
<trkpt lat="46.050224" lon="11.170609">
<time>2020-10-28T18:41:03Z</time>
</trkpt>
<trkpt lat="46.050235" lon="11.170602">
<time>2020-10-28T18:41:04Z</time>
</trkpt>
<trkpt lat="46.050252" lon="11.170597">
<time>2020-10-28T18:41:05Z</time>
</trkpt>
<trkpt lat="46.050272" lon="11.170592">
<time>2020-10-28T18:41:06Z</time>
</trkpt>
<trkpt lat="46.050288" lon="11.17058">
<time>2020-10-28T18:41:07Z</time>
</trkpt>
<trkpt lat="46.050304" lon="11.170561">
<time>2020-10-28T18:41:08Z</time>
</trkpt>
<trkpt lat="46.050318" lon="11.170548">
<time>2020-10-28T18:41:09Z</time>
</trkpt>
<trkpt lat="46.050325" lon="11.170542">
<time>2020-10-28T18:41:10Z</time>
</trkpt>
<trkpt lat="46.050339" lon="11.170541">
<time>2020-10-28T18:41:11Z</time>
</trkpt>
<trkpt lat="46.050346" lon="11.170542">
<time>2020-10-28T18:41:12Z</time>
</trkpt>
<trkpt lat="46.050352" lon="11.170542">
<time>2020-10-28T18:41:13Z</time>
</trkpt>
<trkpt lat="46.050357" lon="11.170543">
<time>2020-10-28T18:41:14Z</time>
</trkpt>
<trkpt lat="46.050368" lon="11.170545">
<time>2020-10-28T18:41:15Z</time>
</trkpt>
<trkpt lat="46.050379" lon="11.17055">
<time>2020-10-28T18:41:16Z</time>
</trkpt>
<trkpt lat="46.050395" lon="11.170553">
<time>2020-10-28T18:41:17Z</time>
</trkpt>
<trkpt lat="46.050413" lon="11.170563">
<time>2020-10-28T18:41:18Z</time>
</trkpt>
<trkpt lat="46.050427" lon="11.170565">
<time>2020-10-28T18:41:19Z</time>
</trkpt>
<trkpt lat="46.050438" lon="11.170559">
<time>2020-10-28T18:41:20Z</time>
</trkpt>
<trkpt lat="46.050449" lon="11.170553">
<time>2020-10-28T18:41:21Z</time>
</trkpt>
<trkpt lat="46.050456" lon="11.170544">
<time>2020-10-28T18:41:22Z</time>
</trkpt>
<trkpt lat="46.050461" lon="11.170535">
<time>2020-10-28T18:41:23Z</time>
</trkpt>
<trkpt lat="46.050473" lon="11.170538">
<time>2020-10-28T18:41:24Z</time>
</trkpt>
<trkpt lat="46.050486" lon="11.17054">
<time>2020-10-28T18:41:25Z</time>
</trkpt>
<trkpt lat="46.050494" lon="11.170549">
<time>2020-10-28T18:41:26Z</time>
</trkpt>
<trkpt lat="46.0505" lon="11.170557">
<time>2020-10-28T18:41:27Z</time>
</trkpt>
<trkpt lat="46.050505" lon="11.170563">
<time>2020-10-28T18:41:28Z</time>
</trkpt>
<trkpt lat="46.050512" lon="11.170565">
<time>2020-10-28T18:41:29Z</time>
</trkpt>
<trkpt lat="46.050518" lon="11.170573">
<time>2020-10-28T18:41:30Z</time>
</trkpt>
<trkpt lat="46.050536" lon="11.170579">
<time>2020-10-28T18:41:31Z</time>
</trkpt>
<trkpt lat="46.050561" lon="11.170583">
<time>2020-10-28T18:41:32Z</time>
</trkpt>
<trkpt lat="46.050584" lon="11.170593">
<time>2020-10-28T18:41:33Z</time>
</trkpt>
<trkpt lat="46.050606" lon="11.170605">
<time>2020-10-28T18:41:34Z</time>
</trkpt>
<trkpt lat="46.050625" lon="11.170609">
<time>2020-10-28T18:41:35Z</time>
</trkpt>
<trkpt lat="46.05064" lon="11.170608">
<time>2020-10-28T18:41:36Z</time>
</trkpt>
<trkpt lat="46.050654" lon="11.170605">
<time>2020-10-28T18:41:37Z</time>
</trkpt>
<trkpt lat="46.050673" lon="11.170605">
<time>2020-10-28T18:41:38Z</time>
</trkpt>
<trkpt lat="46.050697" lon="11.170607">
<time>2020-10-28T18:41:39Z</time>
</trkpt>
<trkpt lat="46.050726" lon="11.170604">
<time>2020-10-28T18:41:40Z</time>
</trkpt>
<trkpt lat="46.050758" lon="11.170595">
<time>2020-10-28T18:41:41Z</time>
</trkpt>
<trkpt lat="46.050788" lon="11.17059">
<time>2020-10-28T18:41:42Z</time>
</trkpt>
<trkpt lat="46.050815" lon="11.170586">
<time>2020-10-28T18:41:43Z</time>
</trkpt>
<trkpt lat="46.050848" lon="11.170581">
<time>2020-10-28T18:41:44Z</time>
</trkpt>
<trkpt lat="46.050882" lon="11.170571">
<time>2020-10-28T18:41:45Z</time>
</trkpt>
<trkpt lat="46.050918" lon="11.170567">
<time>2020-10-28T18:41:46Z</time>
</trkpt>
<trkpt lat="46.050952" lon="11.17056">
<time>2020-10-28T18:41:47Z</time>
</trkpt>
<trkpt lat="46.050986" lon="11.170547">
<time>2020-10-28T18:41:48Z</time>
</trkpt>
<trkpt lat="46.051025" lon="11.170524">
<time>2020-10-28T18:41:49Z</time>
</trkpt>
<trkpt lat="46.051065" lon="11.170498">
<time>2020-10-28T18:41:50Z</time>
</trkpt>
<trkpt lat="46.051087" lon="11.17047">
<time>2020-10-28T18:41:51Z</time>
</trkpt>
<trkpt lat="46.051105" lon="11.170445">
<time>2020-10-28T18:41:52Z</time>
</trkpt>
<trkpt lat="46.051121" lon="11.170424">
<time>2020-10-28T18:41:53Z</time>
</trkpt>
<trkpt lat="46.051137" lon="11.170413">
<time>2020-10-28T18:41:54Z</time>
</trkpt>
<trkpt lat="46.051155" lon="11.170402">
<time>2020-10-28T18:41:55Z</time>
</trkpt>
<trkpt lat="46.051173" lon="11.170377">
<time>2020-10-28T18:41:56Z</time>
</trkpt>
<trkpt lat="46.051184" lon="11.170363">
<time>2020-10-28T18:41:57Z</time>
</trkpt>
<trkpt lat="46.0512" lon="11.170359">
<time>2020-10-28T18:41:58Z</time>
</trkpt>
<trkpt lat="46.051216" lon="11.170357">
<time>2020-10-28T18:41:59Z</time>
</trkpt>
<trkpt lat="46.05123" lon="11.170357">
<time>2020-10-28T18:42:00Z</time>
</trkpt>
<trkpt lat="46.051242" lon="11.170362">
<time>2020-10-28T18:42:01Z</time>
</trkpt>
<trkpt lat="46.051251" lon="11.170365">
<time>2020-10-28T18:42:02Z</time>
</trkpt>
<trkpt lat="46.051258" lon="11.170372">
<time>2020-10-28T18:42:03Z</time>
</trkpt>
<trkpt lat="46.051268" lon="11.17038">
<time>2020-10-28T18:42:04Z</time>
</trkpt>
<trkpt lat="46.051275" lon="11.170384">
<time>2020-10-28T18:42:05Z</time>
</trkpt>
<trkpt lat="46.051282" lon="11.170382">
<time>2020-10-28T18:42:06Z</time>
</trkpt>
<trkpt lat="46.051286" lon="11.17038">
<time>2020-10-28T18:42:07Z</time>
</trkpt>
<trkpt lat="46.051291" lon="11.170384">
<time>2020-10-28T18:42:08Z</time>
</trkpt>
<trkpt lat="46.051295" lon="11.170385">
<time>2020-10-28T18:42:09Z</time>
</trkpt>
<trkpt lat="46.051303" lon="11.170386">
<time>2020-10-28T18:42:10Z</time>
</trkpt>
<trkpt lat="46.051316" lon="11.170385">
<time>2020-10-28T18:42:11Z</time>
</trkpt>
<trkpt lat="46.051325" lon="11.170382">
<time>2020-10-28T18:42:12Z</time>
</trkpt>
<trkpt lat="46.051338" lon="11.170382">
<time>2020-10-28T18:42:13Z</time>
</trkpt>
<trkpt lat="46.051353" lon="11.170383">
<time>2020-10-28T18:42:14Z</time>
</trkpt>
<trkpt lat="46.051373" lon="11.170386">
<time>2020-10-28T18:42:15Z</time>
</trkpt>
<trkpt lat="46.051397" lon="11.17039">
<time>2020-10-28T18:42:16Z</time>
</trkpt>
<trkpt lat="46.051417" lon="11.170393">
<time>2020-10-28T18:42:17Z</time>
</trkpt>
<trkpt lat="46.051437" lon="11.170399">
<time>2020-10-28T18:42:18Z</time>
</trkpt>
<trkpt lat="46.051459" lon="11.170404">
<time>2020-10-28T18:42:19Z</time>
</trkpt>
<trkpt lat="46.051482" lon="11.170404">
<time>2020-10-28T18:42:20Z</time>
</trkpt>
<trkpt lat="46.051502" lon="11.170395">
<time>2020-10-28T18:42:21Z</time>
</trkpt>
<trkpt lat="46.051516" lon="11.170385">
<time>2020-10-28T18:42:22Z</time>
</trkpt>
<trkpt lat="46.051531" lon="11.17038">
<time>2020-10-28T18:42:23Z</time>
</trkpt>
<trkpt lat="46.051552" lon="11.170376">
<time>2020-10-28T18:42:24Z</time>
</trkpt>
<trkpt lat="46.051558" lon="11.170366">
<time>2020-10-28T18:42:25Z</time>
</trkpt>
<trkpt lat="46.051564" lon="11.170358">
<time>2020-10-28T18:42:26Z</time>
</trkpt>
<trkpt lat="46.051572" lon="11.170353">
<time>2020-10-28T18:42:27Z</time>
</trkpt>
<trkpt lat="46.051579" lon="11.170349">
<time>2020-10-28T18:42:28Z</time>
</trkpt>
<trkpt lat="46.051586" lon="11.170348">
<time>2020-10-28T18:42:29Z</time>
</trkpt>
<trkpt lat="46.051596" lon="11.170349">
<time>2020-10-28T18:42:30Z</time>
</trkpt>
<trkpt lat="46.051607" lon="11.170351">
<time>2020-10-28T18:42:31Z</time>
</trkpt>
<trkpt lat="46.051621" lon="11.170346">
<time>2020-10-28T18:42:32Z</time>
</trkpt>
<trkpt lat="46.051631" lon="11.170341">
<time>2020-10-28T18:42:33Z</time>
</trkpt>
<trkpt lat="46.051645" lon="11.170341">
<time>2020-10-28T18:42:34Z</time>
</trkpt>
<trkpt lat="46.051653" lon="11.170348">
<time>2020-10-28T18:42:35Z</time>
</trkpt>
<trkpt lat="46.051659" lon="11.170359">
<time>2020-10-28T18:42:36Z</time>
</trkpt>
<trkpt lat="46.051668" lon="11.170367">
<time>2020-10-28T18:42:37Z</time>
</trkpt>
<trkpt lat="46.051679" lon="11.170362">
<time>2020-10-28T18:42:38Z</time>
</trkpt>
<trkpt lat="46.051713" lon="11.170366">
<time>2020-10-28T18:42:39Z</time>
</trkpt>
<trkpt lat="46.051737" lon="11.170363">
<time>2020-10-28T18:42:40Z</time>
</trkpt>
<trkpt lat="46.051758" lon="11.170365">
<time>2020-10-28T18:42:41Z</time>
</trkpt>
<trkpt lat="46.051762" lon="11.170363">
<time>2020-10-28T18:42:42Z</time>
</trkpt>
<trkpt lat="46.051765" lon="11.170363">
<time>2020-10-28T18:42:43Z</time>
</trkpt>
<trkpt lat="46.051768" lon="11.170366">
<time>2020-10-28T18:42:44Z</time>
</trkpt>
<trkpt lat="46.051775" lon="11.170377">
<time>2020-10-28T18:42:45Z</time>
</trkpt>
<trkpt lat="46.051783" lon="11.170386">
<time>2020-10-28T18:42:46Z</time>
</trkpt>
<trkpt lat="46.051791" lon="11.170392">
<time>2020-10-28T18:42:47Z</time>
</trkpt>
<trkpt lat="46.051798" lon="11.170396">
<time>2020-10-28T18:42:48Z</time>
</trkpt>
<trkpt lat="46.051802" lon="11.170402">
<time>2020-10-28T18:42:49Z</time>
</trkpt>
<trkpt lat="46.051806" lon="11.170407">
<time>2020-10-28T18:42:50Z</time>
</trkpt>
<trkpt lat="46.051815" lon="11.170413">
<time>2020-10-28T18:42:51Z</time>
</trkpt>
<trkpt lat="46.051824" lon="11.170424">
<time>2020-10-28T18:42:52Z</time>
</trkpt>
<trkpt lat="46.051835" lon="11.17044">
<time>2020-10-28T18:42:53Z</time>
</trkpt>
<trkpt lat="46.05185" lon="11.170454">
<time>2020-10-28T18:42:54Z</time>
</trkpt>
<trkpt lat="46.051865" lon="11.170468">
<time>2020-10-28T18:42:55Z</time>
</trkpt>
<trkpt lat="46.051881" lon="11.170486">
<time>2020-10-28T18:42:56Z</time>
</trkpt>
<trkpt lat="46.051899" lon="11.170505">
<time>2020-10-28T18:42:57Z</time>
</trkpt>
<trkpt lat="46.05191" lon="11.170521">
<time>2020-10-28T18:42:58Z</time>
</trkpt>
<trkpt lat="46.051909" lon="11.170544">
<time>2020-10-28T18:42:59Z</time>
</trkpt>
<trkpt lat="46.051914" lon="11.170576">
<time>2020-10-28T18:43:00Z</time>
</trkpt>
<trkpt lat="46.051922" lon="11.170609">
<time>2020-10-28T18:43:01Z</time>
</trkpt>
<trkpt lat="46.051936" lon="11.170644">
<time>2020-10-28T18:43:02Z</time>
</trkpt>
<trkpt lat="46.051955" lon="11.170687">
<time>2020-10-28T18:43:03Z</time>
</trkpt>
<trkpt lat="46.051972" lon="11.170722">
<time>2020-10-28T18:43:04Z</time>
</trkpt>
<trkpt lat="46.051989" lon="11.170747">
<time>2020-10-28T18:43:05Z</time>
</trkpt>
<trkpt lat="46.052004" lon="11.170764">
<time>2020-10-28T18:43:06Z</time>
</trkpt>
<trkpt lat="46.052015" lon="11.170775">
<time>2020-10-28T18:43:07Z</time>
</trkpt>
<trkpt lat="46.052022" lon="11.170785">
<time>2020-10-28T18:43:08Z</time>
</trkpt>
<trkpt lat="46.052023" lon="11.170804">
<time>2020-10-28T18:43:09Z</time>
</trkpt>
<trkpt lat="46.052018" lon="11.170818">
<time>2020-10-28T18:43:10Z</time>
</trkpt>
<trkpt lat="46.052022" lon="11.170824">
<time>2020-10-28T18:43:11Z</time>
</trkpt>
<trkpt lat="46.052028" lon="11.170826">
<time>2020-10-28T18:43:12Z</time>
</trkpt>
<trkpt lat="46.052053" lon="11.170833">
<time>2020-10-28T18:43:13Z</time>
</trkpt>
<trkpt lat="46.052074" lon="11.170838">
<time>2020-10-28T18:43:14Z</time>
</trkpt>
<trkpt lat="46.052094" lon="11.170842">
<time>2020-10-28T18:43:15Z</time>
</trkpt>
<trkpt lat="46.052114" lon="11.170848">
<time>2020-10-28T18:43:16Z</time>
</trkpt>
<trkpt lat="46.052134" lon="11.170854">
<time>2020-10-28T18:43:17Z</time>
</trkpt>
<trkpt lat="46.052162" lon="11.170869">
<time>2020-10-28T18:43:18Z</time>
</trkpt>
<trkpt lat="46.052193" lon="11.170885">
<time>2020-10-28T18:43:19Z</time>
</trkpt>
<trkpt lat="46.052228" lon="11.170891">
<time>2020-10-28T18:43:20Z</time>
</trkpt>
<trkpt lat="46.052256" lon="11.170893">
<time>2020-10-28T18:43:21Z</time>
</trkpt>
<trkpt lat="46.052286" lon="11.170893">
<time>2020-10-28T18:43:22Z</time>
</trkpt>
<trkpt lat="46.052315" lon="11.170889">
<time>2020-10-28T18:43:23Z</time>
</trkpt>
<trkpt lat="46.052348" lon="11.170885">
<time>2020-10-28T18:43:24Z</time>
</trkpt>
<trkpt lat="46.052365" lon="11.170883">
<time>2020-10-28T18:43:25Z</time>
</trkpt>
<trkpt lat="46.052376" lon="11.170878">
<time>2020-10-28T18:43:26Z</time>
</trkpt>
<trkpt lat="46.052386" lon="11.170871">
<time>2020-10-28T18:43:27Z</time>
</trkpt>
<trkpt lat="46.052404" lon="11.170864">
<time>2020-10-28T18:43:28Z</time>
</trkpt>
<trkpt lat="46.05243" lon="11.17086">
<time>2020-10-28T18:43:29Z</time>
</trkpt>
<trkpt lat="46.05246" lon="11.170857">
<time>2020-10-28T18:43:30Z</time>
</trkpt>
<trkpt lat="46.052486" lon="11.170855">
<time>2020-10-28T18:43:31Z</time>
</trkpt>
<trkpt lat="46.052513" lon="11.170852">
<time>2020-10-28T18:43:32Z</time>
</trkpt>
<trkpt lat="46.052537" lon="11.170847">
<time>2020-10-28T18:43:33Z</time>
</trkpt>
<trkpt lat="46.052556" lon="11.170842">
<time>2020-10-28T18:43:34Z</time>
</trkpt>
<trkpt lat="46.052573" lon="11.17084">
<time>2020-10-28T18:43:35Z</time>
</trkpt>
<trkpt lat="46.052591" lon="11.170838">
<time>2020-10-28T18:43:36Z</time>
</trkpt>
<trkpt lat="46.052608" lon="11.170831">
<time>2020-10-28T18:43:37Z</time>
</trkpt>
<trkpt lat="46.05262" lon="11.170829">
<time>2020-10-28T18:43:38Z</time>
</trkpt>
<trkpt lat="46.052631" lon="11.170829">
<time>2020-10-28T18:43:39Z</time>
</trkpt>
<trkpt lat="46.05264" lon="11.170829">
<time>2020-10-28T18:43:40Z</time>
</trkpt>
<trkpt lat="46.052657" lon="11.170833">
<time>2020-10-28T18:43:41Z</time>
</trkpt>
<trkpt lat="46.05267" lon="11.170833">
<time>2020-10-28T18:43:42Z</time>
</trkpt>
<trkpt lat="46.052683" lon="11.170833">
<time>2020-10-28T18:43:43Z</time>
</trkpt>
<trkpt lat="46.052701" lon="11.170841">
<time>2020-10-28T18:43:44Z</time>
</trkpt>
<trkpt lat="46.052715" lon="11.170845">
<time>2020-10-28T18:43:45Z</time>
</trkpt>
<trkpt lat="46.052733" lon="11.17085">
<time>2020-10-28T18:43:46Z</time>
</trkpt>
<trkpt lat="46.052749" lon="11.170856">
<time>2020-10-28T18:43:47Z</time>
</trkpt>
<trkpt lat="46.052762" lon="11.17086">
<time>2020-10-28T18:43:48Z</time>
</trkpt>
<trkpt lat="46.052777" lon="11.170864">
<time>2020-10-28T18:43:49Z</time>
</trkpt>
<trkpt lat="46.052792" lon="11.170866">
<time>2020-10-28T18:43:50Z</time>
</trkpt>
<trkpt lat="46.052805" lon="11.170868">
<time>2020-10-28T18:43:51Z</time>
</trkpt>
<trkpt lat="46.052814" lon="11.170869">
<time>2020-10-28T18:43:52Z</time>
</trkpt>
<trkpt lat="46.052825" lon="11.170874">
<time>2020-10-28T18:43:53Z</time>
</trkpt>
<trkpt lat="46.052842" lon="11.170879">
<time>2020-10-28T18:43:54Z</time>
</trkpt>
<trkpt lat="46.052858" lon="11.170883">
<time>2020-10-28T18:43:55Z</time>
</trkpt>
<trkpt lat="46.052869" lon="11.170886">
<time>2020-10-28T18:43:56Z</time>
</trkpt>
<trkpt lat="46.052877" lon="11.170888">
<time>2020-10-28T18:43:57Z</time>
</trkpt>
<trkpt lat="46.052889" lon="11.170888">
<time>2020-10-28T18:43:58Z</time>
</trkpt>
<trkpt lat="46.052906" lon="11.17088">
<time>2020-10-28T18:43:59Z</time>
</trkpt>
<trkpt lat="46.052922" lon="11.170871">
<time>2020-10-28T18:44:00Z</time>
</trkpt>
<trkpt lat="46.052935" lon="11.170865">
<time>2020-10-28T18:44:01Z</time>
</trkpt>
<trkpt lat="46.052947" lon="11.170862">
<time>2020-10-28T18:44:02Z</time>
</trkpt>
<trkpt lat="46.052953" lon="11.17086">
<time>2020-10-28T18:44:03Z</time>
</trkpt>
<trkpt lat="46.052962" lon="11.17086">
<time>2020-10-28T18:44:04Z</time>
</trkpt>
<trkpt lat="46.052968" lon="11.170862">
<time>2020-10-28T18:44:05Z</time>
</trkpt>
<trkpt lat="46.052976" lon="11.170861">
<time>2020-10-28T18:44:06Z</time>
</trkpt>
<trkpt lat="46.052983" lon="11.170862">
<time>2020-10-28T18:44:07Z</time>
</trkpt>
<trkpt lat="46.052985" lon="11.170865">
<time>2020-10-28T18:44:08Z</time>
</trkpt>
<trkpt lat="46.052986" lon="11.170867">
<time>2020-10-28T18:44:09Z</time>
</trkpt>
<trkpt lat="46.052985" lon="11.170869">
<time>2020-10-28T18:44:10Z</time>
</trkpt>
<trkpt lat="46.052991" lon="11.170872">
<time>2020-10-28T18:44:11Z</time>
</trkpt>
<trkpt lat="46.053005" lon="11.170875">
<time>2020-10-28T18:44:12Z</time>
</trkpt>
<trkpt lat="46.053022" lon="11.170877">
<time>2020-10-28T18:44:13Z</time>
</trkpt>
<trkpt lat="46.053034" lon="11.170877">
<time>2020-10-28T18:44:14Z</time>
</trkpt>
<trkpt lat="46.053041" lon="11.170884">
<time>2020-10-28T18:44:15Z</time>
</trkpt>
<trkpt lat="46.053041" lon="11.170882">
<time>2020-10-28T18:44:16Z</time>
</trkpt>
<trkpt lat="46.053041" lon="11.170877">
<time>2020-10-28T18:44:17Z</time>
</trkpt>
<trkpt lat="46.053046" lon="11.170873">
<time>2020-10-28T18:44:18Z</time>
</trkpt>
<trkpt lat="46.053046" lon="11.170873">
<time>2020-10-28T18:44:19Z</time>
</trkpt>
<trkpt lat="46.053044" lon="11.170871">
<time>2020-10-28T18:44:20Z</time>
</trkpt>
<trkpt lat="46.053049" lon="11.170854">
<time>2020-10-28T18:44:21Z</time>
</trkpt>
<trkpt lat="46.053057" lon="11.170837">
<time>2020-10-28T18:44:22Z</time>
</trkpt>
<trkpt lat="46.053062" lon="11.170829">
<time>2020-10-28T18:44:23Z</time>
</trkpt>
<trkpt lat="46.053069" lon="11.170823">
<time>2020-10-28T18:44:24Z</time>
</trkpt>
<trkpt lat="46.053073" lon="11.170813">
<time>2020-10-28T18:44:25Z</time>
</trkpt>
<trkpt lat="46.053076" lon="11.170807">
<time>2020-10-28T18:44:26Z</time>
</trkpt>
<trkpt lat="46.053079" lon="11.170801">
<time>2020-10-28T18:44:27Z</time>
</trkpt>
<trkpt lat="46.053074" lon="11.170793">
<time>2020-10-28T18:44:28Z</time>
</trkpt>
<trkpt lat="46.053071" lon="11.170782">
<time>2020-10-28T18:44:29Z</time>
</trkpt>
<trkpt lat="46.05307" lon="11.170774">
<time>2020-10-28T18:44:30Z</time>
</trkpt>
<trkpt lat="46.053071" lon="11.170762">
<time>2020-10-28T18:44:31Z</time>
</trkpt>
<trkpt lat="46.053077" lon="11.170742">
<time>2020-10-28T18:44:32Z</time>
</trkpt>
<trkpt lat="46.053078" lon="11.170726">
<time>2020-10-28T18:44:33Z</time>
</trkpt>
<trkpt lat="46.053084" lon="11.170724">
<time>2020-10-28T18:44:34Z</time>
</trkpt>
<trkpt lat="46.053091" lon="11.170731">
<time>2020-10-28T18:44:35Z</time>
</trkpt>
<trkpt lat="46.0531" lon="11.170738">
<time>2020-10-28T18:44:36Z</time>
</trkpt>
<trkpt lat="46.053109" lon="11.170734">
<time>2020-10-28T18:44:37Z</time>
</trkpt>
<trkpt lat="46.053116" lon="11.170723">
<time>2020-10-28T18:44:38Z</time>
</trkpt>
<trkpt lat="46.053123" lon="11.170707">
<time>2020-10-28T18:44:39Z</time>
</trkpt>
<trkpt lat="46.053134" lon="11.170682">
<time>2020-10-28T18:44:40Z</time>
</trkpt>
<trkpt lat="46.053143" lon="11.170652">
<time>2020-10-28T18:44:41Z</time>
</trkpt>
<trkpt lat="46.053143" lon="11.170626">
<time>2020-10-28T18:44:42Z</time>
</trkpt>
<trkpt lat="46.053143" lon="11.170607">
<time>2020-10-28T18:44:43Z</time>
</trkpt>
<trkpt lat="46.053149" lon="11.170602">
<time>2020-10-28T18:44:44Z</time>
</trkpt>
<trkpt lat="46.053161" lon="11.170604">
<time>2020-10-28T18:44:45Z</time>
</trkpt>
<trkpt lat="46.053178" lon="11.170608">
<time>2020-10-28T18:44:46Z</time>
</trkpt>
<trkpt lat="46.053197" lon="11.170606">
<time>2020-10-28T18:44:47Z</time>
</trkpt>
<trkpt lat="46.053211" lon="11.170604">
<time>2020-10-28T18:44:48Z</time>
</trkpt>
<trkpt lat="46.053225" lon="11.170608">
<time>2020-10-28T18:44:49Z</time>
</trkpt>
<trkpt lat="46.053241" lon="11.17061">
<time>2020-10-28T18:44:50Z</time>
</trkpt>
<trkpt lat="46.053257" lon="11.170616">
<time>2020-10-28T18:44:51Z</time>
</trkpt>
<trkpt lat="46.05327" lon="11.170619">
<time>2020-10-28T18:44:52Z</time>
</trkpt>
<trkpt lat="46.053286" lon="11.170623">
<time>2020-10-28T18:44:53Z</time>
</trkpt>
<trkpt lat="46.053303" lon="11.170627">
<time>2020-10-28T18:44:54Z</time>
</trkpt>
<trkpt lat="46.053322" lon="11.170631">
<time>2020-10-28T18:44:55Z</time>
</trkpt>
<trkpt lat="46.053337" lon="11.170638">
<time>2020-10-28T18:44:56Z</time>
</trkpt>
<trkpt lat="46.053348" lon="11.170647">
<time>2020-10-28T18:44:57Z</time>
</trkpt>
<trkpt lat="46.053352" lon="11.170658">
<time>2020-10-28T18:44:58Z</time>
</trkpt>
<trkpt lat="46.053359" lon="11.170668">
<time>2020-10-28T18:44:59Z</time>
</trkpt>
<trkpt lat="46.05337" lon="11.170677">
<time>2020-10-28T18:45:00Z</time>
</trkpt>
<trkpt lat="46.053378" lon="11.170683">
<time>2020-10-28T18:45:01Z</time>
</trkpt>
<trkpt lat="46.053382" lon="11.170694">
<time>2020-10-28T18:45:02Z</time>
</trkpt>
<trkpt lat="46.053395" lon="11.170704">
<time>2020-10-28T18:45:03Z</time>
</trkpt>
<trkpt lat="46.053409" lon="11.170703">
<time>2020-10-28T18:45:04Z</time>
</trkpt>
<trkpt lat="46.053422" lon="11.170705">
<time>2020-10-28T18:45:05Z</time>
</trkpt>
<trkpt lat="46.053445" lon="11.170711">
<time>2020-10-28T18:45:06Z</time>
</trkpt>
<trkpt lat="46.053466" lon="11.170716">
<time>2020-10-28T18:45:07Z</time>
</trkpt>
<trkpt lat="46.053488" lon="11.17072">
<time>2020-10-28T18:45:08Z</time>
</trkpt>
<trkpt lat="46.053503" lon="11.170718">
<time>2020-10-28T18:45:09Z</time>
</trkpt>
<trkpt lat="46.053516" lon="11.170705">
<time>2020-10-28T18:45:10Z</time>
</trkpt>
<trkpt lat="46.053526" lon="11.170686">
<time>2020-10-28T18:45:11Z</time>
</trkpt>
<trkpt lat="46.053539" lon="11.170667">
<time>2020-10-28T18:45:12Z</time>
</trkpt>
<trkpt lat="46.05356" lon="11.170641">
<time>2020-10-28T18:45:13Z</time>
</trkpt>
<trkpt lat="46.053577" lon="11.170613">
<time>2020-10-28T18:45:14Z</time>
</trkpt>
<trkpt lat="46.053587" lon="11.170584">
<time>2020-10-28T18:45:15Z</time>
</trkpt>
<trkpt lat="46.053599" lon="11.170557">
<time>2020-10-28T18:45:16Z</time>
</trkpt>
<trkpt lat="46.053609" lon="11.170537">
<time>2020-10-28T18:45:17Z</time>
</trkpt>
<trkpt lat="46.053621" lon="11.170528">
<time>2020-10-28T18:45:18Z</time>
</trkpt>
<trkpt lat="46.053633" lon="11.170526">
<time>2020-10-28T18:45:19Z</time>
</trkpt>
<trkpt lat="46.053648" lon="11.170531">
<time>2020-10-28T18:45:20Z</time>
</trkpt>
<trkpt lat="46.053664" lon="11.170527">
<time>2020-10-28T18:45:21Z</time>
</trkpt>
<trkpt lat="46.053675" lon="11.17052">
<time>2020-10-28T18:45:22Z</time>
</trkpt>
<trkpt lat="46.053685" lon="11.170507">
<time>2020-10-28T18:45:23Z</time>
</trkpt>
<trkpt lat="46.053692" lon="11.170489">
<time>2020-10-28T18:45:24Z</time>
</trkpt>
<trkpt lat="46.053697" lon="11.170466">
<time>2020-10-28T18:45:25Z</time>
</trkpt>
<trkpt lat="46.053702" lon="11.170449">
<time>2020-10-28T18:45:26Z</time>
</trkpt>
<trkpt lat="46.053707" lon="11.170441">
<time>2020-10-28T18:45:27Z</time>
</trkpt>
<trkpt lat="46.053712" lon="11.170433">
<time>2020-10-28T18:45:28Z</time>
</trkpt>
<trkpt lat="46.053723" lon="11.170424">
<time>2020-10-28T18:45:29Z</time>
</trkpt>
<trkpt lat="46.053738" lon="11.170411">
<time>2020-10-28T18:45:30Z</time>
</trkpt>
<trkpt lat="46.053756" lon="11.170391">
<time>2020-10-28T18:45:31Z</time>
</trkpt>
<trkpt lat="46.053772" lon="11.170361">
<time>2020-10-28T18:45:32Z</time>
</trkpt>
<trkpt lat="46.053776" lon="11.170333">
<time>2020-10-28T18:45:33Z</time>
</trkpt>
<trkpt lat="46.053783" lon="11.170302">
<time>2020-10-28T18:45:34Z</time>
</trkpt>
<trkpt lat="46.053794" lon="11.17027">
<time>2020-10-28T18:45:35Z</time>
</trkpt>
<trkpt lat="46.05381" lon="11.170223">
<time>2020-10-28T18:45:36Z</time>
</trkpt>
<trkpt lat="46.053831" lon="11.170174">
<time>2020-10-28T18:45:37Z</time>
</trkpt>
<trkpt lat="46.053836" lon="11.170123">
<time>2020-10-28T18:45:38Z</time>
</trkpt>
<trkpt lat="46.053841" lon="11.170078">
<time>2020-10-28T18:45:39Z</time>
</trkpt>
<trkpt lat="46.053846" lon="11.170043">
<time>2020-10-28T18:45:40Z</time>
</trkpt>
<trkpt lat="46.053852" lon="11.170016">
<time>2020-10-28T18:45:41Z</time>
</trkpt>
<trkpt lat="46.053858" lon="11.169997">
<time>2020-10-28T18:45:42Z</time>
</trkpt>
<trkpt lat="46.053865" lon="11.169987">
<time>2020-10-28T18:45:43Z</time>
</trkpt>
<trkpt lat="46.053872" lon="11.169984">
<time>2020-10-28T18:45:44Z</time>
</trkpt>
<trkpt lat="46.053878" lon="11.16998">
<time>2020-10-28T18:45:45Z</time>
</trkpt>
<trkpt lat="46.053887" lon="11.169974">
<time>2020-10-28T18:45:46Z</time>
</trkpt>
<trkpt lat="46.0539" lon="11.169962">
<time>2020-10-28T18:45:47Z</time>
</trkpt>
<trkpt lat="46.053907" lon="11.169942">
<time>2020-10-28T18:45:48Z</time>
</trkpt>
<trkpt lat="46.053921" lon="11.169911">
<time>2020-10-28T18:45:49Z</time>
</trkpt>
<trkpt lat="46.053939" lon="11.169874">
<time>2020-10-28T18:45:50Z</time>
</trkpt>
<trkpt lat="46.053968" lon="11.169813">
<time>2020-10-28T18:45:51Z</time>
</trkpt>
<trkpt lat="46.053981" lon="11.169769">
<time>2020-10-28T18:45:52Z</time>
</trkpt>
<trkpt lat="46.053987" lon="11.169737">
<time>2020-10-28T18:45:53Z</time>
</trkpt>
<trkpt lat="46.053995" lon="11.169712">
<time>2020-10-28T18:45:54Z</time>
</trkpt>
<trkpt lat="46.054007" lon="11.169695">
<time>2020-10-28T18:45:55Z</time>
</trkpt>
<trkpt lat="46.05402" lon="11.169682">
<time>2020-10-28T18:45:56Z</time>
</trkpt>
<trkpt lat="46.054032" lon="11.169674">
<time>2020-10-28T18:45:57Z</time>
</trkpt>
<trkpt lat="46.054044" lon="11.169666">
<time>2020-10-28T18:45:58Z</time>
</trkpt>
<trkpt lat="46.054058" lon="11.169664">
<time>2020-10-28T18:45:59Z</time>
</trkpt>
<trkpt lat="46.054072" lon="11.169667">
<time>2020-10-28T18:46:00Z</time>
</trkpt>
<trkpt lat="46.054087" lon="11.169674">
<time>2020-10-28T18:46:01Z</time>
</trkpt>
<trkpt lat="46.054105" lon="11.169679">
<time>2020-10-28T18:46:02Z</time>
</trkpt>
<trkpt lat="46.054126" lon="11.169676">
<time>2020-10-28T18:46:03Z</time>
</trkpt>
<trkpt lat="46.05415" lon="11.169668">
<time>2020-10-28T18:46:04Z</time>
</trkpt>
<trkpt lat="46.054173" lon="11.169664">
<time>2020-10-28T18:46:05Z</time>
</trkpt>
<trkpt lat="46.054194" lon="11.169667">
<time>2020-10-28T18:46:06Z</time>
</trkpt>
<trkpt lat="46.054215" lon="11.169672">
<time>2020-10-28T18:46:07Z</time>
</trkpt>
<trkpt lat="46.054239" lon="11.169677">
<time>2020-10-28T18:46:08Z</time>
</trkpt>
<trkpt lat="46.054266" lon="11.169684">
<time>2020-10-28T18:46:09Z</time>
</trkpt>
<trkpt lat="46.054291" lon="11.169696">
<time>2020-10-28T18:46:10Z</time>
</trkpt>
<trkpt lat="46.054316" lon="11.169702">
<time>2020-10-28T18:46:11Z</time>
</trkpt>
<trkpt lat="46.054332" lon="11.169708">
<time>2020-10-28T18:46:12Z</time>
</trkpt>
<trkpt lat="46.054351" lon="11.169712">
<time>2020-10-28T18:46:13Z</time>
</trkpt>
<trkpt lat="46.054373" lon="11.169715">
<time>2020-10-28T18:46:14Z</time>
</trkpt>
<trkpt lat="46.054393" lon="11.169714">
<time>2020-10-28T18:46:15Z</time>
</trkpt>
<trkpt lat="46.054416" lon="11.169711">
<time>2020-10-28T18:46:16Z</time>
</trkpt>
<trkpt lat="46.054437" lon="11.16971">
<time>2020-10-28T18:46:17Z</time>
</trkpt>
<trkpt lat="46.054452" lon="11.169709">
<time>2020-10-28T18:46:18Z</time>
</trkpt>
<trkpt lat="46.054462" lon="11.169701">
<time>2020-10-28T18:46:19Z</time>
</trkpt>
<trkpt lat="46.054473" lon="11.169692">
<time>2020-10-28T18:46:20Z</time>
</trkpt>
<trkpt lat="46.054484" lon="11.169683">
<time>2020-10-28T18:46:21Z</time>
</trkpt>
<trkpt lat="46.054497" lon="11.16967">
<time>2020-10-28T18:46:22Z</time>
</trkpt>
<trkpt lat="46.054514" lon="11.169656">
<time>2020-10-28T18:46:23Z</time>
</trkpt>
<trkpt lat="46.054533" lon="11.169645">
<time>2020-10-28T18:46:24Z</time>
</trkpt>
<trkpt lat="46.054545" lon="11.169638">
<time>2020-10-28T18:46:25Z</time>
</trkpt>
<trkpt lat="46.054553" lon="11.169636">
<time>2020-10-28T18:46:26Z</time>
</trkpt>
<trkpt lat="46.054559" lon="11.169633">
<time>2020-10-28T18:46:27Z</time>
</trkpt>
<trkpt lat="46.054573" lon="11.169618">
<time>2020-10-28T18:46:28Z</time>
</trkpt>
<trkpt lat="46.054588" lon="11.169599">
<time>2020-10-28T18:46:29Z</time>
</trkpt>
<trkpt lat="46.054602" lon="11.169588">
<time>2020-10-28T18:46:30Z</time>
</trkpt>
<trkpt lat="46.054632" lon="11.169576">
<time>2020-10-28T18:46:31Z</time>
</trkpt>
<trkpt lat="46.054656" lon="11.169562">
<time>2020-10-28T18:46:32Z</time>
</trkpt>
<trkpt lat="46.054678" lon="11.169539">
<time>2020-10-28T18:46:33Z</time>
</trkpt>
<trkpt lat="46.054696" lon="11.16951">
<time>2020-10-28T18:46:34Z</time>
</trkpt>
<trkpt lat="46.05471" lon="11.169487">
<time>2020-10-28T18:46:35Z</time>
</trkpt>
<trkpt lat="46.054725" lon="11.169472">
<time>2020-10-28T18:46:36Z</time>
</trkpt>
<trkpt lat="46.054735" lon="11.169474">
<time>2020-10-28T18:46:37Z</time>
</trkpt>
<trkpt lat="46.054742" lon="11.169483">
<time>2020-10-28T18:46:38Z</time>
</trkpt>
<trkpt lat="46.054748" lon="11.169495">
<time>2020-10-28T18:46:39Z</time>
</trkpt>
<trkpt lat="46.054744" lon="11.169503">
<time>2020-10-28T18:46:40Z</time>
</trkpt>
<trkpt lat="46.054743" lon="11.169506">
<time>2020-10-28T18:46:41Z</time>
</trkpt>
<trkpt lat="46.054749" lon="11.169504">
<time>2020-10-28T18:46:42Z</time>
</trkpt>
<trkpt lat="46.054762" lon="11.1695">
<time>2020-10-28T18:46:43Z</time>
</trkpt>
<trkpt lat="46.054774" lon="11.169489">
<time>2020-10-28T18:46:44Z</time>
</trkpt>
<trkpt lat="46.054789" lon="11.169475">
<time>2020-10-28T18:46:45Z</time>
</trkpt>
<trkpt lat="46.054799" lon="11.169462">
<time>2020-10-28T18:46:46Z</time>
</trkpt>
<trkpt lat="46.054805" lon="11.169449">
<time>2020-10-28T18:46:47Z</time>
</trkpt>
<trkpt lat="46.054808" lon="11.169434">
<time>2020-10-28T18:46:48Z</time>
</trkpt>
<trkpt lat="46.054811" lon="11.169419">
<time>2020-10-28T18:46:49Z</time>
</trkpt>
<trkpt lat="46.054815" lon="11.169404">
<time>2020-10-28T18:46:50Z</time>
</trkpt>
<trkpt lat="46.054817" lon="11.169388">
<time>2020-10-28T18:46:51Z</time>
</trkpt>
<trkpt lat="46.05482" lon="11.169376">
<time>2020-10-28T18:46:52Z</time>
</trkpt>
<trkpt lat="46.054828" lon="11.169366">
<time>2020-10-28T18:46:53Z</time>
</trkpt>
<trkpt lat="46.054837" lon="11.169352">
<time>2020-10-28T18:46:54Z</time>
</trkpt>
<trkpt lat="46.054846" lon="11.169329">
<time>2020-10-28T18:46:55Z</time>
</trkpt>
<trkpt lat="46.054853" lon="11.169308">
<time>2020-10-28T18:46:56Z</time>
</trkpt>
<trkpt lat="46.054861" lon="11.169291">
<time>2020-10-28T18:46:57Z</time>
</trkpt>
<trkpt lat="46.054866" lon="11.169277">
<time>2020-10-28T18:46:58Z</time>
</trkpt>
<trkpt lat="46.054871" lon="11.169263">
<time>2020-10-28T18:46:59Z</time>
</trkpt>
<trkpt lat="46.054873" lon="11.169245">
<time>2020-10-28T18:47:00Z</time>
</trkpt>
<trkpt lat="46.054872" lon="11.169232">
<time>2020-10-28T18:47:01Z</time>
</trkpt>
<trkpt lat="46.05487" lon="11.169222">
<time>2020-10-28T18:47:02Z</time>
</trkpt>
<trkpt lat="46.054876" lon="11.169217">
<time>2020-10-28T18:47:03Z</time>
</trkpt>
<trkpt lat="46.054885" lon="11.169208">
<time>2020-10-28T18:47:04Z</time>
</trkpt>
<trkpt lat="46.054896" lon="11.169197">
<time>2020-10-28T18:47:05Z</time>
</trkpt>
<trkpt lat="46.054907" lon="11.169185">
<time>2020-10-28T18:47:06Z</time>
</trkpt>
<trkpt lat="46.054918" lon="11.169166">
<time>2020-10-28T18:47:07Z</time>
</trkpt>
<trkpt lat="46.054925" lon="11.169145">
<time>2020-10-28T18:47:08Z</time>
</trkpt>
<trkpt lat="46.054932" lon="11.169121">
<time>2020-10-28T18:47:09Z</time>
</trkpt>
<trkpt lat="46.054933" lon="11.1691">
<time>2020-10-28T18:47:10Z</time>
</trkpt>
<trkpt lat="46.054933" lon="11.169086">
<time>2020-10-28T18:47:11Z</time>
</trkpt>
<trkpt lat="46.054928" lon="11.169071">
<time>2020-10-28T18:47:12Z</time>
</trkpt>
<trkpt lat="46.05492" lon="11.169053">
<time>2020-10-28T18:47:13Z</time>
</trkpt>
<trkpt lat="46.054912" lon="11.169038">
<time>2020-10-28T18:47:14Z</time>
</trkpt>
<trkpt lat="46.054907" lon="11.169021">
<time>2020-10-28T18:47:15Z</time>
</trkpt>
<trkpt lat="46.054905" lon="11.169003">
<time>2020-10-28T18:47:16Z</time>
</trkpt>
<trkpt lat="46.054901" lon="11.16898">
<time>2020-10-28T18:47:17Z</time>
</trkpt>
<trkpt lat="46.054895" lon="11.168957">
<time>2020-10-28T18:47:18Z</time>
</trkpt>
<trkpt lat="46.054889" lon="11.168936">
<time>2020-10-28T18:47:19Z</time>
</trkpt>
<trkpt lat="46.054888" lon="11.168916">
<time>2020-10-28T18:47:20Z</time>
</trkpt>
<trkpt lat="46.054891" lon="11.168895">
<time>2020-10-28T18:47:21Z</time>
</trkpt>
<trkpt lat="46.054896" lon="11.168872">
<time>2020-10-28T18:47:22Z</time>
</trkpt>
<trkpt lat="46.054897" lon="11.168854">
<time>2020-10-28T18:47:23Z</time>
</trkpt>
<trkpt lat="46.054899" lon="11.16884">
<time>2020-10-28T18:47:24Z</time>
</trkpt>
<trkpt lat="46.054895" lon="11.168831">
<time>2020-10-28T18:47:25Z</time>
</trkpt>
<trkpt lat="46.054887" lon="11.168817">
<time>2020-10-28T18:47:26Z</time>
</trkpt>
<trkpt lat="46.054876" lon="11.168801">
<time>2020-10-28T18:47:27Z</time>
</trkpt>
<trkpt lat="46.054867" lon="11.168785">
<time>2020-10-28T18:47:28Z</time>
</trkpt>
<trkpt lat="46.054861" lon="11.168769">
<time>2020-10-28T18:47:29Z</time>
</trkpt>
<trkpt lat="46.054863" lon="11.168757">
<time>2020-10-28T18:47:30Z</time>
</trkpt>
<trkpt lat="46.054874" lon="11.168738">
<time>2020-10-28T18:47:31Z</time>
</trkpt>
<trkpt lat="46.054882" lon="11.168725">
<time>2020-10-28T18:47:32Z</time>
</trkpt>
<trkpt lat="46.054888" lon="11.168713">
<time>2020-10-28T18:47:33Z</time>
</trkpt>
<trkpt lat="46.054893" lon="11.168701">
<time>2020-10-28T18:47:34Z</time>
</trkpt>
<trkpt lat="46.05489" lon="11.168693">
<time>2020-10-28T18:47:35Z</time>
</trkpt>
<trkpt lat="46.054885" lon="11.168682">
<time>2020-10-28T18:47:36Z</time>
</trkpt>
<trkpt lat="46.054884" lon="11.168666">
<time>2020-10-28T18:47:37Z</time>
</trkpt>
<trkpt lat="46.054886" lon="11.168648">
<time>2020-10-28T18:47:38Z</time>
</trkpt>
<trkpt lat="46.054888" lon="11.168633">
<time>2020-10-28T18:47:39Z</time>
</trkpt>
<trkpt lat="46.054892" lon="11.168623">
<time>2020-10-28T18:47:40Z</time>
</trkpt>
<trkpt lat="46.054893" lon="11.168616">
<time>2020-10-28T18:47:41Z</time>
</trkpt>
<trkpt lat="46.054892" lon="11.168612">
<time>2020-10-28T18:47:42Z</time>
</trkpt>
<trkpt lat="46.054897" lon="11.168607">
<time>2020-10-28T18:47:43Z</time>
</trkpt>
<trkpt lat="46.054897" lon="11.168601">
<time>2020-10-28T18:47:44Z</time>
</trkpt>
<trkpt lat="46.054897" lon="11.16859">
<time>2020-10-28T18:47:45Z</time>
</trkpt>
<trkpt lat="46.054894" lon="11.168573">
<time>2020-10-28T18:47:46Z</time>
</trkpt>
<trkpt lat="46.054892" lon="11.168555">
<time>2020-10-28T18:47:47Z</time>
</trkpt>
<trkpt lat="46.054889" lon="11.168543">
<time>2020-10-28T18:47:48Z</time>
</trkpt>
<trkpt lat="46.05489" lon="11.168531">
<time>2020-10-28T18:47:49Z</time>
</trkpt>
<trkpt lat="46.05489" lon="11.168518">
<time>2020-10-28T18:47:50Z</time>
</trkpt>
<trkpt lat="46.05489" lon="11.168505">
<time>2020-10-28T18:47:51Z</time>
</trkpt>
<trkpt lat="46.054887" lon="11.168494">
<time>2020-10-28T18:47:52Z</time>
</trkpt>
<trkpt lat="46.054883" lon="11.168481">
<time>2020-10-28T18:47:53Z</time>
</trkpt>
<trkpt lat="46.054881" lon="11.168468">
<time>2020-10-28T18:47:54Z</time>
</trkpt>
<trkpt lat="46.054882" lon="11.168454">
<time>2020-10-28T18:47:55Z</time>
</trkpt>
<trkpt lat="46.054879" lon="11.168434">
<time>2020-10-28T18:47:56Z</time>
</trkpt>
<trkpt lat="46.054874" lon="11.168412">
<time>2020-10-28T18:47:57Z</time>
</trkpt>
<trkpt lat="46.054864" lon="11.16839">
<time>2020-10-28T18:47:58Z</time>
</trkpt>
<trkpt lat="46.054856" lon="11.168364">
<time>2020-10-28T18:47:59Z</time>
</trkpt>
<trkpt lat="46.054849" lon="11.168341">
<time>2020-10-28T18:48:00Z</time>
</trkpt>
<trkpt lat="46.054853" lon="11.168319">
<time>2020-10-28T18:48:01Z</time>
</trkpt>
<trkpt lat="46.054865" lon="11.168297">
<time>2020-10-28T18:48:02Z</time>
</trkpt>
<trkpt lat="46.054872" lon="11.168267">
<time>2020-10-28T18:48:03Z</time>
</trkpt>
<trkpt lat="46.054877" lon="11.168248">
<time>2020-10-28T18:48:04Z</time>
</trkpt>
<trkpt lat="46.054883" lon="11.168213">
<time>2020-10-28T18:48:05Z</time>
</trkpt>
<trkpt lat="46.054875" lon="11.168192">
<time>2020-10-28T18:48:06Z</time>
</trkpt>
<trkpt lat="46.054863" lon="11.168181">
<time>2020-10-28T18:48:07Z</time>
</trkpt>
<trkpt lat="46.054853" lon="11.168173">
<time>2020-10-28T18:48:08Z</time>
</trkpt>
<trkpt lat="46.054846" lon="11.168167">
<time>2020-10-28T18:48:09Z</time>
</trkpt>
<trkpt lat="46.05484" lon="11.168166">
<time>2020-10-28T18:48:10Z</time>
</trkpt>
<trkpt lat="46.054834" lon="11.168163">
<time>2020-10-28T18:48:11Z</time>
</trkpt>
<trkpt lat="46.054827" lon="11.168159">
<time>2020-10-28T18:48:12Z</time>
</trkpt>
<trkpt lat="46.054819" lon="11.168155">
<time>2020-10-28T18:48:13Z</time>
</trkpt>
<trkpt lat="46.054815" lon="11.168146">
<time>2020-10-28T18:48:14Z</time>
</trkpt>
<trkpt lat="46.05481" lon="11.168136">
<time>2020-10-28T18:48:15Z</time>
</trkpt>
<trkpt lat="46.054805" lon="11.168123">
<time>2020-10-28T18:48:16Z</time>
</trkpt>
<trkpt lat="46.054802" lon="11.168114">
<time>2020-10-28T18:48:17Z</time>
</trkpt>
<trkpt lat="46.054797" lon="11.168105">
<time>2020-10-28T18:48:18Z</time>
</trkpt>
<trkpt lat="46.054789" lon="11.168103">
<time>2020-10-28T18:48:19Z</time>
</trkpt>
<trkpt lat="46.054777" lon="11.168117">
<time>2020-10-28T18:48:20Z</time>
</trkpt>
<trkpt lat="46.05477" lon="11.168138">
<time>2020-10-28T18:48:21Z</time>
</trkpt>
<trkpt lat="46.054769" lon="11.168163">
<time>2020-10-28T18:48:22Z</time>
</trkpt>
<trkpt lat="46.054757" lon="11.168188">
<time>2020-10-28T18:48:23Z</time>
</trkpt>
<trkpt lat="46.054747" lon="11.168205">
<time>2020-10-28T18:48:24Z</time>
</trkpt>
<trkpt lat="46.054735" lon="11.168217">
<time>2020-10-28T18:48:25Z</time>
</trkpt>
<trkpt lat="46.054726" lon="11.168228">
<time>2020-10-28T18:48:26Z</time>
</trkpt>
<trkpt lat="46.05472" lon="11.168235">
<time>2020-10-28T18:48:27Z</time>
</trkpt>
<trkpt lat="46.05472" lon="11.168239">
<time>2020-10-28T18:48:28Z</time>
</trkpt>
<trkpt lat="46.05472" lon="11.168245">
<time>2020-10-28T18:48:29Z</time>
</trkpt>
<trkpt lat="46.054722" lon="11.168256">
<time>2020-10-28T18:48:30Z</time>
</trkpt>
<trkpt lat="46.054723" lon="11.168268">
<time>2020-10-28T18:48:31Z</time>
</trkpt>
<trkpt lat="46.054724" lon="11.168275">
<time>2020-10-28T18:48:32Z</time>
</trkpt>
<trkpt lat="46.054725" lon="11.16828">
<time>2020-10-28T18:48:33Z</time>
</trkpt>
<trkpt lat="46.054723" lon="11.168287">
<time>2020-10-28T18:48:34Z</time>
</trkpt>
<trkpt lat="46.054724" lon="11.168295">
<time>2020-10-28T18:48:35Z</time>
</trkpt>
<trkpt lat="46.054721" lon="11.168302">
<time>2020-10-28T18:48:36Z</time>
</trkpt>
<trkpt lat="46.054714" lon="11.168302">
<time>2020-10-28T18:48:37Z</time>
</trkpt>
<trkpt lat="46.054708" lon="11.168305">
<time>2020-10-28T18:48:38Z</time>
</trkpt>
<trkpt lat="46.054702" lon="11.168311">
<time>2020-10-28T18:48:39Z</time>
</trkpt>
<trkpt lat="46.054697" lon="11.168315">
<time>2020-10-28T18:48:40Z</time>
</trkpt>
<trkpt lat="46.054693" lon="11.168307">
<time>2020-10-28T18:48:41Z</time>
</trkpt>
<trkpt lat="46.054693" lon="11.168298">
<time>2020-10-28T18:48:42Z</time>
</trkpt>
<trkpt lat="46.054694" lon="11.168288">
<time>2020-10-28T18:48:43Z</time>
</trkpt>
<trkpt lat="46.054694" lon="11.168274">
<time>2020-10-28T18:48:44Z</time>
</trkpt>
<trkpt lat="46.054692" lon="11.168258">
<time>2020-10-28T18:48:45Z</time>
</trkpt>
<trkpt lat="46.054683" lon="11.168247">
<time>2020-10-28T18:48:46Z</time>
</trkpt>
<trkpt lat="46.05467" lon="11.168247">
<time>2020-10-28T18:48:47Z</time>
</trkpt>
<trkpt lat="46.054656" lon="11.168253">
<time>2020-10-28T18:48:48Z</time>
</trkpt>
<trkpt lat="46.054644" lon="11.168255">
<time>2020-10-28T18:48:49Z</time>
</trkpt>
<trkpt lat="46.054629" lon="11.168256">
<time>2020-10-28T18:48:50Z</time>
</trkpt>
<trkpt lat="46.054612" lon="11.168257">
<time>2020-10-28T18:48:51Z</time>
</trkpt>
<trkpt lat="46.054598" lon="11.168257">
<time>2020-10-28T18:48:52Z</time>
</trkpt>
<trkpt lat="46.054589" lon="11.168259">
<time>2020-10-28T18:48:53Z</time>
</trkpt>
<trkpt lat="46.05458" lon="11.168263">
<time>2020-10-28T18:48:54Z</time>
</trkpt>
<trkpt lat="46.054574" lon="11.168266">
<time>2020-10-28T18:48:55Z</time>
</trkpt>
<trkpt lat="46.054565" lon="11.168271">
<time>2020-10-28T18:48:56Z</time>
</trkpt>
<trkpt lat="46.054558" lon="11.16827">
<time>2020-10-28T18:48:57Z</time>
</trkpt>
<trkpt lat="46.054549" lon="11.168268">
<time>2020-10-28T18:48:58Z</time>
</trkpt>
<trkpt lat="46.054536" lon="11.168263">
<time>2020-10-28T18:48:59Z</time>
</trkpt>
<trkpt lat="46.054521" lon="11.168261">
<time>2020-10-28T18:49:00Z</time>
</trkpt>
<trkpt lat="46.054508" lon="11.168258">
<time>2020-10-28T18:49:01Z</time>
</trkpt>
<trkpt lat="46.054494" lon="11.168252">
<time>2020-10-28T18:49:02Z</time>
</trkpt>
<trkpt lat="46.054474" lon="11.168249">
<time>2020-10-28T18:49:03Z</time>
</trkpt>
<trkpt lat="46.054452" lon="11.168246">
<time>2020-10-28T18:49:04Z</time>
</trkpt>
<trkpt lat="46.05443" lon="11.168245">
<time>2020-10-28T18:49:05Z</time>
</trkpt>
<trkpt lat="46.054408" lon="11.168239">
<time>2020-10-28T18:49:06Z</time>
</trkpt>
<trkpt lat="46.054389" lon="11.168238">
<time>2020-10-28T18:49:07Z</time>
</trkpt>
<trkpt lat="46.054375" lon="11.168243">
<time>2020-10-28T18:49:08Z</time>
</trkpt>
<trkpt lat="46.054355" lon="11.16824">
<time>2020-10-28T18:49:09Z</time>
</trkpt>
<trkpt lat="46.054339" lon="11.168241">
<time>2020-10-28T18:49:10Z</time>
</trkpt>
<trkpt lat="46.054324" lon="11.168251">
<time>2020-10-28T18:49:11Z</time>
</trkpt>
<trkpt lat="46.054311" lon="11.168265">
<time>2020-10-28T18:49:12Z</time>
</trkpt>
<trkpt lat="46.054297" lon="11.168273">
<time>2020-10-28T18:49:13Z</time>
</trkpt>
<trkpt lat="46.054287" lon="11.168278">
<time>2020-10-28T18:49:14Z</time>
</trkpt>
<trkpt lat="46.054279" lon="11.168284">
<time>2020-10-28T18:49:15Z</time>
</trkpt>
<trkpt lat="46.054271" lon="11.168292">
<time>2020-10-28T18:49:16Z</time>
</trkpt>
<trkpt lat="46.054268" lon="11.168298">
<time>2020-10-28T18:49:17Z</time>
</trkpt>
<trkpt lat="46.054262" lon="11.168299">
<time>2020-10-28T18:49:18Z</time>
</trkpt>
<trkpt lat="46.054251" lon="11.168301">
<time>2020-10-28T18:49:19Z</time>
</trkpt>
<trkpt lat="46.05424" lon="11.168299">
<time>2020-10-28T18:49:20Z</time>
</trkpt>
<trkpt lat="46.054227" lon="11.168311">
<time>2020-10-28T18:49:21Z</time>
</trkpt>
<trkpt lat="46.054221" lon="11.168327">
<time>2020-10-28T18:49:22Z</time>
</trkpt>
<trkpt lat="46.054214" lon="11.168342">
<time>2020-10-28T18:49:23Z</time>
</trkpt>
<trkpt lat="46.054208" lon="11.168358">
<time>2020-10-28T18:49:24Z</time>
</trkpt>
<trkpt lat="46.054203" lon="11.168364">
<time>2020-10-28T18:49:25Z</time>
</trkpt>
<trkpt lat="46.054197" lon="11.168362">
<time>2020-10-28T18:49:26Z</time>
</trkpt>
<trkpt lat="46.054193" lon="11.168358">
<time>2020-10-28T18:49:27Z</time>
</trkpt>
<trkpt lat="46.054195" lon="11.168355">
<time>2020-10-28T18:49:28Z</time>
</trkpt>
<trkpt lat="46.054199" lon="11.168363">
<time>2020-10-28T18:49:29Z</time>
</trkpt>
<trkpt lat="46.054205" lon="11.168376">
<time>2020-10-28T18:49:30Z</time>
</trkpt>
<trkpt lat="46.054215" lon="11.168383">
<time>2020-10-28T18:49:31Z</time>
</trkpt>
<trkpt lat="46.054223" lon="11.168384">
<time>2020-10-28T18:49:32Z</time>
</trkpt>
<trkpt lat="46.054222" lon="11.168386">
<time>2020-10-28T18:49:33Z</time>
</trkpt>
<trkpt lat="46.054222" lon="11.168392">
<time>2020-10-28T18:49:34Z</time>
</trkpt>
<trkpt lat="46.054222" lon="11.168398">
<time>2020-10-28T18:49:35Z</time>
</trkpt>
<trkpt lat="46.054219" lon="11.168406">
<time>2020-10-28T18:49:36Z</time>
</trkpt>
<trkpt lat="46.054214" lon="11.168412">
<time>2020-10-28T18:49:37Z</time>
</trkpt>
<trkpt lat="46.054208" lon="11.168414">
<time>2020-10-28T18:49:38Z</time>
</trkpt>
<trkpt lat="46.054206" lon="11.168417">
<time>2020-10-28T18:49:39Z</time>
</trkpt>
<trkpt lat="46.054205" lon="11.168419">
<time>2020-10-28T18:49:40Z</time>
</trkpt>
<trkpt lat="46.054204" lon="11.168421">
<time>2020-10-28T18:49:41Z</time>
</trkpt>
<trkpt lat="46.054202" lon="11.168424">
<time>2020-10-28T18:49:42Z</time>
</trkpt>
<trkpt lat="46.054201" lon="11.16843">
<time>2020-10-28T18:49:43Z</time>
</trkpt>
<trkpt lat="46.0542" lon="11.168436">
<time>2020-10-28T18:49:44Z</time>
</trkpt>
<trkpt lat="46.054196" lon="11.168433">
<time>2020-10-28T18:49:45Z</time>
</trkpt>
<trkpt lat="46.054191" lon="11.168431">
<time>2020-10-28T18:49:46Z</time>
</trkpt>
<trkpt lat="46.054182" lon="11.168437">
<time>2020-10-28T18:49:47Z</time>
</trkpt>
<trkpt lat="46.054174" lon="11.168442">
<time>2020-10-28T18:49:48Z</time>
</trkpt>
<trkpt lat="46.054167" lon="11.168449">
<time>2020-10-28T18:49:49Z</time>
</trkpt>
<trkpt lat="46.05416" lon="11.16845">
<time>2020-10-28T18:49:50Z</time>
</trkpt>
<trkpt lat="46.05415" lon="11.168451">
<time>2020-10-28T18:49:51Z</time>
</trkpt>
<trkpt lat="46.054144" lon="11.168454">
<time>2020-10-28T18:49:52Z</time>
</trkpt>
<trkpt lat="46.054136" lon="11.168465">
<time>2020-10-28T18:49:53Z</time>
</trkpt>
<trkpt lat="46.054131" lon="11.168465">
<time>2020-10-28T18:49:54Z</time>
</trkpt>
<trkpt lat="46.054124" lon="11.168464">
<time>2020-10-28T18:49:55Z</time>
</trkpt>
<trkpt lat="46.054119" lon="11.168464">
<time>2020-10-28T18:49:56Z</time>
</trkpt>
<trkpt lat="46.054113" lon="11.168465">
<time>2020-10-28T18:49:57Z</time>
</trkpt>
<trkpt lat="46.054101" lon="11.168468">
<time>2020-10-28T18:49:58Z</time>
</trkpt>
<trkpt lat="46.054088" lon="11.168473">
<time>2020-10-28T18:49:59Z</time>
</trkpt>
<trkpt lat="46.054078" lon="11.168475">
<time>2020-10-28T18:50:00Z</time>
</trkpt>
<trkpt lat="46.05407" lon="11.168474">
<time>2020-10-28T18:50:01Z</time>
</trkpt>
<trkpt lat="46.054063" lon="11.16848">
<time>2020-10-28T18:50:02Z</time>
</trkpt>
<trkpt lat="46.054063" lon="11.168489">
<time>2020-10-28T18:50:03Z</time>
</trkpt>
<trkpt lat="46.054059" lon="11.168499">
<time>2020-10-28T18:50:04Z</time>
</trkpt>
<trkpt lat="46.054048" lon="11.168511">
<time>2020-10-28T18:50:05Z</time>
</trkpt>
<trkpt lat="46.054037" lon="11.168528">
<time>2020-10-28T18:50:06Z</time>
</trkpt>
<trkpt lat="46.054027" lon="11.168543">
<time>2020-10-28T18:50:07Z</time>
</trkpt>
<trkpt lat="46.054014" lon="11.168551">
<time>2020-10-28T18:50:08Z</time>
</trkpt>
<trkpt lat="46.054006" lon="11.168549">
<time>2020-10-28T18:50:09Z</time>
</trkpt>
<trkpt lat="46.053997" lon="11.168543">
<time>2020-10-28T18:50:10Z</time>
</trkpt>
<trkpt lat="46.053989" lon="11.168535">
<time>2020-10-28T18:50:11Z</time>
</trkpt>
<trkpt lat="46.053981" lon="11.168526">
<time>2020-10-28T18:50:12Z</time>
</trkpt>
<trkpt lat="46.053971" lon="11.168517">
<time>2020-10-28T18:50:13Z</time>
</trkpt>
<trkpt lat="46.053961" lon="11.168505">
<time>2020-10-28T18:50:14Z</time>
</trkpt>
<trkpt lat="46.053952" lon="11.168495">
<time>2020-10-28T18:50:15Z</time>
</trkpt>
<trkpt lat="46.053945" lon="11.168491">
<time>2020-10-28T18:50:16Z</time>
</trkpt>
<trkpt lat="46.053928" lon="11.168492">
<time>2020-10-28T18:50:17Z</time>
</trkpt>
<trkpt lat="46.053916" lon="11.168493">
<time>2020-10-28T18:50:18Z</time>
</trkpt>
<trkpt lat="46.053903" lon="11.168505">
<time>2020-10-28T18:50:19Z</time>
</trkpt>
<trkpt lat="46.053891" lon="11.168516">
<time>2020-10-28T18:50:20Z</time>
</trkpt>
<trkpt lat="46.053872" lon="11.168514">
<time>2020-10-28T18:50:21Z</time>
</trkpt>
<trkpt lat="46.053853" lon="11.168521">
<time>2020-10-28T18:50:22Z</time>
</trkpt>
<trkpt lat="46.053833" lon="11.168531">
<time>2020-10-28T18:50:23Z</time>
</trkpt>
<trkpt lat="46.053817" lon="11.168537">
<time>2020-10-28T18:50:24Z</time>
</trkpt>
<trkpt lat="46.053804" lon="11.168538">
<time>2020-10-28T18:50:25Z</time>
</trkpt>
<trkpt lat="46.053795" lon="11.168535">
<time>2020-10-28T18:50:26Z</time>
</trkpt>
<trkpt lat="46.053791" lon="11.168532">
<time>2020-10-28T18:50:27Z</time>
</trkpt>
<trkpt lat="46.05378" lon="11.168528">
<time>2020-10-28T18:50:28Z</time>
</trkpt>
<trkpt lat="46.053773" lon="11.168526">
<time>2020-10-28T18:50:29Z</time>
</trkpt>
<trkpt lat="46.053772" lon="11.168525">
<time>2020-10-28T18:50:30Z</time>
</trkpt>
<trkpt lat="46.053771" lon="11.168523">
<time>2020-10-28T18:50:31Z</time>
</trkpt>
<trkpt lat="46.053768" lon="11.168526">
<time>2020-10-28T18:50:32Z</time>
</trkpt>
<trkpt lat="46.05376" lon="11.16853">
<time>2020-10-28T18:50:33Z</time>
</trkpt>
<trkpt lat="46.053747" lon="11.168531">
<time>2020-10-28T18:50:34Z</time>
</trkpt>
<trkpt lat="46.053739" lon="11.16852">
<time>2020-10-28T18:50:35Z</time>
</trkpt>
<trkpt lat="46.053729" lon="11.16851">
<time>2020-10-28T18:50:36Z</time>
</trkpt>
<trkpt lat="46.053715" lon="11.168492">
<time>2020-10-28T18:50:37Z</time>
</trkpt>
<trkpt lat="46.053701" lon="11.168481">
<time>2020-10-28T18:50:38Z</time>
</trkpt>
<trkpt lat="46.053685" lon="11.168476">
<time>2020-10-28T18:50:39Z</time>
</trkpt>
<trkpt lat="46.053669" lon="11.168478">
<time>2020-10-28T18:50:40Z</time>
</trkpt>
<trkpt lat="46.053656" lon="11.168483">
<time>2020-10-28T18:50:41Z</time>
</trkpt>
<trkpt lat="46.053647" lon="11.168481">
<time>2020-10-28T18:50:42Z</time>
</trkpt>
<trkpt lat="46.053638" lon="11.168473">
<time>2020-10-28T18:50:43Z</time>
</trkpt>
<trkpt lat="46.053625" lon="11.168461">
<time>2020-10-28T18:50:44Z</time>
</trkpt>
<trkpt lat="46.053613" lon="11.168445">
<time>2020-10-28T18:50:45Z</time>
</trkpt>
<trkpt lat="46.053599" lon="11.168436">
<time>2020-10-28T18:50:46Z</time>
</trkpt>
<trkpt lat="46.053588" lon="11.168426">
<time>2020-10-28T18:50:47Z</time>
</trkpt>
<trkpt lat="46.053578" lon="11.16842">
<time>2020-10-28T18:50:48Z</time>
</trkpt>
<trkpt lat="46.053567" lon="11.168419">
<time>2020-10-28T18:50:49Z</time>
</trkpt>
<trkpt lat="46.053557" lon="11.168411">
<time>2020-10-28T18:50:50Z</time>
</trkpt>
<trkpt lat="46.05354" lon="11.168395">
<time>2020-10-28T18:50:51Z</time>
</trkpt>
<trkpt lat="46.053516" lon="11.168376">
<time>2020-10-28T18:50:52Z</time>
</trkpt>
<trkpt lat="46.053493" lon="11.168363">
<time>2020-10-28T18:50:53Z</time>
</trkpt>
<trkpt lat="46.053467" lon="11.168352">
<time>2020-10-28T18:50:54Z</time>
</trkpt>
<trkpt lat="46.053451" lon="11.168348">
<time>2020-10-28T18:50:55Z</time>
</trkpt>
<trkpt lat="46.053439" lon="11.168341">
<time>2020-10-28T18:50:56Z</time>
</trkpt>
<trkpt lat="46.053426" lon="11.168338">
<time>2020-10-28T18:50:57Z</time>
</trkpt>
<trkpt lat="46.053413" lon="11.168335">
<time>2020-10-28T18:50:58Z</time>
</trkpt>
<trkpt lat="46.053399" lon="11.168334">
<time>2020-10-28T18:50:59Z</time>
</trkpt>
<trkpt lat="46.053386" lon="11.168329">
<time>2020-10-28T18:51:00Z</time>
</trkpt>
<trkpt lat="46.053373" lon="11.16832">
<time>2020-10-28T18:51:01Z</time>
</trkpt>
<trkpt lat="46.053365" lon="11.168312">
<time>2020-10-28T18:51:02Z</time>
</trkpt>
<trkpt lat="46.053359" lon="11.1683">
<time>2020-10-28T18:51:03Z</time>
</trkpt>
<trkpt lat="46.053359" lon="11.168296">
<time>2020-10-28T18:51:04Z</time>
</trkpt>
<trkpt lat="46.05336" lon="11.168293">
<time>2020-10-28T18:51:05Z</time>
</trkpt>
<trkpt lat="46.053364" lon="11.168292">
<time>2020-10-28T18:51:06Z</time>
</trkpt>
<trkpt lat="46.053366" lon="11.168289">
<time>2020-10-28T18:51:07Z</time>
</trkpt>
<trkpt lat="46.053361" lon="11.168283">
<time>2020-10-28T18:51:08Z</time>
</trkpt>
<trkpt lat="46.053353" lon="11.168274">
<time>2020-10-28T18:51:09Z</time>
</trkpt>
<trkpt lat="46.053341" lon="11.16826">
<time>2020-10-28T18:51:10Z</time>
</trkpt>
<trkpt lat="46.053324" lon="11.168247">
<time>2020-10-28T18:51:11Z</time>
</trkpt>
<trkpt lat="46.053311" lon="11.168234">
<time>2020-10-28T18:51:12Z</time>
</trkpt>
<trkpt lat="46.053304" lon="11.168224">
<time>2020-10-28T18:51:13Z</time>
</trkpt>
<trkpt lat="46.053296" lon="11.168218">
<time>2020-10-28T18:51:14Z</time>
</trkpt>
<trkpt lat="46.053289" lon="11.168211">
<time>2020-10-28T18:51:15Z</time>
</trkpt>
<trkpt lat="46.053282" lon="11.168198">
<time>2020-10-28T18:51:16Z</time>
</trkpt>
<trkpt lat="46.053274" lon="11.168184">
<time>2020-10-28T18:51:17Z</time>
</trkpt>
<trkpt lat="46.053264" lon="11.168177">
<time>2020-10-28T18:51:18Z</time>
</trkpt>
<trkpt lat="46.053252" lon="11.168175">
<time>2020-10-28T18:51:19Z</time>
</trkpt>
<trkpt lat="46.053239" lon="11.16817">
<time>2020-10-28T18:51:20Z</time>
</trkpt>
<trkpt lat="46.053227" lon="11.168161">
<time>2020-10-28T18:51:21Z</time>
</trkpt>
<trkpt lat="46.053217" lon="11.168151">
<time>2020-10-28T18:51:22Z</time>
</trkpt>
<trkpt lat="46.053209" lon="11.168144">
<time>2020-10-28T18:51:23Z</time>
</trkpt>
<trkpt lat="46.053197" lon="11.168135">
<time>2020-10-28T18:51:24Z</time>
</trkpt>
<trkpt lat="46.053187" lon="11.16813">
<time>2020-10-28T18:51:25Z</time>
</trkpt>
<trkpt lat="46.053175" lon="11.16812">
<time>2020-10-28T18:51:26Z</time>
</trkpt>
<trkpt lat="46.053168" lon="11.168109">
<time>2020-10-28T18:51:27Z</time>
</trkpt>
<trkpt lat="46.053163" lon="11.168102">
<time>2020-10-28T18:51:28Z</time>
</trkpt>
<trkpt lat="46.053154" lon="11.168094">
<time>2020-10-28T18:51:29Z</time>
</trkpt>
<trkpt lat="46.053144" lon="11.168083">
<time>2020-10-28T18:51:30Z</time>
</trkpt>
<trkpt lat="46.053134" lon="11.168073">
<time>2020-10-28T18:51:31Z</time>
</trkpt>
<trkpt lat="46.053122" lon="11.168062">
<time>2020-10-28T18:51:32Z</time>
</trkpt>
<trkpt lat="46.053107" lon="11.168048">
<time>2020-10-28T18:51:33Z</time>
</trkpt>
<trkpt lat="46.0531" lon="11.168031">
<time>2020-10-28T18:51:34Z</time>
</trkpt>
<trkpt lat="46.053099" lon="11.168018">
<time>2020-10-28T18:51:35Z</time>
</trkpt>
<trkpt lat="46.053101" lon="11.168013">
<time>2020-10-28T18:51:36Z</time>
</trkpt>
<trkpt lat="46.053101" lon="11.168003">
<time>2020-10-28T18:51:37Z</time>
</trkpt>
<trkpt lat="46.053098" lon="11.167992">
<time>2020-10-28T18:51:38Z</time>
</trkpt>
<trkpt lat="46.05309" lon="11.167981">
<time>2020-10-28T18:51:39Z</time>
</trkpt>
<trkpt lat="46.05308" lon="11.167965">
<time>2020-10-28T18:51:40Z</time>
</trkpt>
<trkpt lat="46.053069" lon="11.167946">
<time>2020-10-28T18:51:41Z</time>
</trkpt>
<trkpt lat="46.053062" lon="11.167926">
<time>2020-10-28T18:51:42Z</time>
</trkpt>
<trkpt lat="46.053055" lon="11.167906">
<time>2020-10-28T18:51:43Z</time>
</trkpt>
<trkpt lat="46.053051" lon="11.167886">
<time>2020-10-28T18:51:44Z</time>
</trkpt>
<trkpt lat="46.053048" lon="11.167873">
<time>2020-10-28T18:51:45Z</time>
</trkpt>
<trkpt lat="46.053041" lon="11.167863">
<time>2020-10-28T18:51:46Z</time>
</trkpt>
<trkpt lat="46.053034" lon="11.167857">
<time>2020-10-28T18:51:47Z</time>
</trkpt>
<trkpt lat="46.053024" lon="11.167845">
<time>2020-10-28T18:51:48Z</time>
</trkpt>
<trkpt lat="46.053013" lon="11.167825">
<time>2020-10-28T18:51:49Z</time>
</trkpt>
<trkpt lat="46.052997" lon="11.1678">
<time>2020-10-28T18:51:50Z</time>
</trkpt>
<trkpt lat="46.052975" lon="11.167776">
<time>2020-10-28T18:51:51Z</time>
</trkpt>
<trkpt lat="46.052953" lon="11.167751">
<time>2020-10-28T18:51:52Z</time>
</trkpt>
<trkpt lat="46.052937" lon="11.167729">
<time>2020-10-28T18:51:53Z</time>
</trkpt>
<trkpt lat="46.05292" lon="11.167716">
<time>2020-10-28T18:51:54Z</time>
</trkpt>
<trkpt lat="46.05291" lon="11.167708">
<time>2020-10-28T18:51:55Z</time>
</trkpt>
<trkpt lat="46.052901" lon="11.167705">
<time>2020-10-28T18:51:56Z</time>
</trkpt>
<trkpt lat="46.052894" lon="11.167698">
<time>2020-10-28T18:51:57Z</time>
</trkpt>
<trkpt lat="46.052888" lon="11.16769">
<time>2020-10-28T18:51:58Z</time>
</trkpt>
<trkpt lat="46.052884" lon="11.167681">
<time>2020-10-28T18:51:59Z</time>
</trkpt>
<trkpt lat="46.052881" lon="11.16767">
<time>2020-10-28T18:52:00Z</time>
</trkpt>
<trkpt lat="46.052878" lon="11.167655">
<time>2020-10-28T18:52:01Z</time>
</trkpt>
<trkpt lat="46.052876" lon="11.167642">
<time>2020-10-28T18:52:02Z</time>
</trkpt>
<trkpt lat="46.052867" lon="11.16762">
<time>2020-10-28T18:52:03Z</time>
</trkpt>
<trkpt lat="46.052856" lon="11.167595">
<time>2020-10-28T18:52:04Z</time>
</trkpt>
<trkpt lat="46.052849" lon="11.167575">
<time>2020-10-28T18:52:05Z</time>
</trkpt>
<trkpt lat="46.052843" lon="11.167553">
<time>2020-10-28T18:52:06Z</time>
</trkpt>
<trkpt lat="46.05284" lon="11.16753">
<time>2020-10-28T18:52:07Z</time>
</trkpt>
<trkpt lat="46.05283" lon="11.167507">
<time>2020-10-28T18:52:08Z</time>
</trkpt>
<trkpt lat="46.052811" lon="11.167481">
<time>2020-10-28T18:52:09Z</time>
</trkpt>
<trkpt lat="46.052793" lon="11.167453">
<time>2020-10-28T18:52:10Z</time>
</trkpt>
<trkpt lat="46.052773" lon="11.167421">
<time>2020-10-28T18:52:11Z</time>
</trkpt>
<trkpt lat="46.052754" lon="11.167386">
<time>2020-10-28T18:52:12Z</time>
</trkpt>
<trkpt lat="46.052735" lon="11.167353">
<time>2020-10-28T18:52:13Z</time>
</trkpt>
<trkpt lat="46.052722" lon="11.167321">
<time>2020-10-28T18:52:14Z</time>
</trkpt>
<trkpt lat="46.052711" lon="11.1673">
<time>2020-10-28T18:52:15Z</time>
</trkpt>
<trkpt lat="46.052698" lon="11.167284">
<time>2020-10-28T18:52:16Z</time>
</trkpt>
<trkpt lat="46.052687" lon="11.167268">
<time>2020-10-28T18:52:17Z</time>
</trkpt>
<trkpt lat="46.052674" lon="11.167248">
<time>2020-10-28T18:52:18Z</time>
</trkpt>
<trkpt lat="46.052652" lon="11.167233">
<time>2020-10-28T18:52:19Z</time>
</trkpt>
<trkpt lat="46.052625" lon="11.167219">
<time>2020-10-28T18:52:20Z</time>
</trkpt>
<trkpt lat="46.052595" lon="11.167203">
<time>2020-10-28T18:52:21Z</time>
</trkpt>
<trkpt lat="46.052564" lon="11.167189">
<time>2020-10-28T18:52:22Z</time>
</trkpt>
<trkpt lat="46.052538" lon="11.167182">
<time>2020-10-28T18:52:23Z</time>
</trkpt>
<trkpt lat="46.052513" lon="11.167173">
<time>2020-10-28T18:52:24Z</time>
</trkpt>
<trkpt lat="46.05249" lon="11.167165">
<time>2020-10-28T18:52:25Z</time>
</trkpt>
<trkpt lat="46.052465" lon="11.167163">
<time>2020-10-28T18:52:26Z</time>
</trkpt>
<trkpt lat="46.052442" lon="11.167162">
<time>2020-10-28T18:52:27Z</time>
</trkpt>
<trkpt lat="46.052419" lon="11.167161">
<time>2020-10-28T18:52:28Z</time>
</trkpt>
<trkpt lat="46.052396" lon="11.16716">
<time>2020-10-28T18:52:29Z</time>
</trkpt>
<trkpt lat="46.052372" lon="11.167158">
<time>2020-10-28T18:52:30Z</time>
</trkpt>
<trkpt lat="46.052347" lon="11.167154">
<time>2020-10-28T18:52:31Z</time>
</trkpt>
<trkpt lat="46.052324" lon="11.167148">
<time>2020-10-28T18:52:32Z</time>
</trkpt>
<trkpt lat="46.052302" lon="11.167144">
<time>2020-10-28T18:52:33Z</time>
</trkpt>
<trkpt lat="46.052283" lon="11.16714">
<time>2020-10-28T18:52:34Z</time>
</trkpt>
<trkpt lat="46.052267" lon="11.167136">
<time>2020-10-28T18:52:35Z</time>
</trkpt>
<trkpt lat="46.052256" lon="11.167131">
<time>2020-10-28T18:52:36Z</time>
</trkpt>
<trkpt lat="46.052245" lon="11.16713">
<time>2020-10-28T18:52:37Z</time>
</trkpt>
<trkpt lat="46.052231" lon="11.167127">
<time>2020-10-28T18:52:38Z</time>
</trkpt>
<trkpt lat="46.052216" lon="11.16712">
<time>2020-10-28T18:52:39Z</time>
</trkpt>
<trkpt lat="46.052198" lon="11.167109">
<time>2020-10-28T18:52:40Z</time>
</trkpt>
<trkpt lat="46.052177" lon="11.167092">
<time>2020-10-28T18:52:41Z</time>
</trkpt>
<trkpt lat="46.052154" lon="11.16708">
<time>2020-10-28T18:52:42Z</time>
</trkpt>
<trkpt lat="46.052125" lon="11.167063">
<time>2020-10-28T18:52:43Z</time>
</trkpt>
<trkpt lat="46.052104" lon="11.167042">
<time>2020-10-28T18:52:44Z</time>
</trkpt>
<trkpt lat="46.052084" lon="11.167019">
<time>2020-10-28T18:52:45Z</time>
</trkpt>
<trkpt lat="46.052066" lon="11.167002">
<time>2020-10-28T18:52:46Z</time>
</trkpt>
<trkpt lat="46.052042" lon="11.166981">
<time>2020-10-28T18:52:47Z</time>
</trkpt>
<trkpt lat="46.05201" lon="11.166961">
<time>2020-10-28T18:52:48Z</time>
</trkpt>
<trkpt lat="46.051973" lon="11.166941">
<time>2020-10-28T18:52:49Z</time>
</trkpt>
<trkpt lat="46.051938" lon="11.166924">
<time>2020-10-28T18:52:50Z</time>
</trkpt>
<trkpt lat="46.051905" lon="11.166908">
<time>2020-10-28T18:52:51Z</time>
</trkpt>
<trkpt lat="46.051876" lon="11.166897">
<time>2020-10-28T18:52:52Z</time>
</trkpt>
<trkpt lat="46.051841" lon="11.166886">
<time>2020-10-28T18:52:53Z</time>
</trkpt>
<trkpt lat="46.051805" lon="11.166877">
<time>2020-10-28T18:52:54Z</time>
</trkpt>
<trkpt lat="46.051768" lon="11.166875">
<time>2020-10-28T18:52:55Z</time>
</trkpt>
<trkpt lat="46.051734" lon="11.166871">
<time>2020-10-28T18:52:56Z</time>
</trkpt>
<trkpt lat="46.051695" lon="11.166867">
<time>2020-10-28T18:52:57Z</time>
</trkpt>
<trkpt lat="46.051667" lon="11.16687">
<time>2020-10-28T18:52:58Z</time>
</trkpt>
<trkpt lat="46.051638" lon="11.166875">
<time>2020-10-28T18:52:59Z</time>
</trkpt>
<trkpt lat="46.051606" lon="11.16688">
<time>2020-10-28T18:53:00Z</time>
</trkpt>
<trkpt lat="46.051578" lon="11.166885">
<time>2020-10-28T18:53:01Z</time>
</trkpt>
<trkpt lat="46.051553" lon="11.16689">
<time>2020-10-28T18:53:02Z</time>
</trkpt>
<trkpt lat="46.051528" lon="11.166891">
<time>2020-10-28T18:53:03Z</time>
</trkpt>
<trkpt lat="46.051507" lon="11.166893">
<time>2020-10-28T18:53:04Z</time>
</trkpt>
<trkpt lat="46.051488" lon="11.166899">
<time>2020-10-28T18:53:05Z</time>
</trkpt>
<trkpt lat="46.051467" lon="11.166909">
<time>2020-10-28T18:53:06Z</time>
</trkpt>
<trkpt lat="46.05145" lon="11.166917">
<time>2020-10-28T18:53:07Z</time>
</trkpt>
<trkpt lat="46.051414" lon="11.166909">
<time>2020-10-28T18:53:08Z</time>
</trkpt>
<trkpt lat="46.051382" lon="11.166914">
<time>2020-10-28T18:53:09Z</time>
</trkpt>
<trkpt lat="46.051356" lon="11.166918">
<time>2020-10-28T18:53:10Z</time>
</trkpt>
<trkpt lat="46.051323" lon="11.166919">
<time>2020-10-28T18:53:11Z</time>
</trkpt>
<trkpt lat="46.051281" lon="11.166922">
<time>2020-10-28T18:53:12Z</time>
</trkpt>
<trkpt lat="46.051248" lon="11.166929">
<time>2020-10-28T18:53:13Z</time>
</trkpt>
<trkpt lat="46.051216" lon="11.166938">
<time>2020-10-28T18:53:14Z</time>
</trkpt>
<trkpt lat="46.051181" lon="11.166945">
<time>2020-10-28T18:53:15Z</time>
</trkpt>
<trkpt lat="46.051139" lon="11.166951">
<time>2020-10-28T18:53:16Z</time>
</trkpt>
<trkpt lat="46.051101" lon="11.16696">
<time>2020-10-28T18:53:17Z</time>
</trkpt>
<trkpt lat="46.051065" lon="11.16697">
<time>2020-10-28T18:53:18Z</time>
</trkpt>
<trkpt lat="46.051029" lon="11.16697">
<time>2020-10-28T18:53:19Z</time>
</trkpt>
<trkpt lat="46.051001" lon="11.166973">
<time>2020-10-28T18:53:20Z</time>
</trkpt>
<trkpt lat="46.050981" lon="11.166977">
<time>2020-10-28T18:53:21Z</time>
</trkpt>
<trkpt lat="46.05097" lon="11.166973">
<time>2020-10-28T18:53:22Z</time>
</trkpt>
<trkpt lat="46.050959" lon="11.166971">
<time>2020-10-28T18:53:23Z</time>
</trkpt>
<trkpt lat="46.050949" lon="11.166971">
<time>2020-10-28T18:53:24Z</time>
</trkpt>
<trkpt lat="46.050944" lon="11.166974">
<time>2020-10-28T18:53:25Z</time>
</trkpt>
<trkpt lat="46.05094" lon="11.166975">
<time>2020-10-28T18:53:26Z</time>
</trkpt>
<trkpt lat="46.050928" lon="11.166986">
<time>2020-10-28T18:53:27Z</time>
</trkpt>
<trkpt lat="46.050918" lon="11.166986">
<time>2020-10-28T18:53:28Z</time>
</trkpt>
<trkpt lat="46.050909" lon="11.166979">
<time>2020-10-28T18:53:29Z</time>
</trkpt>
<trkpt lat="46.050901" lon="11.166975">
<time>2020-10-28T18:53:30Z</time>
</trkpt>
<trkpt lat="46.050895" lon="11.16697">
<time>2020-10-28T18:53:31Z</time>
</trkpt>
<trkpt lat="46.050883" lon="11.166968">
<time>2020-10-28T18:53:32Z</time>
</trkpt>
<trkpt lat="46.050873" lon="11.166968">
<time>2020-10-28T18:53:33Z</time>
</trkpt>
<trkpt lat="46.050865" lon="11.166968">
<time>2020-10-28T18:53:34Z</time>
</trkpt>
<trkpt lat="46.050852" lon="11.166967">
<time>2020-10-28T18:53:35Z</time>
</trkpt>
<trkpt lat="46.050833" lon="11.16696">
<time>2020-10-28T18:53:36Z</time>
</trkpt>
<trkpt lat="46.050814" lon="11.166949">
<time>2020-10-28T18:53:37Z</time>
</trkpt>
<trkpt lat="46.050797" lon="11.166936">
<time>2020-10-28T18:53:38Z</time>
</trkpt>
<trkpt lat="46.050785" lon="11.166927">
<time>2020-10-28T18:53:39Z</time>
</trkpt>
<trkpt lat="46.050774" lon="11.166921">
<time>2020-10-28T18:53:40Z</time>
</trkpt>
<trkpt lat="46.050761" lon="11.166912">
<time>2020-10-28T18:53:41Z</time>
</trkpt>
<trkpt lat="46.05074" lon="11.166908">
<time>2020-10-28T18:53:42Z</time>
</trkpt>
<trkpt lat="46.050723" lon="11.166904">
<time>2020-10-28T18:53:43Z</time>
</trkpt>
<trkpt lat="46.050703" lon="11.1669">
<time>2020-10-28T18:53:44Z</time>
</trkpt>
<trkpt lat="46.050691" lon="11.166907">
<time>2020-10-28T18:53:45Z</time>
</trkpt>
<trkpt lat="46.050689" lon="11.166923">
<time>2020-10-28T18:53:46Z</time>
</trkpt>
<trkpt lat="46.050692" lon="11.166936">
<time>2020-10-28T18:53:47Z</time>
</trkpt>
<trkpt lat="46.050691" lon="11.166941">
<time>2020-10-28T18:53:48Z</time>
</trkpt>
<trkpt lat="46.050686" lon="11.166954">
<time>2020-10-28T18:53:49Z</time>
</trkpt>
<trkpt lat="46.050678" lon="11.166964">
<time>2020-10-28T18:53:50Z</time>
</trkpt>
<trkpt lat="46.050668" lon="11.16697">
<time>2020-10-28T18:53:51Z</time>
</trkpt>
<trkpt lat="46.050665" lon="11.166974">
<time>2020-10-28T18:53:52Z</time>
</trkpt>
<trkpt lat="46.050669" lon="11.166974">
<time>2020-10-28T18:53:53Z</time>
</trkpt>
<trkpt lat="46.050667" lon="11.166969">
<time>2020-10-28T18:53:54Z</time>
</trkpt>
<trkpt lat="46.050658" lon="11.166966">
<time>2020-10-28T18:53:55Z</time>
</trkpt>
<trkpt lat="46.050647" lon="11.166967">
<time>2020-10-28T18:53:56Z</time>
</trkpt>
<trkpt lat="46.050638" lon="11.166957">
<time>2020-10-28T18:53:57Z</time>
</trkpt>
<trkpt lat="46.050627" lon="11.166946">
<time>2020-10-28T18:53:58Z</time>
</trkpt>
<trkpt lat="46.050613" lon="11.166931">
<time>2020-10-28T18:53:59Z</time>
</trkpt>
<trkpt lat="46.050596" lon="11.166922">
<time>2020-10-28T18:54:00Z</time>
</trkpt>
<trkpt lat="46.050583" lon="11.166926">
<time>2020-10-28T18:54:01Z</time>
</trkpt>
<trkpt lat="46.050579" lon="11.166931">
<time>2020-10-28T18:54:02Z</time>
</trkpt>
<trkpt lat="46.050574" lon="11.166932">
<time>2020-10-28T18:54:03Z</time>
</trkpt>
<trkpt lat="46.050565" lon="11.166932">
<time>2020-10-28T18:54:04Z</time>
</trkpt>
<trkpt lat="46.050555" lon="11.166937">
<time>2020-10-28T18:54:05Z</time>
</trkpt>
<trkpt lat="46.050543" lon="11.166945">
<time>2020-10-28T18:54:06Z</time>
</trkpt>
<trkpt lat="46.05053" lon="11.166953">
<time>2020-10-28T18:54:07Z</time>
</trkpt>
<trkpt lat="46.050519" lon="11.166963">
<time>2020-10-28T18:54:08Z</time>
</trkpt>
<trkpt lat="46.050506" lon="11.166973">
<time>2020-10-28T18:54:09Z</time>
</trkpt>
<trkpt lat="46.050492" lon="11.166974">
<time>2020-10-28T18:54:10Z</time>
</trkpt>
<trkpt lat="46.050485" lon="11.166978">
<time>2020-10-28T18:54:11Z</time>
</trkpt>
<trkpt lat="46.050479" lon="11.166985">
<time>2020-10-28T18:54:12Z</time>
</trkpt>
<trkpt lat="46.050471" lon="11.166994">
<time>2020-10-28T18:54:13Z</time>
</trkpt>
<trkpt lat="46.050464" lon="11.166991">
<time>2020-10-28T18:54:14Z</time>
</trkpt>
<trkpt lat="46.050453" lon="11.166972">
<time>2020-10-28T18:54:15Z</time>
</trkpt>
<trkpt lat="46.050443" lon="11.166959">
<time>2020-10-28T18:54:16Z</time>
</trkpt>
<trkpt lat="46.050435" lon="11.166954">
<time>2020-10-28T18:54:17Z</time>
</trkpt>
<trkpt lat="46.050426" lon="11.166943">
<time>2020-10-28T18:54:18Z</time>
</trkpt>
<trkpt lat="46.050412" lon="11.166931">
<time>2020-10-28T18:54:19Z</time>
</trkpt>
<trkpt lat="46.050397" lon="11.166916">
<time>2020-10-28T18:54:20Z</time>
</trkpt>
<trkpt lat="46.050391" lon="11.166909">
<time>2020-10-28T18:54:21Z</time>
</trkpt>
<trkpt lat="46.050393" lon="11.166904">
<time>2020-10-28T18:54:22Z</time>
</trkpt>
<trkpt lat="46.050395" lon="11.1669">
<time>2020-10-28T18:54:23Z</time>
</trkpt>
<trkpt lat="46.0504" lon="11.166902">
<time>2020-10-28T18:54:24Z</time>
</trkpt>
<trkpt lat="46.05039" lon="11.166907">
<time>2020-10-28T18:54:25Z</time>
</trkpt>
<trkpt lat="46.050376" lon="11.166909">
<time>2020-10-28T18:54:26Z</time>
</trkpt>
<trkpt lat="46.050357" lon="11.166913">
<time>2020-10-28T18:54:27Z</time>
</trkpt>
<trkpt lat="46.050347" lon="11.166918">
<time>2020-10-28T18:54:28Z</time>
</trkpt>
<trkpt lat="46.050338" lon="11.166922">
<time>2020-10-28T18:54:29Z</time>
</trkpt>
<trkpt lat="46.050317" lon="11.16692">
<time>2020-10-28T18:54:30Z</time>
</trkpt>
<trkpt lat="46.0503" lon="11.166915">
<time>2020-10-28T18:54:31Z</time>
</trkpt>
<trkpt lat="46.050292" lon="11.166912">
<time>2020-10-28T18:54:32Z</time>
</trkpt>
<trkpt lat="46.050288" lon="11.166902">
<time>2020-10-28T18:54:33Z</time>
</trkpt>
<trkpt lat="46.050282" lon="11.166892">
<time>2020-10-28T18:54:34Z</time>
</trkpt>
<trkpt lat="46.050274" lon="11.166882">
<time>2020-10-28T18:54:35Z</time>
</trkpt>
<trkpt lat="46.050268" lon="11.166875">
<time>2020-10-28T18:54:36Z</time>
</trkpt>
<trkpt lat="46.05027" lon="11.16687">
<time>2020-10-28T18:54:37Z</time>
</trkpt>
<trkpt lat="46.050268" lon="11.166867">
<time>2020-10-28T18:54:38Z</time>
</trkpt>
<trkpt lat="46.050261" lon="11.166858">
<time>2020-10-28T18:54:39Z</time>
</trkpt>
<trkpt lat="46.050254" lon="11.166846">
<time>2020-10-28T18:54:40Z</time>
</trkpt>
<trkpt lat="46.050243" lon="11.166838">
<time>2020-10-28T18:54:41Z</time>
</trkpt>
<trkpt lat="46.050236" lon="11.166825">
<time>2020-10-28T18:54:42Z</time>
</trkpt>
<trkpt lat="46.050236" lon="11.166815">
<time>2020-10-28T18:54:43Z</time>
</trkpt>
<trkpt lat="46.05023" lon="11.166798">
<time>2020-10-28T18:54:44Z</time>
</trkpt>
<trkpt lat="46.050217" lon="11.16678">
<time>2020-10-28T18:54:45Z</time>
</trkpt>
<trkpt lat="46.050201" lon="11.166766">
<time>2020-10-28T18:54:46Z</time>
</trkpt>
<trkpt lat="46.050178" lon="11.166752">
<time>2020-10-28T18:54:47Z</time>
</trkpt>
<trkpt lat="46.050155" lon="11.166727">
<time>2020-10-28T18:54:48Z</time>
</trkpt>
<trkpt lat="46.050134" lon="11.166706">
<time>2020-10-28T18:54:49Z</time>
</trkpt>
<trkpt lat="46.050125" lon="11.166688">
<time>2020-10-28T18:54:50Z</time>
</trkpt>
<trkpt lat="46.050109" lon="11.166673">
<time>2020-10-28T18:54:51Z</time>
</trkpt>
<trkpt lat="46.050097" lon="11.166666">
<time>2020-10-28T18:54:52Z</time>
</trkpt>
<trkpt lat="46.050085" lon="11.166664">
<time>2020-10-28T18:54:53Z</time>
</trkpt>
<trkpt lat="46.05008" lon="11.16666">
<time>2020-10-28T18:54:54Z</time>
</trkpt>
<trkpt lat="46.050081" lon="11.166653">
<time>2020-10-28T18:54:55Z</time>
</trkpt>
<trkpt lat="46.050076" lon="11.166646">
<time>2020-10-28T18:54:56Z</time>
</trkpt>
<trkpt lat="46.05006" lon="11.166634">
<time>2020-10-28T18:54:57Z</time>
</trkpt>
<trkpt lat="46.050046" lon="11.166625">
<time>2020-10-28T18:54:58Z</time>
</trkpt>
<trkpt lat="46.050028" lon="11.166614">
<time>2020-10-28T18:54:59Z</time>
</trkpt>
<trkpt lat="46.050006" lon="11.166602">
<time>2020-10-28T18:55:00Z</time>
</trkpt>
<trkpt lat="46.049978" lon="11.166598">
<time>2020-10-28T18:55:01Z</time>
</trkpt>
<trkpt lat="46.049955" lon="11.166592">
<time>2020-10-28T18:55:02Z</time>
</trkpt>
<trkpt lat="46.049937" lon="11.16658">
<time>2020-10-28T18:55:03Z</time>
</trkpt>
<trkpt lat="46.049918" lon="11.166565">
<time>2020-10-28T18:55:04Z</time>
</trkpt>
<trkpt lat="46.049896" lon="11.16655">
<time>2020-10-28T18:55:05Z</time>
</trkpt>
<trkpt lat="46.049876" lon="11.166543">
<time>2020-10-28T18:55:06Z</time>
</trkpt>
<trkpt lat="46.049853" lon="11.16654">
<time>2020-10-28T18:55:07Z</time>
</trkpt>
<trkpt lat="46.049833" lon="11.166532">
<time>2020-10-28T18:55:08Z</time>
</trkpt>
<trkpt lat="46.049811" lon="11.166516">
<time>2020-10-28T18:55:09Z</time>
</trkpt>
<trkpt lat="46.049784" lon="11.166486">
<time>2020-10-28T18:55:10Z</time>
</trkpt>
<trkpt lat="46.049758" lon="11.166456">
<time>2020-10-28T18:55:11Z</time>
</trkpt>
<trkpt lat="46.049736" lon="11.166431">
<time>2020-10-28T18:55:12Z</time>
</trkpt>
<trkpt lat="46.049714" lon="11.16641">
<time>2020-10-28T18:55:13Z</time>
</trkpt>
<trkpt lat="46.049694" lon="11.166396">
<time>2020-10-28T18:55:14Z</time>
</trkpt>
<trkpt lat="46.049666" lon="11.166382">
<time>2020-10-28T18:55:15Z</time>
</trkpt>
<trkpt lat="46.049646" lon="11.166363">
<time>2020-10-28T18:55:16Z</time>
</trkpt>
<trkpt lat="46.049628" lon="11.166347">
<time>2020-10-28T18:55:17Z</time>
</trkpt>
<trkpt lat="46.049606" lon="11.166335">
<time>2020-10-28T18:55:18Z</time>
</trkpt>
<trkpt lat="46.049584" lon="11.166318">
<time>2020-10-28T18:55:19Z</time>
</trkpt>
<trkpt lat="46.04956" lon="11.166304">
<time>2020-10-28T18:55:20Z</time>
</trkpt>
<trkpt lat="46.049542" lon="11.166293">
<time>2020-10-28T18:55:21Z</time>
</trkpt>
<trkpt lat="46.049531" lon="11.166283">
<time>2020-10-28T18:55:22Z</time>
</trkpt>
<trkpt lat="46.049522" lon="11.16628">
<time>2020-10-28T18:55:23Z</time>
</trkpt>
<trkpt lat="46.049514" lon="11.166277">
<time>2020-10-28T18:55:24Z</time>
</trkpt>
<trkpt lat="46.049502" lon="11.166283">
<time>2020-10-28T18:55:25Z</time>
</trkpt>
<trkpt lat="46.049488" lon="11.166284">
<time>2020-10-28T18:55:26Z</time>
</trkpt>
<trkpt lat="46.04948" lon="11.166276">
<time>2020-10-28T18:55:27Z</time>
</trkpt>
<trkpt lat="46.04947" lon="11.166267">
<time>2020-10-28T18:55:28Z</time>
</trkpt>
<trkpt lat="46.04946" lon="11.166258">
<time>2020-10-28T18:55:29Z</time>
</trkpt>
<trkpt lat="46.049441" lon="11.166251">
<time>2020-10-28T18:55:30Z</time>
</trkpt>
<trkpt lat="46.049424" lon="11.166246">
<time>2020-10-28T18:55:31Z</time>
</trkpt>
<trkpt lat="46.049409" lon="11.166237">
<time>2020-10-28T18:55:32Z</time>
</trkpt>
<trkpt lat="46.049393" lon="11.166224">
<time>2020-10-28T18:55:33Z</time>
</trkpt>
<trkpt lat="46.04938" lon="11.166209">
<time>2020-10-28T18:55:34Z</time>
</trkpt>
<trkpt lat="46.04937" lon="11.166195">
<time>2020-10-28T18:55:35Z</time>
</trkpt>
<trkpt lat="46.049358" lon="11.16618">
<time>2020-10-28T18:55:36Z</time>
</trkpt>
<trkpt lat="46.049347" lon="11.166171">
<time>2020-10-28T18:55:37Z</time>
</trkpt>
<trkpt lat="46.049341" lon="11.166164">
<time>2020-10-28T18:55:38Z</time>
</trkpt>
<trkpt lat="46.049343" lon="11.166154">
<time>2020-10-28T18:55:39Z</time>
</trkpt>
<trkpt lat="46.049343" lon="11.166149">
<time>2020-10-28T18:55:40Z</time>
</trkpt>
<trkpt lat="46.049339" lon="11.166151">
<time>2020-10-28T18:55:41Z</time>
</trkpt>
<trkpt lat="46.049332" lon="11.166158">
<time>2020-10-28T18:55:42Z</time>
</trkpt>
<trkpt lat="46.049325" lon="11.166155">
<time>2020-10-28T18:55:43Z</time>
</trkpt>
<trkpt lat="46.049315" lon="11.166147">
<time>2020-10-28T18:55:44Z</time>
</trkpt>
<trkpt lat="46.0493" lon="11.166138">
<time>2020-10-28T18:55:45Z</time>
</trkpt>
<trkpt lat="46.049287" lon="11.16613">
<time>2020-10-28T18:55:46Z</time>
</trkpt>
<trkpt lat="46.049278" lon="11.166116">
<time>2020-10-28T18:55:47Z</time>
</trkpt>
<trkpt lat="46.049267" lon="11.166099">
<time>2020-10-28T18:55:48Z</time>
</trkpt>
<trkpt lat="46.049252" lon="11.166086">
<time>2020-10-28T18:55:49Z</time>
</trkpt>
<trkpt lat="46.04924" lon="11.166078">
<time>2020-10-28T18:55:50Z</time>
</trkpt>
<trkpt lat="46.049229" lon="11.166074">
<time>2020-10-28T18:55:51Z</time>
</trkpt>
<trkpt lat="46.04922" lon="11.166073">
<time>2020-10-28T18:55:52Z</time>
</trkpt>
<trkpt lat="46.049218" lon="11.166068">
<time>2020-10-28T18:55:53Z</time>
</trkpt>
<trkpt lat="46.049209" lon="11.166064">
<time>2020-10-28T18:55:54Z</time>
</trkpt>
<trkpt lat="46.049191" lon="11.166062">
<time>2020-10-28T18:55:55Z</time>
</trkpt>
<trkpt lat="46.049172" lon="11.166062">
<time>2020-10-28T18:55:56Z</time>
</trkpt>
<trkpt lat="46.049158" lon="11.166069">
<time>2020-10-28T18:55:57Z</time>
</trkpt>
<trkpt lat="46.049147" lon="11.166068">
<time>2020-10-28T18:55:58Z</time>
</trkpt>
<trkpt lat="46.049136" lon="11.166064">
<time>2020-10-28T18:55:59Z</time>
</trkpt>
<trkpt lat="46.049117" lon="11.166062">
<time>2020-10-28T18:56:00Z</time>
</trkpt>
<trkpt lat="46.049095" lon="11.166053">
<time>2020-10-28T18:56:01Z</time>
</trkpt>
<trkpt lat="46.049076" lon="11.166042">
<time>2020-10-28T18:56:02Z</time>
</trkpt>
<trkpt lat="46.049058" lon="11.166033">
<time>2020-10-28T18:56:03Z</time>
</trkpt>
<trkpt lat="46.049034" lon="11.166017">
<time>2020-10-28T18:56:04Z</time>
</trkpt>
<trkpt lat="46.04901" lon="11.165998">
<time>2020-10-28T18:56:05Z</time>
</trkpt>
<trkpt lat="46.048987" lon="11.165985">
<time>2020-10-28T18:56:06Z</time>
</trkpt>
<trkpt lat="46.048965" lon="11.16598">
<time>2020-10-28T18:56:07Z</time>
</trkpt>
<trkpt lat="46.048945" lon="11.165968">
<time>2020-10-28T18:56:08Z</time>
</trkpt>
<trkpt lat="46.048933" lon="11.165958">
<time>2020-10-28T18:56:09Z</time>
</trkpt>
<trkpt lat="46.048925" lon="11.165948">
<time>2020-10-28T18:56:10Z</time>
</trkpt>
<trkpt lat="46.048914" lon="11.165932">
<time>2020-10-28T18:56:11Z</time>
</trkpt>
<trkpt lat="46.048903" lon="11.165921">
<time>2020-10-28T18:56:12Z</time>
</trkpt>
<trkpt lat="46.048895" lon="11.165921">
<time>2020-10-28T18:56:13Z</time>
</trkpt>
<trkpt lat="46.048888" lon="11.165921">
<time>2020-10-28T18:56:14Z</time>
</trkpt>
<trkpt lat="46.048879" lon="11.165921">
<time>2020-10-28T18:56:15Z</time>
</trkpt>
<trkpt lat="46.04887" lon="11.165918">
<time>2020-10-28T18:56:16Z</time>
</trkpt>
<trkpt lat="46.048864" lon="11.165908">
<time>2020-10-28T18:56:17Z</time>
</trkpt>
<trkpt lat="46.048865" lon="11.1659">
<time>2020-10-28T18:56:18Z</time>
</trkpt>
<trkpt lat="46.048869" lon="11.165892">
<time>2020-10-28T18:56:19Z</time>
</trkpt>
<trkpt lat="46.048871" lon="11.16588">
<time>2020-10-28T18:56:20Z</time>
</trkpt>
<trkpt lat="46.048867" lon="11.165872">
<time>2020-10-28T18:56:21Z</time>
</trkpt>
<trkpt lat="46.048859" lon="11.165871">
<time>2020-10-28T18:56:22Z</time>
</trkpt>
<trkpt lat="46.048844" lon="11.16587">
<time>2020-10-28T18:56:23Z</time>
</trkpt>
<trkpt lat="46.048833" lon="11.165872">
<time>2020-10-28T18:56:24Z</time>
</trkpt>
<trkpt lat="46.048825" lon="11.165871">
<time>2020-10-28T18:56:25Z</time>
</trkpt>
<trkpt lat="46.048817" lon="11.165875">
<time>2020-10-28T18:56:26Z</time>
</trkpt>
<trkpt lat="46.048808" lon="11.165878">
<time>2020-10-28T18:56:27Z</time>
</trkpt>
<trkpt lat="46.048799" lon="11.165877">
<time>2020-10-28T18:56:28Z</time>
</trkpt>
<trkpt lat="46.048795" lon="11.165877">
<time>2020-10-28T18:56:29Z</time>
</trkpt>
<trkpt lat="46.048791" lon="11.165878">
<time>2020-10-28T18:56:30Z</time>
</trkpt>
<trkpt lat="46.048786" lon="11.165875">
<time>2020-10-28T18:56:31Z</time>
</trkpt>
<trkpt lat="46.048781" lon="11.165871">
<time>2020-10-28T18:56:32Z</time>
</trkpt>
<trkpt lat="46.048771" lon="11.16587">
<time>2020-10-28T18:56:33Z</time>
</trkpt>
<trkpt lat="46.048759" lon="11.165869">
<time>2020-10-28T18:56:34Z</time>
</trkpt>
<trkpt lat="46.04875" lon="11.165866">
<time>2020-10-28T18:56:35Z</time>
</trkpt>
<trkpt lat="46.04874" lon="11.165858">
<time>2020-10-28T18:56:36Z</time>
</trkpt>
<trkpt lat="46.04873" lon="11.165851">
<time>2020-10-28T18:56:37Z</time>
</trkpt>
<trkpt lat="46.048721" lon="11.165842">
<time>2020-10-28T18:56:38Z</time>
</trkpt>
<trkpt lat="46.048709" lon="11.165834">
<time>2020-10-28T18:56:39Z</time>
</trkpt>
<trkpt lat="46.048695" lon="11.165831">
<time>2020-10-28T18:56:40Z</time>
</trkpt>
<trkpt lat="46.048683" lon="11.165831">
<time>2020-10-28T18:56:41Z</time>
</trkpt>
<trkpt lat="46.048676" lon="11.16583">
<time>2020-10-28T18:56:42Z</time>
</trkpt>
<trkpt lat="46.048664" lon="11.165824">
<time>2020-10-28T18:56:43Z</time>
</trkpt>
<trkpt lat="46.048648" lon="11.165818">
<time>2020-10-28T18:56:44Z</time>
</trkpt>
<trkpt lat="46.04864" lon="11.165815">
<time>2020-10-28T18:56:45Z</time>
</trkpt>
<trkpt lat="46.048632" lon="11.165811">
<time>2020-10-28T18:56:46Z</time>
</trkpt>
<trkpt lat="46.048623" lon="11.16581">
<time>2020-10-28T18:56:47Z</time>
</trkpt>
<trkpt lat="46.048614" lon="11.165811">
<time>2020-10-28T18:56:48Z</time>
</trkpt>
<trkpt lat="46.0486" lon="11.165817">
<time>2020-10-28T18:56:49Z</time>
</trkpt>
<trkpt lat="46.048584" lon="11.165831">
<time>2020-10-28T18:56:50Z</time>
</trkpt>
<trkpt lat="46.048573" lon="11.16585">
<time>2020-10-28T18:56:51Z</time>
</trkpt>
<trkpt lat="46.048567" lon="11.165868">
<time>2020-10-28T18:56:52Z</time>
</trkpt>
<trkpt lat="46.048565" lon="11.165885">
<time>2020-10-28T18:56:53Z</time>
</trkpt>
<trkpt lat="46.048565" lon="11.165905">
<time>2020-10-28T18:56:54Z</time>
</trkpt>
<trkpt lat="46.04856" lon="11.165925">
<time>2020-10-28T18:56:55Z</time>
</trkpt>
<trkpt lat="46.048551" lon="11.165939">
<time>2020-10-28T18:56:56Z</time>
</trkpt>
<trkpt lat="46.04854" lon="11.165956">
<time>2020-10-28T18:56:57Z</time>
</trkpt>
<trkpt lat="46.048526" lon="11.165977">
<time>2020-10-28T18:56:58Z</time>
</trkpt>
<trkpt lat="46.048516" lon="11.165999">
<time>2020-10-28T18:56:59Z</time>
</trkpt>
<trkpt lat="46.04851" lon="11.166019">
<time>2020-10-28T18:57:00Z</time>
</trkpt>
<trkpt lat="46.048506" lon="11.166037">
<time>2020-10-28T18:57:01Z</time>
</trkpt>
<trkpt lat="46.048494" lon="11.166054">
<time>2020-10-28T18:57:02Z</time>
</trkpt>
<trkpt lat="46.048483" lon="11.166071">
<time>2020-10-28T18:57:03Z</time>
</trkpt>
<trkpt lat="46.048473" lon="11.166086">
<time>2020-10-28T18:57:04Z</time>
</trkpt>
<trkpt lat="46.048463" lon="11.166099">
<time>2020-10-28T18:57:05Z</time>
</trkpt>
<trkpt lat="46.048452" lon="11.166108">
<time>2020-10-28T18:57:06Z</time>
</trkpt>
<trkpt lat="46.048447" lon="11.166116">
<time>2020-10-28T18:57:07Z</time>
</trkpt>
<trkpt lat="46.04844" lon="11.166137">
<time>2020-10-28T18:57:08Z</time>
</trkpt>
<trkpt lat="46.048437" lon="11.166149">
<time>2020-10-28T18:57:09Z</time>
</trkpt>
<trkpt lat="46.048418" lon="11.166172">
<time>2020-10-28T18:57:10Z</time>
</trkpt>
<trkpt lat="46.048406" lon="11.166187">
<time>2020-10-28T18:57:11Z</time>
</trkpt>
<trkpt lat="46.048392" lon="11.166197">
<time>2020-10-28T18:57:12Z</time>
</trkpt>
<trkpt lat="46.048379" lon="11.166211">
<time>2020-10-28T18:57:13Z</time>
</trkpt>
<trkpt lat="46.048364" lon="11.166229">
<time>2020-10-28T18:57:14Z</time>
</trkpt>
<trkpt lat="46.048353" lon="11.166246">
<time>2020-10-28T18:57:15Z</time>
</trkpt>
<trkpt lat="46.048341" lon="11.166263">
<time>2020-10-28T18:57:16Z</time>
</trkpt>
<trkpt lat="46.048332" lon="11.166277">
<time>2020-10-28T18:57:17Z</time>
</trkpt>
<trkpt lat="46.048325" lon="11.166287">
<time>2020-10-28T18:57:18Z</time>
</trkpt>
<trkpt lat="46.048315" lon="11.166294">
<time>2020-10-28T18:57:19Z</time>
</trkpt>
<trkpt lat="46.048304" lon="11.166302">
<time>2020-10-28T18:57:20Z</time>
</trkpt>
<trkpt lat="46.048288" lon="11.166316">
<time>2020-10-28T18:57:21Z</time>
</trkpt>
<trkpt lat="46.048271" lon="11.166326">
<time>2020-10-28T18:57:22Z</time>
</trkpt>
<trkpt lat="46.04825" lon="11.166333">
<time>2020-10-28T18:57:23Z</time>
</trkpt>
<trkpt lat="46.048229" lon="11.166345">
<time>2020-10-28T18:57:24Z</time>
</trkpt>
<trkpt lat="46.048214" lon="11.166354">
<time>2020-10-28T18:57:25Z</time>
</trkpt>
<trkpt lat="46.048207" lon="11.166366">
<time>2020-10-28T18:57:26Z</time>
</trkpt>
<trkpt lat="46.0482" lon="11.166381">
<time>2020-10-28T18:57:27Z</time>
</trkpt>
<trkpt lat="46.048198" lon="11.166399">
<time>2020-10-28T18:57:28Z</time>
</trkpt>
<trkpt lat="46.0482" lon="11.16642">
<time>2020-10-28T18:57:29Z</time>
</trkpt>
<trkpt lat="46.048204" lon="11.166436">
<time>2020-10-28T18:57:30Z</time>
</trkpt>
<trkpt lat="46.048208" lon="11.166449">
<time>2020-10-28T18:57:31Z</time>
</trkpt>
<trkpt lat="46.04821" lon="11.166456">
<time>2020-10-28T18:57:32Z</time>
</trkpt>
<trkpt lat="46.048207" lon="11.166466">
<time>2020-10-28T18:57:33Z</time>
</trkpt>
<trkpt lat="46.0482" lon="11.166483">
<time>2020-10-28T18:57:34Z</time>
</trkpt>
<trkpt lat="46.048194" lon="11.166502">
<time>2020-10-28T18:57:35Z</time>
</trkpt>
<trkpt lat="46.048188" lon="11.166516">
<time>2020-10-28T18:57:36Z</time>
</trkpt>
<trkpt lat="46.048185" lon="11.166514">
<time>2020-10-28T18:57:37Z</time>
</trkpt>
<trkpt lat="46.048179" lon="11.166503">
<time>2020-10-28T18:57:38Z</time>
</trkpt>
<trkpt lat="46.048171" lon="11.16649">
<time>2020-10-28T18:57:39Z</time>
</trkpt>
<trkpt lat="46.048164" lon="11.166474">
<time>2020-10-28T18:57:40Z</time>
</trkpt>
<trkpt lat="46.048161" lon="11.166463">
<time>2020-10-28T18:57:41Z</time>
</trkpt>
<trkpt lat="46.048156" lon="11.166462">
<time>2020-10-28T18:57:42Z</time>
</trkpt>
<trkpt lat="46.048154" lon="11.166463">
<time>2020-10-28T18:57:43Z</time>
</trkpt>
<trkpt lat="46.048148" lon="11.166463">
<time>2020-10-28T18:57:44Z</time>
</trkpt>
<trkpt lat="46.048144" lon="11.16645">
<time>2020-10-28T18:57:45Z</time>
</trkpt>
<trkpt lat="46.048139" lon="11.166437">
<time>2020-10-28T18:57:46Z</time>
</trkpt>
<trkpt lat="46.048129" lon="11.166431">
<time>2020-10-28T18:57:47Z</time>
</trkpt>
<trkpt lat="46.048116" lon="11.166432">
<time>2020-10-28T18:57:48Z</time>
</trkpt>
<trkpt lat="46.048103" lon="11.166432">
<time>2020-10-28T18:57:49Z</time>
</trkpt>
<trkpt lat="46.048086" lon="11.166437">
<time>2020-10-28T18:57:50Z</time>
</trkpt>
<trkpt lat="46.048068" lon="11.166443">
<time>2020-10-28T18:57:51Z</time>
</trkpt>
<trkpt lat="46.04805" lon="11.166448">
<time>2020-10-28T18:57:52Z</time>
</trkpt>
<trkpt lat="46.04803" lon="11.166451">
<time>2020-10-28T18:57:53Z</time>
</trkpt>
<trkpt lat="46.048012" lon="11.166453">
<time>2020-10-28T18:57:54Z</time>
</trkpt>
<trkpt lat="46.047993" lon="11.166459">
<time>2020-10-28T18:57:55Z</time>
</trkpt>
<trkpt lat="46.047978" lon="11.16647">
<time>2020-10-28T18:57:56Z</time>
</trkpt>
<trkpt lat="46.04797" lon="11.166488">
<time>2020-10-28T18:57:57Z</time>
</trkpt>
<trkpt lat="46.047967" lon="11.1665">
<time>2020-10-28T18:57:58Z</time>
</trkpt>
<trkpt lat="46.047966" lon="11.166506">
<time>2020-10-28T18:57:59Z</time>
</trkpt>
<trkpt lat="46.047963" lon="11.166509">
<time>2020-10-28T18:58:00Z</time>
</trkpt>
<trkpt lat="46.047955" lon="11.166512">
<time>2020-10-28T18:58:01Z</time>
</trkpt>
<trkpt lat="46.047943" lon="11.166513">
<time>2020-10-28T18:58:02Z</time>
</trkpt>
<trkpt lat="46.047929" lon="11.166517">
<time>2020-10-28T18:58:03Z</time>
</trkpt>
<trkpt lat="46.047917" lon="11.166522">
<time>2020-10-28T18:58:04Z</time>
</trkpt>
<trkpt lat="46.047908" lon="11.166523">
<time>2020-10-28T18:58:05Z</time>
</trkpt>
<trkpt lat="46.047901" lon="11.166523">
<time>2020-10-28T18:58:06Z</time>
</trkpt>
<trkpt lat="46.047896" lon="11.166526">
<time>2020-10-28T18:58:07Z</time>
</trkpt>
<trkpt lat="46.047889" lon="11.166536">
<time>2020-10-28T18:58:08Z</time>
</trkpt>
<trkpt lat="46.047882" lon="11.166554">
<time>2020-10-28T18:58:09Z</time>
</trkpt>
<trkpt lat="46.047869" lon="11.16657">
<time>2020-10-28T18:58:10Z</time>
</trkpt>
<trkpt lat="46.04785" lon="11.166577">
<time>2020-10-28T18:58:11Z</time>
</trkpt>
<trkpt lat="46.04782" lon="11.166578">
<time>2020-10-28T18:58:12Z</time>
</trkpt>
<trkpt lat="46.047793" lon="11.166584">
<time>2020-10-28T18:58:13Z</time>
</trkpt>
<trkpt lat="46.047776" lon="11.166587">
<time>2020-10-28T18:58:14Z</time>
</trkpt>
<trkpt lat="46.047769" lon="11.166595">
<time>2020-10-28T18:58:15Z</time>
</trkpt>
<trkpt lat="46.047761" lon="11.166603">
<time>2020-10-28T18:58:16Z</time>
</trkpt>
<trkpt lat="46.047749" lon="11.166612">
<time>2020-10-28T18:58:17Z</time>
</trkpt>
<trkpt lat="46.047743" lon="11.166616">
<time>2020-10-28T18:58:18Z</time>
</trkpt>
<trkpt lat="46.047738" lon="11.166621">
<time>2020-10-28T18:58:19Z</time>
</trkpt>
<trkpt lat="46.047732" lon="11.166627">
<time>2020-10-28T18:58:20Z</time>
</trkpt>
<trkpt lat="46.047727" lon="11.166633">
<time>2020-10-28T18:58:21Z</time>
</trkpt>
<trkpt lat="46.047722" lon="11.166642">
<time>2020-10-28T18:58:22Z</time>
</trkpt>
<trkpt lat="46.047716" lon="11.16665">
<time>2020-10-28T18:58:23Z</time>
</trkpt>
<trkpt lat="46.04771" lon="11.166661">
<time>2020-10-28T18:58:24Z</time>
</trkpt>
<trkpt lat="46.047708" lon="11.166678">
<time>2020-10-28T18:58:25Z</time>
</trkpt>
<trkpt lat="46.047707" lon="11.166695">
<time>2020-10-28T18:58:26Z</time>
</trkpt>
<trkpt lat="46.047706" lon="11.166713">
<time>2020-10-28T18:58:27Z</time>
</trkpt>
<trkpt lat="46.047708" lon="11.166732">
<time>2020-10-28T18:58:28Z</time>
</trkpt>
<trkpt lat="46.04771" lon="11.166752">
<time>2020-10-28T18:58:29Z</time>
</trkpt>
<trkpt lat="46.047717" lon="11.166769">
<time>2020-10-28T18:58:30Z</time>
</trkpt>
<trkpt lat="46.047721" lon="11.166786">
<time>2020-10-28T18:58:31Z</time>
</trkpt>
<trkpt lat="46.047723" lon="11.166799">
<time>2020-10-28T18:58:32Z</time>
</trkpt>
<trkpt lat="46.047721" lon="11.166808">
<time>2020-10-28T18:58:33Z</time>
</trkpt>
<trkpt lat="46.047714" lon="11.166818">
<time>2020-10-28T18:58:34Z</time>
</trkpt>
<trkpt lat="46.047707" lon="11.166825">
<time>2020-10-28T18:58:35Z</time>
</trkpt>
<trkpt lat="46.0477" lon="11.166836">
<time>2020-10-28T18:58:36Z</time>
</trkpt>
<trkpt lat="46.047694" lon="11.166849">
<time>2020-10-28T18:58:37Z</time>
</trkpt>
<trkpt lat="46.047688" lon="11.166864">
<time>2020-10-28T18:58:38Z</time>
</trkpt>
<trkpt lat="46.047688" lon="11.16688">
<time>2020-10-28T18:58:39Z</time>
</trkpt>
<trkpt lat="46.047689" lon="11.166898">
<time>2020-10-28T18:58:40Z</time>
</trkpt>
<trkpt lat="46.047687" lon="11.166914">
<time>2020-10-28T18:58:41Z</time>
</trkpt>
<trkpt lat="46.047688" lon="11.166925">
<time>2020-10-28T18:58:42Z</time>
</trkpt>
<trkpt lat="46.047691" lon="11.166938">
<time>2020-10-28T18:58:43Z</time>
</trkpt>
<trkpt lat="46.04769" lon="11.166952">
<time>2020-10-28T18:58:44Z</time>
</trkpt>
<trkpt lat="46.047689" lon="11.166967">
<time>2020-10-28T18:58:45Z</time>
</trkpt>
<trkpt lat="46.047689" lon="11.16698">
<time>2020-10-28T18:58:46Z</time>
</trkpt>
<trkpt lat="46.047685" lon="11.166991">
<time>2020-10-28T18:58:47Z</time>
</trkpt>
<trkpt lat="46.04768" lon="11.167004">
<time>2020-10-28T18:58:48Z</time>
</trkpt>
<trkpt lat="46.047678" lon="11.167017">
<time>2020-10-28T18:58:49Z</time>
</trkpt>
<trkpt lat="46.047676" lon="11.167033">
<time>2020-10-28T18:58:50Z</time>
</trkpt>
<trkpt lat="46.047677" lon="11.167049">
<time>2020-10-28T18:58:51Z</time>
</trkpt>
<trkpt lat="46.04768" lon="11.167064">
<time>2020-10-28T18:58:52Z</time>
</trkpt>
<trkpt lat="46.047685" lon="11.167077">
<time>2020-10-28T18:58:53Z</time>
</trkpt>
<trkpt lat="46.047684" lon="11.167096">
<time>2020-10-28T18:58:54Z</time>
</trkpt>
<trkpt lat="46.047679" lon="11.167124">
<time>2020-10-28T18:58:55Z</time>
</trkpt>
<trkpt lat="46.047674" lon="11.167146">
<time>2020-10-28T18:58:56Z</time>
</trkpt>
<trkpt lat="46.047669" lon="11.167162">
<time>2020-10-28T18:58:57Z</time>
</trkpt>
<trkpt lat="46.047656" lon="11.167169">
<time>2020-10-28T18:58:58Z</time>
</trkpt>
<trkpt lat="46.04764" lon="11.16718">
<time>2020-10-28T18:58:59Z</time>
</trkpt>
<trkpt lat="46.047629" lon="11.167193">
<time>2020-10-28T18:59:00Z</time>
</trkpt>
<trkpt lat="46.047624" lon="11.167198">
<time>2020-10-28T18:59:01Z</time>
</trkpt>
<trkpt lat="46.047623" lon="11.167207">
<time>2020-10-28T18:59:02Z</time>
</trkpt>
<trkpt lat="46.04762" lon="11.167215">
<time>2020-10-28T18:59:03Z</time>
</trkpt>
<trkpt lat="46.047615" lon="11.167229">
<time>2020-10-28T18:59:04Z</time>
</trkpt>
<trkpt lat="46.047617" lon="11.167258">
<time>2020-10-28T18:59:05Z</time>
</trkpt>
<trkpt lat="46.047619" lon="11.167294">
<time>2020-10-28T18:59:06Z</time>
</trkpt>
<trkpt lat="46.04762" lon="11.167323">
<time>2020-10-28T18:59:07Z</time>
</trkpt>
<trkpt lat="46.047622" lon="11.167342">
<time>2020-10-28T18:59:08Z</time>
</trkpt>
<trkpt lat="46.04762" lon="11.167356">
<time>2020-10-28T18:59:09Z</time>
</trkpt>
<trkpt lat="46.047616" lon="11.16737">
<time>2020-10-28T18:59:10Z</time>
</trkpt>
<trkpt lat="46.047621" lon="11.16739">
<time>2020-10-28T18:59:11Z</time>
</trkpt>
<trkpt lat="46.04763" lon="11.167412">
<time>2020-10-28T18:59:12Z</time>
</trkpt>
<trkpt lat="46.047642" lon="11.167438">
<time>2020-10-28T18:59:13Z</time>
</trkpt>
<trkpt lat="46.047645" lon="11.167472">
<time>2020-10-28T18:59:14Z</time>
</trkpt>
<trkpt lat="46.047643" lon="11.167499">
<time>2020-10-28T18:59:15Z</time>
</trkpt>
<trkpt lat="46.047636" lon="11.167528">
<time>2020-10-28T18:59:16Z</time>
</trkpt>
<trkpt lat="46.047635" lon="11.16755">
<time>2020-10-28T18:59:17Z</time>
</trkpt>
<trkpt lat="46.047632" lon="11.167564">
<time>2020-10-28T18:59:18Z</time>
</trkpt>
<trkpt lat="46.047621" lon="11.167578">
<time>2020-10-28T18:59:19Z</time>
</trkpt>
<trkpt lat="46.047613" lon="11.167589">
<time>2020-10-28T18:59:20Z</time>
</trkpt>
<trkpt lat="46.047609" lon="11.167602">
<time>2020-10-28T18:59:21Z</time>
</trkpt>
<trkpt lat="46.047609" lon="11.167614">
<time>2020-10-28T18:59:22Z</time>
</trkpt>
<trkpt lat="46.047613" lon="11.167628">
<time>2020-10-28T18:59:23Z</time>
</trkpt>
<trkpt lat="46.047609" lon="11.167645">
<time>2020-10-28T18:59:24Z</time>
</trkpt>
<trkpt lat="46.0476" lon="11.167655">
<time>2020-10-28T18:59:25Z</time>
</trkpt>
<trkpt lat="46.047593" lon="11.167667">
<time>2020-10-28T18:59:26Z</time>
</trkpt>
<trkpt lat="46.047585" lon="11.167683">
<time>2020-10-28T18:59:27Z</time>
</trkpt>
<trkpt lat="46.04758" lon="11.167697">
<time>2020-10-28T18:59:28Z</time>
</trkpt>
<trkpt lat="46.047578" lon="11.167711">
<time>2020-10-28T18:59:29Z</time>
</trkpt>
<trkpt lat="46.047572" lon="11.167721">
<time>2020-10-28T18:59:30Z</time>
</trkpt>
<trkpt lat="46.047566" lon="11.167723">
<time>2020-10-28T18:59:31Z</time>
</trkpt>
<trkpt lat="46.047556" lon="11.167731">
<time>2020-10-28T18:59:32Z</time>
</trkpt>
<trkpt lat="46.047556" lon="11.167743">
<time>2020-10-28T18:59:33Z</time>
</trkpt>
<trkpt lat="46.04755" lon="11.167756">
<time>2020-10-28T18:59:34Z</time>
</trkpt>
<trkpt lat="46.047549" lon="11.167768">
<time>2020-10-28T18:59:35Z</time>
</trkpt>
<trkpt lat="46.047549" lon="11.16777">
<time>2020-10-28T18:59:36Z</time>
</trkpt>
<trkpt lat="46.04755" lon="11.167772">
<time>2020-10-28T18:59:37Z</time>
</trkpt>
<trkpt lat="46.047545" lon="11.167767">
<time>2020-10-28T18:59:38Z</time>
</trkpt>
<trkpt lat="46.047529" lon="11.167763">
<time>2020-10-28T18:59:39Z</time>
</trkpt>
<trkpt lat="46.04752" lon="11.167777">
<time>2020-10-28T18:59:40Z</time>
</trkpt>
<trkpt lat="46.047519" lon="11.167797">
<time>2020-10-28T18:59:41Z</time>
</trkpt>
<trkpt lat="46.04752" lon="11.167816">
<time>2020-10-28T18:59:42Z</time>
</trkpt>
<trkpt lat="46.047527" lon="11.167837">
<time>2020-10-28T18:59:43Z</time>
</trkpt>
<trkpt lat="46.047538" lon="11.167858">
<time>2020-10-28T18:59:44Z</time>
</trkpt>
<trkpt lat="46.047548" lon="11.167875">
<time>2020-10-28T18:59:45Z</time>
</trkpt>
<trkpt lat="46.047556" lon="11.167896">
<time>2020-10-28T18:59:46Z</time>
</trkpt>
<trkpt lat="46.047566" lon="11.167916">
<time>2020-10-28T18:59:47Z</time>
</trkpt>
<trkpt lat="46.047577" lon="11.167936">
<time>2020-10-28T18:59:48Z</time>
</trkpt>
<trkpt lat="46.047584" lon="11.167953">
<time>2020-10-28T18:59:49Z</time>
</trkpt>
<trkpt lat="46.047587" lon="11.167974">
<time>2020-10-28T18:59:50Z</time>
</trkpt>
<trkpt lat="46.047589" lon="11.167992">
<time>2020-10-28T18:59:51Z</time>
</trkpt>
<trkpt lat="46.047592" lon="11.168006">
<time>2020-10-28T18:59:52Z</time>
</trkpt>
<trkpt lat="46.047594" lon="11.168019">
<time>2020-10-28T18:59:53Z</time>
</trkpt>
<trkpt lat="46.047594" lon="11.168038">
<time>2020-10-28T18:59:54Z</time>
</trkpt>
<trkpt lat="46.047592" lon="11.168051">
<time>2020-10-28T18:59:55Z</time>
</trkpt>
<trkpt lat="46.047596" lon="11.168065">
<time>2020-10-28T18:59:56Z</time>
</trkpt>
<trkpt lat="46.047589" lon="11.168078">
<time>2020-10-28T18:59:57Z</time>
</trkpt>
<trkpt lat="46.047581" lon="11.168087">
<time>2020-10-28T18:59:58Z</time>
</trkpt>
<trkpt lat="46.047574" lon="11.168097">
<time>2020-10-28T18:59:59Z</time>
</trkpt>
<trkpt lat="46.047571" lon="11.168107">
<time>2020-10-28T19:00:00Z</time>
</trkpt>
<trkpt lat="46.047571" lon="11.168109">
<time>2020-10-28T19:00:01Z</time>
</trkpt>
<trkpt lat="46.047567" lon="11.168112">
<time>2020-10-28T19:00:02Z</time>
</trkpt>
<trkpt lat="46.047566" lon="11.168119">
<time>2020-10-28T19:00:03Z</time>
</trkpt>
<trkpt lat="46.047557" lon="11.168126">
<time>2020-10-28T19:00:04Z</time>
</trkpt>
<trkpt lat="46.047554" lon="11.168141">
<time>2020-10-28T19:00:05Z</time>
</trkpt>
<trkpt lat="46.047554" lon="11.168151">
<time>2020-10-28T19:00:06Z</time>
</trkpt>
<trkpt lat="46.047553" lon="11.16816">
<time>2020-10-28T19:00:07Z</time>
</trkpt>
<trkpt lat="46.047546" lon="11.168178">
<time>2020-10-28T19:00:08Z</time>
</trkpt>
<trkpt lat="46.047541" lon="11.168188">
<time>2020-10-28T19:00:09Z</time>
</trkpt>
<trkpt lat="46.047531" lon="11.168201">
<time>2020-10-28T19:00:10Z</time>
</trkpt>
<trkpt lat="46.047516" lon="11.168211">
<time>2020-10-28T19:00:11Z</time>
</trkpt>
<trkpt lat="46.047496" lon="11.168221">
<time>2020-10-28T19:00:12Z</time>
</trkpt>
<trkpt lat="46.047486" lon="11.168224">
<time>2020-10-28T19:00:13Z</time>
</trkpt>
<trkpt lat="46.047481" lon="11.168231">
<time>2020-10-28T19:00:14Z</time>
</trkpt>
<trkpt lat="46.047473" lon="11.168232">
<time>2020-10-28T19:00:15Z</time>
</trkpt>
<trkpt lat="46.04746" lon="11.168228">
<time>2020-10-28T19:00:16Z</time>
</trkpt>
<trkpt lat="46.047438" lon="11.168227">
<time>2020-10-28T19:00:17Z</time>
</trkpt>
<trkpt lat="46.047426" lon="11.168228">
<time>2020-10-28T19:00:18Z</time>
</trkpt>
<trkpt lat="46.047409" lon="11.168226">
<time>2020-10-28T19:00:19Z</time>
</trkpt>
<trkpt lat="46.047397" lon="11.168233">
<time>2020-10-28T19:00:20Z</time>
</trkpt>
<trkpt lat="46.047392" lon="11.168239">
<time>2020-10-28T19:00:21Z</time>
</trkpt>
<trkpt lat="46.047382" lon="11.168245">
<time>2020-10-28T19:00:22Z</time>
</trkpt>
<trkpt lat="46.047369" lon="11.168253">
<time>2020-10-28T19:00:23Z</time>
</trkpt>
<trkpt lat="46.047351" lon="11.168254">
<time>2020-10-28T19:00:24Z</time>
</trkpt>
<trkpt lat="46.047335" lon="11.168258">
<time>2020-10-28T19:00:25Z</time>
</trkpt>
<trkpt lat="46.047318" lon="11.168255">
<time>2020-10-28T19:00:26Z</time>
</trkpt>
<trkpt lat="46.047309" lon="11.168254">
<time>2020-10-28T19:00:27Z</time>
</trkpt>
<trkpt lat="46.047302" lon="11.168255">
<time>2020-10-28T19:00:28Z</time>
</trkpt>
<trkpt lat="46.047297" lon="11.168258">
<time>2020-10-28T19:00:29Z</time>
</trkpt>
<trkpt lat="46.047294" lon="11.168262">
<time>2020-10-28T19:00:30Z</time>
</trkpt>
<trkpt lat="46.047278" lon="11.168262">
<time>2020-10-28T19:00:31Z</time>
</trkpt>
<trkpt lat="46.047272" lon="11.168273">
<time>2020-10-28T19:00:32Z</time>
</trkpt>
<trkpt lat="46.047251" lon="11.168282">
<time>2020-10-28T19:00:33Z</time>
</trkpt>
<trkpt lat="46.047238" lon="11.168295">
<time>2020-10-28T19:00:34Z</time>
</trkpt>
<trkpt lat="46.047227" lon="11.168305">
<time>2020-10-28T19:00:35Z</time>
</trkpt>
<trkpt lat="46.047222" lon="11.168307">
<time>2020-10-28T19:00:36Z</time>
</trkpt>
<trkpt lat="46.047216" lon="11.168314">
<time>2020-10-28T19:00:37Z</time>
</trkpt>
<trkpt lat="46.047214" lon="11.168323">
<time>2020-10-28T19:00:38Z</time>
</trkpt>
<trkpt lat="46.047205" lon="11.168328">
<time>2020-10-28T19:00:39Z</time>
</trkpt>
<trkpt lat="46.047198" lon="11.168339">
<time>2020-10-28T19:00:40Z</time>
</trkpt>
<trkpt lat="46.047187" lon="11.168346">
<time>2020-10-28T19:00:41Z</time>
</trkpt>
<trkpt lat="46.04718" lon="11.168355">
<time>2020-10-28T19:00:42Z</time>
</trkpt>
<trkpt lat="46.047174" lon="11.168371">
<time>2020-10-28T19:00:43Z</time>
</trkpt>
<trkpt lat="46.047169" lon="11.168387">
<time>2020-10-28T19:00:44Z</time>
</trkpt>
<trkpt lat="46.047169" lon="11.168399">
<time>2020-10-28T19:00:45Z</time>
</trkpt>
<trkpt lat="46.04716" lon="11.168408">
<time>2020-10-28T19:00:46Z</time>
</trkpt>
<trkpt lat="46.047157" lon="11.168416">
<time>2020-10-28T19:00:47Z</time>
</trkpt>
<trkpt lat="46.047153" lon="11.168422">
<time>2020-10-28T19:00:48Z</time>
</trkpt>
<trkpt lat="46.047146" lon="11.168433">
<time>2020-10-28T19:00:49Z</time>
</trkpt>
<trkpt lat="46.047142" lon="11.168443">
<time>2020-10-28T19:00:50Z</time>
</trkpt>
<trkpt lat="46.04715" lon="11.168459">
<time>2020-10-28T19:00:51Z</time>
</trkpt>
<trkpt lat="46.047153" lon="11.168471">
<time>2020-10-28T19:00:52Z</time>
</trkpt>
<trkpt lat="46.047155" lon="11.16848">
<time>2020-10-28T19:00:53Z</time>
</trkpt>
<trkpt lat="46.04716" lon="11.168491">
<time>2020-10-28T19:00:54Z</time>
</trkpt>
<trkpt lat="46.04716" lon="11.168501">
<time>2020-10-28T19:00:55Z</time>
</trkpt>
<trkpt lat="46.047155" lon="11.168512">
<time>2020-10-28T19:00:56Z</time>
</trkpt>
<trkpt lat="46.047149" lon="11.16853">
<time>2020-10-28T19:00:57Z</time>
</trkpt>
<trkpt lat="46.047151" lon="11.168537">
<time>2020-10-28T19:00:58Z</time>
</trkpt>
<trkpt lat="46.047156" lon="11.168541">
<time>2020-10-28T19:00:59Z</time>
</trkpt>
<trkpt lat="46.047159" lon="11.16855">
<time>2020-10-28T19:01:00Z</time>
</trkpt>
<trkpt lat="46.047159" lon="11.168552">
<time>2020-10-28T19:01:01Z</time>
</trkpt>
<trkpt lat="46.047159" lon="11.168558">
<time>2020-10-28T19:01:02Z</time>
</trkpt>
<trkpt lat="46.047174" lon="11.168562">
<time>2020-10-28T19:01:03Z</time>
</trkpt>
<trkpt lat="46.047201" lon="11.168565">
<time>2020-10-28T19:01:04Z</time>
</trkpt>
<trkpt lat="46.047203" lon="11.168552">
<time>2020-10-28T19:01:05Z</time>
</trkpt>
<trkpt lat="46.04721" lon="11.16854">
<time>2020-10-28T19:01:06Z</time>
</trkpt>
<trkpt lat="46.047212" lon="11.168529">
<time>2020-10-28T19:01:07Z</time>
</trkpt>
<trkpt lat="46.04721" lon="11.168516">
<time>2020-10-28T19:01:08Z</time>
</trkpt>
<trkpt lat="46.047201" lon="11.168504">
<time>2020-10-28T19:01:09Z</time>
</trkpt>
<trkpt lat="46.047187" lon="11.168491">
<time>2020-10-28T19:01:10Z</time>
</trkpt>
<trkpt lat="46.047176" lon="11.168495">
<time>2020-10-28T19:01:11Z</time>
</trkpt>
<trkpt lat="46.047167" lon="11.168517">
<time>2020-10-28T19:01:12Z</time>
</trkpt>
<trkpt lat="46.047157" lon="11.168543">
<time>2020-10-28T19:01:13Z</time>
</trkpt>
<trkpt lat="46.047154" lon="11.16857">
<time>2020-10-28T19:01:14Z</time>
</trkpt>
<trkpt lat="46.047149" lon="11.168596">
<time>2020-10-28T19:01:15Z</time>
</trkpt>
<trkpt lat="46.047136" lon="11.168609">
<time>2020-10-28T19:01:16Z</time>
</trkpt>
<trkpt lat="46.047126" lon="11.168619">
<time>2020-10-28T19:01:17Z</time>
</trkpt>
<trkpt lat="46.047119" lon="11.168621">
<time>2020-10-28T19:01:18Z</time>
</trkpt>
<trkpt lat="46.047115" lon="11.168622">
<time>2020-10-28T19:01:19Z</time>
</trkpt>
<trkpt lat="46.047104" lon="11.168626">
<time>2020-10-28T19:01:20Z</time>
</trkpt>
<trkpt lat="46.047091" lon="11.168619">
<time>2020-10-28T19:01:21Z</time>
</trkpt>
<trkpt lat="46.047079" lon="11.16861">
<time>2020-10-28T19:01:22Z</time>
</trkpt>
<trkpt lat="46.047067" lon="11.168602">
<time>2020-10-28T19:01:23Z</time>
</trkpt>
<trkpt lat="46.047053" lon="11.1686">
<time>2020-10-28T19:01:24Z</time>
</trkpt>
<trkpt lat="46.047043" lon="11.1686">
<time>2020-10-28T19:01:25Z</time>
</trkpt>
<trkpt lat="46.047036" lon="11.168599">
<time>2020-10-28T19:01:26Z</time>
</trkpt>
<trkpt lat="46.047028" lon="11.168591">
<time>2020-10-28T19:01:27Z</time>
</trkpt>
<trkpt lat="46.04702" lon="11.168591">
<time>2020-10-28T19:01:28Z</time>
</trkpt>
<trkpt lat="46.047013" lon="11.168593">
<time>2020-10-28T19:01:29Z</time>
</trkpt>
<trkpt lat="46.047008" lon="11.1686">
<time>2020-10-28T19:01:30Z</time>
</trkpt>
<trkpt lat="46.047003" lon="11.168603">
<time>2020-10-28T19:01:31Z</time>
</trkpt>
<trkpt lat="46.046996" lon="11.168602">
<time>2020-10-28T19:01:32Z</time>
</trkpt>
<trkpt lat="46.04699" lon="11.168601">
<time>2020-10-28T19:01:33Z</time>
</trkpt>
<trkpt lat="46.046984" lon="11.168592">
<time>2020-10-28T19:01:34Z</time>
</trkpt>
<trkpt lat="46.046976" lon="11.168581">
<time>2020-10-28T19:01:35Z</time>
</trkpt>
<trkpt lat="46.046971" lon="11.168573">
<time>2020-10-28T19:01:36Z</time>
</trkpt>
<trkpt lat="46.046965" lon="11.168567">
<time>2020-10-28T19:01:37Z</time>
</trkpt>
<trkpt lat="46.046954" lon="11.168563">
<time>2020-10-28T19:01:38Z</time>
</trkpt>
<trkpt lat="46.046941" lon="11.168558">
<time>2020-10-28T19:01:39Z</time>
</trkpt>
<trkpt lat="46.046939" lon="11.16855">
<time>2020-10-28T19:01:40Z</time>
</trkpt>
<trkpt lat="46.046937" lon="11.168544">
<time>2020-10-28T19:01:41Z</time>
</trkpt>
<trkpt lat="46.046932" lon="11.16853">
<time>2020-10-28T19:01:42Z</time>
</trkpt>
<trkpt lat="46.046929" lon="11.168517">
<time>2020-10-28T19:01:43Z</time>
</trkpt>
<trkpt lat="46.046922" lon="11.168513">
<time>2020-10-28T19:01:44Z</time>
</trkpt>
<trkpt lat="46.046915" lon="11.168509">
<time>2020-10-28T19:01:45Z</time>
</trkpt>
<trkpt lat="46.046904" lon="11.168497">
<time>2020-10-28T19:01:46Z</time>
</trkpt>
<trkpt lat="46.046895" lon="11.168486">
<time>2020-10-28T19:01:47Z</time>
</trkpt>
<trkpt lat="46.046885" lon="11.168476">
<time>2020-10-28T19:01:48Z</time>
</trkpt>
<trkpt lat="46.046876" lon="11.168465">
<time>2020-10-28T19:01:49Z</time>
</trkpt>
<trkpt lat="46.046873" lon="11.168457">
<time>2020-10-28T19:01:50Z</time>
</trkpt>
<trkpt lat="46.046869" lon="11.168453">
<time>2020-10-28T19:01:51Z</time>
</trkpt>
<trkpt lat="46.046864" lon="11.168443">
<time>2020-10-28T19:01:52Z</time>
</trkpt>
<trkpt lat="46.046861" lon="11.168434">
<time>2020-10-28T19:01:53Z</time>
</trkpt>
<trkpt lat="46.046859" lon="11.168429">
<time>2020-10-28T19:01:54Z</time>
</trkpt>
<trkpt lat="46.04686" lon="11.168426">
<time>2020-10-28T19:01:55Z</time>
</trkpt>
<trkpt lat="46.046861" lon="11.168423">
<time>2020-10-28T19:01:56Z</time>
</trkpt>
<trkpt lat="46.046853" lon="11.168422">
<time>2020-10-28T19:01:57Z</time>
</trkpt>
<trkpt lat="46.046849" lon="11.168427">
<time>2020-10-28T19:01:58Z</time>
</trkpt>
<trkpt lat="46.046841" lon="11.168436">
<time>2020-10-28T19:01:59Z</time>
</trkpt>
<trkpt lat="46.046837" lon="11.168434">
<time>2020-10-28T19:02:00Z</time>
</trkpt>
<trkpt lat="46.046833" lon="11.168423">
<time>2020-10-28T19:02:01Z</time>
</trkpt>
<trkpt lat="46.046826" lon="11.168412">
<time>2020-10-28T19:02:02Z</time>
</trkpt>
<trkpt lat="46.046822" lon="11.168403">
<time>2020-10-28T19:02:03Z</time>
</trkpt>
<trkpt lat="46.046819" lon="11.168401">
<time>2020-10-28T19:02:04Z</time>
</trkpt>
<trkpt lat="46.046814" lon="11.168419">
<time>2020-10-28T19:02:05Z</time>
</trkpt>
<trkpt lat="46.046807" lon="11.168434">
<time>2020-10-28T19:02:06Z</time>
</trkpt>
<trkpt lat="46.046808" lon="11.168443">
<time>2020-10-28T19:02:07Z</time>
</trkpt>
<trkpt lat="46.046806" lon="11.168443">
<time>2020-10-28T19:02:08Z</time>
</trkpt>
<trkpt lat="46.0468" lon="11.168437">
<time>2020-10-28T19:02:09Z</time>
</trkpt>
<trkpt lat="46.046793" lon="11.168435">
<time>2020-10-28T19:02:10Z</time>
</trkpt>
<trkpt lat="46.046784" lon="11.168434">
<time>2020-10-28T19:02:11Z</time>
</trkpt>
<trkpt lat="46.046771" lon="11.168428">
<time>2020-10-28T19:02:12Z</time>
</trkpt>
<trkpt lat="46.046754" lon="11.168424">
<time>2020-10-28T19:02:13Z</time>
</trkpt>
<trkpt lat="46.046729" lon="11.168416">
<time>2020-10-28T19:02:14Z</time>
</trkpt>
<trkpt lat="46.046713" lon="11.168417">
<time>2020-10-28T19:02:15Z</time>
</trkpt>
<trkpt lat="46.046706" lon="11.168416">
<time>2020-10-28T19:02:16Z</time>
</trkpt>
<trkpt lat="46.046698" lon="11.168412">
<time>2020-10-28T19:02:17Z</time>
</trkpt>
<trkpt lat="46.046685" lon="11.168413">
<time>2020-10-28T19:02:18Z</time>
</trkpt>
<trkpt lat="46.046676" lon="11.168425">
<time>2020-10-28T19:02:19Z</time>
</trkpt>
<trkpt lat="46.046674" lon="11.16843">
<time>2020-10-28T19:02:20Z</time>
</trkpt>
<trkpt lat="46.046661" lon="11.168432">
<time>2020-10-28T19:02:21Z</time>
</trkpt>
<trkpt lat="46.046649" lon="11.168439">
<time>2020-10-28T19:02:22Z</time>
</trkpt>
<trkpt lat="46.046643" lon="11.168448">
<time>2020-10-28T19:02:23Z</time>
</trkpt>
<trkpt lat="46.046636" lon="11.168452">
<time>2020-10-28T19:02:24Z</time>
</trkpt>
<trkpt lat="46.046627" lon="11.168448">
<time>2020-10-28T19:02:25Z</time>
</trkpt>
<trkpt lat="46.046613" lon="11.168447">
<time>2020-10-28T19:02:26Z</time>
</trkpt>
<trkpt lat="46.046593" lon="11.168451">
<time>2020-10-28T19:02:27Z</time>
</trkpt>
<trkpt lat="46.046571" lon="11.168461">
<time>2020-10-28T19:02:28Z</time>
</trkpt>
<trkpt lat="46.046544" lon="11.168465">
<time>2020-10-28T19:02:29Z</time>
</trkpt>
<trkpt lat="46.046526" lon="11.168474">
<time>2020-10-28T19:02:30Z</time>
</trkpt>
<trkpt lat="46.046516" lon="11.168481">
<time>2020-10-28T19:02:31Z</time>
</trkpt>
<trkpt lat="46.046513" lon="11.168487">
<time>2020-10-28T19:02:32Z</time>
</trkpt>
<trkpt lat="46.046508" lon="11.168493">
<time>2020-10-28T19:02:33Z</time>
</trkpt>
<trkpt lat="46.046503" lon="11.168499">
<time>2020-10-28T19:02:34Z</time>
</trkpt>
<trkpt lat="46.046499" lon="11.168505">
<time>2020-10-28T19:02:35Z</time>
</trkpt>
<trkpt lat="46.046497" lon="11.168515">
<time>2020-10-28T19:02:36Z</time>
</trkpt>
<trkpt lat="46.046496" lon="11.168522">
<time>2020-10-28T19:02:37Z</time>
</trkpt>
<trkpt lat="46.046493" lon="11.168528">
<time>2020-10-28T19:02:38Z</time>
</trkpt>
<trkpt lat="46.04649" lon="11.168537">
<time>2020-10-28T19:02:39Z</time>
</trkpt>
<trkpt lat="46.046489" lon="11.168552">
<time>2020-10-28T19:02:40Z</time>
</trkpt>
<trkpt lat="46.046491" lon="11.168566">
<time>2020-10-28T19:02:41Z</time>
</trkpt>
<trkpt lat="46.046489" lon="11.16858">
<time>2020-10-28T19:02:42Z</time>
</trkpt>
<trkpt lat="46.04649" lon="11.168586">
<time>2020-10-28T19:02:43Z</time>
</trkpt>
<trkpt lat="46.046488" lon="11.168597">
<time>2020-10-28T19:02:44Z</time>
</trkpt>
<trkpt lat="46.046482" lon="11.168622">
<time>2020-10-28T19:02:45Z</time>
</trkpt>
<trkpt lat="46.046478" lon="11.168644">
<time>2020-10-28T19:02:46Z</time>
</trkpt>
<trkpt lat="46.046471" lon="11.168663">
<time>2020-10-28T19:02:47Z</time>
</trkpt>
<trkpt lat="46.046463" lon="11.168676">
<time>2020-10-28T19:02:48Z</time>
</trkpt>
<trkpt lat="46.046447" lon="11.168675">
<time>2020-10-28T19:02:49Z</time>
</trkpt>
<trkpt lat="46.046435" lon="11.168679">
<time>2020-10-28T19:02:50Z</time>
</trkpt>
<trkpt lat="46.046435" lon="11.168691">
<time>2020-10-28T19:02:51Z</time>
</trkpt>
<trkpt lat="46.046434" lon="11.168696">
<time>2020-10-28T19:02:52Z</time>
</trkpt>
<trkpt lat="46.04643" lon="11.168707">
<time>2020-10-28T19:02:53Z</time>
</trkpt>
<trkpt lat="46.046438" lon="11.168721">
<time>2020-10-28T19:02:54Z</time>
</trkpt>
<trkpt lat="46.04644" lon="11.168735">
<time>2020-10-28T19:02:55Z</time>
</trkpt>
<trkpt lat="46.046436" lon="11.168745">
<time>2020-10-28T19:02:56Z</time>
</trkpt>
<trkpt lat="46.046433" lon="11.168746">
<time>2020-10-28T19:02:57Z</time>
</trkpt>
<trkpt lat="46.046431" lon="11.168746">
<time>2020-10-28T19:02:58Z</time>
</trkpt>
<trkpt lat="46.046427" lon="11.16875">
<time>2020-10-28T19:02:59Z</time>
</trkpt>
<trkpt lat="46.04642" lon="11.168753">
<time>2020-10-28T19:03:00Z</time>
</trkpt>
<trkpt lat="46.046411" lon="11.168753">
<time>2020-10-28T19:03:01Z</time>
</trkpt>
<trkpt lat="46.046407" lon="11.168753">
<time>2020-10-28T19:03:02Z</time>
</trkpt>
<trkpt lat="46.046404" lon="11.168752">
<time>2020-10-28T19:03:03Z</time>
</trkpt>
<trkpt lat="46.046391" lon="11.168745">
<time>2020-10-28T19:03:04Z</time>
</trkpt>
<trkpt lat="46.04637" lon="11.168734">
<time>2020-10-28T19:03:05Z</time>
</trkpt>
<trkpt lat="46.046353" lon="11.168732">
<time>2020-10-28T19:03:06Z</time>
</trkpt>
<trkpt lat="46.046343" lon="11.168736">
<time>2020-10-28T19:03:07Z</time>
</trkpt>
<trkpt lat="46.046332" lon="11.168729">
<time>2020-10-28T19:03:08Z</time>
</trkpt>
<trkpt lat="46.046328" lon="11.168725">
<time>2020-10-28T19:03:09Z</time>
</trkpt>
<trkpt lat="46.046326" lon="11.168728">
<time>2020-10-28T19:03:10Z</time>
</trkpt>
<trkpt lat="46.046327" lon="11.168733">
<time>2020-10-28T19:03:11Z</time>
</trkpt>
<trkpt lat="46.046325" lon="11.168736">
<time>2020-10-28T19:03:12Z</time>
</trkpt>
<trkpt lat="46.046321" lon="11.168737">
<time>2020-10-28T19:03:13Z</time>
</trkpt>
<trkpt lat="46.046311" lon="11.168744">
<time>2020-10-28T19:03:14Z</time>
</trkpt>
<trkpt lat="46.0463" lon="11.168754">
<time>2020-10-28T19:03:15Z</time>
</trkpt>
<trkpt lat="46.046296" lon="11.168762">
<time>2020-10-28T19:03:16Z</time>
</trkpt>
<trkpt lat="46.046296" lon="11.168774">
<time>2020-10-28T19:03:17Z</time>
</trkpt>
<trkpt lat="46.046298" lon="11.168786">
<time>2020-10-28T19:03:18Z</time>
</trkpt>
<trkpt lat="46.046296" lon="11.168797">
<time>2020-10-28T19:03:19Z</time>
</trkpt>
<trkpt lat="46.046298" lon="11.168809">
<time>2020-10-28T19:03:20Z</time>
</trkpt>
<trkpt lat="46.046301" lon="11.168819">
<time>2020-10-28T19:03:21Z</time>
</trkpt>
<trkpt lat="46.046303" lon="11.168827">
<time>2020-10-28T19:03:22Z</time>
</trkpt>
<trkpt lat="46.046298" lon="11.168838">
<time>2020-10-28T19:03:23Z</time>
</trkpt>
<trkpt lat="46.046289" lon="11.168846">
<time>2020-10-28T19:03:24Z</time>
</trkpt>
<trkpt lat="46.046283" lon="11.168858">
<time>2020-10-28T19:03:25Z</time>
</trkpt>
<trkpt lat="46.04628" lon="11.168869">
<time>2020-10-28T19:03:26Z</time>
</trkpt>
<trkpt lat="46.04628" lon="11.168868">
<time>2020-10-28T19:03:27Z</time>
</trkpt>
<trkpt lat="46.046278" lon="11.168864">
<time>2020-10-28T19:03:28Z</time>
</trkpt>
<trkpt lat="46.046273" lon="11.168864">
<time>2020-10-28T19:03:29Z</time>
</trkpt>
<trkpt lat="46.046266" lon="11.168874">
<time>2020-10-28T19:03:30Z</time>
</trkpt>
<trkpt lat="46.046257" lon="11.168881">
<time>2020-10-28T19:03:31Z</time>
</trkpt>
<trkpt lat="46.046251" lon="11.16888">
<time>2020-10-28T19:03:32Z</time>
</trkpt>
<trkpt lat="46.046246" lon="11.168869">
<time>2020-10-28T19:03:33Z</time>
</trkpt>
<trkpt lat="46.046244" lon="11.168855">
<time>2020-10-28T19:03:34Z</time>
</trkpt>
<trkpt lat="46.046237" lon="11.168844">
<time>2020-10-28T19:03:35Z</time>
</trkpt>
<trkpt lat="46.046229" lon="11.168839">
<time>2020-10-28T19:03:36Z</time>
</trkpt>
<trkpt lat="46.04622" lon="11.16883">
<time>2020-10-28T19:03:37Z</time>
</trkpt>
<trkpt lat="46.04621" lon="11.16883">
<time>2020-10-28T19:03:38Z</time>
</trkpt>
<trkpt lat="46.046205" lon="11.16884">
<time>2020-10-28T19:03:39Z</time>
</trkpt>
<trkpt lat="46.046203" lon="11.168849">
<time>2020-10-28T19:03:40Z</time>
</trkpt>
<trkpt lat="46.046204" lon="11.168853">
<time>2020-10-28T19:03:41Z</time>
</trkpt>
<trkpt lat="46.046204" lon="11.168851">
<time>2020-10-28T19:03:42Z</time>
</trkpt>
<trkpt lat="46.0462" lon="11.168851">
<time>2020-10-28T19:03:43Z</time>
</trkpt>
<trkpt lat="46.046197" lon="11.168856">
<time>2020-10-28T19:03:44Z</time>
</trkpt>
<trkpt lat="46.046191" lon="11.168857">
<time>2020-10-28T19:03:45Z</time>
</trkpt>
<trkpt lat="46.046185" lon="11.168849">
<time>2020-10-28T19:03:46Z</time>
</trkpt>
<trkpt lat="46.046184" lon="11.16884">
<time>2020-10-28T19:03:47Z</time>
</trkpt>
<trkpt lat="46.046176" lon="11.168837">
<time>2020-10-28T19:03:48Z</time>
</trkpt>
<trkpt lat="46.046166" lon="11.168844">
<time>2020-10-28T19:03:49Z</time>
</trkpt>
<trkpt lat="46.046157" lon="11.168855">
<time>2020-10-28T19:03:50Z</time>
</trkpt>
<trkpt lat="46.046151" lon="11.168866">
<time>2020-10-28T19:03:51Z</time>
</trkpt>
<trkpt lat="46.046146" lon="11.168876">
<time>2020-10-28T19:03:52Z</time>
</trkpt>
<trkpt lat="46.046141" lon="11.168884">
<time>2020-10-28T19:03:53Z</time>
</trkpt>
<trkpt lat="46.046133" lon="11.16889">
<time>2020-10-28T19:03:54Z</time>
</trkpt>
<trkpt lat="46.046123" lon="11.1689">
<time>2020-10-28T19:03:55Z</time>
</trkpt>
<trkpt lat="46.046111" lon="11.168906">
<time>2020-10-28T19:03:56Z</time>
</trkpt>
<trkpt lat="46.046097" lon="11.168907">
<time>2020-10-28T19:03:57Z</time>
</trkpt>
<trkpt lat="46.046085" lon="11.168911">
<time>2020-10-28T19:03:58Z</time>
</trkpt>
<trkpt lat="46.046077" lon="11.168915">
<time>2020-10-28T19:03:59Z</time>
</trkpt>
<trkpt lat="46.046069" lon="11.168923">
<time>2020-10-28T19:04:00Z</time>
</trkpt>
<trkpt lat="46.046061" lon="11.168933">
<time>2020-10-28T19:04:01Z</time>
</trkpt>
<trkpt lat="46.046052" lon="11.168948">
<time>2020-10-28T19:04:02Z</time>
</trkpt>
<trkpt lat="46.046043" lon="11.168963">
<time>2020-10-28T19:04:03Z</time>
</trkpt>
<trkpt lat="46.046033" lon="11.168973">
<time>2020-10-28T19:04:04Z</time>
</trkpt>
<trkpt lat="46.046026" lon="11.168981">
<time>2020-10-28T19:04:05Z</time>
</trkpt>
<trkpt lat="46.046019" lon="11.168987">
<time>2020-10-28T19:04:06Z</time>
</trkpt>
<trkpt lat="46.046011" lon="11.168999">
<time>2020-10-28T19:04:07Z</time>
</trkpt>
<trkpt lat="46.046008" lon="11.169016">
<time>2020-10-28T19:04:08Z</time>
</trkpt>
<trkpt lat="46.046006" lon="11.169028">
<time>2020-10-28T19:04:09Z</time>
</trkpt>
<trkpt lat="46.046" lon="11.169046">
<time>2020-10-28T19:04:10Z</time>
</trkpt>
<trkpt lat="46.045996" lon="11.169061">
<time>2020-10-28T19:04:11Z</time>
</trkpt>
<trkpt lat="46.045991" lon="11.169081">
<time>2020-10-28T19:04:12Z</time>
</trkpt>
<trkpt lat="46.045991" lon="11.169095">
<time>2020-10-28T19:04:13Z</time>
</trkpt>
<trkpt lat="46.045983" lon="11.169096">
<time>2020-10-28T19:04:14Z</time>
</trkpt>
<trkpt lat="46.045982" lon="11.169102">
<time>2020-10-28T19:04:15Z</time>
</trkpt>
<trkpt lat="46.045982" lon="11.169114">
<time>2020-10-28T19:04:16Z</time>
</trkpt>
<trkpt lat="46.045982" lon="11.169129">
<time>2020-10-28T19:04:17Z</time>
</trkpt>
<trkpt lat="46.045989" lon="11.169144">
<time>2020-10-28T19:04:18Z</time>
</trkpt>
<trkpt lat="46.045991" lon="11.169156">
<time>2020-10-28T19:04:19Z</time>
</trkpt>
<trkpt lat="46.045988" lon="11.169168">
<time>2020-10-28T19:04:20Z</time>
</trkpt>
<trkpt lat="46.045988" lon="11.169179">
<time>2020-10-28T19:04:21Z</time>
</trkpt>
<trkpt lat="46.045993" lon="11.169185">
<time>2020-10-28T19:04:22Z</time>
</trkpt>
<trkpt lat="46.045998" lon="11.169189">
<time>2020-10-28T19:04:23Z</time>
</trkpt>
<trkpt lat="46.046002" lon="11.169198">
<time>2020-10-28T19:04:24Z</time>
</trkpt>
<trkpt lat="46.045999" lon="11.169216">
<time>2020-10-28T19:04:25Z</time>
</trkpt>
<trkpt lat="46.045996" lon="11.169238">
<time>2020-10-28T19:04:26Z</time>
</trkpt>
<trkpt lat="46.045992" lon="11.169259">
<time>2020-10-28T19:04:27Z</time>
</trkpt>
<trkpt lat="46.045991" lon="11.169273">
<time>2020-10-28T19:04:28Z</time>
</trkpt>
<trkpt lat="46.045985" lon="11.169282">
<time>2020-10-28T19:04:29Z</time>
</trkpt>
<trkpt lat="46.045985" lon="11.169288">
<time>2020-10-28T19:04:30Z</time>
</trkpt>
<trkpt lat="46.045992" lon="11.169291">
<time>2020-10-28T19:04:31Z</time>
</trkpt>
<trkpt lat="46.045999" lon="11.169297">
<time>2020-10-28T19:04:32Z</time>
</trkpt>
<trkpt lat="46.046002" lon="11.169307">
<time>2020-10-28T19:04:33Z</time>
</trkpt>
<trkpt lat="46.046006" lon="11.169313">
<time>2020-10-28T19:04:34Z</time>
</trkpt>
<trkpt lat="46.046" lon="11.169316">
<time>2020-10-28T19:04:35Z</time>
</trkpt>
<trkpt lat="46.045998" lon="11.169324">
<time>2020-10-28T19:04:36Z</time>
</trkpt>
<trkpt lat="46.045992" lon="11.169333">
<time>2020-10-28T19:04:37Z</time>
</trkpt>
<trkpt lat="46.045993" lon="11.169346">
<time>2020-10-28T19:04:38Z</time>
</trkpt>
<trkpt lat="46.045995" lon="11.169361">
<time>2020-10-28T19:04:39Z</time>
</trkpt>
<trkpt lat="46.045996" lon="11.169366">
<time>2020-10-28T19:04:40Z</time>
</trkpt>
<trkpt lat="46.045989" lon="11.169373">
<time>2020-10-28T19:04:41Z</time>
</trkpt>
<trkpt lat="46.045987" lon="11.169385">
<time>2020-10-28T19:04:42Z</time>
</trkpt>
<trkpt lat="46.045983" lon="11.169393">
<time>2020-10-28T19:04:43Z</time>
</trkpt>
<trkpt lat="46.045987" lon="11.169413">
<time>2020-10-28T19:04:44Z</time>
</trkpt>
<trkpt lat="46.045991" lon="11.169429">
<time>2020-10-28T19:04:45Z</time>
</trkpt>
<trkpt lat="46.045989" lon="11.169437">
<time>2020-10-28T19:04:46Z</time>
</trkpt>
<trkpt lat="46.045993" lon="11.169453">
<time>2020-10-28T19:04:47Z</time>
</trkpt>
<trkpt lat="46.045996" lon="11.169471">
<time>2020-10-28T19:04:48Z</time>
</trkpt>
<trkpt lat="46.045996" lon="11.169482">
<time>2020-10-28T19:04:49Z</time>
</trkpt>
<trkpt lat="46.045999" lon="11.169486">
<time>2020-10-28T19:04:50Z</time>
</trkpt>
<trkpt lat="46.045999" lon="11.169494">
<time>2020-10-28T19:04:51Z</time>
</trkpt>
<trkpt lat="46.046003" lon="11.169505">
<time>2020-10-28T19:04:52Z</time>
</trkpt>
<trkpt lat="46.046003" lon="11.169517">
<time>2020-10-28T19:04:53Z</time>
</trkpt>
<trkpt lat="46.045992" lon="11.169527">
<time>2020-10-28T19:04:54Z</time>
</trkpt>
<trkpt lat="46.045976" lon="11.169533">
<time>2020-10-28T19:04:55Z</time>
</trkpt>
<trkpt lat="46.045959" lon="11.169531">
<time>2020-10-28T19:04:56Z</time>
</trkpt>
<trkpt lat="46.045958" lon="11.169535">
<time>2020-10-28T19:04:57Z</time>
</trkpt>
<trkpt lat="46.045959" lon="11.169541">
<time>2020-10-28T19:04:58Z</time>
</trkpt>
<trkpt lat="46.045965" lon="11.169545">
<time>2020-10-28T19:04:59Z</time>
</trkpt>
<trkpt lat="46.04597" lon="11.169546">
<time>2020-10-28T19:05:00Z</time>
</trkpt>
<trkpt lat="46.045976" lon="11.169549">
<time>2020-10-28T19:05:01Z</time>
</trkpt>
<trkpt lat="46.045983" lon="11.169552">
<time>2020-10-28T19:05:02Z</time>
</trkpt>
<trkpt lat="46.045983" lon="11.169552">
<time>2020-10-28T19:05:03Z</time>
</trkpt>
<trkpt lat="46.045981" lon="11.169552">
<time>2020-10-28T19:05:04Z</time>
</trkpt>
<trkpt lat="46.04598" lon="11.169554">
<time>2020-10-28T19:05:05Z</time>
</trkpt>
<trkpt lat="46.045984" lon="11.169558">
<time>2020-10-28T19:05:06Z</time>
</trkpt>
<trkpt lat="46.045985" lon="11.169563">
<time>2020-10-28T19:05:07Z</time>
</trkpt>
<trkpt lat="46.045984" lon="11.16957">
<time>2020-10-28T19:05:08Z</time>
</trkpt>
<trkpt lat="46.045983" lon="11.169576">
<time>2020-10-28T19:05:09Z</time>
</trkpt>
<trkpt lat="46.045992" lon="11.169586">
<time>2020-10-28T19:05:10Z</time>
</trkpt>
<trkpt lat="46.046" lon="11.169594">
<time>2020-10-28T19:05:11Z</time>
</trkpt>
<trkpt lat="46.046002" lon="11.1696">
<time>2020-10-28T19:05:12Z</time>
</trkpt>
<trkpt lat="46.046003" lon="11.169621">
<time>2020-10-28T19:05:13Z</time>
</trkpt>
<trkpt lat="46.046005" lon="11.169635">
<time>2020-10-28T19:05:14Z</time>
</trkpt>
<trkpt lat="46.045997" lon="11.16965">
<time>2020-10-28T19:05:15Z</time>
</trkpt>
<trkpt lat="46.046002" lon="11.169664">
<time>2020-10-28T19:05:16Z</time>
</trkpt>
<trkpt lat="46.046011" lon="11.169683">
<time>2020-10-28T19:05:17Z</time>
</trkpt>
<trkpt lat="46.046014" lon="11.169696">
<time>2020-10-28T19:05:18Z</time>
</trkpt>
<trkpt lat="46.046013" lon="11.169704">
<time>2020-10-28T19:05:19Z</time>
</trkpt>
<trkpt lat="46.046012" lon="11.169709">
<time>2020-10-28T19:05:20Z</time>
</trkpt>
<trkpt lat="46.046014" lon="11.169721">
<time>2020-10-28T19:05:21Z</time>
</trkpt>
<trkpt lat="46.046007" lon="11.169739">
<time>2020-10-28T19:05:22Z</time>
</trkpt>
<trkpt lat="46.046007" lon="11.169747">
<time>2020-10-28T19:05:23Z</time>
</trkpt>
<trkpt lat="46.046005" lon="11.16975">
<time>2020-10-28T19:05:24Z</time>
</trkpt>
<trkpt lat="46.046006" lon="11.169754">
<time>2020-10-28T19:05:25Z</time>
</trkpt>
<trkpt lat="46.046" lon="11.169763">
<time>2020-10-28T19:05:26Z</time>
</trkpt>
<trkpt lat="46.046003" lon="11.169772">
<time>2020-10-28T19:05:27Z</time>
</trkpt>
<trkpt lat="46.046005" lon="11.169782">
<time>2020-10-28T19:05:28Z</time>
</trkpt>
<trkpt lat="46.046012" lon="11.169792">
<time>2020-10-28T19:05:29Z</time>
</trkpt>
<trkpt lat="46.046019" lon="11.169809">
<time>2020-10-28T19:05:30Z</time>
</trkpt>
<trkpt lat="46.046023" lon="11.169833">
<time>2020-10-28T19:05:31Z</time>
</trkpt>
<trkpt lat="46.046039" lon="11.169856">
<time>2020-10-28T19:05:32Z</time>
</trkpt>
<trkpt lat="46.046043" lon="11.169876">
<time>2020-10-28T19:05:33Z</time>
</trkpt>
<trkpt lat="46.046045" lon="11.169889">
<time>2020-10-28T19:05:34Z</time>
</trkpt>
<trkpt lat="46.046042" lon="11.169906">
<time>2020-10-28T19:05:35Z</time>
</trkpt>
<trkpt lat="46.046039" lon="11.16992">
<time>2020-10-28T19:05:36Z</time>
</trkpt>
<trkpt lat="46.04604" lon="11.169932">
<time>2020-10-28T19:05:37Z</time>
</trkpt>
<trkpt lat="46.046041" lon="11.169937">
<time>2020-10-28T19:05:38Z</time>
</trkpt>
<trkpt lat="46.046042" lon="11.169937">
<time>2020-10-28T19:05:39Z</time>
</trkpt>
<trkpt lat="46.046043" lon="11.169943">
<time>2020-10-28T19:05:40Z</time>
</trkpt>
<trkpt lat="46.046039" lon="11.169951">
<time>2020-10-28T19:05:41Z</time>
</trkpt>
<trkpt lat="46.046037" lon="11.169962">
<time>2020-10-28T19:05:42Z</time>
</trkpt>
<trkpt lat="46.046041" lon="11.169972">
<time>2020-10-28T19:05:43Z</time>
</trkpt>
<trkpt lat="46.04605" lon="11.169986">
<time>2020-10-28T19:05:44Z</time>
</trkpt>
<trkpt lat="46.046064" lon="11.169994">
<time>2020-10-28T19:05:45Z</time>
</trkpt>
<trkpt lat="46.046073" lon="11.170006">
<time>2020-10-28T19:05:46Z</time>
</trkpt>
<trkpt lat="46.046079" lon="11.17002">
<time>2020-10-28T19:05:47Z</time>
</trkpt>
<trkpt lat="46.046078" lon="11.170027">
<time>2020-10-28T19:05:48Z</time>
</trkpt>
<trkpt lat="46.046084" lon="11.170038">
<time>2020-10-28T19:05:49Z</time>
</trkpt>
<trkpt lat="46.046088" lon="11.170049">
<time>2020-10-28T19:05:50Z</time>
</trkpt>
<trkpt lat="46.046097" lon="11.170062">
<time>2020-10-28T19:05:51Z</time>
</trkpt>
<trkpt lat="46.046109" lon="11.170081">
<time>2020-10-28T19:05:52Z</time>
</trkpt>
<trkpt lat="46.046132" lon="11.170108">
<time>2020-10-28T19:05:53Z</time>
</trkpt>
<trkpt lat="46.046153" lon="11.170126">
<time>2020-10-28T19:05:54Z</time>
</trkpt>
<trkpt lat="46.046166" lon="11.170137">
<time>2020-10-28T19:05:55Z</time>
</trkpt>
<trkpt lat="46.046168" lon="11.170147">
<time>2020-10-28T19:05:56Z</time>
</trkpt>
<trkpt lat="46.046166" lon="11.170156">
<time>2020-10-28T19:05:57Z</time>
</trkpt>
<trkpt lat="46.046165" lon="11.170163">
<time>2020-10-28T19:05:58Z</time>
</trkpt>
<trkpt lat="46.046164" lon="11.170166">
<time>2020-10-28T19:05:59Z</time>
</trkpt>
<trkpt lat="46.046161" lon="11.170168">
<time>2020-10-28T19:06:00Z</time>
</trkpt>
<trkpt lat="46.046159" lon="11.170176">
<time>2020-10-28T19:06:01Z</time>
</trkpt>
<trkpt lat="46.046154" lon="11.170188">
<time>2020-10-28T19:06:02Z</time>
</trkpt>
<trkpt lat="46.046146" lon="11.170203">
<time>2020-10-28T19:06:03Z</time>
</trkpt>
<trkpt lat="46.04613" lon="11.170216">
<time>2020-10-28T19:06:04Z</time>
</trkpt>
<trkpt lat="46.04612" lon="11.170224">
<time>2020-10-28T19:06:05Z</time>
</trkpt>
<trkpt lat="46.046118" lon="11.170235">
<time>2020-10-28T19:06:06Z</time>
</trkpt>
<trkpt lat="46.046116" lon="11.170246">
<time>2020-10-28T19:06:07Z</time>
</trkpt>
<trkpt lat="46.046106" lon="11.170253">
<time>2020-10-28T19:06:08Z</time>
</trkpt>
<trkpt lat="46.046096" lon="11.170267">
<time>2020-10-28T19:06:09Z</time>
</trkpt>
<trkpt lat="46.046083" lon="11.170284">
<time>2020-10-28T19:06:10Z</time>
</trkpt>
<trkpt lat="46.046066" lon="11.170305">
<time>2020-10-28T19:06:11Z</time>
</trkpt>
<trkpt lat="46.046056" lon="11.170323">
<time>2020-10-28T19:06:12Z</time>
</trkpt>
<trkpt lat="46.046045" lon="11.17034">
<time>2020-10-28T19:06:13Z</time>
</trkpt>
<trkpt lat="46.046025" lon="11.170355">
<time>2020-10-28T19:06:14Z</time>
</trkpt>
<trkpt lat="46.046012" lon="11.170377">
<time>2020-10-28T19:06:15Z</time>
</trkpt>
<trkpt lat="46.046001" lon="11.170394">
<time>2020-10-28T19:06:16Z</time>
</trkpt>
<trkpt lat="46.045983" lon="11.170409">
<time>2020-10-28T19:06:17Z</time>
</trkpt>
<trkpt lat="46.045963" lon="11.17042">
<time>2020-10-28T19:06:18Z</time>
</trkpt>
<trkpt lat="46.045945" lon="11.17043">
<time>2020-10-28T19:06:19Z</time>
</trkpt>
<trkpt lat="46.04593" lon="11.170443">
<time>2020-10-28T19:06:20Z</time>
</trkpt>
<trkpt lat="46.04591" lon="11.170462">
<time>2020-10-28T19:06:21Z</time>
</trkpt>
<trkpt lat="46.045893" lon="11.170483">
<time>2020-10-28T19:06:22Z</time>
</trkpt>
<trkpt lat="46.045883" lon="11.170502">
<time>2020-10-28T19:06:23Z</time>
</trkpt>
<trkpt lat="46.045876" lon="11.17051">
<time>2020-10-28T19:06:24Z</time>
</trkpt>
<trkpt lat="46.045866" lon="11.170512">
<time>2020-10-28T19:06:25Z</time>
</trkpt>
<trkpt lat="46.045858" lon="11.170517">
<time>2020-10-28T19:06:26Z</time>
</trkpt>
<trkpt lat="46.045852" lon="11.170524">
<time>2020-10-28T19:06:27Z</time>
</trkpt>
<trkpt lat="46.045845" lon="11.170528">
<time>2020-10-28T19:06:28Z</time>
</trkpt>
<trkpt lat="46.045838" lon="11.17053">
<time>2020-10-28T19:06:29Z</time>
</trkpt>
<trkpt lat="46.045838" lon="11.170536">
<time>2020-10-28T19:06:30Z</time>
</trkpt>
<trkpt lat="46.045836" lon="11.170535">
<time>2020-10-28T19:06:31Z</time>
</trkpt>
<trkpt lat="46.045828" lon="11.170537">
<time>2020-10-28T19:06:32Z</time>
</trkpt>
<trkpt lat="46.045816" lon="11.17054">
<time>2020-10-28T19:06:33Z</time>
</trkpt>
<trkpt lat="46.045802" lon="11.170545">
<time>2020-10-28T19:06:34Z</time>
</trkpt>
<trkpt lat="46.04579" lon="11.170546">
<time>2020-10-28T19:06:35Z</time>
</trkpt>
<trkpt lat="46.045774" lon="11.170531">
<time>2020-10-28T19:06:36Z</time>
</trkpt>
<trkpt lat="46.045762" lon="11.170513">
<time>2020-10-28T19:06:37Z</time>
</trkpt>
<trkpt lat="46.045757" lon="11.170502">
<time>2020-10-28T19:06:38Z</time>
</trkpt>
<trkpt lat="46.045751" lon="11.170492">
<time>2020-10-28T19:06:39Z</time>
</trkpt>
<trkpt lat="46.045747" lon="11.170488">
<time>2020-10-28T19:06:40Z</time>
</trkpt>
<trkpt lat="46.045742" lon="11.170484">
<time>2020-10-28T19:06:41Z</time>
</trkpt>
<trkpt lat="46.045735" lon="11.170477">
<time>2020-10-28T19:06:42Z</time>
</trkpt>
<trkpt lat="46.045725" lon="11.170475">
<time>2020-10-28T19:06:43Z</time>
</trkpt>
<trkpt lat="46.045716" lon="11.170476">
<time>2020-10-28T19:06:44Z</time>
</trkpt>
<trkpt lat="46.045707" lon="11.170477">
<time>2020-10-28T19:06:45Z</time>
</trkpt>
<trkpt lat="46.045704" lon="11.170477">
<time>2020-10-28T19:06:46Z</time>
</trkpt>
<trkpt lat="46.045705" lon="11.170477">
<time>2020-10-28T19:06:47Z</time>
</trkpt>
<trkpt lat="46.045708" lon="11.170478">
<time>2020-10-28T19:06:48Z</time>
</trkpt>
<trkpt lat="46.045709" lon="11.170478">
<time>2020-10-28T19:06:49Z</time>
</trkpt>
<trkpt lat="46.045706" lon="11.170479">
<time>2020-10-28T19:06:50Z</time>
</trkpt>
<trkpt lat="46.045702" lon="11.17048">
<time>2020-10-28T19:06:51Z</time>
</trkpt>
<trkpt lat="46.045695" lon="11.170479">
<time>2020-10-28T19:06:52Z</time>
</trkpt>
<trkpt lat="46.045687" lon="11.17048">
<time>2020-10-28T19:06:53Z</time>
</trkpt>
<trkpt lat="46.045678" lon="11.170476">
<time>2020-10-28T19:06:54Z</time>
</trkpt>
<trkpt lat="46.045664" lon="11.170463">
<time>2020-10-28T19:06:55Z</time>
</trkpt>
<trkpt lat="46.045657" lon="11.170451">
<time>2020-10-28T19:06:56Z</time>
</trkpt>
<trkpt lat="46.045649" lon="11.170438">
<time>2020-10-28T19:06:57Z</time>
</trkpt>
<trkpt lat="46.045651" lon="11.170431">
<time>2020-10-28T19:06:58Z</time>
</trkpt>
<trkpt lat="46.045652" lon="11.170434">
<time>2020-10-28T19:06:59Z</time>
</trkpt>
<trkpt lat="46.045643" lon="11.170441">
<time>2020-10-28T19:07:00Z</time>
</trkpt>
<trkpt lat="46.045632" lon="11.170448">
<time>2020-10-28T19:07:01Z</time>
</trkpt>
<trkpt lat="46.04562" lon="11.170455">
<time>2020-10-28T19:07:02Z</time>
</trkpt>
<trkpt lat="46.045611" lon="11.170463">
<time>2020-10-28T19:07:03Z</time>
</trkpt>
<trkpt lat="46.045603" lon="11.170464">
<time>2020-10-28T19:07:04Z</time>
</trkpt>
<trkpt lat="46.045592" lon="11.170463">
<time>2020-10-28T19:07:05Z</time>
</trkpt>
<trkpt lat="46.045576" lon="11.170458">
<time>2020-10-28T19:07:06Z</time>
</trkpt>
<trkpt lat="46.045557" lon="11.170453">
<time>2020-10-28T19:07:07Z</time>
</trkpt>
<trkpt lat="46.045544" lon="11.170454">
<time>2020-10-28T19:07:08Z</time>
</trkpt>
<trkpt lat="46.045533" lon="11.170459">
<time>2020-10-28T19:07:09Z</time>
</trkpt>
<trkpt lat="46.045522" lon="11.170462">
<time>2020-10-28T19:07:10Z</time>
</trkpt>
<trkpt lat="46.04551" lon="11.170468">
<time>2020-10-28T19:07:11Z</time>
</trkpt>
<trkpt lat="46.045498" lon="11.170482">
<time>2020-10-28T19:07:12Z</time>
</trkpt>
<trkpt lat="46.045491" lon="11.170499">
<time>2020-10-28T19:07:13Z</time>
</trkpt>
<trkpt lat="46.045483" lon="11.170512">
<time>2020-10-28T19:07:14Z</time>
</trkpt>
<trkpt lat="46.045468" lon="11.170514">
<time>2020-10-28T19:07:15Z</time>
</trkpt>
<trkpt lat="46.045458" lon="11.17052">
<time>2020-10-28T19:07:16Z</time>
</trkpt>
<trkpt lat="46.045458" lon="11.170533">
<time>2020-10-28T19:07:17Z</time>
</trkpt>
<trkpt lat="46.045453" lon="11.170548">
<time>2020-10-28T19:07:18Z</time>
</trkpt>
<trkpt lat="46.045445" lon="11.170562">
<time>2020-10-28T19:07:19Z</time>
</trkpt>
<trkpt lat="46.045442" lon="11.170574">
<time>2020-10-28T19:07:20Z</time>
</trkpt>
<trkpt lat="46.045439" lon="11.170586">
<time>2020-10-28T19:07:21Z</time>
</trkpt>
<trkpt lat="46.045437" lon="11.170595">
<time>2020-10-28T19:07:22Z</time>
</trkpt>
<trkpt lat="46.045432" lon="11.170608">
<time>2020-10-28T19:07:23Z</time>
</trkpt>
<trkpt lat="46.04543" lon="11.170629">
<time>2020-10-28T19:07:24Z</time>
</trkpt>
<trkpt lat="46.04543" lon="11.17065">
<time>2020-10-28T19:07:25Z</time>
</trkpt>
<trkpt lat="46.045424" lon="11.170652">
<time>2020-10-28T19:07:26Z</time>
</trkpt>
<trkpt lat="46.045414" lon="11.170655">
<time>2020-10-28T19:07:27Z</time>
</trkpt>
<trkpt lat="46.045405" lon="11.170657">
<time>2020-10-28T19:07:28Z</time>
</trkpt>
<trkpt lat="46.0454" lon="11.170665">
<time>2020-10-28T19:07:29Z</time>
</trkpt>
<trkpt lat="46.045393" lon="11.170674">
<time>2020-10-28T19:07:30Z</time>
</trkpt>
<trkpt lat="46.045393" lon="11.170683">
<time>2020-10-28T19:07:31Z</time>
</trkpt>
<trkpt lat="46.045387" lon="11.170698">
<time>2020-10-28T19:07:32Z</time>
</trkpt>
<trkpt lat="46.045383" lon="11.170725">
<time>2020-10-28T19:07:33Z</time>
</trkpt>
<trkpt lat="46.045382" lon="11.170749">
<time>2020-10-28T19:07:34Z</time>
</trkpt>
<trkpt lat="46.045386" lon="11.170772">
<time>2020-10-28T19:07:35Z</time>
</trkpt>
<trkpt lat="46.045385" lon="11.170788">
<time>2020-10-28T19:07:36Z</time>
</trkpt>
<trkpt lat="46.045384" lon="11.170803">
<time>2020-10-28T19:07:37Z</time>
</trkpt>
<trkpt lat="46.045382" lon="11.170809">
<time>2020-10-28T19:07:38Z</time>
</trkpt>
<trkpt lat="46.04538" lon="11.170816">
<time>2020-10-28T19:07:39Z</time>
</trkpt>
<trkpt lat="46.045375" lon="11.170825">
<time>2020-10-28T19:07:40Z</time>
</trkpt>
<trkpt lat="46.045374" lon="11.170837">
<time>2020-10-28T19:07:41Z</time>
</trkpt>
<trkpt lat="46.045368" lon="11.170851">
<time>2020-10-28T19:07:42Z</time>
</trkpt>
<trkpt lat="46.045356" lon="11.17086">
<time>2020-10-28T19:07:43Z</time>
</trkpt>
<trkpt lat="46.045342" lon="11.170863">
<time>2020-10-28T19:07:44Z</time>
</trkpt>
<trkpt lat="46.045328" lon="11.170871">
<time>2020-10-28T19:07:45Z</time>
</trkpt>
<trkpt lat="46.045314" lon="11.170878">
<time>2020-10-28T19:07:46Z</time>
</trkpt>
<trkpt lat="46.045302" lon="11.170886">
<time>2020-10-28T19:07:47Z</time>
</trkpt>
<trkpt lat="46.045287" lon="11.170893">
<time>2020-10-28T19:07:48Z</time>
</trkpt>
<trkpt lat="46.045274" lon="11.170901">
<time>2020-10-28T19:07:49Z</time>
</trkpt>
<trkpt lat="46.045267" lon="11.170911">
<time>2020-10-28T19:07:50Z</time>
</trkpt>
<trkpt lat="46.045262" lon="11.170928">
<time>2020-10-28T19:07:51Z</time>
</trkpt>
<trkpt lat="46.045256" lon="11.170941">
<time>2020-10-28T19:07:52Z</time>
</trkpt>
<trkpt lat="46.045254" lon="11.170957">
<time>2020-10-28T19:07:53Z</time>
</trkpt>
<trkpt lat="46.045253" lon="11.170972">
<time>2020-10-28T19:07:54Z</time>
</trkpt>
<trkpt lat="46.045257" lon="11.170986">
<time>2020-10-28T19:07:55Z</time>
</trkpt>
<trkpt lat="46.045257" lon="11.170998">
<time>2020-10-28T19:07:56Z</time>
</trkpt>
<trkpt lat="46.045258" lon="11.171014">
<time>2020-10-28T19:07:57Z</time>
</trkpt>
<trkpt lat="46.045262" lon="11.17104">
<time>2020-10-28T19:07:58Z</time>
</trkpt>
<trkpt lat="46.045266" lon="11.171077">
<time>2020-10-28T19:07:59Z</time>
</trkpt>
<trkpt lat="46.04527" lon="11.171101">
<time>2020-10-28T19:08:00Z</time>
</trkpt>
<trkpt lat="46.04528" lon="11.171124">
<time>2020-10-28T19:08:01Z</time>
</trkpt>
<trkpt lat="46.045298" lon="11.171146">
<time>2020-10-28T19:08:02Z</time>
</trkpt>
<trkpt lat="46.045306" lon="11.171167">
<time>2020-10-28T19:08:03Z</time>
</trkpt>
<trkpt lat="46.045318" lon="11.17119">
<time>2020-10-28T19:08:04Z</time>
</trkpt>
<trkpt lat="46.045327" lon="11.171206">
<time>2020-10-28T19:08:05Z</time>
</trkpt>
<trkpt lat="46.045333" lon="11.171219">
<time>2020-10-28T19:08:06Z</time>
</trkpt>
<trkpt lat="46.045336" lon="11.171235">
<time>2020-10-28T19:08:07Z</time>
</trkpt>
<trkpt lat="46.045333" lon="11.171248">
<time>2020-10-28T19:08:08Z</time>
</trkpt>
<trkpt lat="46.04533" lon="11.171258">
<time>2020-10-28T19:08:09Z</time>
</trkpt>
<trkpt lat="46.04533" lon="11.171273">
<time>2020-10-28T19:08:10Z</time>
</trkpt>
<trkpt lat="46.045328" lon="11.171294">
<time>2020-10-28T19:08:11Z</time>
</trkpt>
<trkpt lat="46.045329" lon="11.171323">
<time>2020-10-28T19:08:12Z</time>
</trkpt>
<trkpt lat="46.045343" lon="11.171352">
<time>2020-10-28T19:08:13Z</time>
</trkpt>
<trkpt lat="46.045346" lon="11.171371">
<time>2020-10-28T19:08:14Z</time>
</trkpt>
<trkpt lat="46.045353" lon="11.17139">
<time>2020-10-28T19:08:15Z</time>
</trkpt>
<trkpt lat="46.045356" lon="11.171408">
<time>2020-10-28T19:08:16Z</time>
</trkpt>
<trkpt lat="46.04536" lon="11.171425">
<time>2020-10-28T19:08:17Z</time>
</trkpt>
<trkpt lat="46.045364" lon="11.171445">
<time>2020-10-28T19:08:18Z</time>
</trkpt>
<trkpt lat="46.045366" lon="11.171452">
<time>2020-10-28T19:08:19Z</time>
</trkpt>
<trkpt lat="46.045371" lon="11.171463">
<time>2020-10-28T19:08:20Z</time>
</trkpt>
<trkpt lat="46.045378" lon="11.17148">
<time>2020-10-28T19:08:21Z</time>
</trkpt>
<trkpt lat="46.04538" lon="11.171498">
<time>2020-10-28T19:08:22Z</time>
</trkpt>
<trkpt lat="46.045381" lon="11.171515">
<time>2020-10-28T19:08:23Z</time>
</trkpt>
<trkpt lat="46.045386" lon="11.171529">
<time>2020-10-28T19:08:24Z</time>
</trkpt>
<trkpt lat="46.045389" lon="11.171551">
<time>2020-10-28T19:08:25Z</time>
</trkpt>
<trkpt lat="46.045396" lon="11.171562">
<time>2020-10-28T19:08:26Z</time>
</trkpt>
<trkpt lat="46.045403" lon="11.17157">
<time>2020-10-28T19:08:27Z</time>
</trkpt>
<trkpt lat="46.045413" lon="11.171577">
<time>2020-10-28T19:08:28Z</time>
</trkpt>
<trkpt lat="46.045425" lon="11.171584">
<time>2020-10-28T19:08:29Z</time>
</trkpt>
<trkpt lat="46.045438" lon="11.171592">
<time>2020-10-28T19:08:30Z</time>
</trkpt>
<trkpt lat="46.045454" lon="11.171606">
<time>2020-10-28T19:08:31Z</time>
</trkpt>
<trkpt lat="46.045459" lon="11.171621">
<time>2020-10-28T19:08:32Z</time>
</trkpt>
<trkpt lat="46.045458" lon="11.171639">
<time>2020-10-28T19:08:33Z</time>
</trkpt>
<trkpt lat="46.045456" lon="11.171659">
<time>2020-10-28T19:08:34Z</time>
</trkpt>
<trkpt lat="46.045459" lon="11.171682">
<time>2020-10-28T19:08:35Z</time>
</trkpt>
<trkpt lat="46.045454" lon="11.171702">
<time>2020-10-28T19:08:36Z</time>
</trkpt>
<trkpt lat="46.045456" lon="11.171718">
<time>2020-10-28T19:08:37Z</time>
</trkpt>
<trkpt lat="46.045455" lon="11.171732">
<time>2020-10-28T19:08:38Z</time>
</trkpt>
<trkpt lat="46.045461" lon="11.171745">
<time>2020-10-28T19:08:39Z</time>
</trkpt>
<trkpt lat="46.045468" lon="11.17176">
<time>2020-10-28T19:08:40Z</time>
</trkpt>
<trkpt lat="46.045473" lon="11.171775">
<time>2020-10-28T19:08:41Z</time>
</trkpt>
<trkpt lat="46.045481" lon="11.171794">
<time>2020-10-28T19:08:42Z</time>
</trkpt>
<trkpt lat="46.045488" lon="11.171815">
<time>2020-10-28T19:08:43Z</time>
</trkpt>
<trkpt lat="46.045493" lon="11.171844">
<time>2020-10-28T19:08:44Z</time>
</trkpt>
<trkpt lat="46.045503" lon="11.171849">
<time>2020-10-28T19:08:45Z</time>
</trkpt>
<trkpt lat="46.045509" lon="11.171869">
<time>2020-10-28T19:08:46Z</time>
</trkpt>
<trkpt lat="46.045509" lon="11.171879">
<time>2020-10-28T19:08:47Z</time>
</trkpt>
<trkpt lat="46.045505" lon="11.171877">
<time>2020-10-28T19:08:48Z</time>
</trkpt>
<trkpt lat="46.045501" lon="11.171877">
<time>2020-10-28T19:08:49Z</time>
</trkpt>
<trkpt lat="46.045495" lon="11.171873">
<time>2020-10-28T19:08:50Z</time>
</trkpt>
<trkpt lat="46.045489" lon="11.171869">
<time>2020-10-28T19:08:51Z</time>
</trkpt>
<trkpt lat="46.045482" lon="11.171866">
<time>2020-10-28T19:08:52Z</time>
</trkpt>
<trkpt lat="46.04547" lon="11.171863">
<time>2020-10-28T19:08:53Z</time>
</trkpt>
<trkpt lat="46.04546" lon="11.171854">
<time>2020-10-28T19:08:54Z</time>
</trkpt>
<trkpt lat="46.045443" lon="11.171842">
<time>2020-10-28T19:08:55Z</time>
</trkpt>
<trkpt lat="46.045422" lon="11.171829">
<time>2020-10-28T19:08:56Z</time>
</trkpt>
<trkpt lat="46.045404" lon="11.171818">
<time>2020-10-28T19:08:57Z</time>
</trkpt>
<trkpt lat="46.045393" lon="11.171807">
<time>2020-10-28T19:08:58Z</time>
</trkpt>
<trkpt lat="46.045381" lon="11.171795">
<time>2020-10-28T19:08:59Z</time>
</trkpt>
<trkpt lat="46.045366" lon="11.171787">
<time>2020-10-28T19:09:00Z</time>
</trkpt>
<trkpt lat="46.045345" lon="11.171777">
<time>2020-10-28T19:09:01Z</time>
</trkpt>
<trkpt lat="46.045323" lon="11.171769">
<time>2020-10-28T19:09:02Z</time>
</trkpt>
<trkpt lat="46.045293" lon="11.171754">
<time>2020-10-28T19:09:03Z</time>
</trkpt>
<trkpt lat="46.045265" lon="11.171735">
<time>2020-10-28T19:09:04Z</time>
</trkpt>
<trkpt lat="46.045243" lon="11.171716">
<time>2020-10-28T19:09:05Z</time>
</trkpt>
<trkpt lat="46.045228" lon="11.171704">
<time>2020-10-28T19:09:06Z</time>
</trkpt>
<trkpt lat="46.045215" lon="11.171703">
<time>2020-10-28T19:09:07Z</time>
</trkpt>
</trkseg>
<name>Luca</name>
</trk>
</gpx>